<?xml version="1.0" encoding="UTF-8"?>
<gpx version="1.1" creator="https://www.www-youtrack-es.amenigma.com" xsi:schemaLocation="http://www.topografix.com/GPX/1/1 http://www.topografix.com/GPX/1/1/gpx.xsd http://www.garmin.com/xmlschemas/GpxExtensions/v3 http://www.garmin.com/xmlschemas/GpxExtensionsv3.xsd http://www.garmin.com/xmlschemas/TrackPointExtension/v1 http://www.garmin.com/xmlschemas/TrackPointExtensionv1.xsd" xmlns:gpxtpx="http://www.garmin.com/xmlschemas/TrackPointExtension/v1" xmlns:gpxx="http://www.garmin.com/xmlschemas/GpxExtensions/v3" xmlns:xsi="http://www.w3.org/2001/XMLSchema-instance">
  <metadata>
    <link href="https://www.www-youtrack-es.amenigma.com">
      <text>YouTrack.es</text>
    </link>
    <time>2026-09-01T08:53:44Z</time>
  </metadata>
  <trk>
    <src>https://www.www-youtrack-es.amenigma.com</src>
    <link href="https://www.www-youtrack-es.amenigma.com/ruta/25377-xalo-agosto-2021">
      <text>YouTrack.es</text>
    </link>
    <trkseg>
      <trkpt lat="43.3524700" lon="-8.4089570">
        <ele>36.7</ele>
        <time>2021-08-29T05:50:56Z</time>
      </trkpt>
      <trkpt lat="43.3524300" lon="-8.4090180">
        <ele>36.7</ele>
        <time>2021-08-29T05:50:57Z</time>
      </trkpt>
      <trkpt lat="43.3522480" lon="-8.4092500">
        <ele>36.7</ele>
        <time>2021-08-29T05:51:01Z</time>
      </trkpt>
      <trkpt lat="43.3521220" lon="-8.4094510">
        <ele>36.6</ele>
        <time>2021-08-29T05:51:04Z</time>
      </trkpt>
      <trkpt lat="43.3520340" lon="-8.4095900">
        <ele>36.5</ele>
        <time>2021-08-29T05:51:06Z</time>
      </trkpt>
      <trkpt lat="43.3519320" lon="-8.4097140">
        <ele>36.6</ele>
        <time>2021-08-29T05:51:08Z</time>
      </trkpt>
      <trkpt lat="43.3517910" lon="-8.4099100">
        <ele>36.4</ele>
        <time>2021-08-29T05:51:11Z</time>
      </trkpt>
      <trkpt lat="43.3516310" lon="-8.4100410">
        <ele>36.2</ele>
        <time>2021-08-29T05:51:14Z</time>
      </trkpt>
      <trkpt lat="43.3515680" lon="-8.4100530">
        <ele>36.2</ele>
        <time>2021-08-29T05:51:15Z</time>
      </trkpt>
      <trkpt lat="43.3515180" lon="-8.4100370">
        <ele>36.1</ele>
        <time>2021-08-29T05:51:16Z</time>
      </trkpt>
      <trkpt lat="43.3514210" lon="-8.4099490">
        <ele>35.9</ele>
        <time>2021-08-29T05:51:18Z</time>
      </trkpt>
      <trkpt lat="43.3513720" lon="-8.4099110">
        <ele>35.7</ele>
        <time>2021-08-29T05:51:19Z</time>
      </trkpt>
      <trkpt lat="43.3512560" lon="-8.4098920">
        <ele>35.3</ele>
        <time>2021-08-29T05:51:21Z</time>
      </trkpt>
      <trkpt lat="43.3511140" lon="-8.4099540">
        <ele>34.6</ele>
        <time>2021-08-29T05:51:24Z</time>
      </trkpt>
      <trkpt lat="43.3510240" lon="-8.4099950">
        <ele>34.0</ele>
        <time>2021-08-29T05:51:26Z</time>
      </trkpt>
      <trkpt lat="43.3509680" lon="-8.4100260">
        <ele>33.6</ele>
        <time>2021-08-29T05:51:27Z</time>
      </trkpt>
      <trkpt lat="43.3507450" lon="-8.4101550">
        <ele>32.1</ele>
        <time>2021-08-29T05:51:30Z</time>
      </trkpt>
      <trkpt lat="43.3503970" lon="-8.4103360">
        <ele>28.4</ele>
        <time>2021-08-29T05:51:34Z</time>
      </trkpt>
      <trkpt lat="43.3500100" lon="-8.4105580">
        <ele>26.8</ele>
        <time>2021-08-29T05:51:39Z</time>
      </trkpt>
      <trkpt lat="43.3499270" lon="-8.4105970">
        <ele>25.7</ele>
        <time>2021-08-29T05:51:40Z</time>
      </trkpt>
      <trkpt lat="43.3497440" lon="-8.4106370">
        <ele>24.1</ele>
        <time>2021-08-29T05:51:42Z</time>
      </trkpt>
      <trkpt lat="43.3495600" lon="-8.4105900">
        <ele>22.1</ele>
        <time>2021-08-29T05:51:44Z</time>
      </trkpt>
      <trkpt lat="43.3494810" lon="-8.4105410">
        <ele>21.2</ele>
        <time>2021-08-29T05:51:45Z</time>
      </trkpt>
      <trkpt lat="43.3494080" lon="-8.4104650">
        <ele>20.5</ele>
        <time>2021-08-29T05:51:46Z</time>
      </trkpt>
      <trkpt lat="43.3492840" lon="-8.4102830">
        <ele>20.0</ele>
        <time>2021-08-29T05:51:48Z</time>
      </trkpt>
      <trkpt lat="43.3492520" lon="-8.4101880">
        <ele>19.9</ele>
        <time>2021-08-29T05:51:49Z</time>
      </trkpt>
      <trkpt lat="43.3492210" lon="-8.4100940">
        <ele>19.9</ele>
        <time>2021-08-29T05:51:50Z</time>
      </trkpt>
      <trkpt lat="43.3491890" lon="-8.4099990">
        <ele>19.9</ele>
        <time>2021-08-29T05:51:51Z</time>
      </trkpt>
      <trkpt lat="43.3491570" lon="-8.4099050">
        <ele>19.9</ele>
        <time>2021-08-29T05:51:53Z</time>
      </trkpt>
      <trkpt lat="43.3490930" lon="-8.4097160">
        <ele>19.9</ele>
        <time>2021-08-29T05:51:54Z</time>
      </trkpt>
      <trkpt lat="43.3490020" lon="-8.4096350">
        <ele>20.0</ele>
        <time>2021-08-29T05:51:56Z</time>
      </trkpt>
      <trkpt lat="43.3489550" lon="-8.4096150">
        <ele>20.0</ele>
        <time>2021-08-29T05:51:57Z</time>
      </trkpt>
      <trkpt lat="43.3489090" lon="-8.4096210">
        <ele>19.9</ele>
        <time>2021-08-29T05:51:58Z</time>
      </trkpt>
      <trkpt lat="43.3487440" lon="-8.4096600">
        <ele>19.8</ele>
        <time>2021-08-29T05:52:01Z</time>
      </trkpt>
      <trkpt lat="43.3486300" lon="-8.4096980">
        <ele>19.7</ele>
        <time>2021-08-29T05:52:03Z</time>
      </trkpt>
      <trkpt lat="43.3483920" lon="-8.4097760">
        <ele>19.6</ele>
        <time>2021-08-29T05:52:07Z</time>
      </trkpt>
      <trkpt lat="43.3482730" lon="-8.4098080">
        <ele>19.6</ele>
        <time>2021-08-29T05:52:09Z</time>
      </trkpt>
      <trkpt lat="43.3482160" lon="-8.4098140">
        <ele>19.6</ele>
        <time>2021-08-29T05:52:10Z</time>
      </trkpt>
      <trkpt lat="43.3480960" lon="-8.4098210">
        <ele>19.5</ele>
        <time>2021-08-29T05:52:12Z</time>
      </trkpt>
      <trkpt lat="43.3479760" lon="-8.4098350">
        <ele>19.6</ele>
        <time>2021-08-29T05:52:14Z</time>
      </trkpt>
      <trkpt lat="43.3475670" lon="-8.4099510">
        <ele>19.6</ele>
        <time>2021-08-29T05:52:21Z</time>
      </trkpt>
      <trkpt lat="43.3471700" lon="-8.4100590">
        <ele>19.7</ele>
        <time>2021-08-29T05:52:28Z</time>
      </trkpt>
      <trkpt lat="43.3469470" lon="-8.4101530">
        <ele>19.7</ele>
        <time>2021-08-29T05:52:32Z</time>
      </trkpt>
      <trkpt lat="43.3469010" lon="-8.4101970">
        <ele>19.7</ele>
        <time>2021-08-29T05:52:33Z</time>
      </trkpt>
      <trkpt lat="43.3468590" lon="-8.4102490">
        <ele>19.7</ele>
        <time>2021-08-29T05:52:34Z</time>
      </trkpt>
      <trkpt lat="43.3467060" lon="-8.4104740">
        <ele>19.7</ele>
        <time>2021-08-29T05:52:38Z</time>
      </trkpt>
      <trkpt lat="43.3465730" lon="-8.4107150">
        <ele>19.8</ele>
        <time>2021-08-29T05:52:42Z</time>
      </trkpt>
      <trkpt lat="43.3465380" lon="-8.4107820">
        <ele>19.8</ele>
        <time>2021-08-29T05:52:43Z</time>
      </trkpt>
      <trkpt lat="43.3465030" lon="-8.4108490">
        <ele>19.8</ele>
        <time>2021-08-29T05:52:44Z</time>
      </trkpt>
      <trkpt lat="43.3464730" lon="-8.4109170">
        <ele>19.8</ele>
        <time>2021-08-29T05:52:45Z</time>
      </trkpt>
      <trkpt lat="43.3463000" lon="-8.4112560">
        <ele>19.9</ele>
        <time>2021-08-29T05:52:50Z</time>
      </trkpt>
      <trkpt lat="43.3461110" lon="-8.4115800">
        <ele>19.9</ele>
        <time>2021-08-29T05:52:55Z</time>
      </trkpt>
      <trkpt lat="43.3460390" lon="-8.4117060">
        <ele>19.9</ele>
        <time>2021-08-29T05:52:57Z</time>
      </trkpt>
      <trkpt lat="43.3457710" lon="-8.4121450">
        <ele>20.0</ele>
        <time>2021-08-29T05:53:04Z</time>
      </trkpt>
      <trkpt lat="43.3456560" lon="-8.4123360">
        <ele>20.0</ele>
        <time>2021-08-29T05:53:07Z</time>
      </trkpt>
      <trkpt lat="43.3454690" lon="-8.4126670">
        <ele>19.8</ele>
        <time>2021-08-29T05:53:12Z</time>
      </trkpt>
      <trkpt lat="43.3453630" lon="-8.4128700">
        <ele>19.7</ele>
        <time>2021-08-29T05:53:15Z</time>
      </trkpt>
      <trkpt lat="43.3452950" lon="-8.4130160">
        <ele>19.6</ele>
        <time>2021-08-29T05:53:17Z</time>
      </trkpt>
      <trkpt lat="43.3452590" lon="-8.4130880">
        <ele>19.6</ele>
        <time>2021-08-29T05:53:18Z</time>
      </trkpt>
      <trkpt lat="43.3451830" lon="-8.4132190">
        <ele>19.5</ele>
        <time>2021-08-29T05:53:20Z</time>
      </trkpt>
      <trkpt lat="43.3451070" lon="-8.4133460">
        <ele>19.5</ele>
        <time>2021-08-29T05:53:22Z</time>
      </trkpt>
      <trkpt lat="43.3450640" lon="-8.4133960">
        <ele>19.5</ele>
        <time>2021-08-29T05:53:23Z</time>
      </trkpt>
      <trkpt lat="43.3450130" lon="-8.4134340">
        <ele>19.5</ele>
        <time>2021-08-29T05:53:24Z</time>
      </trkpt>
      <trkpt lat="43.3448940" lon="-8.4134730">
        <ele>19.6</ele>
        <time>2021-08-29T05:53:26Z</time>
      </trkpt>
      <trkpt lat="43.3447380" lon="-8.4135180">
        <ele>19.9</ele>
        <time>2021-08-29T05:53:29Z</time>
      </trkpt>
      <trkpt lat="43.3446500" lon="-8.4135260">
        <ele>20.1</ele>
        <time>2021-08-29T05:53:31Z</time>
      </trkpt>
      <trkpt lat="43.3445620" lon="-8.4135340">
        <ele>20.4</ele>
        <time>2021-08-29T05:53:33Z</time>
      </trkpt>
      <trkpt lat="43.3443830" lon="-8.4135600">
        <ele>20.8</ele>
        <time>2021-08-29T05:53:37Z</time>
      </trkpt>
      <trkpt lat="43.3441210" lon="-8.4135780">
        <ele>21.6</ele>
        <time>2021-08-29T05:53:43Z</time>
      </trkpt>
      <trkpt lat="43.3440430" lon="-8.4135680">
        <ele>22.2</ele>
        <time>2021-08-29T05:53:45Z</time>
      </trkpt>
      <trkpt lat="43.3439750" lon="-8.4135720">
        <ele>22.7</ele>
        <time>2021-08-29T05:53:47Z</time>
      </trkpt>
      <trkpt lat="43.3439190" lon="-8.4135940">
        <ele>23.1</ele>
        <time>2021-08-29T05:53:49Z</time>
      </trkpt>
      <trkpt lat="43.3438090" lon="-8.4137400">
        <ele>24.3</ele>
        <time>2021-08-29T05:53:53Z</time>
      </trkpt>
      <trkpt lat="43.3436040" lon="-8.4137810">
        <ele>25.5</ele>
        <time>2021-08-29T05:54:00Z</time>
      </trkpt>
      <trkpt lat="43.3434430" lon="-8.4138650">
        <ele>26.2</ele>
        <time>2021-08-29T05:54:06Z</time>
      </trkpt>
      <trkpt lat="43.3432860" lon="-8.4138980">
        <ele>26.9</ele>
        <time>2021-08-29T05:54:11Z</time>
      </trkpt>
      <trkpt lat="43.3432140" lon="-8.4139030">
        <ele>27.3</ele>
        <time>2021-08-29T05:54:13Z</time>
      </trkpt>
      <trkpt lat="43.3431350" lon="-8.4138940">
        <ele>27.7</ele>
        <time>2021-08-29T05:54:15Z</time>
      </trkpt>
      <trkpt lat="43.3429780" lon="-8.4140540">
        <ele>28.8</ele>
        <time>2021-08-29T05:54:20Z</time>
      </trkpt>
      <trkpt lat="43.3428820" lon="-8.4141180">
        <ele>29.3</ele>
        <time>2021-08-29T05:54:24Z</time>
      </trkpt>
      <trkpt lat="43.3428230" lon="-8.4141530">
        <ele>29.8</ele>
        <time>2021-08-29T05:54:26Z</time>
      </trkpt>
      <trkpt lat="43.3427940" lon="-8.4141640">
        <ele>30.0</ele>
        <time>2021-08-29T05:54:27Z</time>
      </trkpt>
      <trkpt lat="43.3426520" lon="-8.4143150">
        <ele>31.4</ele>
        <time>2021-08-29T05:54:33Z</time>
      </trkpt>
      <trkpt lat="43.3425760" lon="-8.4143310">
        <ele>31.6</ele>
        <time>2021-08-29T05:54:36Z</time>
      </trkpt>
      <trkpt lat="43.3424860" lon="-8.4143590">
        <ele>31.8</ele>
        <time>2021-08-29T05:54:39Z</time>
      </trkpt>
      <trkpt lat="43.3422810" lon="-8.4144730">
        <ele>32.4</ele>
        <time>2021-08-29T05:54:46Z</time>
      </trkpt>
      <trkpt lat="43.3420580" lon="-8.4145210">
        <ele>33.2</ele>
        <time>2021-08-29T05:54:53Z</time>
      </trkpt>
      <trkpt lat="43.3419780" lon="-8.4145200">
        <ele>33.4</ele>
        <time>2021-08-29T05:54:56Z</time>
      </trkpt>
      <trkpt lat="43.3419020" lon="-8.4145020">
        <ele>33.6</ele>
        <time>2021-08-29T05:54:59Z</time>
      </trkpt>
      <trkpt lat="43.3418580" lon="-8.4144590">
        <ele>33.8</ele>
        <time>2021-08-29T05:55:01Z</time>
      </trkpt>
      <trkpt lat="43.3417560" lon="-8.4143680">
        <ele>34.1</ele>
        <time>2021-08-29T05:55:05Z</time>
      </trkpt>
      <trkpt lat="43.3415390" lon="-8.4142920">
        <ele>34.3</ele>
        <time>2021-08-29T05:55:11Z</time>
      </trkpt>
      <trkpt lat="43.3412560" lon="-8.4141430">
        <ele>33.7</ele>
        <time>2021-08-29T05:55:17Z</time>
      </trkpt>
      <trkpt lat="43.3411600" lon="-8.4140470">
        <ele>33.1</ele>
        <time>2021-08-29T05:55:19Z</time>
      </trkpt>
      <trkpt lat="43.3410740" lon="-8.4139250">
        <ele>32.4</ele>
        <time>2021-08-29T05:55:21Z</time>
      </trkpt>
      <trkpt lat="43.3407490" lon="-8.4135370">
        <ele>30.1</ele>
        <time>2021-08-29T05:55:27Z</time>
      </trkpt>
      <trkpt lat="43.3405730" lon="-8.4133440">
        <ele>28.7</ele>
        <time>2021-08-29T05:55:30Z</time>
      </trkpt>
      <trkpt lat="43.3402570" lon="-8.4130760">
        <ele>27.1</ele>
        <time>2021-08-29T05:55:35Z</time>
      </trkpt>
      <trkpt lat="43.3400860" lon="-8.4130730">
        <ele>25.7</ele>
        <time>2021-08-29T05:55:37Z</time>
      </trkpt>
      <trkpt lat="43.3400190" lon="-8.4130880">
        <ele>25.2</ele>
        <time>2021-08-29T05:55:38Z</time>
      </trkpt>
      <trkpt lat="43.3398580" lon="-8.4131520">
        <ele>23.9</ele>
        <time>2021-08-29T05:55:40Z</time>
      </trkpt>
      <trkpt lat="43.3396970" lon="-8.4132700">
        <ele>22.4</ele>
        <time>2021-08-29T05:55:42Z</time>
      </trkpt>
      <trkpt lat="43.3393430" lon="-8.4135340">
        <ele>20.2</ele>
        <time>2021-08-29T05:55:46Z</time>
      </trkpt>
      <trkpt lat="43.3391700" lon="-8.4135930">
        <ele>19.9</ele>
        <time>2021-08-29T05:55:48Z</time>
      </trkpt>
      <trkpt lat="43.3389220" lon="-8.4136620">
        <ele>20.0</ele>
        <time>2021-08-29T05:55:51Z</time>
      </trkpt>
      <trkpt lat="43.3386930" lon="-8.4137190">
        <ele>20.6</ele>
        <time>2021-08-29T05:55:54Z</time>
      </trkpt>
      <trkpt lat="43.3385710" lon="-8.4137640">
        <ele>21.1</ele>
        <time>2021-08-29T05:55:56Z</time>
      </trkpt>
      <trkpt lat="43.3384710" lon="-8.4138300">
        <ele>21.6</ele>
        <time>2021-08-29T05:55:58Z</time>
      </trkpt>
      <trkpt lat="43.3383920" lon="-8.4139160">
        <ele>22.4</ele>
        <time>2021-08-29T05:56:00Z</time>
      </trkpt>
      <trkpt lat="43.3383370" lon="-8.4140200">
        <ele>23.1</ele>
        <time>2021-08-29T05:56:02Z</time>
      </trkpt>
      <trkpt lat="43.3382530" lon="-8.4142430">
        <ele>24.6</ele>
        <time>2021-08-29T05:56:06Z</time>
      </trkpt>
      <trkpt lat="43.3382150" lon="-8.4143530">
        <ele>25.3</ele>
        <time>2021-08-29T05:56:08Z</time>
      </trkpt>
      <trkpt lat="43.3381230" lon="-8.4145530">
        <ele>26.5</ele>
        <time>2021-08-29T05:56:12Z</time>
      </trkpt>
      <trkpt lat="43.3380490" lon="-8.4146090">
        <ele>27.0</ele>
        <time>2021-08-29T05:56:14Z</time>
      </trkpt>
      <trkpt lat="43.3380070" lon="-8.4146280">
        <ele>27.2</ele>
        <time>2021-08-29T05:56:15Z</time>
      </trkpt>
      <trkpt lat="43.3378750" lon="-8.4146820">
        <ele>27.9</ele>
        <time>2021-08-29T05:56:18Z</time>
      </trkpt>
      <trkpt lat="43.3377000" lon="-8.4147360">
        <ele>28.8</ele>
        <time>2021-08-29T05:56:22Z</time>
      </trkpt>
      <trkpt lat="43.3375460" lon="-8.4148010">
        <ele>29.4</ele>
        <time>2021-08-29T05:56:26Z</time>
      </trkpt>
      <trkpt lat="43.3374770" lon="-8.4147900">
        <ele>29.8</ele>
        <time>2021-08-29T05:56:28Z</time>
      </trkpt>
      <trkpt lat="43.3373630" lon="-8.4147150">
        <ele>29.8</ele>
        <time>2021-08-29T05:56:31Z</time>
      </trkpt>
      <trkpt lat="43.3373260" lon="-8.4146820">
        <ele>29.8</ele>
        <time>2021-08-29T05:56:32Z</time>
      </trkpt>
      <trkpt lat="43.3372920" lon="-8.4146450">
        <ele>29.8</ele>
        <time>2021-08-29T05:56:33Z</time>
      </trkpt>
      <trkpt lat="43.3371950" lon="-8.4145330">
        <ele>29.9</ele>
        <time>2021-08-29T05:56:36Z</time>
      </trkpt>
      <trkpt lat="43.3371320" lon="-8.4144500">
        <ele>29.9</ele>
        <time>2021-08-29T05:56:38Z</time>
      </trkpt>
      <trkpt lat="43.3370990" lon="-8.4144100">
        <ele>29.9</ele>
        <time>2021-08-29T05:56:39Z</time>
      </trkpt>
      <trkpt lat="43.3368810" lon="-8.4140910">
        <ele>30.0</ele>
        <time>2021-08-29T05:56:46Z</time>
      </trkpt>
      <trkpt lat="43.3367920" lon="-8.4139520">
        <ele>30.0</ele>
        <time>2021-08-29T05:56:49Z</time>
      </trkpt>
      <trkpt lat="43.3366950" lon="-8.4138050">
        <ele>30.2</ele>
        <time>2021-08-29T05:56:52Z</time>
      </trkpt>
      <trkpt lat="43.3365890" lon="-8.4136880">
        <ele>30.3</ele>
        <time>2021-08-29T05:56:55Z</time>
      </trkpt>
      <trkpt lat="43.3365450" lon="-8.4136590">
        <ele>30.3</ele>
        <time>2021-08-29T05:56:56Z</time>
      </trkpt>
      <trkpt lat="43.3364530" lon="-8.4136180">
        <ele>30.5</ele>
        <time>2021-08-29T05:56:58Z</time>
      </trkpt>
      <trkpt lat="43.3362340" lon="-8.4135200">
        <ele>30.7</ele>
        <time>2021-08-29T05:57:03Z</time>
      </trkpt>
      <trkpt lat="43.3362340" lon="-8.4135200">
        <ele>30.7</ele>
        <time>2021-08-29T05:57:07Z</time>
      </trkpt>
      <trkpt lat="43.3360640" lon="-8.4134370">
        <ele>30.8</ele>
        <time>2021-08-29T05:57:09Z</time>
      </trkpt>
      <trkpt lat="43.3358950" lon="-8.4133530">
        <ele>30.9</ele>
        <time>2021-08-29T05:57:13Z</time>
      </trkpt>
      <trkpt lat="43.3357250" lon="-8.4132700">
        <ele>31.0</ele>
        <time>2021-08-29T05:57:16Z</time>
      </trkpt>
      <trkpt lat="43.3355560" lon="-8.4132760">
        <ele>31.1</ele>
        <time>2021-08-29T05:57:19Z</time>
      </trkpt>
      <trkpt lat="43.3355170" lon="-8.4132690">
        <ele>31.2</ele>
        <time>2021-08-29T05:57:20Z</time>
      </trkpt>
      <trkpt lat="43.3354000" lon="-8.4133030">
        <ele>31.5</ele>
        <time>2021-08-29T05:57:23Z</time>
      </trkpt>
      <trkpt lat="43.3353810" lon="-8.4133090">
        <ele>31.6</ele>
        <time>2021-08-29T05:57:24Z</time>
      </trkpt>
      <trkpt lat="43.3353620" lon="-8.4133150">
        <ele>31.6</ele>
        <time>2021-08-29T05:57:27Z</time>
      </trkpt>
      <trkpt lat="43.3353430" lon="-8.4133210">
        <ele>31.7</ele>
        <time>2021-08-29T05:57:28Z</time>
      </trkpt>
      <trkpt lat="43.3353230" lon="-8.4133260">
        <ele>31.7</ele>
        <time>2021-08-29T05:57:29Z</time>
      </trkpt>
      <trkpt lat="43.3353040" lon="-8.4133320">
        <ele>31.8</ele>
        <time>2021-08-29T05:57:30Z</time>
      </trkpt>
      <trkpt lat="43.3352850" lon="-8.4133380">
        <ele>31.8</ele>
        <time>2021-08-29T05:57:32Z</time>
      </trkpt>
      <trkpt lat="43.3352660" lon="-8.4133440">
        <ele>31.9</ele>
        <time>2021-08-29T05:57:33Z</time>
      </trkpt>
      <trkpt lat="43.3349970" lon="-8.4134250">
        <ele>34.0</ele>
        <time>2021-08-29T05:57:35Z</time>
      </trkpt>
      <trkpt lat="43.3348540" lon="-8.4135730">
        <ele>35.9</ele>
        <time>2021-08-29T05:57:42Z</time>
      </trkpt>
      <trkpt lat="43.3347400" lon="-8.4137900">
        <ele>37.5</ele>
        <time>2021-08-29T05:57:50Z</time>
      </trkpt>
      <trkpt lat="43.3346410" lon="-8.4139670">
        <ele>38.4</ele>
        <time>2021-08-29T05:57:56Z</time>
      </trkpt>
      <trkpt lat="43.3346100" lon="-8.4140260">
        <ele>38.6</ele>
        <time>2021-08-29T05:57:58Z</time>
      </trkpt>
      <trkpt lat="43.3345820" lon="-8.4140840">
        <ele>38.7</ele>
        <time>2021-08-29T05:58:00Z</time>
      </trkpt>
      <trkpt lat="43.3345390" lon="-8.4141730">
        <ele>39.0</ele>
        <time>2021-08-29T05:58:03Z</time>
      </trkpt>
      <trkpt lat="43.3344640" lon="-8.4142670">
        <ele>39.4</ele>
        <time>2021-08-29T05:58:07Z</time>
      </trkpt>
      <trkpt lat="43.3344460" lon="-8.4142730">
        <ele>39.5</ele>
        <time>2021-08-29T05:58:08Z</time>
      </trkpt>
      <trkpt lat="43.3342830" lon="-8.4142790">
        <ele>39.6</ele>
        <time>2021-08-29T05:58:14Z</time>
      </trkpt>
      <trkpt lat="43.3341780" lon="-8.4142800">
        <ele>40.0</ele>
        <time>2021-08-29T05:58:18Z</time>
      </trkpt>
      <trkpt lat="43.3341060" lon="-8.4142350">
        <ele>40.1</ele>
        <time>2021-08-29T05:58:21Z</time>
      </trkpt>
      <trkpt lat="43.3339970" lon="-8.4141670">
        <ele>40.8</ele>
        <time>2021-08-29T05:58:25Z</time>
      </trkpt>
      <trkpt lat="43.3339690" lon="-8.4141760">
        <ele>41.5</ele>
        <time>2021-08-29T05:58:26Z</time>
      </trkpt>
      <trkpt lat="43.3339260" lon="-8.4141910">
        <ele>42.4</ele>
        <time>2021-08-29T05:58:28Z</time>
      </trkpt>
      <trkpt lat="43.3338910" lon="-8.4141550">
        <ele>42.4</ele>
        <time>2021-08-29T05:58:30Z</time>
      </trkpt>
      <trkpt lat="43.3337110" lon="-8.4139340">
        <ele>42.5</ele>
        <time>2021-08-29T05:58:38Z</time>
      </trkpt>
      <trkpt lat="43.3335800" lon="-8.4138000">
        <ele>42.5</ele>
        <time>2021-08-29T05:58:43Z</time>
      </trkpt>
      <trkpt lat="43.3335510" lon="-8.4137990">
        <ele>42.5</ele>
        <time>2021-08-29T05:58:44Z</time>
      </trkpt>
      <trkpt lat="43.3334300" lon="-8.4139270">
        <ele>43.6</ele>
        <time>2021-08-29T05:58:49Z</time>
      </trkpt>
      <trkpt lat="43.3333660" lon="-8.4140430">
        <ele>45.3</ele>
        <time>2021-08-29T05:58:54Z</time>
      </trkpt>
      <trkpt lat="43.3333220" lon="-8.4141060">
        <ele>46.5</ele>
        <time>2021-08-29T05:58:57Z</time>
      </trkpt>
      <trkpt lat="43.3332950" lon="-8.4141460">
        <ele>47.2</ele>
        <time>2021-08-29T05:58:59Z</time>
      </trkpt>
      <trkpt lat="43.3332060" lon="-8.4143000">
        <ele>49.8</ele>
        <time>2021-08-29T05:59:06Z</time>
      </trkpt>
      <trkpt lat="43.3331650" lon="-8.4143700">
        <ele>50.5</ele>
        <time>2021-08-29T05:59:10Z</time>
      </trkpt>
      <trkpt lat="43.3331290" lon="-8.4144230">
        <ele>50.7</ele>
        <time>2021-08-29T05:59:12Z</time>
      </trkpt>
      <trkpt lat="43.3330730" lon="-8.4145170">
        <ele>51.0</ele>
        <time>2021-08-29T05:59:16Z</time>
      </trkpt>
      <trkpt lat="43.3330310" lon="-8.4145890">
        <ele>51.3</ele>
        <time>2021-08-29T05:59:19Z</time>
      </trkpt>
      <trkpt lat="43.3330250" lon="-8.4146170">
        <ele>51.4</ele>
        <time>2021-08-29T05:59:20Z</time>
      </trkpt>
      <trkpt lat="43.3330270" lon="-8.4147020">
        <ele>51.7</ele>
        <time>2021-08-29T05:59:23Z</time>
      </trkpt>
      <trkpt lat="43.3330550" lon="-8.4147410">
        <ele>51.8</ele>
        <time>2021-08-29T05:59:25Z</time>
      </trkpt>
      <trkpt lat="43.3331730" lon="-8.4148920">
        <ele>52.0</ele>
        <time>2021-08-29T05:59:31Z</time>
      </trkpt>
      <trkpt lat="43.3332660" lon="-8.4150090">
        <ele>52.1</ele>
        <time>2021-08-29T05:59:36Z</time>
      </trkpt>
      <trkpt lat="43.3332820" lon="-8.4150380">
        <ele>52.2</ele>
        <time>2021-08-29T05:59:37Z</time>
      </trkpt>
      <trkpt lat="43.3333900" lon="-8.4151870">
        <ele>52.4</ele>
        <time>2021-08-29T05:59:43Z</time>
      </trkpt>
      <trkpt lat="43.3333920" lon="-8.4152120">
        <ele>57.1</ele>
        <time>2021-08-29T05:59:44Z</time>
      </trkpt>
      <trkpt lat="43.3333390" lon="-8.4152270">
        <ele>57.0</ele>
        <time>2021-08-29T05:59:47Z</time>
      </trkpt>
      <trkpt lat="43.3333260" lon="-8.4152200">
        <ele>57.0</ele>
        <time>2021-08-29T05:59:48Z</time>
      </trkpt>
      <trkpt lat="43.3332790" lon="-8.4151530">
        <ele>56.9</ele>
        <time>2021-08-29T05:59:52Z</time>
      </trkpt>
      <trkpt lat="43.3331780" lon="-8.4150550">
        <ele>56.9</ele>
        <time>2021-08-29T05:59:58Z</time>
      </trkpt>
      <trkpt lat="43.3331340" lon="-8.4150440">
        <ele>57.0</ele>
        <time>2021-08-29T06:00:01Z</time>
      </trkpt>
      <trkpt lat="43.3331180" lon="-8.4150580">
        <ele>57.1</ele>
        <time>2021-08-29T06:00:02Z</time>
      </trkpt>
      <trkpt lat="43.3330390" lon="-8.4151630">
        <ele>57.6</ele>
        <time>2021-08-29T06:00:08Z</time>
      </trkpt>
      <trkpt lat="43.3330090" lon="-8.4152450">
        <ele>58.1</ele>
        <time>2021-08-29T06:00:13Z</time>
      </trkpt>
      <trkpt lat="43.3330560" lon="-8.4153620">
        <ele>59.4</ele>
        <time>2021-08-29T06:00:18Z</time>
      </trkpt>
      <trkpt lat="43.3331410" lon="-8.4154930">
        <ele>60.3</ele>
        <time>2021-08-29T06:00:24Z</time>
      </trkpt>
      <trkpt lat="43.3331470" lon="-8.4155200">
        <ele>60.4</ele>
        <time>2021-08-29T06:00:25Z</time>
      </trkpt>
      <trkpt lat="43.3331500" lon="-8.4155720">
        <ele>60.5</ele>
        <time>2021-08-29T06:00:27Z</time>
      </trkpt>
      <trkpt lat="43.3331420" lon="-8.4155890">
        <ele>60.6</ele>
        <time>2021-08-29T06:00:29Z</time>
      </trkpt>
      <trkpt lat="43.3330280" lon="-8.4155600">
        <ele>61.6</ele>
        <time>2021-08-29T06:00:35Z</time>
      </trkpt>
      <trkpt lat="43.3328600" lon="-8.4155800">
        <ele>63.8</ele>
        <time>2021-08-29T06:00:44Z</time>
      </trkpt>
      <trkpt lat="43.3327410" lon="-8.4155450">
        <ele>65.8</ele>
        <time>2021-08-29T06:00:51Z</time>
      </trkpt>
      <trkpt lat="43.3326910" lon="-8.4156460">
        <ele>67.0</ele>
        <time>2021-08-29T06:00:56Z</time>
      </trkpt>
      <trkpt lat="43.3326900" lon="-8.4156650">
        <ele>67.2</ele>
        <time>2021-08-29T06:00:57Z</time>
      </trkpt>
      <trkpt lat="43.3326920" lon="-8.4157730">
        <ele>68.3</ele>
        <time>2021-08-29T06:01:02Z</time>
      </trkpt>
      <trkpt lat="43.3326550" lon="-8.4159390">
        <ele>70.0</ele>
        <time>2021-08-29T06:01:09Z</time>
      </trkpt>
      <trkpt lat="43.3325560" lon="-8.4161080">
        <ele>72.1</ele>
        <time>2021-08-29T06:01:18Z</time>
      </trkpt>
      <trkpt lat="43.3324350" lon="-8.4161110">
        <ele>73.4</ele>
        <time>2021-08-29T06:01:24Z</time>
      </trkpt>
      <trkpt lat="43.3322460" lon="-8.4161520">
        <ele>75.1</ele>
        <time>2021-08-29T06:01:34Z</time>
      </trkpt>
      <trkpt lat="43.3321320" lon="-8.4160780">
        <ele>75.4</ele>
        <time>2021-08-29T06:01:41Z</time>
      </trkpt>
      <trkpt lat="43.3320270" lon="-8.4159260">
        <ele>75.4</ele>
        <time>2021-08-29T06:01:46Z</time>
      </trkpt>
      <trkpt lat="43.3318590" lon="-8.4157240">
        <ele>75.0</ele>
        <time>2021-08-29T06:01:53Z</time>
      </trkpt>
      <trkpt lat="43.3317310" lon="-8.4155830">
        <ele>74.5</ele>
        <time>2021-08-29T06:01:57Z</time>
      </trkpt>
      <trkpt lat="43.3316680" lon="-8.4154970">
        <ele>74.3</ele>
        <time>2021-08-29T06:01:59Z</time>
      </trkpt>
      <trkpt lat="43.3315990" lon="-8.4154050">
        <ele>74.1</ele>
        <time>2021-08-29T06:02:01Z</time>
      </trkpt>
      <trkpt lat="43.3315090" lon="-8.4152860">
        <ele>73.9</ele>
        <time>2021-08-29T06:02:04Z</time>
      </trkpt>
      <trkpt lat="43.3313660" lon="-8.4150930">
        <ele>73.8</ele>
        <time>2021-08-29T06:02:08Z</time>
      </trkpt>
      <trkpt lat="43.3312450" lon="-8.4149640">
        <ele>73.8</ele>
        <time>2021-08-29T06:02:11Z</time>
      </trkpt>
      <trkpt lat="43.3310890" lon="-8.4147400">
        <ele>74.1</ele>
        <time>2021-08-29T06:02:16Z</time>
      </trkpt>
      <trkpt lat="43.3310580" lon="-8.4147080">
        <ele>74.2</ele>
        <time>2021-08-29T06:02:17Z</time>
      </trkpt>
      <trkpt lat="43.3310210" lon="-8.4146820">
        <ele>74.4</ele>
        <time>2021-08-29T06:02:18Z</time>
      </trkpt>
      <trkpt lat="43.3309110" lon="-8.4146360">
        <ele>74.8</ele>
        <time>2021-08-29T06:02:21Z</time>
      </trkpt>
      <trkpt lat="43.3307440" lon="-8.4146250">
        <ele>76.0</ele>
        <time>2021-08-29T06:02:26Z</time>
      </trkpt>
      <trkpt lat="43.3306840" lon="-8.4146610">
        <ele>76.5</ele>
        <time>2021-08-29T06:02:28Z</time>
      </trkpt>
      <trkpt lat="43.3305660" lon="-8.4147760">
        <ele>77.9</ele>
        <time>2021-08-29T06:02:33Z</time>
      </trkpt>
      <trkpt lat="43.3304590" lon="-8.4148450">
        <ele>79.1</ele>
        <time>2021-08-29T06:02:39Z</time>
      </trkpt>
      <trkpt lat="43.3303370" lon="-8.4148200">
        <ele>80.3</ele>
        <time>2021-08-29T06:02:45Z</time>
      </trkpt>
      <trkpt lat="43.3303140" lon="-8.4147990">
        <ele>80.5</ele>
        <time>2021-08-29T06:02:46Z</time>
      </trkpt>
      <trkpt lat="43.3301720" lon="-8.4147370">
        <ele>81.3</ele>
        <time>2021-08-29T06:02:51Z</time>
      </trkpt>
      <trkpt lat="43.3300900" lon="-8.4146720">
        <ele>81.7</ele>
        <time>2021-08-29T06:02:55Z</time>
      </trkpt>
      <trkpt lat="43.3300210" lon="-8.4145880">
        <ele>81.9</ele>
        <time>2021-08-29T06:02:59Z</time>
      </trkpt>
      <trkpt lat="43.3298170" lon="-8.4144400">
        <ele>82.4</ele>
        <time>2021-08-29T06:03:06Z</time>
      </trkpt>
      <trkpt lat="43.3296630" lon="-8.4144490">
        <ele>83.2</ele>
        <time>2021-08-29T06:03:11Z</time>
      </trkpt>
      <trkpt lat="43.3295530" lon="-8.4144090">
        <ele>84.0</ele>
        <time>2021-08-29T06:03:15Z</time>
      </trkpt>
      <trkpt lat="43.3293590" lon="-8.4143390">
        <ele>85.5</ele>
        <time>2021-08-29T06:03:22Z</time>
      </trkpt>
      <trkpt lat="43.3291940" lon="-8.4143680">
        <ele>86.3</ele>
        <time>2021-08-29T06:03:28Z</time>
      </trkpt>
      <trkpt lat="43.3290100" lon="-8.4143290">
        <ele>86.7</ele>
        <time>2021-08-29T06:03:33Z</time>
      </trkpt>
      <trkpt lat="43.3286830" lon="-8.4142480">
        <ele>87.1</ele>
        <time>2021-08-29T06:03:42Z</time>
      </trkpt>
      <trkpt lat="43.3284630" lon="-8.4140960">
        <ele>87.4</ele>
        <time>2021-08-29T06:03:48Z</time>
      </trkpt>
      <trkpt lat="43.3282010" lon="-8.4139830">
        <ele>87.9</ele>
        <time>2021-08-29T06:03:56Z</time>
      </trkpt>
      <trkpt lat="43.3281250" lon="-8.4139500">
        <ele>87.4</ele>
        <time>2021-08-29T06:03:58Z</time>
      </trkpt>
      <trkpt lat="43.3280800" lon="-8.4139300">
        <ele>86.9</ele>
        <time>2021-08-29T06:03:59Z</time>
      </trkpt>
      <trkpt lat="43.3280360" lon="-8.4139010">
        <ele>86.4</ele>
        <time>2021-08-29T06:04:00Z</time>
      </trkpt>
      <trkpt lat="43.3279830" lon="-8.4138660">
        <ele>85.8</ele>
        <time>2021-08-29T06:04:01Z</time>
      </trkpt>
      <trkpt lat="43.3279270" lon="-8.4138190">
        <ele>85.2</ele>
        <time>2021-08-29T06:04:02Z</time>
      </trkpt>
      <trkpt lat="43.3278340" lon="-8.4136810">
        <ele>84.2</ele>
        <time>2021-08-29T06:04:04Z</time>
      </trkpt>
      <trkpt lat="43.3277760" lon="-8.4135140">
        <ele>83.3</ele>
        <time>2021-08-29T06:04:06Z</time>
      </trkpt>
      <trkpt lat="43.3277600" lon="-8.4133600">
        <ele>82.5</ele>
        <time>2021-08-29T06:04:08Z</time>
      </trkpt>
      <trkpt lat="43.3277430" lon="-8.4132420">
        <ele>81.9</ele>
        <time>2021-08-29T06:04:10Z</time>
      </trkpt>
      <trkpt lat="43.3277190" lon="-8.4132050">
        <ele>82.3</ele>
        <time>2021-08-29T06:04:11Z</time>
      </trkpt>
      <trkpt lat="43.3276610" lon="-8.4131840">
        <ele>83.1</ele>
        <time>2021-08-29T06:04:13Z</time>
      </trkpt>
      <trkpt lat="43.3276390" lon="-8.4131780">
        <ele>83.4</ele>
        <time>2021-08-29T06:04:14Z</time>
      </trkpt>
      <trkpt lat="43.3275960" lon="-8.4131840">
        <ele>84.0</ele>
        <time>2021-08-29T06:04:16Z</time>
      </trkpt>
      <trkpt lat="43.3275270" lon="-8.4131810">
        <ele>85.0</ele>
        <time>2021-08-29T06:04:19Z</time>
      </trkpt>
      <trkpt lat="43.3273820" lon="-8.4131460">
        <ele>87.0</ele>
        <time>2021-08-29T06:04:26Z</time>
      </trkpt>
      <trkpt lat="43.3272880" lon="-8.4131020">
        <ele>88.4</ele>
        <time>2021-08-29T06:04:31Z</time>
      </trkpt>
      <trkpt lat="43.3272350" lon="-8.4130690">
        <ele>89.3</ele>
        <time>2021-08-29T06:04:34Z</time>
      </trkpt>
      <trkpt lat="43.3271050" lon="-8.4130000">
        <ele>91.2</ele>
        <time>2021-08-29T06:04:41Z</time>
      </trkpt>
      <trkpt lat="43.3269800" lon="-8.4128900">
        <ele>93.3</ele>
        <time>2021-08-29T06:04:49Z</time>
      </trkpt>
      <trkpt lat="43.3268720" lon="-8.4127800">
        <ele>95.2</ele>
        <time>2021-08-29T06:04:57Z</time>
      </trkpt>
      <trkpt lat="43.3267630" lon="-8.4125900">
        <ele>97.7</ele>
        <time>2021-08-29T06:05:07Z</time>
      </trkpt>
      <trkpt lat="43.3267330" lon="-8.4125290">
        <ele>98.4</ele>
        <time>2021-08-29T06:05:10Z</time>
      </trkpt>
      <trkpt lat="43.3266840" lon="-8.4124570">
        <ele>99.4</ele>
        <time>2021-08-29T06:05:14Z</time>
      </trkpt>
      <trkpt lat="43.3266260" lon="-8.4123560">
        <ele>100.6</ele>
        <time>2021-08-29T06:05:19Z</time>
      </trkpt>
      <trkpt lat="43.3265930" lon="-8.4122960">
        <ele>101.4</ele>
        <time>2021-08-29T06:05:22Z</time>
      </trkpt>
      <trkpt lat="43.3265420" lon="-8.4121650">
        <ele>102.8</ele>
        <time>2021-08-29T06:05:28Z</time>
      </trkpt>
      <trkpt lat="43.3265080" lon="-8.4120110">
        <ele>104.3</ele>
        <time>2021-08-29T06:05:35Z</time>
      </trkpt>
      <trkpt lat="43.3264870" lon="-8.4119460">
        <ele>105.0</ele>
        <time>2021-08-29T06:05:38Z</time>
      </trkpt>
      <trkpt lat="43.3264630" lon="-8.4118330">
        <ele>106.0</ele>
        <time>2021-08-29T06:05:43Z</time>
      </trkpt>
      <trkpt lat="43.3264530" lon="-8.4116580">
        <ele>107.4</ele>
        <time>2021-08-29T06:05:50Z</time>
      </trkpt>
      <trkpt lat="43.3264430" lon="-8.4115540">
        <ele>108.2</ele>
        <time>2021-08-29T06:05:54Z</time>
      </trkpt>
      <trkpt lat="43.3264350" lon="-8.4114220">
        <ele>109.2</ele>
        <time>2021-08-29T06:05:59Z</time>
      </trkpt>
      <trkpt lat="43.3264360" lon="-8.4112670">
        <ele>110.2</ele>
        <time>2021-08-29T06:06:05Z</time>
      </trkpt>
      <trkpt lat="43.3264400" lon="-8.4112140">
        <ele>110.5</ele>
        <time>2021-08-29T06:06:07Z</time>
      </trkpt>
      <trkpt lat="43.3264430" lon="-8.4110420">
        <ele>111.1</ele>
        <time>2021-08-29T06:06:14Z</time>
      </trkpt>
      <trkpt lat="43.3264380" lon="-8.4109060">
        <ele>111.6</ele>
        <time>2021-08-29T06:06:19Z</time>
      </trkpt>
      <trkpt lat="43.3264230" lon="-8.4108940">
        <ele>112.2</ele>
        <time>2021-08-29T06:06:20Z</time>
      </trkpt>
      <trkpt lat="43.3264040" lon="-8.4108910">
        <ele>112.5</ele>
        <time>2021-08-29T06:06:21Z</time>
      </trkpt>
      <trkpt lat="43.3263550" lon="-8.4109410">
        <ele>113.1</ele>
        <time>2021-08-29T06:06:24Z</time>
      </trkpt>
      <trkpt lat="43.3262550" lon="-8.4109870">
        <ele>114.4</ele>
        <time>2021-08-29T06:06:30Z</time>
      </trkpt>
      <trkpt lat="43.3261470" lon="-8.4110930">
        <ele>116.0</ele>
        <time>2021-08-29T06:06:37Z</time>
      </trkpt>
      <trkpt lat="43.3259880" lon="-8.4111960">
        <ele>118.0</ele>
        <time>2021-08-29T06:06:46Z</time>
      </trkpt>
      <trkpt lat="43.3258770" lon="-8.4112510">
        <ele>119.3</ele>
        <time>2021-08-29T06:06:53Z</time>
      </trkpt>
      <trkpt lat="43.3257930" lon="-8.4113500">
        <ele>120.6</ele>
        <time>2021-08-29T06:06:59Z</time>
      </trkpt>
      <trkpt lat="43.3256930" lon="-8.4113910">
        <ele>121.9</ele>
        <time>2021-08-29T06:07:05Z</time>
      </trkpt>
      <trkpt lat="43.3255920" lon="-8.4114780">
        <ele>123.3</ele>
        <time>2021-08-29T06:07:12Z</time>
      </trkpt>
      <trkpt lat="43.3255810" lon="-8.4114860">
        <ele>123.5</ele>
        <time>2021-08-29T06:07:13Z</time>
      </trkpt>
      <trkpt lat="43.3255140" lon="-8.4115080">
        <ele>124.4</ele>
        <time>2021-08-29T06:07:17Z</time>
      </trkpt>
      <trkpt lat="43.3253550" lon="-8.4115840">
        <ele>126.7</ele>
        <time>2021-08-29T06:07:27Z</time>
      </trkpt>
      <trkpt lat="43.3252980" lon="-8.4115990">
        <ele>127.7</ele>
        <time>2021-08-29T06:07:31Z</time>
      </trkpt>
      <trkpt lat="43.3252850" lon="-8.4115960">
        <ele>127.9</ele>
        <time>2021-08-29T06:07:32Z</time>
      </trkpt>
      <trkpt lat="43.3251950" lon="-8.4115670">
        <ele>129.6</ele>
        <time>2021-08-29T06:07:39Z</time>
      </trkpt>
      <trkpt lat="43.3251240" lon="-8.4114820">
        <ele>131.3</ele>
        <time>2021-08-29T06:07:46Z</time>
      </trkpt>
      <trkpt lat="43.3251050" lon="-8.4114460">
        <ele>131.9</ele>
        <time>2021-08-29T06:07:48Z</time>
      </trkpt>
      <trkpt lat="43.3250850" lon="-8.4114050">
        <ele>132.5</ele>
        <time>2021-08-29T06:07:51Z</time>
      </trkpt>
      <trkpt lat="43.3250870" lon="-8.4113470">
        <ele>133.3</ele>
        <time>2021-08-29T06:07:54Z</time>
      </trkpt>
      <trkpt lat="43.3250830" lon="-8.4113050">
        <ele>133.9</ele>
        <time>2021-08-29T06:07:56Z</time>
      </trkpt>
      <trkpt lat="43.3250580" lon="-8.4112690">
        <ele>134.6</ele>
        <time>2021-08-29T06:07:59Z</time>
      </trkpt>
      <trkpt lat="43.3250580" lon="-8.4111510">
        <ele>136.1</ele>
        <time>2021-08-29T06:08:05Z</time>
      </trkpt>
      <trkpt lat="43.3250630" lon="-8.4111360">
        <ele>136.3</ele>
        <time>2021-08-29T06:08:06Z</time>
      </trkpt>
      <trkpt lat="43.3251120" lon="-8.4110750">
        <ele>137.5</ele>
        <time>2021-08-29T06:08:10Z</time>
      </trkpt>
      <trkpt lat="43.3251170" lon="-8.4110570">
        <ele>137.8</ele>
        <time>2021-08-29T06:08:11Z</time>
      </trkpt>
      <trkpt lat="43.3251140" lon="-8.4110410">
        <ele>138.0</ele>
        <time>2021-08-29T06:08:12Z</time>
      </trkpt>
      <trkpt lat="43.3251040" lon="-8.4109880">
        <ele>138.7</ele>
        <time>2021-08-29T06:08:15Z</time>
      </trkpt>
      <trkpt lat="43.3251060" lon="-8.4109580">
        <ele>139.1</ele>
        <time>2021-08-29T06:08:17Z</time>
      </trkpt>
      <trkpt lat="43.3251330" lon="-8.4109120">
        <ele>139.9</ele>
        <time>2021-08-29T06:08:20Z</time>
      </trkpt>
      <trkpt lat="43.3251360" lon="-8.4108940">
        <ele>140.1</ele>
        <time>2021-08-29T06:08:21Z</time>
      </trkpt>
      <trkpt lat="43.3251320" lon="-8.4108770">
        <ele>140.4</ele>
        <time>2021-08-29T06:08:22Z</time>
      </trkpt>
      <trkpt lat="43.3251150" lon="-8.4108260">
        <ele>141.1</ele>
        <time>2021-08-29T06:08:25Z</time>
      </trkpt>
      <trkpt lat="43.3251200" lon="-8.4108100">
        <ele>141.3</ele>
        <time>2021-08-29T06:08:26Z</time>
      </trkpt>
      <trkpt lat="43.3251490" lon="-8.4107370">
        <ele>142.5</ele>
        <time>2021-08-29T06:08:31Z</time>
      </trkpt>
      <trkpt lat="43.3251330" lon="-8.4107030">
        <ele>143.0</ele>
        <time>2021-08-29T06:08:33Z</time>
      </trkpt>
      <trkpt lat="43.3251170" lon="-8.4106760">
        <ele>143.5</ele>
        <time>2021-08-29T06:08:35Z</time>
      </trkpt>
      <trkpt lat="43.3251230" lon="-8.4106510">
        <ele>143.8</ele>
        <time>2021-08-29T06:08:38Z</time>
      </trkpt>
      <trkpt lat="43.3251360" lon="-8.4106330">
        <ele>144.2</ele>
        <time>2021-08-29T06:08:39Z</time>
      </trkpt>
      <trkpt lat="43.3251400" lon="-8.4105660">
        <ele>145.1</ele>
        <time>2021-08-29T06:08:42Z</time>
      </trkpt>
      <trkpt lat="43.3251150" lon="-8.4105240">
        <ele>145.8</ele>
        <time>2021-08-29T06:08:45Z</time>
      </trkpt>
      <trkpt lat="43.3250970" lon="-8.4104950">
        <ele>146.3</ele>
        <time>2021-08-29T06:08:47Z</time>
      </trkpt>
      <trkpt lat="43.3250920" lon="-8.4104720">
        <ele>146.7</ele>
        <time>2021-08-29T06:08:49Z</time>
      </trkpt>
      <trkpt lat="43.3251040" lon="-8.4104140">
        <ele>147.5</ele>
        <time>2021-08-29T06:08:52Z</time>
      </trkpt>
      <trkpt lat="43.3250930" lon="-8.4104010">
        <ele>147.8</ele>
        <time>2021-08-29T06:08:53Z</time>
      </trkpt>
      <trkpt lat="43.3250600" lon="-8.4103520">
        <ele>148.7</ele>
        <time>2021-08-29T06:08:57Z</time>
      </trkpt>
      <trkpt lat="43.3250700" lon="-8.4103200">
        <ele>149.2</ele>
        <time>2021-08-29T06:08:59Z</time>
      </trkpt>
      <trkpt lat="43.3250780" lon="-8.4102760">
        <ele>149.8</ele>
        <time>2021-08-29T06:09:01Z</time>
      </trkpt>
      <trkpt lat="43.3250570" lon="-8.4102200">
        <ele>150.7</ele>
        <time>2021-08-29T06:09:04Z</time>
      </trkpt>
      <trkpt lat="43.3250250" lon="-8.4101970">
        <ele>151.3</ele>
        <time>2021-08-29T06:09:08Z</time>
      </trkpt>
      <trkpt lat="43.3250280" lon="-8.4101520">
        <ele>151.9</ele>
        <time>2021-08-29T06:09:10Z</time>
      </trkpt>
      <trkpt lat="43.3249820" lon="-8.4100780">
        <ele>153.2</ele>
        <time>2021-08-29T06:09:14Z</time>
      </trkpt>
      <trkpt lat="43.3249650" lon="-8.4100770">
        <ele>153.5</ele>
        <time>2021-08-29T06:09:15Z</time>
      </trkpt>
      <trkpt lat="43.3249540" lon="-8.4100670">
        <ele>153.7</ele>
        <time>2021-08-29T06:09:16Z</time>
      </trkpt>
      <trkpt lat="43.3249380" lon="-8.4100200">
        <ele>154.4</ele>
        <time>2021-08-29T06:09:19Z</time>
      </trkpt>
      <trkpt lat="43.3249220" lon="-8.4099790">
        <ele>154.9</ele>
        <time>2021-08-29T06:09:21Z</time>
      </trkpt>
      <trkpt lat="43.3248690" lon="-8.4099640">
        <ele>155.8</ele>
        <time>2021-08-29T06:09:24Z</time>
      </trkpt>
      <trkpt lat="43.3248530" lon="-8.4099610">
        <ele>156.1</ele>
        <time>2021-08-29T06:09:25Z</time>
      </trkpt>
      <trkpt lat="43.3247830" lon="-8.4099120">
        <ele>157.2</ele>
        <time>2021-08-29T06:09:30Z</time>
      </trkpt>
      <trkpt lat="43.3246920" lon="-8.4097970">
        <ele>158.8</ele>
        <time>2021-08-29T06:09:36Z</time>
      </trkpt>
      <trkpt lat="43.3244930" lon="-8.4097220">
        <ele>160.7</ele>
        <time>2021-08-29T06:09:46Z</time>
      </trkpt>
      <trkpt lat="43.3241920" lon="-8.4096820">
        <ele>162.3</ele>
        <time>2021-08-29T06:09:58Z</time>
      </trkpt>
      <trkpt lat="43.3239420" lon="-8.4095370">
        <ele>163.3</ele>
        <time>2021-08-29T06:10:08Z</time>
      </trkpt>
      <trkpt lat="43.3238370" lon="-8.4094200">
        <ele>163.8</ele>
        <time>2021-08-29T06:10:13Z</time>
      </trkpt>
      <trkpt lat="43.3236970" lon="-8.4091560">
        <ele>164.8</ele>
        <time>2021-08-29T06:10:21Z</time>
      </trkpt>
      <trkpt lat="43.3235310" lon="-8.4088350">
        <ele>166.1</ele>
        <time>2021-08-29T06:10:31Z</time>
      </trkpt>
      <trkpt lat="43.3234350" lon="-8.4088040">
        <ele>166.7</ele>
        <time>2021-08-29T06:10:35Z</time>
      </trkpt>
      <trkpt lat="43.3233340" lon="-8.4089430">
        <ele>166.6</ele>
        <time>2021-08-29T06:10:40Z</time>
      </trkpt>
      <trkpt lat="43.3231530" lon="-8.4090700">
        <ele>166.2</ele>
        <time>2021-08-29T06:10:45Z</time>
      </trkpt>
      <trkpt lat="43.3230160" lon="-8.4091560">
        <ele>165.2</ele>
        <time>2021-08-29T06:10:48Z</time>
      </trkpt>
      <trkpt lat="43.3229280" lon="-8.4092520">
        <ele>164.2</ele>
        <time>2021-08-29T06:10:50Z</time>
      </trkpt>
      <trkpt lat="43.3228560" lon="-8.4093730">
        <ele>163.7</ele>
        <time>2021-08-29T06:10:52Z</time>
      </trkpt>
      <trkpt lat="43.3227950" lon="-8.4095170">
        <ele>163.4</ele>
        <time>2021-08-29T06:10:54Z</time>
      </trkpt>
      <trkpt lat="43.3226770" lon="-8.4097960">
        <ele>163.0</ele>
        <time>2021-08-29T06:10:58Z</time>
      </trkpt>
      <trkpt lat="43.3226240" lon="-8.4099400">
        <ele>162.9</ele>
        <time>2021-08-29T06:11:00Z</time>
      </trkpt>
      <trkpt lat="43.3226060" lon="-8.4100230">
        <ele>162.9</ele>
        <time>2021-08-29T06:11:01Z</time>
      </trkpt>
      <trkpt lat="43.3225990" lon="-8.4101050">
        <ele>162.8</ele>
        <time>2021-08-29T06:11:02Z</time>
      </trkpt>
      <trkpt lat="43.3226150" lon="-8.4103370">
        <ele>162.7</ele>
        <time>2021-08-29T06:11:05Z</time>
      </trkpt>
      <trkpt lat="43.3225940" lon="-8.4104820">
        <ele>162.6</ele>
        <time>2021-08-29T06:11:07Z</time>
      </trkpt>
      <trkpt lat="43.3225670" lon="-8.4105450">
        <ele>162.6</ele>
        <time>2021-08-29T06:11:08Z</time>
      </trkpt>
      <trkpt lat="43.3225310" lon="-8.4106060">
        <ele>162.5</ele>
        <time>2021-08-29T06:11:09Z</time>
      </trkpt>
      <trkpt lat="43.3224450" lon="-8.4106730">
        <ele>162.5</ele>
        <time>2021-08-29T06:11:11Z</time>
      </trkpt>
      <trkpt lat="43.3223520" lon="-8.4106790">
        <ele>162.5</ele>
        <time>2021-08-29T06:11:13Z</time>
      </trkpt>
      <trkpt lat="43.3223030" lon="-8.4106600">
        <ele>162.5</ele>
        <time>2021-08-29T06:11:14Z</time>
      </trkpt>
      <trkpt lat="43.3222570" lon="-8.4106280">
        <ele>162.5</ele>
        <time>2021-08-29T06:11:15Z</time>
      </trkpt>
      <trkpt lat="43.3221940" lon="-8.4105390">
        <ele>162.5</ele>
        <time>2021-08-29T06:11:17Z</time>
      </trkpt>
      <trkpt lat="43.3221740" lon="-8.4104790">
        <ele>162.6</ele>
        <time>2021-08-29T06:11:18Z</time>
      </trkpt>
      <trkpt lat="43.3221620" lon="-8.4104150">
        <ele>162.6</ele>
        <time>2021-08-29T06:11:19Z</time>
      </trkpt>
      <trkpt lat="43.3221650" lon="-8.4102820">
        <ele>162.6</ele>
        <time>2021-08-29T06:11:21Z</time>
      </trkpt>
      <trkpt lat="43.3221800" lon="-8.4101580">
        <ele>162.7</ele>
        <time>2021-08-29T06:11:23Z</time>
      </trkpt>
      <trkpt lat="43.3222300" lon="-8.4100660">
        <ele>162.7</ele>
        <time>2021-08-29T06:11:25Z</time>
      </trkpt>
      <trkpt lat="43.3223030" lon="-8.4100070">
        <ele>162.8</ele>
        <time>2021-08-29T06:11:27Z</time>
      </trkpt>
      <trkpt lat="43.3223730" lon="-8.4099510">
        <ele>162.7</ele>
        <time>2021-08-29T06:11:29Z</time>
      </trkpt>
      <trkpt lat="43.3224140" lon="-8.4098570">
        <ele>162.6</ele>
        <time>2021-08-29T06:11:31Z</time>
      </trkpt>
      <trkpt lat="43.3224150" lon="-8.4098030">
        <ele>162.6</ele>
        <time>2021-08-29T06:11:32Z</time>
      </trkpt>
      <trkpt lat="43.3223980" lon="-8.4097540">
        <ele>162.5</ele>
        <time>2021-08-29T06:11:33Z</time>
      </trkpt>
      <trkpt lat="43.3223400" lon="-8.4096810">
        <ele>162.5</ele>
        <time>2021-08-29T06:11:35Z</time>
      </trkpt>
      <trkpt lat="43.3221020" lon="-8.4095380">
        <ele>162.5</ele>
        <time>2021-08-29T06:11:41Z</time>
      </trkpt>
      <trkpt lat="43.3220600" lon="-8.4095410">
        <ele>162.5</ele>
        <time>2021-08-29T06:11:42Z</time>
      </trkpt>
      <trkpt lat="43.3219780" lon="-8.4095940">
        <ele>162.5</ele>
        <time>2021-08-29T06:11:44Z</time>
      </trkpt>
      <trkpt lat="43.3218570" lon="-8.4096910">
        <ele>162.7</ele>
        <time>2021-08-29T06:11:47Z</time>
      </trkpt>
      <trkpt lat="43.3217740" lon="-8.4097300">
        <ele>162.9</ele>
        <time>2021-08-29T06:11:49Z</time>
      </trkpt>
      <trkpt lat="43.3217330" lon="-8.4097310">
        <ele>163.0</ele>
        <time>2021-08-29T06:11:50Z</time>
      </trkpt>
      <trkpt lat="43.3214820" lon="-8.4096890">
        <ele>164.0</ele>
        <time>2021-08-29T06:11:57Z</time>
      </trkpt>
      <trkpt lat="43.3212910" lon="-8.4096430">
        <ele>165.0</ele>
        <time>2021-08-29T06:12:03Z</time>
      </trkpt>
      <trkpt lat="43.3210780" lon="-8.4095290">
        <ele>166.1</ele>
        <time>2021-08-29T06:12:09Z</time>
      </trkpt>
      <trkpt lat="43.3210000" lon="-8.4094660">
        <ele>166.5</ele>
        <time>2021-08-29T06:12:10Z</time>
      </trkpt>
      <trkpt lat="43.3209280" lon="-8.4094130">
        <ele>166.9</ele>
        <time>2021-08-29T06:12:13Z</time>
      </trkpt>
      <trkpt lat="43.3208900" lon="-8.4093990">
        <ele>167.1</ele>
        <time>2021-08-29T06:12:14Z</time>
      </trkpt>
      <trkpt lat="43.3208530" lon="-8.4093940">
        <ele>167.4</ele>
        <time>2021-08-29T06:12:15Z</time>
      </trkpt>
      <trkpt lat="43.3208150" lon="-8.4094020">
        <ele>167.6</ele>
        <time>2021-08-29T06:12:16Z</time>
      </trkpt>
      <trkpt lat="43.3207190" lon="-8.4094420">
        <ele>168.4</ele>
        <time>2021-08-29T06:12:19Z</time>
      </trkpt>
      <trkpt lat="43.3205510" lon="-8.4095260">
        <ele>170.0</ele>
        <time>2021-08-29T06:12:25Z</time>
      </trkpt>
      <trkpt lat="43.3203740" lon="-8.4095850">
        <ele>172.2</ele>
        <time>2021-08-29T06:12:32Z</time>
      </trkpt>
      <trkpt lat="43.3203080" lon="-8.4096450">
        <ele>173.3</ele>
        <time>2021-08-29T06:12:35Z</time>
      </trkpt>
      <trkpt lat="43.3202670" lon="-8.4096690">
        <ele>173.8</ele>
        <time>2021-08-29T06:12:37Z</time>
      </trkpt>
      <trkpt lat="43.3201950" lon="-8.4096840">
        <ele>174.7</ele>
        <time>2021-08-29T06:12:40Z</time>
      </trkpt>
      <trkpt lat="43.3201000" lon="-8.4096950">
        <ele>175.5</ele>
        <time>2021-08-29T06:12:44Z</time>
      </trkpt>
      <trkpt lat="43.3200510" lon="-8.4097140">
        <ele>175.8</ele>
        <time>2021-08-29T06:12:46Z</time>
      </trkpt>
      <trkpt lat="43.3198850" lon="-8.4097800">
        <ele>175.2</ele>
        <time>2021-08-29T06:12:53Z</time>
      </trkpt>
      <trkpt lat="43.3198030" lon="-8.4097940">
        <ele>174.2</ele>
        <time>2021-08-29T06:12:55Z</time>
      </trkpt>
      <trkpt lat="43.3196740" lon="-8.4098010">
        <ele>172.2</ele>
        <time>2021-08-29T06:12:57Z</time>
      </trkpt>
      <trkpt lat="43.3193920" lon="-8.4098270">
        <ele>169.2</ele>
        <time>2021-08-29T06:13:00Z</time>
      </trkpt>
      <trkpt lat="43.3189210" lon="-8.4099470">
        <ele>167.4</ele>
        <time>2021-08-29T06:13:05Z</time>
      </trkpt>
      <trkpt lat="43.3184430" lon="-8.4100800">
        <ele>167.5</ele>
        <time>2021-08-29T06:13:11Z</time>
      </trkpt>
      <trkpt lat="43.3183130" lon="-8.4101470">
        <ele>167.7</ele>
        <time>2021-08-29T06:13:13Z</time>
      </trkpt>
      <trkpt lat="43.3182140" lon="-8.4102340">
        <ele>167.9</ele>
        <time>2021-08-29T06:13:15Z</time>
      </trkpt>
      <trkpt lat="43.3181740" lon="-8.4102670">
        <ele>167.7</ele>
        <time>2021-08-29T06:13:16Z</time>
      </trkpt>
      <trkpt lat="43.3180930" lon="-8.4102750">
        <ele>167.4</ele>
        <time>2021-08-29T06:13:18Z</time>
      </trkpt>
      <trkpt lat="43.3179960" lon="-8.4102560">
        <ele>166.8</ele>
        <time>2021-08-29T06:13:20Z</time>
      </trkpt>
      <trkpt lat="43.3178790" lon="-8.4102660">
        <ele>165.8</ele>
        <time>2021-08-29T06:13:22Z</time>
      </trkpt>
      <trkpt lat="43.3178140" lon="-8.4102640">
        <ele>165.3</ele>
        <time>2021-08-29T06:13:23Z</time>
      </trkpt>
      <trkpt lat="43.3176010" lon="-8.4102200">
        <ele>163.8</ele>
        <time>2021-08-29T06:13:26Z</time>
      </trkpt>
      <trkpt lat="43.3173130" lon="-8.4102840">
        <ele>162.5</ele>
        <time>2021-08-29T06:13:30Z</time>
      </trkpt>
      <trkpt lat="43.3169750" lon="-8.4104000">
        <ele>161.2</ele>
        <time>2021-08-29T06:13:35Z</time>
      </trkpt>
      <trkpt lat="43.3167660" lon="-8.4104700">
        <ele>160.5</ele>
        <time>2021-08-29T06:13:38Z</time>
      </trkpt>
      <trkpt lat="43.3166960" lon="-8.4104840">
        <ele>160.3</ele>
        <time>2021-08-29T06:13:39Z</time>
      </trkpt>
      <trkpt lat="43.3166260" lon="-8.4104940">
        <ele>160.1</ele>
        <time>2021-08-29T06:13:40Z</time>
      </trkpt>
      <trkpt lat="43.3164770" lon="-8.4104980">
        <ele>159.8</ele>
        <time>2021-08-29T06:13:42Z</time>
      </trkpt>
      <trkpt lat="43.3164050" lon="-8.4104990">
        <ele>159.8</ele>
        <time>2021-08-29T06:13:43Z</time>
      </trkpt>
      <trkpt lat="43.3163360" lon="-8.4104930">
        <ele>159.9</ele>
        <time>2021-08-29T06:13:44Z</time>
      </trkpt>
      <trkpt lat="43.3162740" lon="-8.4104800">
        <ele>160.0</ele>
        <time>2021-08-29T06:13:45Z</time>
      </trkpt>
      <trkpt lat="43.3161660" lon="-8.4104370">
        <ele>160.6</ele>
        <time>2021-08-29T06:13:47Z</time>
      </trkpt>
      <trkpt lat="43.3160840" lon="-8.4103900">
        <ele>161.2</ele>
        <time>2021-08-29T06:13:49Z</time>
      </trkpt>
      <trkpt lat="43.3160480" lon="-8.4103650">
        <ele>161.4</ele>
        <time>2021-08-29T06:13:50Z</time>
      </trkpt>
      <trkpt lat="43.3159250" lon="-8.4102420">
        <ele>162.5</ele>
        <time>2021-08-29T06:13:54Z</time>
      </trkpt>
      <trkpt lat="43.3158360" lon="-8.4101380">
        <ele>163.0</ele>
        <time>2021-08-29T06:13:57Z</time>
      </trkpt>
      <trkpt lat="43.3157960" lon="-8.4101080">
        <ele>163.3</ele>
        <time>2021-08-29T06:13:58Z</time>
      </trkpt>
      <trkpt lat="43.3157090" lon="-8.4100600">
        <ele>163.7</ele>
        <time>2021-08-29T06:14:00Z</time>
      </trkpt>
      <trkpt lat="43.3153660" lon="-8.4099100">
        <ele>164.8</ele>
        <time>2021-08-29T06:14:08Z</time>
      </trkpt>
      <trkpt lat="43.3149380" lon="-8.4097230">
        <ele>165.7</ele>
        <time>2021-08-29T06:14:18Z</time>
      </trkpt>
      <trkpt lat="43.3148130" lon="-8.4096620">
        <ele>165.9</ele>
        <time>2021-08-29T06:14:21Z</time>
      </trkpt>
      <trkpt lat="43.3146130" lon="-8.4095730">
        <ele>166.2</ele>
        <time>2021-08-29T06:14:26Z</time>
      </trkpt>
      <trkpt lat="43.3145840" lon="-8.4095400">
        <ele>166.4</ele>
        <time>2021-08-29T06:14:27Z</time>
      </trkpt>
      <trkpt lat="43.3145480" lon="-8.4094610">
        <ele>166.2</ele>
        <time>2021-08-29T06:14:29Z</time>
      </trkpt>
      <trkpt lat="43.3145340" lon="-8.4093720">
        <ele>165.9</ele>
        <time>2021-08-29T06:14:31Z</time>
      </trkpt>
      <trkpt lat="43.3144810" lon="-8.4092410">
        <ele>165.5</ele>
        <time>2021-08-29T06:14:34Z</time>
      </trkpt>
      <trkpt lat="43.3144550" lon="-8.4092060">
        <ele>165.3</ele>
        <time>2021-08-29T06:14:35Z</time>
      </trkpt>
      <trkpt lat="43.3144090" lon="-8.4090000">
        <ele>164.2</ele>
        <time>2021-08-29T06:14:39Z</time>
      </trkpt>
      <trkpt lat="43.3144070" lon="-8.4087790">
        <ele>162.2</ele>
        <time>2021-08-29T06:14:42Z</time>
      </trkpt>
      <trkpt lat="43.3144010" lon="-8.4085810">
        <ele>160.0</ele>
        <time>2021-08-29T06:14:44Z</time>
      </trkpt>
      <trkpt lat="43.3143730" lon="-8.4078040">
        <ele>149.5</ele>
        <time>2021-08-29T06:14:51Z</time>
      </trkpt>
      <trkpt lat="43.3143960" lon="-8.4074290">
        <ele>144.8</ele>
        <time>2021-08-29T06:14:55Z</time>
      </trkpt>
      <trkpt lat="43.3143960" lon="-8.4073620">
        <ele>144.0</ele>
        <time>2021-08-29T06:14:56Z</time>
      </trkpt>
      <trkpt lat="43.3143780" lon="-8.4072380">
        <ele>142.4</ele>
        <time>2021-08-29T06:14:58Z</time>
      </trkpt>
      <trkpt lat="43.3143300" lon="-8.4071150">
        <ele>141.1</ele>
        <time>2021-08-29T06:15:00Z</time>
      </trkpt>
      <trkpt lat="43.3141240" lon="-8.4069620">
        <ele>140.0</ele>
        <time>2021-08-29T06:15:04Z</time>
      </trkpt>
      <trkpt lat="43.3139420" lon="-8.4069340">
        <ele>139.6</ele>
        <time>2021-08-29T06:15:07Z</time>
      </trkpt>
      <trkpt lat="43.3138230" lon="-8.4069410">
        <ele>139.5</ele>
        <time>2021-08-29T06:15:09Z</time>
      </trkpt>
      <trkpt lat="43.3134990" lon="-8.4070470">
        <ele>139.8</ele>
        <time>2021-08-29T06:15:15Z</time>
      </trkpt>
      <trkpt lat="43.3134530" lon="-8.4070860">
        <ele>139.9</ele>
        <time>2021-08-29T06:15:16Z</time>
      </trkpt>
      <trkpt lat="43.3133770" lon="-8.4071880">
        <ele>140.0</ele>
        <time>2021-08-29T06:15:18Z</time>
      </trkpt>
      <trkpt lat="43.3133450" lon="-8.4073250">
        <ele>140.1</ele>
        <time>2021-08-29T06:15:20Z</time>
      </trkpt>
      <trkpt lat="43.3133450" lon="-8.4073980">
        <ele>140.2</ele>
        <time>2021-08-29T06:15:21Z</time>
      </trkpt>
      <trkpt lat="43.3133470" lon="-8.4075360">
        <ele>140.4</ele>
        <time>2021-08-29T06:15:23Z</time>
      </trkpt>
      <trkpt lat="43.3133360" lon="-8.4077350">
        <ele>140.9</ele>
        <time>2021-08-29T06:15:26Z</time>
      </trkpt>
      <trkpt lat="43.3133270" lon="-8.4077900">
        <ele>141.0</ele>
        <time>2021-08-29T06:15:27Z</time>
      </trkpt>
      <trkpt lat="43.3132180" lon="-8.4080700">
        <ele>141.7</ele>
        <time>2021-08-29T06:15:33Z</time>
      </trkpt>
      <trkpt lat="43.3131620" lon="-8.4082050">
        <ele>141.9</ele>
        <time>2021-08-29T06:15:36Z</time>
      </trkpt>
      <trkpt lat="43.3131090" lon="-8.4082790">
        <ele>142.0</ele>
        <time>2021-08-29T06:15:38Z</time>
      </trkpt>
      <trkpt lat="43.3130830" lon="-8.4083090">
        <ele>142.0</ele>
        <time>2021-08-29T06:15:39Z</time>
      </trkpt>
      <trkpt lat="43.3129520" lon="-8.4084430">
        <ele>141.9</ele>
        <time>2021-08-29T06:15:44Z</time>
      </trkpt>
      <trkpt lat="43.3129270" lon="-8.4084510">
        <ele>141.9</ele>
        <time>2021-08-29T06:15:45Z</time>
      </trkpt>
      <trkpt lat="43.3128450" lon="-8.4084350">
        <ele>141.8</ele>
        <time>2021-08-29T06:15:47Z</time>
      </trkpt>
      <trkpt lat="43.3127990" lon="-8.4084140">
        <ele>141.8</ele>
        <time>2021-08-29T06:15:48Z</time>
      </trkpt>
      <trkpt lat="43.3126520" lon="-8.4083120">
        <ele>141.7</ele>
        <time>2021-08-29T06:15:51Z</time>
      </trkpt>
      <trkpt lat="43.3125380" lon="-8.4082990">
        <ele>141.8</ele>
        <time>2021-08-29T06:15:54Z</time>
      </trkpt>
      <trkpt lat="43.3125040" lon="-8.4083210">
        <ele>141.8</ele>
        <time>2021-08-29T06:15:55Z</time>
      </trkpt>
      <trkpt lat="43.3124460" lon="-8.4083890">
        <ele>142.1</ele>
        <time>2021-08-29T06:15:57Z</time>
      </trkpt>
      <trkpt lat="43.3123360" lon="-8.4084300">
        <ele>143.2</ele>
        <time>2021-08-29T06:16:02Z</time>
      </trkpt>
      <trkpt lat="43.3122170" lon="-8.4084740">
        <ele>145.1</ele>
        <time>2021-08-29T06:16:09Z</time>
      </trkpt>
      <trkpt lat="43.3121570" lon="-8.4085690">
        <ele>146.5</ele>
        <time>2021-08-29T06:16:15Z</time>
      </trkpt>
      <trkpt lat="43.3121200" lon="-8.4086830">
        <ele>147.8</ele>
        <time>2021-08-29T06:16:21Z</time>
      </trkpt>
      <trkpt lat="43.3120980" lon="-8.4087820">
        <ele>148.8</ele>
        <time>2021-08-29T06:16:26Z</time>
      </trkpt>
      <trkpt lat="43.3120950" lon="-8.4087990">
        <ele>148.9</ele>
        <time>2021-08-29T06:16:27Z</time>
      </trkpt>
      <trkpt lat="43.3120890" lon="-8.4088130">
        <ele>149.1</ele>
        <time>2021-08-29T06:16:28Z</time>
      </trkpt>
      <trkpt lat="43.3120710" lon="-8.4088430">
        <ele>149.4</ele>
        <time>2021-08-29T06:16:30Z</time>
      </trkpt>
      <trkpt lat="43.3120630" lon="-8.4088570">
        <ele>149.5</ele>
        <time>2021-08-29T06:16:32Z</time>
      </trkpt>
      <trkpt lat="43.3120330" lon="-8.4088700">
        <ele>149.9</ele>
        <time>2021-08-29T06:16:34Z</time>
      </trkpt>
      <trkpt lat="43.3120200" lon="-8.4088650">
        <ele>150.3</ele>
        <time>2021-08-29T06:16:35Z</time>
      </trkpt>
      <trkpt lat="43.3119150" lon="-8.4088470">
        <ele>152.0</ele>
        <time>2021-08-29T06:16:43Z</time>
      </trkpt>
      <trkpt lat="43.3118450" lon="-8.4088570">
        <ele>153.1</ele>
        <time>2021-08-29T06:16:47Z</time>
      </trkpt>
      <trkpt lat="43.3118330" lon="-8.4088530">
        <ele>153.3</ele>
        <time>2021-08-29T06:16:48Z</time>
      </trkpt>
      <trkpt lat="43.3118210" lon="-8.4088440">
        <ele>153.5</ele>
        <time>2021-08-29T06:16:49Z</time>
      </trkpt>
      <trkpt lat="43.3118060" lon="-8.4088300">
        <ele>153.8</ele>
        <time>2021-08-29T06:16:50Z</time>
      </trkpt>
      <trkpt lat="43.3117600" lon="-8.4087730">
        <ele>154.8</ele>
        <time>2021-08-29T06:16:54Z</time>
      </trkpt>
      <trkpt lat="43.3117480" lon="-8.4087520">
        <ele>155.1</ele>
        <time>2021-08-29T06:16:55Z</time>
      </trkpt>
      <trkpt lat="43.3116900" lon="-8.4087230">
        <ele>156.1</ele>
        <time>2021-08-29T06:16:59Z</time>
      </trkpt>
      <trkpt lat="43.3116730" lon="-8.4087300">
        <ele>156.4</ele>
        <time>2021-08-29T06:17:00Z</time>
      </trkpt>
      <trkpt lat="43.3115680" lon="-8.4087640">
        <ele>158.3</ele>
        <time>2021-08-29T06:17:07Z</time>
      </trkpt>
      <trkpt lat="43.3114610" lon="-8.4088140">
        <ele>160.4</ele>
        <time>2021-08-29T06:17:15Z</time>
      </trkpt>
      <trkpt lat="43.3114500" lon="-8.4088110">
        <ele>160.6</ele>
        <time>2021-08-29T06:17:16Z</time>
      </trkpt>
      <trkpt lat="43.3114360" lon="-8.4088080">
        <ele>160.9</ele>
        <time>2021-08-29T06:17:17Z</time>
      </trkpt>
      <trkpt lat="43.3114030" lon="-8.4088190">
        <ele>161.6</ele>
        <time>2021-08-29T06:17:19Z</time>
      </trkpt>
      <trkpt lat="43.3113890" lon="-8.4088280">
        <ele>161.8</ele>
        <time>2021-08-29T06:17:20Z</time>
      </trkpt>
      <trkpt lat="43.3113660" lon="-8.4088470">
        <ele>162.3</ele>
        <time>2021-08-29T06:17:22Z</time>
      </trkpt>
      <trkpt lat="43.3113550" lon="-8.4088510">
        <ele>162.5</ele>
        <time>2021-08-29T06:17:23Z</time>
      </trkpt>
      <trkpt lat="43.3112800" lon="-8.4088830">
        <ele>163.8</ele>
        <time>2021-08-29T06:17:29Z</time>
      </trkpt>
      <trkpt lat="43.3112470" lon="-8.4088940">
        <ele>164.3</ele>
        <time>2021-08-29T06:17:32Z</time>
      </trkpt>
      <trkpt lat="43.3111920" lon="-8.4089270">
        <ele>165.1</ele>
        <time>2021-08-29T06:17:36Z</time>
      </trkpt>
      <trkpt lat="43.3111650" lon="-8.4089350">
        <ele>165.4</ele>
        <time>2021-08-29T06:17:38Z</time>
      </trkpt>
      <trkpt lat="43.3110910" lon="-8.4089200">
        <ele>166.2</ele>
        <time>2021-08-29T06:17:45Z</time>
      </trkpt>
      <trkpt lat="43.3110110" lon="-8.4089140">
        <ele>167.1</ele>
        <time>2021-08-29T06:17:51Z</time>
      </trkpt>
      <trkpt lat="43.3109830" lon="-8.4089110">
        <ele>167.3</ele>
        <time>2021-08-29T06:17:53Z</time>
      </trkpt>
      <trkpt lat="43.3109090" lon="-8.4089090">
        <ele>168.0</ele>
        <time>2021-08-29T06:17:59Z</time>
      </trkpt>
      <trkpt lat="43.3108490" lon="-8.4089130">
        <ele>168.2</ele>
        <time>2021-08-29T06:18:03Z</time>
      </trkpt>
      <trkpt lat="43.3108120" lon="-8.4088980">
        <ele>168.3</ele>
        <time>2021-08-29T06:18:06Z</time>
      </trkpt>
      <trkpt lat="43.3107730" lon="-8.4088980">
        <ele>168.2</ele>
        <time>2021-08-29T06:18:09Z</time>
      </trkpt>
      <trkpt lat="43.3107180" lon="-8.4088650">
        <ele>167.9</ele>
        <time>2021-08-29T06:18:13Z</time>
      </trkpt>
      <trkpt lat="43.3107090" lon="-8.4088380">
        <ele>167.8</ele>
        <time>2021-08-29T06:18:15Z</time>
      </trkpt>
      <trkpt lat="43.3106440" lon="-8.4086190">
        <ele>166.7</ele>
        <time>2021-08-29T06:18:21Z</time>
      </trkpt>
      <trkpt lat="43.3105870" lon="-8.4085160">
        <ele>166.5</ele>
        <time>2021-08-29T06:18:23Z</time>
      </trkpt>
      <trkpt lat="43.3105040" lon="-8.4083750">
        <ele>166.8</ele>
        <time>2021-08-29T06:18:26Z</time>
      </trkpt>
      <trkpt lat="43.3105020" lon="-8.4082600">
        <ele>167.2</ele>
        <time>2021-08-29T06:18:28Z</time>
      </trkpt>
      <trkpt lat="43.3105070" lon="-8.4082050">
        <ele>167.4</ele>
        <time>2021-08-29T06:18:29Z</time>
      </trkpt>
      <trkpt lat="43.3105020" lon="-8.4080650">
        <ele>168.0</ele>
        <time>2021-08-29T06:18:33Z</time>
      </trkpt>
      <trkpt lat="43.3104940" lon="-8.4079410">
        <ele>168.3</ele>
        <time>2021-08-29T06:18:38Z</time>
      </trkpt>
      <trkpt lat="43.3104870" lon="-8.4077500">
        <ele>168.4</ele>
        <time>2021-08-29T06:18:44Z</time>
      </trkpt>
      <trkpt lat="43.3104940" lon="-8.4076090">
        <ele>168.4</ele>
        <time>2021-08-29T06:18:48Z</time>
      </trkpt>
      <trkpt lat="43.3105040" lon="-8.4074150">
        <ele>168.3</ele>
        <time>2021-08-29T06:18:52Z</time>
      </trkpt>
      <trkpt lat="43.3104300" lon="-8.4071300">
        <ele>168.4</ele>
        <time>2021-08-29T06:18:58Z</time>
      </trkpt>
      <trkpt lat="43.3102770" lon="-8.4068630">
        <ele>169.1</ele>
        <time>2021-08-29T06:19:05Z</time>
      </trkpt>
      <trkpt lat="43.3102260" lon="-8.4066010">
        <ele>171.4</ele>
        <time>2021-08-29T06:19:10Z</time>
      </trkpt>
      <trkpt lat="43.3102100" lon="-8.4065540">
        <ele>172.0</ele>
        <time>2021-08-29T06:19:11Z</time>
      </trkpt>
      <trkpt lat="43.3101880" lon="-8.4065320">
        <ele>172.4</ele>
        <time>2021-08-29T06:19:12Z</time>
      </trkpt>
      <trkpt lat="43.3101570" lon="-8.4065320">
        <ele>172.9</ele>
        <time>2021-08-29T06:19:14Z</time>
      </trkpt>
      <trkpt lat="43.3100600" lon="-8.4065790">
        <ele>174.4</ele>
        <time>2021-08-29T06:19:20Z</time>
      </trkpt>
      <trkpt lat="43.3099540" lon="-8.4066460">
        <ele>176.2</ele>
        <time>2021-08-29T06:19:27Z</time>
      </trkpt>
      <trkpt lat="43.3098460" lon="-8.4067450">
        <ele>177.9</ele>
        <time>2021-08-29T06:19:35Z</time>
      </trkpt>
      <trkpt lat="43.3097460" lon="-8.4068120">
        <ele>179.2</ele>
        <time>2021-08-29T06:19:41Z</time>
      </trkpt>
      <trkpt lat="43.3096910" lon="-8.4068570">
        <ele>179.8</ele>
        <time>2021-08-29T06:19:45Z</time>
      </trkpt>
      <trkpt lat="43.3096330" lon="-8.4068810">
        <ele>180.3</ele>
        <time>2021-08-29T06:19:49Z</time>
      </trkpt>
      <trkpt lat="43.3095010" lon="-8.4069080">
        <ele>181.2</ele>
        <time>2021-08-29T06:19:57Z</time>
      </trkpt>
      <trkpt lat="43.3093260" lon="-8.4068070">
        <ele>182.8</ele>
        <time>2021-08-29T06:20:07Z</time>
      </trkpt>
      <trkpt lat="43.3091400" lon="-8.4067200">
        <ele>185.0</ele>
        <time>2021-08-29T06:20:17Z</time>
      </trkpt>
      <trkpt lat="43.3090050" lon="-8.4066780">
        <ele>186.5</ele>
        <time>2021-08-29T06:20:25Z</time>
      </trkpt>
      <trkpt lat="43.3089040" lon="-8.4065790">
        <ele>187.6</ele>
        <time>2021-08-29T06:20:33Z</time>
      </trkpt>
      <trkpt lat="43.3088550" lon="-8.4064770">
        <ele>188.3</ele>
        <time>2021-08-29T06:20:38Z</time>
      </trkpt>
      <trkpt lat="43.3087690" lon="-8.4063740">
        <ele>189.3</ele>
        <time>2021-08-29T06:20:44Z</time>
      </trkpt>
      <trkpt lat="43.3086990" lon="-8.4062920">
        <ele>190.0</ele>
        <time>2021-08-29T06:20:49Z</time>
      </trkpt>
      <trkpt lat="43.3086700" lon="-8.4062670">
        <ele>190.3</ele>
        <time>2021-08-29T06:20:51Z</time>
      </trkpt>
      <trkpt lat="43.3085580" lon="-8.4061730">
        <ele>191.3</ele>
        <time>2021-08-29T06:20:58Z</time>
      </trkpt>
      <trkpt lat="43.3085430" lon="-8.4061640">
        <ele>191.4</ele>
        <time>2021-08-29T06:20:59Z</time>
      </trkpt>
      <trkpt lat="43.3083780" lon="-8.4061300">
        <ele>192.7</ele>
        <time>2021-08-29T06:21:08Z</time>
      </trkpt>
      <trkpt lat="43.3082260" lon="-8.4061080">
        <ele>193.7</ele>
        <time>2021-08-29T06:21:16Z</time>
      </trkpt>
      <trkpt lat="43.3080330" lon="-8.4060680">
        <ele>195.0</ele>
        <time>2021-08-29T06:21:25Z</time>
      </trkpt>
      <trkpt lat="43.3078400" lon="-8.4060980">
        <ele>196.0</ele>
        <time>2021-08-29T06:21:35Z</time>
      </trkpt>
      <trkpt lat="43.3076940" lon="-8.4060790">
        <ele>196.3</ele>
        <time>2021-08-29T06:21:42Z</time>
      </trkpt>
      <trkpt lat="43.3074840" lon="-8.4059400">
        <ele>196.3</ele>
        <time>2021-08-29T06:21:51Z</time>
      </trkpt>
      <trkpt lat="43.3072840" lon="-8.4057720">
        <ele>195.9</ele>
        <time>2021-08-29T06:21:58Z</time>
      </trkpt>
      <trkpt lat="43.3071350" lon="-8.4057420">
        <ele>195.9</ele>
        <time>2021-08-29T06:22:02Z</time>
      </trkpt>
      <trkpt lat="43.3068870" lon="-8.4058060">
        <ele>196.2</ele>
        <time>2021-08-29T06:22:09Z</time>
      </trkpt>
      <trkpt lat="43.3068540" lon="-8.4058180">
        <ele>196.2</ele>
        <time>2021-08-29T06:22:10Z</time>
      </trkpt>
      <trkpt lat="43.3066940" lon="-8.4059270">
        <ele>196.4</ele>
        <time>2021-08-29T06:22:15Z</time>
      </trkpt>
      <trkpt lat="43.3065940" lon="-8.4060500">
        <ele>196.7</ele>
        <time>2021-08-29T06:22:19Z</time>
      </trkpt>
      <trkpt lat="43.3065160" lon="-8.4061440">
        <ele>196.9</ele>
        <time>2021-08-29T06:22:22Z</time>
      </trkpt>
      <trkpt lat="43.3064880" lon="-8.4061720">
        <ele>196.9</ele>
        <time>2021-08-29T06:22:23Z</time>
      </trkpt>
      <trkpt lat="43.3064310" lon="-8.4062270">
        <ele>197.1</ele>
        <time>2021-08-29T06:22:25Z</time>
      </trkpt>
      <trkpt lat="43.3063060" lon="-8.4063750">
        <ele>197.4</ele>
        <time>2021-08-29T06:22:30Z</time>
      </trkpt>
      <trkpt lat="43.3061990" lon="-8.4065990">
        <ele>197.7</ele>
        <time>2021-08-29T06:22:36Z</time>
      </trkpt>
      <trkpt lat="43.3060630" lon="-8.4067080">
        <ele>198.0</ele>
        <time>2021-08-29T06:22:41Z</time>
      </trkpt>
      <trkpt lat="43.3059360" lon="-8.4069850">
        <ele>198.1</ele>
        <time>2021-08-29T06:22:49Z</time>
      </trkpt>
      <trkpt lat="43.3058630" lon="-8.4072690">
        <ele>198.8</ele>
        <time>2021-08-29T06:22:56Z</time>
      </trkpt>
      <trkpt lat="43.3057970" lon="-8.4075180">
        <ele>199.8</ele>
        <time>2021-08-29T06:23:03Z</time>
      </trkpt>
      <trkpt lat="43.3057860" lon="-8.4075790">
        <ele>200.0</ele>
        <time>2021-08-29T06:23:05Z</time>
      </trkpt>
      <trkpt lat="43.3057030" lon="-8.4078350">
        <ele>201.1</ele>
        <time>2021-08-29T06:23:13Z</time>
      </trkpt>
      <trkpt lat="43.3056460" lon="-8.4081030">
        <ele>201.9</ele>
        <time>2021-08-29T06:23:20Z</time>
      </trkpt>
      <trkpt lat="43.3056300" lon="-8.4083400">
        <ele>202.8</ele>
        <time>2021-08-29T06:23:27Z</time>
      </trkpt>
      <trkpt lat="43.3056310" lon="-8.4083750">
        <ele>203.0</ele>
        <time>2021-08-29T06:23:28Z</time>
      </trkpt>
      <trkpt lat="43.3056400" lon="-8.4085630">
        <ele>203.9</ele>
        <time>2021-08-29T06:23:34Z</time>
      </trkpt>
      <trkpt lat="43.3056490" lon="-8.4087560">
        <ele>205.0</ele>
        <time>2021-08-29T06:23:40Z</time>
      </trkpt>
      <trkpt lat="43.3056630" lon="-8.4089250">
        <ele>206.1</ele>
        <time>2021-08-29T06:23:46Z</time>
      </trkpt>
      <trkpt lat="43.3056760" lon="-8.4089770">
        <ele>206.4</ele>
        <time>2021-08-29T06:23:48Z</time>
      </trkpt>
      <trkpt lat="43.3056900" lon="-8.4090640">
        <ele>207.0</ele>
        <time>2021-08-29T06:23:51Z</time>
      </trkpt>
      <trkpt lat="43.3057100" lon="-8.4091490">
        <ele>207.7</ele>
        <time>2021-08-29T06:23:54Z</time>
      </trkpt>
      <trkpt lat="43.3057290" lon="-8.4092460">
        <ele>208.4</ele>
        <time>2021-08-29T06:23:58Z</time>
      </trkpt>
      <trkpt lat="43.3057400" lon="-8.4093110">
        <ele>208.9</ele>
        <time>2021-08-29T06:24:01Z</time>
      </trkpt>
      <trkpt lat="43.3057540" lon="-8.4093570">
        <ele>209.4</ele>
        <time>2021-08-29T06:24:03Z</time>
      </trkpt>
      <trkpt lat="43.3057640" lon="-8.4093980">
        <ele>209.7</ele>
        <time>2021-08-29T06:24:05Z</time>
      </trkpt>
      <trkpt lat="43.3057860" lon="-8.4094540">
        <ele>210.3</ele>
        <time>2021-08-29T06:24:08Z</time>
      </trkpt>
      <trkpt lat="43.3058470" lon="-8.4096460">
        <ele>212.7</ele>
        <time>2021-08-29T06:24:18Z</time>
      </trkpt>
      <trkpt lat="43.3058700" lon="-8.4097470">
        <ele>214.0</ele>
        <time>2021-08-29T06:24:23Z</time>
      </trkpt>
      <trkpt lat="43.3058890" lon="-8.4097810">
        <ele>214.6</ele>
        <time>2021-08-29T06:24:25Z</time>
      </trkpt>
      <trkpt lat="43.3059130" lon="-8.4098640">
        <ele>215.9</ele>
        <time>2021-08-29T06:24:29Z</time>
      </trkpt>
      <trkpt lat="43.3059390" lon="-8.4099100">
        <ele>216.7</ele>
        <time>2021-08-29T06:24:32Z</time>
      </trkpt>
      <trkpt lat="43.3059970" lon="-8.4099890">
        <ele>218.3</ele>
        <time>2021-08-29T06:24:37Z</time>
      </trkpt>
      <trkpt lat="43.3060270" lon="-8.4100330">
        <ele>219.1</ele>
        <time>2021-08-29T06:24:40Z</time>
      </trkpt>
      <trkpt lat="43.3060320" lon="-8.4100920">
        <ele>219.9</ele>
        <time>2021-08-29T06:24:43Z</time>
      </trkpt>
      <trkpt lat="43.3060290" lon="-8.4101100">
        <ele>220.2</ele>
        <time>2021-08-29T06:24:44Z</time>
      </trkpt>
      <trkpt lat="43.3060240" lon="-8.4101870">
        <ele>221.1</ele>
        <time>2021-08-29T06:24:48Z</time>
      </trkpt>
      <trkpt lat="43.3060410" lon="-8.4103480">
        <ele>222.7</ele>
        <time>2021-08-29T06:24:56Z</time>
      </trkpt>
      <trkpt lat="43.3060590" lon="-8.4104080">
        <ele>223.3</ele>
        <time>2021-08-29T06:24:59Z</time>
      </trkpt>
      <trkpt lat="43.3060740" lon="-8.4104810">
        <ele>223.8</ele>
        <time>2021-08-29T06:25:03Z</time>
      </trkpt>
      <trkpt lat="43.3060920" lon="-8.4105460">
        <ele>224.3</ele>
        <time>2021-08-29T06:25:07Z</time>
      </trkpt>
      <trkpt lat="43.3061250" lon="-8.4106170">
        <ele>224.8</ele>
        <time>2021-08-29T06:25:11Z</time>
      </trkpt>
      <trkpt lat="43.3061490" lon="-8.4106660">
        <ele>225.1</ele>
        <time>2021-08-29T06:25:14Z</time>
      </trkpt>
      <trkpt lat="43.3061890" lon="-8.4107410">
        <ele>225.7</ele>
        <time>2021-08-29T06:25:18Z</time>
      </trkpt>
      <trkpt lat="43.3061900" lon="-8.4107660">
        <ele>225.8</ele>
        <time>2021-08-29T06:25:19Z</time>
      </trkpt>
      <trkpt lat="43.3062040" lon="-8.4108260">
        <ele>226.1</ele>
        <time>2021-08-29T06:25:22Z</time>
      </trkpt>
      <trkpt lat="43.3062880" lon="-8.4110100">
        <ele>227.2</ele>
        <time>2021-08-29T06:25:30Z</time>
      </trkpt>
      <trkpt lat="43.3063540" lon="-8.4110660">
        <ele>227.7</ele>
        <time>2021-08-29T06:25:34Z</time>
      </trkpt>
      <trkpt lat="43.3063900" lon="-8.4110600">
        <ele>227.9</ele>
        <time>2021-08-29T06:25:36Z</time>
      </trkpt>
      <trkpt lat="43.3064820" lon="-8.4109410">
        <ele>228.6</ele>
        <time>2021-08-29T06:25:42Z</time>
      </trkpt>
      <trkpt lat="43.3065910" lon="-8.4107740">
        <ele>229.3</ele>
        <time>2021-08-29T06:25:50Z</time>
      </trkpt>
      <trkpt lat="43.3067170" lon="-8.4106990">
        <ele>229.9</ele>
        <time>2021-08-29T06:25:57Z</time>
      </trkpt>
      <trkpt lat="43.3067320" lon="-8.4106880">
        <ele>230.0</ele>
        <time>2021-08-29T06:25:58Z</time>
      </trkpt>
      <trkpt lat="43.3068530" lon="-8.4105920">
        <ele>230.9</ele>
        <time>2021-08-29T06:26:05Z</time>
      </trkpt>
      <trkpt lat="43.3070200" lon="-8.4105260">
        <ele>231.9</ele>
        <time>2021-08-29T06:26:14Z</time>
      </trkpt>
      <trkpt lat="43.3071610" lon="-8.4105940">
        <ele>232.7</ele>
        <time>2021-08-29T06:26:22Z</time>
      </trkpt>
      <trkpt lat="43.3072330" lon="-8.4105460">
        <ele>233.0</ele>
        <time>2021-08-29T06:26:27Z</time>
      </trkpt>
      <trkpt lat="43.3072910" lon="-8.4104960">
        <ele>233.2</ele>
        <time>2021-08-29T06:26:30Z</time>
      </trkpt>
      <trkpt lat="43.3073480" lon="-8.4105080">
        <ele>233.4</ele>
        <time>2021-08-29T06:26:32Z</time>
      </trkpt>
      <trkpt lat="43.3074160" lon="-8.4105830">
        <ele>233.5</ele>
        <time>2021-08-29T06:26:35Z</time>
      </trkpt>
      <trkpt lat="43.3074390" lon="-8.4106110">
        <ele>233.5</ele>
        <time>2021-08-29T06:26:36Z</time>
      </trkpt>
      <trkpt lat="43.3075770" lon="-8.4108960">
        <ele>233.2</ele>
        <time>2021-08-29T06:26:43Z</time>
      </trkpt>
      <trkpt lat="43.3075760" lon="-8.4109510">
        <ele>233.1</ele>
        <time>2021-08-29T06:26:44Z</time>
      </trkpt>
      <trkpt lat="43.3075750" lon="-8.4110610">
        <ele>232.9</ele>
        <time>2021-08-29T06:26:46Z</time>
      </trkpt>
      <trkpt lat="43.3075750" lon="-8.4112040">
        <ele>232.6</ele>
        <time>2021-08-29T06:26:49Z</time>
      </trkpt>
      <trkpt lat="43.3075730" lon="-8.4113060">
        <ele>232.4</ele>
        <time>2021-08-29T06:26:51Z</time>
      </trkpt>
      <trkpt lat="43.3075580" lon="-8.4114710">
        <ele>232.1</ele>
        <time>2021-08-29T06:26:54Z</time>
      </trkpt>
      <trkpt lat="43.3075380" lon="-8.4116890">
        <ele>231.7</ele>
        <time>2021-08-29T06:26:58Z</time>
      </trkpt>
      <trkpt lat="43.3075360" lon="-8.4117400">
        <ele>231.6</ele>
        <time>2021-08-29T06:26:59Z</time>
      </trkpt>
      <trkpt lat="43.3075120" lon="-8.4120560">
        <ele>231.2</ele>
        <time>2021-08-29T06:27:05Z</time>
      </trkpt>
      <trkpt lat="43.3075120" lon="-8.4121130">
        <ele>231.2</ele>
        <time>2021-08-29T06:27:06Z</time>
      </trkpt>
      <trkpt lat="43.3075190" lon="-8.4122270">
        <ele>231.1</ele>
        <time>2021-08-29T06:27:08Z</time>
      </trkpt>
      <trkpt lat="43.3075240" lon="-8.4123790">
        <ele>230.9</ele>
        <time>2021-08-29T06:27:11Z</time>
      </trkpt>
      <trkpt lat="43.3075130" lon="-8.4124810">
        <ele>230.8</ele>
        <time>2021-08-29T06:27:13Z</time>
      </trkpt>
      <trkpt lat="43.3074900" lon="-8.4128180">
        <ele>230.5</ele>
        <time>2021-08-29T06:27:20Z</time>
      </trkpt>
      <trkpt lat="43.3074330" lon="-8.4131300">
        <ele>230.5</ele>
        <time>2021-08-29T06:27:26Z</time>
      </trkpt>
      <trkpt lat="43.3074400" lon="-8.4134580">
        <ele>230.3</ele>
        <time>2021-08-29T06:27:32Z</time>
      </trkpt>
      <trkpt lat="43.3074630" lon="-8.4138960">
        <ele>229.6</ele>
        <time>2021-08-29T06:27:39Z</time>
      </trkpt>
      <trkpt lat="43.3074810" lon="-8.4140140">
        <ele>229.3</ele>
        <time>2021-08-29T06:27:41Z</time>
      </trkpt>
      <trkpt lat="43.3074620" lon="-8.4141100">
        <ele>229.1</ele>
        <time>2021-08-29T06:27:43Z</time>
      </trkpt>
      <trkpt lat="43.3074180" lon="-8.4141440">
        <ele>229.2</ele>
        <time>2021-08-29T06:27:45Z</time>
      </trkpt>
      <trkpt lat="43.3073990" lon="-8.4141340">
        <ele>229.5</ele>
        <time>2021-08-29T06:27:46Z</time>
      </trkpt>
      <trkpt lat="43.3072180" lon="-8.4139950">
        <ele>230.1</ele>
        <time>2021-08-29T06:27:52Z</time>
      </trkpt>
      <trkpt lat="43.3070500" lon="-8.4139140">
        <ele>230.1</ele>
        <time>2021-08-29T06:27:56Z</time>
      </trkpt>
      <trkpt lat="43.3070070" lon="-8.4138990">
        <ele>230.1</ele>
        <time>2021-08-29T06:27:57Z</time>
      </trkpt>
      <trkpt lat="43.3069610" lon="-8.4138900">
        <ele>230.0</ele>
        <time>2021-08-29T06:27:58Z</time>
      </trkpt>
      <trkpt lat="43.3068690" lon="-8.4138850">
        <ele>229.9</ele>
        <time>2021-08-29T06:28:00Z</time>
      </trkpt>
      <trkpt lat="43.3067710" lon="-8.4138590">
        <ele>229.7</ele>
        <time>2021-08-29T06:28:02Z</time>
      </trkpt>
      <trkpt lat="43.3064630" lon="-8.4137010">
        <ele>228.5</ele>
        <time>2021-08-29T06:28:08Z</time>
      </trkpt>
      <trkpt lat="43.3061860" lon="-8.4135330">
        <ele>227.1</ele>
        <time>2021-08-29T06:28:13Z</time>
      </trkpt>
      <trkpt lat="43.3060860" lon="-8.4134190">
        <ele>226.6</ele>
        <time>2021-08-29T06:28:15Z</time>
      </trkpt>
      <trkpt lat="43.3057980" lon="-8.4131080">
        <ele>225.1</ele>
        <time>2021-08-29T06:28:21Z</time>
      </trkpt>
      <trkpt lat="43.3056840" lon="-8.4130480">
        <ele>224.8</ele>
        <time>2021-08-29T06:28:23Z</time>
      </trkpt>
      <trkpt lat="43.3054920" lon="-8.4129880">
        <ele>224.4</ele>
        <time>2021-08-29T06:28:26Z</time>
      </trkpt>
      <trkpt lat="43.3052560" lon="-8.4128560">
        <ele>224.1</ele>
        <time>2021-08-29T06:28:30Z</time>
      </trkpt>
      <trkpt lat="43.3051700" lon="-8.4127830">
        <ele>224.2</ele>
        <time>2021-08-29T06:28:32Z</time>
      </trkpt>
      <trkpt lat="43.3049480" lon="-8.4125860">
        <ele>224.1</ele>
        <time>2021-08-29T06:28:38Z</time>
      </trkpt>
      <trkpt lat="43.3048830" lon="-8.4125110">
        <ele>224.0</ele>
        <time>2021-08-29T06:28:40Z</time>
      </trkpt>
      <trkpt lat="43.3048390" lon="-8.4124360">
        <ele>224.0</ele>
        <time>2021-08-29T06:28:42Z</time>
      </trkpt>
      <trkpt lat="43.3048230" lon="-8.4123950">
        <ele>224.0</ele>
        <time>2021-08-29T06:28:43Z</time>
      </trkpt>
      <trkpt lat="43.3047820" lon="-8.4121690">
        <ele>223.9</ele>
        <time>2021-08-29T06:28:48Z</time>
      </trkpt>
      <trkpt lat="43.3047760" lon="-8.4120650">
        <ele>223.8</ele>
        <time>2021-08-29T06:28:50Z</time>
      </trkpt>
      <trkpt lat="43.3047650" lon="-8.4118390">
        <ele>223.4</ele>
        <time>2021-08-29T06:28:54Z</time>
      </trkpt>
      <trkpt lat="43.3047720" lon="-8.4114760">
        <ele>222.6</ele>
        <time>2021-08-29T06:28:59Z</time>
      </trkpt>
      <trkpt lat="43.3047720" lon="-8.4113280">
        <ele>222.2</ele>
        <time>2021-08-29T06:29:01Z</time>
      </trkpt>
      <trkpt lat="43.3047360" lon="-8.4110550">
        <ele>221.2</ele>
        <time>2021-08-29T06:29:05Z</time>
      </trkpt>
      <trkpt lat="43.3046500" lon="-8.4105800">
        <ele>219.5</ele>
        <time>2021-08-29T06:29:11Z</time>
      </trkpt>
      <trkpt lat="43.3046180" lon="-8.4103470">
        <ele>218.4</ele>
        <time>2021-08-29T06:29:14Z</time>
      </trkpt>
      <trkpt lat="43.3046010" lon="-8.4100970">
        <ele>216.6</ele>
        <time>2021-08-29T06:29:17Z</time>
      </trkpt>
      <trkpt lat="43.3045220" lon="-8.4096140">
        <ele>212.8</ele>
        <time>2021-08-29T06:29:22Z</time>
      </trkpt>
      <trkpt lat="43.3044990" lon="-8.4095040">
        <ele>212.3</ele>
        <time>2021-08-29T06:29:23Z</time>
      </trkpt>
      <trkpt lat="43.3044830" lon="-8.4093910">
        <ele>212.0</ele>
        <time>2021-08-29T06:29:24Z</time>
      </trkpt>
      <trkpt lat="43.3044640" lon="-8.4090660">
        <ele>211.3</ele>
        <time>2021-08-29T06:29:27Z</time>
      </trkpt>
      <trkpt lat="43.3044290" lon="-8.4087000">
        <ele>207.8</ele>
        <time>2021-08-29T06:29:31Z</time>
      </trkpt>
      <trkpt lat="43.3044160" lon="-8.4085950">
        <ele>206.6</ele>
        <time>2021-08-29T06:29:32Z</time>
      </trkpt>
      <trkpt lat="43.3043800" lon="-8.4082260">
        <ele>203.2</ele>
        <time>2021-08-29T06:29:35Z</time>
      </trkpt>
      <trkpt lat="43.3043550" lon="-8.4079690">
        <ele>201.5</ele>
        <time>2021-08-29T06:29:37Z</time>
      </trkpt>
      <trkpt lat="43.3043000" lon="-8.4074460">
        <ele>198.3</ele>
        <time>2021-08-29T06:29:42Z</time>
      </trkpt>
      <trkpt lat="43.3042900" lon="-8.4073760">
        <ele>197.8</ele>
        <time>2021-08-29T06:29:43Z</time>
      </trkpt>
      <trkpt lat="43.3042460" lon="-8.4072660">
        <ele>197.0</ele>
        <time>2021-08-29T06:29:45Z</time>
      </trkpt>
      <trkpt lat="43.3041700" lon="-8.4071940">
        <ele>196.2</ele>
        <time>2021-08-29T06:29:47Z</time>
      </trkpt>
      <trkpt lat="43.3040670" lon="-8.4071610">
        <ele>195.2</ele>
        <time>2021-08-29T06:29:49Z</time>
      </trkpt>
      <trkpt lat="43.3040090" lon="-8.4071520">
        <ele>195.0</ele>
        <time>2021-08-29T06:29:50Z</time>
      </trkpt>
      <trkpt lat="43.3038250" lon="-8.4071380">
        <ele>194.4</ele>
        <time>2021-08-29T06:29:53Z</time>
      </trkpt>
      <trkpt lat="43.3034430" lon="-8.4071040">
        <ele>201.1</ele>
        <time>2021-08-29T06:29:59Z</time>
      </trkpt>
      <trkpt lat="43.3033700" lon="-8.4070890">
        <ele>199.8</ele>
        <time>2021-08-29T06:30:00Z</time>
      </trkpt>
      <trkpt lat="43.3032930" lon="-8.4070830">
        <ele>198.5</ele>
        <time>2021-08-29T06:30:01Z</time>
      </trkpt>
      <trkpt lat="43.3029880" lon="-8.4070830">
        <ele>193.6</ele>
        <time>2021-08-29T06:30:05Z</time>
      </trkpt>
      <trkpt lat="43.3028580" lon="-8.4070970">
        <ele>191.7</ele>
        <time>2021-08-29T06:30:07Z</time>
      </trkpt>
      <trkpt lat="43.3027440" lon="-8.4071510">
        <ele>190.0</ele>
        <time>2021-08-29T06:30:09Z</time>
      </trkpt>
      <trkpt lat="43.3026740" lon="-8.4072660">
        <ele>189.9</ele>
        <time>2021-08-29T06:30:11Z</time>
      </trkpt>
      <trkpt lat="43.3026470" lon="-8.4073330">
        <ele>189.8</ele>
        <time>2021-08-29T06:30:12Z</time>
      </trkpt>
      <trkpt lat="43.3026290" lon="-8.4074040">
        <ele>189.8</ele>
        <time>2021-08-29T06:30:13Z</time>
      </trkpt>
      <trkpt lat="43.3026120" lon="-8.4074720">
        <ele>189.7</ele>
        <time>2021-08-29T06:30:14Z</time>
      </trkpt>
      <trkpt lat="43.3025770" lon="-8.4076030">
        <ele>189.6</ele>
        <time>2021-08-29T06:30:16Z</time>
      </trkpt>
      <trkpt lat="43.3025090" lon="-8.4078380">
        <ele>189.5</ele>
        <time>2021-08-29T06:30:20Z</time>
      </trkpt>
      <trkpt lat="43.3024840" lon="-8.4078830">
        <ele>189.4</ele>
        <time>2021-08-29T06:30:21Z</time>
      </trkpt>
      <trkpt lat="43.3024500" lon="-8.4079190">
        <ele>189.3</ele>
        <time>2021-08-29T06:30:22Z</time>
      </trkpt>
      <trkpt lat="43.3023110" lon="-8.4079980">
        <ele>188.8</ele>
        <time>2021-08-29T06:30:25Z</time>
      </trkpt>
      <trkpt lat="43.3021950" lon="-8.4080240">
        <ele>188.1</ele>
        <time>2021-08-29T06:30:27Z</time>
      </trkpt>
      <trkpt lat="43.3020910" lon="-8.4081130">
        <ele>187.3</ele>
        <time>2021-08-29T06:30:29Z</time>
      </trkpt>
      <trkpt lat="43.3020010" lon="-8.4082450">
        <ele>186.3</ele>
        <time>2021-08-29T06:30:31Z</time>
      </trkpt>
      <trkpt lat="43.3019380" lon="-8.4084200">
        <ele>185.2</ele>
        <time>2021-08-29T06:30:33Z</time>
      </trkpt>
      <trkpt lat="43.3017600" lon="-8.4088460">
        <ele>182.8</ele>
        <time>2021-08-29T06:30:38Z</time>
      </trkpt>
      <trkpt lat="43.3017470" lon="-8.4090010">
        <ele>182.4</ele>
        <time>2021-08-29T06:30:40Z</time>
      </trkpt>
      <trkpt lat="43.3017360" lon="-8.4090800">
        <ele>182.3</ele>
        <time>2021-08-29T06:30:41Z</time>
      </trkpt>
      <trkpt lat="43.3016730" lon="-8.4092110">
        <ele>182.1</ele>
        <time>2021-08-29T06:30:43Z</time>
      </trkpt>
      <trkpt lat="43.3014100" lon="-8.4095330">
        <ele>181.4</ele>
        <time>2021-08-29T06:30:49Z</time>
      </trkpt>
      <trkpt lat="43.3013190" lon="-8.4095690">
        <ele>181.9</ele>
        <time>2021-08-29T06:30:51Z</time>
      </trkpt>
      <trkpt lat="43.3012740" lon="-8.4095460">
        <ele>182.2</ele>
        <time>2021-08-29T06:30:52Z</time>
      </trkpt>
      <trkpt lat="43.3012300" lon="-8.4094950">
        <ele>182.7</ele>
        <time>2021-08-29T06:30:53Z</time>
      </trkpt>
      <trkpt lat="43.3011800" lon="-8.4093540">
        <ele>183.7</ele>
        <time>2021-08-29T06:30:55Z</time>
      </trkpt>
      <trkpt lat="43.3011570" lon="-8.4092360">
        <ele>184.4</ele>
        <time>2021-08-29T06:30:58Z</time>
      </trkpt>
      <trkpt lat="43.3011420" lon="-8.4091860">
        <ele>184.7</ele>
        <time>2021-08-29T06:31:00Z</time>
      </trkpt>
      <trkpt lat="43.3010870" lon="-8.4091210">
        <ele>185.2</ele>
        <time>2021-08-29T06:31:03Z</time>
      </trkpt>
      <trkpt lat="43.3010670" lon="-8.4091040">
        <ele>185.4</ele>
        <time>2021-08-29T06:31:04Z</time>
      </trkpt>
      <trkpt lat="43.3009990" lon="-8.4091100">
        <ele>185.8</ele>
        <time>2021-08-29T06:31:07Z</time>
      </trkpt>
      <trkpt lat="43.3007880" lon="-8.4091750">
        <ele>187.4</ele>
        <time>2021-08-29T06:31:17Z</time>
      </trkpt>
      <trkpt lat="43.3006520" lon="-8.4091960">
        <ele>188.5</ele>
        <time>2021-08-29T06:31:24Z</time>
      </trkpt>
      <trkpt lat="43.3004930" lon="-8.4092460">
        <ele>189.7</ele>
        <time>2021-08-29T06:31:32Z</time>
      </trkpt>
      <trkpt lat="43.3003750" lon="-8.4093380">
        <ele>190.6</ele>
        <time>2021-08-29T06:31:38Z</time>
      </trkpt>
      <trkpt lat="43.3003520" lon="-8.4093530">
        <ele>190.8</ele>
        <time>2021-08-29T06:31:39Z</time>
      </trkpt>
      <trkpt lat="43.3003310" lon="-8.4093710">
        <ele>190.9</ele>
        <time>2021-08-29T06:31:40Z</time>
      </trkpt>
      <trkpt lat="43.3003090" lon="-8.4093870">
        <ele>191.1</ele>
        <time>2021-08-29T06:31:41Z</time>
      </trkpt>
      <trkpt lat="43.3001500" lon="-8.4094700">
        <ele>192.1</ele>
        <time>2021-08-29T06:31:48Z</time>
      </trkpt>
      <trkpt lat="43.3000080" lon="-8.4094680">
        <ele>194.0</ele>
        <time>2021-08-29T06:31:55Z</time>
      </trkpt>
      <trkpt lat="43.2999230" lon="-8.4094430">
        <ele>194.8</ele>
        <time>2021-08-29T06:31:59Z</time>
      </trkpt>
      <trkpt lat="43.2998740" lon="-8.4094160">
        <ele>195.2</ele>
        <time>2021-08-29T06:32:01Z</time>
      </trkpt>
      <trkpt lat="43.2997680" lon="-8.4093520">
        <ele>195.9</ele>
        <time>2021-08-29T06:32:05Z</time>
      </trkpt>
      <trkpt lat="43.2996780" lon="-8.4093060">
        <ele>196.5</ele>
        <time>2021-08-29T06:32:08Z</time>
      </trkpt>
      <trkpt lat="43.2995840" lon="-8.4092360">
        <ele>197.0</ele>
        <time>2021-08-29T06:32:12Z</time>
      </trkpt>
      <trkpt lat="43.2995410" lon="-8.4092060">
        <ele>197.3</ele>
        <time>2021-08-29T06:32:14Z</time>
      </trkpt>
      <trkpt lat="43.2995200" lon="-8.4091950">
        <ele>197.4</ele>
        <time>2021-08-29T06:32:15Z</time>
      </trkpt>
      <trkpt lat="43.2994420" lon="-8.4091150">
        <ele>197.2</ele>
        <time>2021-08-29T06:32:19Z</time>
      </trkpt>
      <trkpt lat="43.2993960" lon="-8.4090750">
        <ele>197.0</ele>
        <time>2021-08-29T06:32:21Z</time>
      </trkpt>
      <trkpt lat="43.2992580" lon="-8.4090030">
        <ele>195.9</ele>
        <time>2021-08-29T06:32:25Z</time>
      </trkpt>
      <trkpt lat="43.2991100" lon="-8.4089550">
        <ele>194.3</ele>
        <time>2021-08-29T06:32:29Z</time>
      </trkpt>
      <trkpt lat="43.2990740" lon="-8.4089310">
        <ele>193.8</ele>
        <time>2021-08-29T06:32:30Z</time>
      </trkpt>
      <trkpt lat="43.2989940" lon="-8.4088860">
        <ele>192.7</ele>
        <time>2021-08-29T06:32:32Z</time>
      </trkpt>
      <trkpt lat="43.2988210" lon="-8.4087920">
        <ele>190.2</ele>
        <time>2021-08-29T06:32:36Z</time>
      </trkpt>
      <trkpt lat="43.2987820" lon="-8.4087690">
        <ele>189.7</ele>
        <time>2021-08-29T06:32:37Z</time>
      </trkpt>
      <trkpt lat="43.2987450" lon="-8.4087520">
        <ele>189.1</ele>
        <time>2021-08-29T06:32:38Z</time>
      </trkpt>
      <trkpt lat="43.2986440" lon="-8.4086890">
        <ele>187.3</ele>
        <time>2021-08-29T06:32:41Z</time>
      </trkpt>
      <trkpt lat="43.2984290" lon="-8.4085950">
        <ele>182.8</ele>
        <time>2021-08-29T06:32:47Z</time>
      </trkpt>
      <trkpt lat="43.2983840" lon="-8.4085730">
        <ele>181.8</ele>
        <time>2021-08-29T06:32:48Z</time>
      </trkpt>
      <trkpt lat="43.2982220" lon="-8.4084800">
        <ele>178.4</ele>
        <time>2021-08-29T06:32:51Z</time>
      </trkpt>
      <trkpt lat="43.2978780" lon="-8.4082890">
        <ele>174.3</ele>
        <time>2021-08-29T06:32:56Z</time>
      </trkpt>
      <trkpt lat="43.2974380" lon="-8.4080240">
        <ele>173.5</ele>
        <time>2021-08-29T06:33:03Z</time>
      </trkpt>
      <trkpt lat="43.2972810" lon="-8.4079300">
        <ele>173.9</ele>
        <time>2021-08-29T06:33:06Z</time>
      </trkpt>
      <trkpt lat="43.2971970" lon="-8.4078780">
        <ele>174.2</ele>
        <time>2021-08-29T06:33:08Z</time>
      </trkpt>
      <trkpt lat="43.2971590" lon="-8.4078630">
        <ele>174.4</ele>
        <time>2021-08-29T06:33:09Z</time>
      </trkpt>
      <trkpt lat="43.2970680" lon="-8.4078440">
        <ele>175.2</ele>
        <time>2021-08-29T06:33:12Z</time>
      </trkpt>
      <trkpt lat="43.2970450" lon="-8.4078350">
        <ele>175.4</ele>
        <time>2021-08-29T06:33:13Z</time>
      </trkpt>
      <trkpt lat="43.2969050" lon="-8.4077900">
        <ele>176.9</ele>
        <time>2021-08-29T06:33:19Z</time>
      </trkpt>
      <trkpt lat="43.2968100" lon="-8.4077170">
        <ele>177.9</ele>
        <time>2021-08-29T06:33:24Z</time>
      </trkpt>
      <trkpt lat="43.2967340" lon="-8.4076380">
        <ele>178.6</ele>
        <time>2021-08-29T06:33:28Z</time>
      </trkpt>
      <trkpt lat="43.2966740" lon="-8.4075850">
        <ele>179.0</ele>
        <time>2021-08-29T06:33:31Z</time>
      </trkpt>
      <trkpt lat="43.2965090" lon="-8.4074900">
        <ele>180.1</ele>
        <time>2021-08-29T06:33:39Z</time>
      </trkpt>
      <trkpt lat="43.2963970" lon="-8.4074090">
        <ele>180.9</ele>
        <time>2021-08-29T06:33:45Z</time>
      </trkpt>
      <trkpt lat="43.2963080" lon="-8.4073360">
        <ele>181.6</ele>
        <time>2021-08-29T06:33:50Z</time>
      </trkpt>
      <trkpt lat="43.2962870" lon="-8.4073220">
        <ele>181.8</ele>
        <time>2021-08-29T06:33:51Z</time>
      </trkpt>
      <trkpt lat="43.2961520" lon="-8.4072560">
        <ele>183.0</ele>
        <time>2021-08-29T06:33:57Z</time>
      </trkpt>
      <trkpt lat="43.2961120" lon="-8.4072330">
        <ele>183.4</ele>
        <time>2021-08-29T06:33:59Z</time>
      </trkpt>
      <trkpt lat="43.2960390" lon="-8.4072200">
        <ele>184.1</ele>
        <time>2021-08-29T06:34:02Z</time>
      </trkpt>
      <trkpt lat="43.2960070" lon="-8.4072040">
        <ele>184.5</ele>
        <time>2021-08-29T06:34:04Z</time>
      </trkpt>
      <trkpt lat="43.2959350" lon="-8.4071460">
        <ele>185.4</ele>
        <time>2021-08-29T06:34:09Z</time>
      </trkpt>
      <trkpt lat="43.2959210" lon="-8.4071300">
        <ele>185.7</ele>
        <time>2021-08-29T06:34:10Z</time>
      </trkpt>
      <trkpt lat="43.2959090" lon="-8.4071060">
        <ele>186.0</ele>
        <time>2021-08-29T06:34:11Z</time>
      </trkpt>
      <trkpt lat="43.2958760" lon="-8.4070310">
        <ele>186.9</ele>
        <time>2021-08-29T06:34:15Z</time>
      </trkpt>
      <trkpt lat="43.2958030" lon="-8.4069260">
        <ele>188.9</ele>
        <time>2021-08-29T06:34:22Z</time>
      </trkpt>
      <trkpt lat="43.2957380" lon="-8.4068900">
        <ele>191.2</ele>
        <time>2021-08-29T06:34:26Z</time>
      </trkpt>
      <trkpt lat="43.2956800" lon="-8.4068800">
        <ele>192.2</ele>
        <time>2021-08-29T06:34:29Z</time>
      </trkpt>
      <trkpt lat="43.2956110" lon="-8.4068130">
        <ele>193.2</ele>
        <time>2021-08-29T06:34:35Z</time>
      </trkpt>
      <trkpt lat="43.2955280" lon="-8.4066810">
        <ele>194.1</ele>
        <time>2021-08-29T06:34:42Z</time>
      </trkpt>
      <trkpt lat="43.2954470" lon="-8.4065820">
        <ele>194.7</ele>
        <time>2021-08-29T06:34:47Z</time>
      </trkpt>
      <trkpt lat="43.2953990" lon="-8.4065240">
        <ele>195.2</ele>
        <time>2021-08-29T06:34:50Z</time>
      </trkpt>
      <trkpt lat="43.2953540" lon="-8.4064720">
        <ele>195.6</ele>
        <time>2021-08-29T06:34:53Z</time>
      </trkpt>
      <trkpt lat="43.2953060" lon="-8.4064350">
        <ele>196.0</ele>
        <time>2021-08-29T06:34:56Z</time>
      </trkpt>
      <trkpt lat="43.2952530" lon="-8.4063820">
        <ele>196.3</ele>
        <time>2021-08-29T06:34:59Z</time>
      </trkpt>
      <trkpt lat="43.2951900" lon="-8.4063140">
        <ele>196.4</ele>
        <time>2021-08-29T06:35:03Z</time>
      </trkpt>
      <trkpt lat="43.2950860" lon="-8.4062030">
        <ele>196.0</ele>
        <time>2021-08-29T06:35:08Z</time>
      </trkpt>
      <trkpt lat="43.2950630" lon="-8.4061740">
        <ele>195.9</ele>
        <time>2021-08-29T06:35:09Z</time>
      </trkpt>
      <trkpt lat="43.2949070" lon="-8.4059140">
        <ele>194.5</ele>
        <time>2021-08-29T06:35:15Z</time>
      </trkpt>
      <trkpt lat="43.2947550" lon="-8.4056210">
        <ele>193.7</ele>
        <time>2021-08-29T06:35:21Z</time>
      </trkpt>
      <trkpt lat="43.2946310" lon="-8.4054970">
        <ele>192.9</ele>
        <time>2021-08-29T06:35:26Z</time>
      </trkpt>
      <trkpt lat="43.2946130" lon="-8.4054700">
        <ele>192.6</ele>
        <time>2021-08-29T06:35:27Z</time>
      </trkpt>
      <trkpt lat="43.2945670" lon="-8.4053870">
        <ele>191.9</ele>
        <time>2021-08-29T06:35:30Z</time>
      </trkpt>
      <trkpt lat="43.2944630" lon="-8.4052830">
        <ele>190.1</ele>
        <time>2021-08-29T06:35:34Z</time>
      </trkpt>
      <trkpt lat="43.2943970" lon="-8.4051870">
        <ele>188.4</ele>
        <time>2021-08-29T06:35:39Z</time>
      </trkpt>
      <trkpt lat="43.2943770" lon="-8.4051620">
        <ele>187.8</ele>
        <time>2021-08-29T06:35:40Z</time>
      </trkpt>
      <trkpt lat="43.2943380" lon="-8.4050730">
        <ele>186.3</ele>
        <time>2021-08-29T06:35:43Z</time>
      </trkpt>
      <trkpt lat="43.2943090" lon="-8.4049370">
        <ele>184.1</ele>
        <time>2021-08-29T06:35:47Z</time>
      </trkpt>
      <trkpt lat="43.2942930" lon="-8.4048400">
        <ele>182.5</ele>
        <time>2021-08-29T06:35:50Z</time>
      </trkpt>
      <trkpt lat="43.2942600" lon="-8.4047850">
        <ele>181.2</ele>
        <time>2021-08-29T06:35:53Z</time>
      </trkpt>
      <trkpt lat="43.2941850" lon="-8.4047230">
        <ele>178.8</ele>
        <time>2021-08-29T06:35:58Z</time>
      </trkpt>
      <trkpt lat="43.2941090" lon="-8.4047210">
        <ele>176.6</ele>
        <time>2021-08-29T06:36:03Z</time>
      </trkpt>
      <trkpt lat="43.2940970" lon="-8.4047140">
        <ele>176.2</ele>
        <time>2021-08-29T06:36:04Z</time>
      </trkpt>
      <trkpt lat="43.2940890" lon="-8.4046900">
        <ele>175.6</ele>
        <time>2021-08-29T06:36:05Z</time>
      </trkpt>
      <trkpt lat="43.2940830" lon="-8.4046640">
        <ele>175.1</ele>
        <time>2021-08-29T06:36:06Z</time>
      </trkpt>
      <trkpt lat="43.2940740" lon="-8.4046390">
        <ele>174.5</ele>
        <time>2021-08-29T06:36:07Z</time>
      </trkpt>
      <trkpt lat="43.2939520" lon="-8.4044880">
        <ele>170.7</ele>
        <time>2021-08-29T06:36:12Z</time>
      </trkpt>
      <trkpt lat="43.2938730" lon="-8.4043730">
        <ele>168.7</ele>
        <time>2021-08-29T06:36:14Z</time>
      </trkpt>
      <trkpt lat="43.2937520" lon="-8.4042330">
        <ele>167.0</ele>
        <time>2021-08-29T06:36:17Z</time>
      </trkpt>
      <trkpt lat="43.2935760" lon="-8.4040930">
        <ele>165.2</ele>
        <time>2021-08-29T06:36:21Z</time>
      </trkpt>
      <trkpt lat="43.2935260" lon="-8.4040970">
        <ele>164.9</ele>
        <time>2021-08-29T06:36:22Z</time>
      </trkpt>
      <trkpt lat="43.2934750" lon="-8.4041170">
        <ele>164.8</ele>
        <time>2021-08-29T06:36:23Z</time>
      </trkpt>
      <trkpt lat="43.2933510" lon="-8.4042130">
        <ele>164.5</ele>
        <time>2021-08-29T06:36:26Z</time>
      </trkpt>
      <trkpt lat="43.2931980" lon="-8.4043500">
        <ele>164.3</ele>
        <time>2021-08-29T06:36:30Z</time>
      </trkpt>
      <trkpt lat="43.2931560" lon="-8.4044400">
        <ele>164.3</ele>
        <time>2021-08-29T06:36:32Z</time>
      </trkpt>
      <trkpt lat="43.2931270" lon="-8.4046330">
        <ele>164.3</ele>
        <time>2021-08-29T06:36:36Z</time>
      </trkpt>
      <trkpt lat="43.2930630" lon="-8.4047820">
        <ele>164.3</ele>
        <time>2021-08-29T06:36:40Z</time>
      </trkpt>
      <trkpt lat="43.2930240" lon="-8.4048640">
        <ele>164.4</ele>
        <time>2021-08-29T06:36:42Z</time>
      </trkpt>
      <trkpt lat="43.2928900" lon="-8.4051090">
        <ele>164.8</ele>
        <time>2021-08-29T06:36:48Z</time>
      </trkpt>
      <trkpt lat="43.2928320" lon="-8.4052220">
        <ele>165.1</ele>
        <time>2021-08-29T06:36:51Z</time>
      </trkpt>
      <trkpt lat="43.2927670" lon="-8.4053230">
        <ele>165.4</ele>
        <time>2021-08-29T06:36:54Z</time>
      </trkpt>
      <trkpt lat="43.2927190" lon="-8.4054010">
        <ele>165.6</ele>
        <time>2021-08-29T06:36:56Z</time>
      </trkpt>
      <trkpt lat="43.2925520" lon="-8.4056300">
        <ele>166.8</ele>
        <time>2021-08-29T06:37:03Z</time>
      </trkpt>
      <trkpt lat="43.2924400" lon="-8.4057190">
        <ele>167.7</ele>
        <time>2021-08-29T06:37:08Z</time>
      </trkpt>
      <trkpt lat="43.2922960" lon="-8.4058290">
        <ele>168.9</ele>
        <time>2021-08-29T06:37:14Z</time>
      </trkpt>
      <trkpt lat="43.2920900" lon="-8.4059870">
        <ele>170.3</ele>
        <time>2021-08-29T06:37:23Z</time>
      </trkpt>
      <trkpt lat="43.2919920" lon="-8.4060800">
        <ele>170.7</ele>
        <time>2021-08-29T06:37:27Z</time>
      </trkpt>
      <trkpt lat="43.2919420" lon="-8.4061800">
        <ele>170.9</ele>
        <time>2021-08-29T06:37:30Z</time>
      </trkpt>
      <trkpt lat="43.2919420" lon="-8.4062170">
        <ele>171.0</ele>
        <time>2021-08-29T06:37:31Z</time>
      </trkpt>
      <trkpt lat="43.2919890" lon="-8.4063100">
        <ele>171.2</ele>
        <time>2021-08-29T06:37:34Z</time>
      </trkpt>
      <trkpt lat="43.2920100" lon="-8.4064470">
        <ele>171.4</ele>
        <time>2021-08-29T06:37:38Z</time>
      </trkpt>
      <trkpt lat="43.2920200" lon="-8.4067480">
        <ele>171.4</ele>
        <time>2021-08-29T06:37:44Z</time>
      </trkpt>
      <trkpt lat="43.2920690" lon="-8.4070560">
        <ele>171.2</ele>
        <time>2021-08-29T06:37:50Z</time>
      </trkpt>
      <trkpt lat="43.2921960" lon="-8.4073380">
        <ele>171.3</ele>
        <time>2021-08-29T06:37:57Z</time>
      </trkpt>
      <trkpt lat="43.2923210" lon="-8.4075830">
        <ele>171.5</ele>
        <time>2021-08-29T06:38:03Z</time>
      </trkpt>
      <trkpt lat="43.2923620" lon="-8.4078120">
        <ele>171.8</ele>
        <time>2021-08-29T06:38:08Z</time>
      </trkpt>
      <trkpt lat="43.2923590" lon="-8.4078560">
        <ele>171.9</ele>
        <time>2021-08-29T06:38:09Z</time>
      </trkpt>
      <trkpt lat="43.2923540" lon="-8.4080070">
        <ele>172.1</ele>
        <time>2021-08-29T06:38:12Z</time>
      </trkpt>
      <trkpt lat="43.2923120" lon="-8.4082990">
        <ele>172.7</ele>
        <time>2021-08-29T06:38:18Z</time>
      </trkpt>
      <trkpt lat="43.2921970" lon="-8.4087040">
        <ele>173.3</ele>
        <time>2021-08-29T06:38:27Z</time>
      </trkpt>
      <trkpt lat="43.2921220" lon="-8.4090080">
        <ele>173.4</ele>
        <time>2021-08-29T06:38:34Z</time>
      </trkpt>
      <trkpt lat="43.2920450" lon="-8.4093370">
        <ele>173.5</ele>
        <time>2021-08-29T06:38:41Z</time>
      </trkpt>
      <trkpt lat="43.2919560" lon="-8.4095260">
        <ele>173.7</ele>
        <time>2021-08-29T06:38:46Z</time>
      </trkpt>
      <trkpt lat="43.2919210" lon="-8.4095430">
        <ele>173.9</ele>
        <time>2021-08-29T06:38:47Z</time>
      </trkpt>
      <trkpt lat="43.2917610" lon="-8.4095410">
        <ele>174.9</ele>
        <time>2021-08-29T06:38:52Z</time>
      </trkpt>
      <trkpt lat="43.2916420" lon="-8.4095500">
        <ele>176.3</ele>
        <time>2021-08-29T06:38:57Z</time>
      </trkpt>
      <trkpt lat="43.2915730" lon="-8.4096860">
        <ele>178.0</ele>
        <time>2021-08-29T06:39:03Z</time>
      </trkpt>
      <trkpt lat="43.2915310" lon="-8.4097780">
        <ele>179.4</ele>
        <time>2021-08-29T06:39:07Z</time>
      </trkpt>
      <trkpt lat="43.2914980" lon="-8.4098110">
        <ele>180.1</ele>
        <time>2021-08-29T06:39:09Z</time>
      </trkpt>
      <trkpt lat="43.2914260" lon="-8.4099570">
        <ele>182.4</ele>
        <time>2021-08-29T06:39:15Z</time>
      </trkpt>
      <trkpt lat="43.2914140" lon="-8.4100300">
        <ele>183.4</ele>
        <time>2021-08-29T06:39:19Z</time>
      </trkpt>
      <trkpt lat="43.2913620" lon="-8.4101350">
        <ele>185.1</ele>
        <time>2021-08-29T06:39:25Z</time>
      </trkpt>
      <trkpt lat="43.2913140" lon="-8.4101710">
        <ele>186.1</ele>
        <time>2021-08-29T06:39:29Z</time>
      </trkpt>
      <trkpt lat="43.2912420" lon="-8.4101800">
        <ele>187.6</ele>
        <time>2021-08-29T06:39:34Z</time>
      </trkpt>
      <trkpt lat="43.2911790" lon="-8.4102060">
        <ele>188.8</ele>
        <time>2021-08-29T06:39:38Z</time>
      </trkpt>
      <trkpt lat="43.2911400" lon="-8.4102280">
        <ele>189.7</ele>
        <time>2021-08-29T06:39:41Z</time>
      </trkpt>
      <trkpt lat="43.2910830" lon="-8.4102400">
        <ele>190.7</ele>
        <time>2021-08-29T06:39:45Z</time>
      </trkpt>
      <trkpt lat="43.2910540" lon="-8.4102500">
        <ele>191.3</ele>
        <time>2021-08-29T06:39:47Z</time>
      </trkpt>
      <trkpt lat="43.2910420" lon="-8.4102630">
        <ele>191.5</ele>
        <time>2021-08-29T06:39:48Z</time>
      </trkpt>
      <trkpt lat="43.2910030" lon="-8.4103110">
        <ele>192.5</ele>
        <time>2021-08-29T06:39:52Z</time>
      </trkpt>
      <trkpt lat="43.2909690" lon="-8.4103380">
        <ele>193.2</ele>
        <time>2021-08-29T06:39:55Z</time>
      </trkpt>
      <trkpt lat="43.2909150" lon="-8.4103410">
        <ele>194.1</ele>
        <time>2021-08-29T06:39:59Z</time>
      </trkpt>
      <trkpt lat="43.2908900" lon="-8.4103690">
        <ele>194.7</ele>
        <time>2021-08-29T06:40:01Z</time>
      </trkpt>
      <trkpt lat="43.2908790" lon="-8.4103850">
        <ele>195.0</ele>
        <time>2021-08-29T06:40:02Z</time>
      </trkpt>
      <trkpt lat="43.2908530" lon="-8.4104070">
        <ele>195.5</ele>
        <time>2021-08-29T06:40:07Z</time>
      </trkpt>
      <trkpt lat="43.2908530" lon="-8.4104070">
        <ele>195.5</ele>
        <time>2021-08-29T06:40:15Z</time>
      </trkpt>
      <trkpt lat="43.2908530" lon="-8.4104070">
        <ele>195.5</ele>
        <time>2021-08-29T06:40:20Z</time>
      </trkpt>
      <trkpt lat="43.2908530" lon="-8.4104070">
        <ele>195.5</ele>
        <time>2021-08-29T06:40:23Z</time>
      </trkpt>
      <trkpt lat="43.2908530" lon="-8.4104070">
        <ele>195.5</ele>
        <time>2021-08-29T06:40:25Z</time>
      </trkpt>
      <trkpt lat="43.2908460" lon="-8.4104300">
        <ele>195.8</ele>
        <time>2021-08-29T06:40:34Z</time>
      </trkpt>
      <trkpt lat="43.2907760" lon="-8.4105760">
        <ele>198.0</ele>
        <time>2021-08-29T06:40:42Z</time>
      </trkpt>
      <trkpt lat="43.2907290" lon="-8.4106320">
        <ele>199.2</ele>
        <time>2021-08-29T06:40:46Z</time>
      </trkpt>
      <trkpt lat="43.2906850" lon="-8.4106700">
        <ele>200.3</ele>
        <time>2021-08-29T06:40:50Z</time>
      </trkpt>
      <trkpt lat="43.2906010" lon="-8.4106560">
        <ele>202.1</ele>
        <time>2021-08-29T06:40:56Z</time>
      </trkpt>
      <trkpt lat="43.2905950" lon="-8.4106440">
        <ele>202.3</ele>
        <time>2021-08-29T06:40:57Z</time>
      </trkpt>
      <trkpt lat="43.2905890" lon="-8.4106320">
        <ele>202.5</ele>
        <time>2021-08-29T06:40:58Z</time>
      </trkpt>
      <trkpt lat="43.2905410" lon="-8.4106210">
        <ele>203.5</ele>
        <time>2021-08-29T06:41:01Z</time>
      </trkpt>
      <trkpt lat="43.2904730" lon="-8.4106080">
        <ele>204.8</ele>
        <time>2021-08-29T06:41:06Z</time>
      </trkpt>
      <trkpt lat="43.2904660" lon="-8.4106000">
        <ele>205.0</ele>
        <time>2021-08-29T06:41:07Z</time>
      </trkpt>
      <trkpt lat="43.2903870" lon="-8.4105550">
        <ele>206.5</ele>
        <time>2021-08-29T06:41:14Z</time>
      </trkpt>
      <trkpt lat="43.2903310" lon="-8.4105050">
        <ele>207.6</ele>
        <time>2021-08-29T06:41:20Z</time>
      </trkpt>
      <trkpt lat="43.2903090" lon="-8.4105070">
        <ele>207.9</ele>
        <time>2021-08-29T06:41:22Z</time>
      </trkpt>
      <trkpt lat="43.2902610" lon="-8.4104890">
        <ele>208.6</ele>
        <time>2021-08-29T06:41:27Z</time>
      </trkpt>
      <trkpt lat="43.2902230" lon="-8.4104870">
        <ele>209.1</ele>
        <time>2021-08-29T06:41:30Z</time>
      </trkpt>
      <trkpt lat="43.2902110" lon="-8.4104850">
        <ele>209.2</ele>
        <time>2021-08-29T06:41:31Z</time>
      </trkpt>
      <trkpt lat="43.2901600" lon="-8.4104700">
        <ele>209.8</ele>
        <time>2021-08-29T06:41:35Z</time>
      </trkpt>
      <trkpt lat="43.2901200" lon="-8.4104440">
        <ele>210.1</ele>
        <time>2021-08-29T06:41:38Z</time>
      </trkpt>
      <trkpt lat="43.2900970" lon="-8.4104300">
        <ele>210.3</ele>
        <time>2021-08-29T06:41:40Z</time>
      </trkpt>
      <trkpt lat="43.2899940" lon="-8.4103840">
        <ele>210.9</ele>
        <time>2021-08-29T06:41:47Z</time>
      </trkpt>
      <trkpt lat="43.2899420" lon="-8.4103690">
        <ele>211.2</ele>
        <time>2021-08-29T06:41:50Z</time>
      </trkpt>
      <trkpt lat="43.2898860" lon="-8.4103860">
        <ele>211.4</ele>
        <time>2021-08-29T06:41:53Z</time>
      </trkpt>
      <trkpt lat="43.2898390" lon="-8.4104390">
        <ele>211.5</ele>
        <time>2021-08-29T06:41:56Z</time>
      </trkpt>
      <trkpt lat="43.2897320" lon="-8.4105990">
        <ele>211.9</ele>
        <time>2021-08-29T06:42:04Z</time>
      </trkpt>
      <trkpt lat="43.2895730" lon="-8.4106760">
        <ele>212.4</ele>
        <time>2021-08-29T06:42:10Z</time>
      </trkpt>
      <trkpt lat="43.2894080" lon="-8.4107140">
        <ele>213.9</ele>
        <time>2021-08-29T06:42:17Z</time>
      </trkpt>
      <trkpt lat="43.2893110" lon="-8.4106900">
        <ele>214.9</ele>
        <time>2021-08-29T06:42:22Z</time>
      </trkpt>
      <trkpt lat="43.2892990" lon="-8.4106910">
        <ele>215.0</ele>
        <time>2021-08-29T06:42:23Z</time>
      </trkpt>
      <trkpt lat="43.2892320" lon="-8.4106900">
        <ele>215.6</ele>
        <time>2021-08-29T06:42:28Z</time>
      </trkpt>
      <trkpt lat="43.2892120" lon="-8.4106940">
        <ele>215.8</ele>
        <time>2021-08-29T06:42:29Z</time>
      </trkpt>
      <trkpt lat="43.2891390" lon="-8.4107250">
        <ele>216.3</ele>
        <time>2021-08-29T06:42:33Z</time>
      </trkpt>
      <trkpt lat="43.2891270" lon="-8.4107530">
        <ele>216.5</ele>
        <time>2021-08-29T06:42:34Z</time>
      </trkpt>
      <trkpt lat="43.2890610" lon="-8.4109110">
        <ele>216.9</ele>
        <time>2021-08-29T06:42:40Z</time>
      </trkpt>
      <trkpt lat="43.2889800" lon="-8.4110170">
        <ele>216.7</ele>
        <time>2021-08-29T06:42:45Z</time>
      </trkpt>
      <trkpt lat="43.2888390" lon="-8.4111530">
        <ele>215.5</ele>
        <time>2021-08-29T06:42:50Z</time>
      </trkpt>
      <trkpt lat="43.2886260" lon="-8.4113400">
        <ele>213.9</ele>
        <time>2021-08-29T06:42:55Z</time>
      </trkpt>
      <trkpt lat="43.2884520" lon="-8.4114260">
        <ele>213.1</ele>
        <time>2021-08-29T06:43:00Z</time>
      </trkpt>
      <trkpt lat="43.2883790" lon="-8.4114210">
        <ele>212.9</ele>
        <time>2021-08-29T06:43:03Z</time>
      </trkpt>
      <trkpt lat="43.2882880" lon="-8.4114080">
        <ele>212.6</ele>
        <time>2021-08-29T06:43:06Z</time>
      </trkpt>
      <trkpt lat="43.2880940" lon="-8.4114460">
        <ele>211.8</ele>
        <time>2021-08-29T06:43:12Z</time>
      </trkpt>
      <trkpt lat="43.2879290" lon="-8.4115440">
        <ele>210.6</ele>
        <time>2021-08-29T06:43:16Z</time>
      </trkpt>
      <trkpt lat="43.2876960" lon="-8.4116740">
        <ele>209.0</ele>
        <time>2021-08-29T06:43:21Z</time>
      </trkpt>
      <trkpt lat="43.2876060" lon="-8.4117010">
        <ele>208.5</ele>
        <time>2021-08-29T06:43:23Z</time>
      </trkpt>
      <trkpt lat="43.2874830" lon="-8.4117140">
        <ele>207.7</ele>
        <time>2021-08-29T06:43:27Z</time>
      </trkpt>
      <trkpt lat="43.2873030" lon="-8.4117480">
        <ele>205.4</ele>
        <time>2021-08-29T06:43:34Z</time>
      </trkpt>
      <trkpt lat="43.2872440" lon="-8.4117760">
        <ele>204.2</ele>
        <time>2021-08-29T06:43:38Z</time>
      </trkpt>
      <trkpt lat="43.2872150" lon="-8.4117940">
        <ele>203.5</ele>
        <time>2021-08-29T06:43:40Z</time>
      </trkpt>
      <trkpt lat="43.2871830" lon="-8.4118180">
        <ele>202.7</ele>
        <time>2021-08-29T06:43:42Z</time>
      </trkpt>
      <trkpt lat="43.2871460" lon="-8.4118270">
        <ele>201.9</ele>
        <time>2021-08-29T06:43:44Z</time>
      </trkpt>
      <trkpt lat="43.2871220" lon="-8.4118300">
        <ele>201.3</ele>
        <time>2021-08-29T06:43:45Z</time>
      </trkpt>
      <trkpt lat="43.2869890" lon="-8.4118550">
        <ele>198.3</ele>
        <time>2021-08-29T06:43:50Z</time>
      </trkpt>
      <trkpt lat="43.2868670" lon="-8.4118890">
        <ele>195.6</ele>
        <time>2021-08-29T06:43:55Z</time>
      </trkpt>
      <trkpt lat="43.2866260" lon="-8.4119310">
        <ele>190.2</ele>
        <time>2021-08-29T06:44:04Z</time>
      </trkpt>
      <trkpt lat="43.2865350" lon="-8.4119310">
        <ele>188.5</ele>
        <time>2021-08-29T06:44:08Z</time>
      </trkpt>
      <trkpt lat="43.2865000" lon="-8.4119630">
        <ele>187.8</ele>
        <time>2021-08-29T06:44:10Z</time>
      </trkpt>
      <trkpt lat="43.2864420" lon="-8.4120660">
        <ele>186.3</ele>
        <time>2021-08-29T06:44:13Z</time>
      </trkpt>
      <trkpt lat="43.2864350" lon="-8.4121170">
        <ele>185.9</ele>
        <time>2021-08-29T06:44:14Z</time>
      </trkpt>
      <trkpt lat="43.2864590" lon="-8.4123450">
        <ele>184.7</ele>
        <time>2021-08-29T06:44:19Z</time>
      </trkpt>
      <trkpt lat="43.2864820" lon="-8.4125360">
        <ele>184.7</ele>
        <time>2021-08-29T06:44:24Z</time>
      </trkpt>
      <trkpt lat="43.2865190" lon="-8.4127680">
        <ele>185.2</ele>
        <time>2021-08-29T06:44:31Z</time>
      </trkpt>
      <trkpt lat="43.2864830" lon="-8.4130160">
        <ele>185.4</ele>
        <time>2021-08-29T06:44:37Z</time>
      </trkpt>
      <trkpt lat="43.2863630" lon="-8.4132540">
        <ele>185.5</ele>
        <time>2021-08-29T06:44:43Z</time>
      </trkpt>
      <trkpt lat="43.2862280" lon="-8.4135520">
        <ele>186.0</ele>
        <time>2021-08-29T06:44:50Z</time>
      </trkpt>
      <trkpt lat="43.2861140" lon="-8.4138530">
        <ele>186.3</ele>
        <time>2021-08-29T06:44:57Z</time>
      </trkpt>
      <trkpt lat="43.2860230" lon="-8.4140610">
        <ele>186.2</ele>
        <time>2021-08-29T06:45:02Z</time>
      </trkpt>
      <trkpt lat="43.2859000" lon="-8.4142930">
        <ele>185.8</ele>
        <time>2021-08-29T06:45:07Z</time>
      </trkpt>
      <trkpt lat="43.2858020" lon="-8.4143980">
        <ele>185.5</ele>
        <time>2021-08-29T06:45:10Z</time>
      </trkpt>
      <trkpt lat="43.2856930" lon="-8.4144470">
        <ele>184.8</ele>
        <time>2021-08-29T06:45:12Z</time>
      </trkpt>
      <trkpt lat="43.2855720" lon="-8.4144310">
        <ele>183.8</ele>
        <time>2021-08-29T06:45:14Z</time>
      </trkpt>
      <trkpt lat="43.2855090" lon="-8.4143920">
        <ele>183.2</ele>
        <time>2021-08-29T06:45:15Z</time>
      </trkpt>
      <trkpt lat="43.2854500" lon="-8.4143430">
        <ele>182.7</ele>
        <time>2021-08-29T06:45:16Z</time>
      </trkpt>
      <trkpt lat="43.2853380" lon="-8.4141980">
        <ele>181.6</ele>
        <time>2021-08-29T06:45:18Z</time>
      </trkpt>
      <trkpt lat="43.2850670" lon="-8.4137940">
        <ele>178.4</ele>
        <time>2021-08-29T06:45:23Z</time>
      </trkpt>
      <trkpt lat="43.2850000" lon="-8.4137190">
        <ele>177.6</ele>
        <time>2021-08-29T06:45:24Z</time>
      </trkpt>
      <trkpt lat="43.2848430" lon="-8.4135820">
        <ele>176.0</ele>
        <time>2021-08-29T06:45:26Z</time>
      </trkpt>
      <trkpt lat="43.2847580" lon="-8.4135210">
        <ele>175.3</ele>
        <time>2021-08-29T06:45:27Z</time>
      </trkpt>
      <trkpt lat="43.2844910" lon="-8.4133440">
        <ele>173.6</ele>
        <time>2021-08-29T06:45:30Z</time>
      </trkpt>
      <trkpt lat="43.2843290" lon="-8.4131980">
        <ele>172.4</ele>
        <time>2021-08-29T06:45:32Z</time>
      </trkpt>
      <trkpt lat="43.2840000" lon="-8.4128870">
        <ele>169.8</ele>
        <time>2021-08-29T06:45:36Z</time>
      </trkpt>
      <trkpt lat="43.2835160" lon="-8.4124720">
        <ele>168.4</ele>
        <time>2021-08-29T06:45:42Z</time>
      </trkpt>
      <trkpt lat="43.2830680" lon="-8.4120060">
        <ele>164.8</ele>
        <time>2021-08-29T06:45:48Z</time>
      </trkpt>
      <trkpt lat="43.2829260" lon="-8.4118070">
        <ele>164.1</ele>
        <time>2021-08-29T06:45:50Z</time>
      </trkpt>
      <trkpt lat="43.2827640" lon="-8.4116590">
        <ele>163.6</ele>
        <time>2021-08-29T06:45:52Z</time>
      </trkpt>
      <trkpt lat="43.2825880" lon="-8.4115640">
        <ele>163.1</ele>
        <time>2021-08-29T06:45:54Z</time>
      </trkpt>
      <trkpt lat="43.2824190" lon="-8.4114950">
        <ele>162.3</ele>
        <time>2021-08-29T06:45:56Z</time>
      </trkpt>
      <trkpt lat="43.2823350" lon="-8.4114760">
        <ele>161.8</ele>
        <time>2021-08-29T06:45:57Z</time>
      </trkpt>
      <trkpt lat="43.2821640" lon="-8.4114880">
        <ele>160.7</ele>
        <time>2021-08-29T06:45:59Z</time>
      </trkpt>
      <trkpt lat="43.2819830" lon="-8.4115350">
        <ele>159.8</ele>
        <time>2021-08-29T06:46:01Z</time>
      </trkpt>
      <trkpt lat="43.2817110" lon="-8.4115630">
        <ele>158.9</ele>
        <time>2021-08-29T06:46:04Z</time>
      </trkpt>
      <trkpt lat="43.2816300" lon="-8.4115580">
        <ele>158.6</ele>
        <time>2021-08-29T06:46:05Z</time>
      </trkpt>
      <trkpt lat="43.2814970" lon="-8.4114970">
        <ele>158.1</ele>
        <time>2021-08-29T06:46:07Z</time>
      </trkpt>
      <trkpt lat="43.2813990" lon="-8.4113650">
        <ele>157.5</ele>
        <time>2021-08-29T06:46:09Z</time>
      </trkpt>
      <trkpt lat="43.2813460" lon="-8.4111800">
        <ele>156.8</ele>
        <time>2021-08-29T06:46:11Z</time>
      </trkpt>
      <trkpt lat="43.2813380" lon="-8.4110780">
        <ele>156.4</ele>
        <time>2021-08-29T06:46:12Z</time>
      </trkpt>
      <trkpt lat="43.2813640" lon="-8.4108580">
        <ele>155.5</ele>
        <time>2021-08-29T06:46:14Z</time>
      </trkpt>
      <trkpt lat="43.2814690" lon="-8.4105580">
        <ele>153.8</ele>
        <time>2021-08-29T06:46:17Z</time>
      </trkpt>
      <trkpt lat="43.2816840" lon="-8.4101760">
        <ele>152.9</ele>
        <time>2021-08-29T06:46:21Z</time>
      </trkpt>
      <trkpt lat="43.2817290" lon="-8.4099660">
        <ele>152.7</ele>
        <time>2021-08-29T06:46:23Z</time>
      </trkpt>
      <trkpt lat="43.2817160" lon="-8.4098610">
        <ele>152.5</ele>
        <time>2021-08-29T06:46:24Z</time>
      </trkpt>
      <trkpt lat="43.2816930" lon="-8.4097610">
        <ele>152.3</ele>
        <time>2021-08-29T06:46:25Z</time>
      </trkpt>
      <trkpt lat="43.2816260" lon="-8.4095940">
        <ele>151.7</ele>
        <time>2021-08-29T06:46:27Z</time>
      </trkpt>
      <trkpt lat="43.2815230" lon="-8.4094560">
        <ele>150.6</ele>
        <time>2021-08-29T06:46:29Z</time>
      </trkpt>
      <trkpt lat="43.2814560" lon="-8.4094000">
        <ele>149.8</ele>
        <time>2021-08-29T06:46:30Z</time>
      </trkpt>
      <trkpt lat="43.2811210" lon="-8.4091230">
        <ele>146.8</ele>
        <time>2021-08-29T06:46:35Z</time>
      </trkpt>
      <trkpt lat="43.2810800" lon="-8.4090750">
        <ele>146.5</ele>
        <time>2021-08-29T06:46:36Z</time>
      </trkpt>
      <trkpt lat="43.2809620" lon="-8.4089570">
        <ele>145.6</ele>
        <time>2021-08-29T06:46:40Z</time>
      </trkpt>
      <trkpt lat="43.2809360" lon="-8.4087720">
        <ele>145.9</ele>
        <time>2021-08-29T06:46:44Z</time>
      </trkpt>
      <trkpt lat="43.2809590" lon="-8.4084100">
        <ele>145.8</ele>
        <time>2021-08-29T06:46:50Z</time>
      </trkpt>
      <trkpt lat="43.2810220" lon="-8.4079740">
        <ele>144.9</ele>
        <time>2021-08-29T06:46:56Z</time>
      </trkpt>
      <trkpt lat="43.2810340" lon="-8.4078920">
        <ele>144.7</ele>
        <time>2021-08-29T06:46:57Z</time>
      </trkpt>
      <trkpt lat="43.2810860" lon="-8.4073810">
        <ele>143.1</ele>
        <time>2021-08-29T06:47:03Z</time>
      </trkpt>
      <trkpt lat="43.2811340" lon="-8.4069280">
        <ele>141.6</ele>
        <time>2021-08-29T06:47:09Z</time>
      </trkpt>
      <trkpt lat="43.2811120" lon="-8.4068440">
        <ele>141.4</ele>
        <time>2021-08-29T06:47:11Z</time>
      </trkpt>
      <trkpt lat="43.2810810" lon="-8.4068180">
        <ele>141.3</ele>
        <time>2021-08-29T06:47:12Z</time>
      </trkpt>
      <trkpt lat="43.2809940" lon="-8.4067930">
        <ele>140.8</ele>
        <time>2021-08-29T06:47:14Z</time>
      </trkpt>
      <trkpt lat="43.2809010" lon="-8.4067550">
        <ele>140.2</ele>
        <time>2021-08-29T06:47:16Z</time>
      </trkpt>
      <trkpt lat="43.2806340" lon="-8.4066370">
        <ele>138.5</ele>
        <time>2021-08-29T06:47:21Z</time>
      </trkpt>
      <trkpt lat="43.2805310" lon="-8.4065950">
        <ele>137.8</ele>
        <time>2021-08-29T06:47:23Z</time>
      </trkpt>
      <trkpt lat="43.2803380" lon="-8.4065390">
        <ele>136.3</ele>
        <time>2021-08-29T06:47:26Z</time>
      </trkpt>
      <trkpt lat="43.2802100" lon="-8.4064780">
        <ele>135.5</ele>
        <time>2021-08-29T06:47:28Z</time>
      </trkpt>
      <trkpt lat="43.2800280" lon="-8.4063690">
        <ele>134.8</ele>
        <time>2021-08-29T06:47:31Z</time>
      </trkpt>
      <trkpt lat="43.2799260" lon="-8.4063460">
        <ele>134.5</ele>
        <time>2021-08-29T06:47:33Z</time>
      </trkpt>
      <trkpt lat="43.2798920" lon="-8.4063480">
        <ele>134.3</ele>
        <time>2021-08-29T06:47:34Z</time>
      </trkpt>
      <trkpt lat="43.2798720" lon="-8.4063650">
        <ele>134.1</ele>
        <time>2021-08-29T06:47:35Z</time>
      </trkpt>
      <trkpt lat="43.2798370" lon="-8.4063950">
        <ele>133.8</ele>
        <time>2021-08-29T06:47:37Z</time>
      </trkpt>
      <trkpt lat="43.2797400" lon="-8.4063410">
        <ele>132.7</ele>
        <time>2021-08-29T06:47:41Z</time>
      </trkpt>
      <trkpt lat="43.2797110" lon="-8.4063320">
        <ele>132.3</ele>
        <time>2021-08-29T06:47:42Z</time>
      </trkpt>
      <trkpt lat="43.2796190" lon="-8.4062670">
        <ele>130.7</ele>
        <time>2021-08-29T06:47:47Z</time>
      </trkpt>
      <trkpt lat="43.2795880" lon="-8.4061910">
        <ele>129.7</ele>
        <time>2021-08-29T06:47:49Z</time>
      </trkpt>
      <trkpt lat="43.2795760" lon="-8.4061540">
        <ele>129.2</ele>
        <time>2021-08-29T06:47:50Z</time>
      </trkpt>
      <trkpt lat="43.2795300" lon="-8.4061050">
        <ele>128.1</ele>
        <time>2021-08-29T06:47:52Z</time>
      </trkpt>
      <trkpt lat="43.2794840" lon="-8.4060760">
        <ele>127.1</ele>
        <time>2021-08-29T06:47:54Z</time>
      </trkpt>
      <trkpt lat="43.2794410" lon="-8.4060260">
        <ele>126.0</ele>
        <time>2021-08-29T06:47:56Z</time>
      </trkpt>
      <trkpt lat="43.2794030" lon="-8.4059770">
        <ele>125.0</ele>
        <time>2021-08-29T06:47:58Z</time>
      </trkpt>
      <trkpt lat="43.2794110" lon="-8.4058800">
        <ele>123.7</ele>
        <time>2021-08-29T06:48:00Z</time>
      </trkpt>
      <trkpt lat="43.2794080" lon="-8.4058490">
        <ele>123.3</ele>
        <time>2021-08-29T06:48:01Z</time>
      </trkpt>
      <trkpt lat="43.2794010" lon="-8.4057960">
        <ele>122.6</ele>
        <time>2021-08-29T06:48:02Z</time>
      </trkpt>
      <trkpt lat="43.2793670" lon="-8.4057310">
        <ele>121.6</ele>
        <time>2021-08-29T06:48:04Z</time>
      </trkpt>
      <trkpt lat="43.2793110" lon="-8.4057360">
        <ele>120.7</ele>
        <time>2021-08-29T06:48:07Z</time>
      </trkpt>
      <trkpt lat="43.2790960" lon="-8.4057590">
        <ele>117.2</ele>
        <time>2021-08-29T06:48:13Z</time>
      </trkpt>
      <trkpt lat="43.2789410" lon="-8.4057690">
        <ele>115.3</ele>
        <time>2021-08-29T06:48:17Z</time>
      </trkpt>
      <trkpt lat="43.2788590" lon="-8.4058200">
        <ele>114.3</ele>
        <time>2021-08-29T06:48:19Z</time>
      </trkpt>
      <trkpt lat="43.2787900" lon="-8.4058920">
        <ele>113.6</ele>
        <time>2021-08-29T06:48:21Z</time>
      </trkpt>
      <trkpt lat="43.2785670" lon="-8.4060240">
        <ele>111.6</ele>
        <time>2021-08-29T06:48:26Z</time>
      </trkpt>
      <trkpt lat="43.2785070" lon="-8.4060470">
        <ele>111.0</ele>
        <time>2021-08-29T06:48:27Z</time>
      </trkpt>
      <trkpt lat="43.2783940" lon="-8.4060830">
        <ele>110.1</ele>
        <time>2021-08-29T06:48:29Z</time>
      </trkpt>
      <trkpt lat="43.2782960" lon="-8.4060730">
        <ele>109.3</ele>
        <time>2021-08-29T06:48:31Z</time>
      </trkpt>
      <trkpt lat="43.2781710" lon="-8.4060810">
        <ele>108.2</ele>
        <time>2021-08-29T06:48:33Z</time>
      </trkpt>
      <trkpt lat="43.2779880" lon="-8.4061070">
        <ele>106.4</ele>
        <time>2021-08-29T06:48:37Z</time>
      </trkpt>
      <trkpt lat="43.2778470" lon="-8.4061640">
        <ele>104.8</ele>
        <time>2021-08-29T06:48:41Z</time>
      </trkpt>
      <trkpt lat="43.2776150" lon="-8.4062140">
        <ele>101.8</ele>
        <time>2021-08-29T06:48:47Z</time>
      </trkpt>
      <trkpt lat="43.2774380" lon="-8.4062060">
        <ele>99.1</ele>
        <time>2021-08-29T06:48:51Z</time>
      </trkpt>
      <trkpt lat="43.2773950" lon="-8.4061880">
        <ele>98.4</ele>
        <time>2021-08-29T06:48:52Z</time>
      </trkpt>
      <trkpt lat="43.2773550" lon="-8.4061610">
        <ele>97.7</ele>
        <time>2021-08-29T06:48:53Z</time>
      </trkpt>
      <trkpt lat="43.2772410" lon="-8.4061030">
        <ele>95.8</ele>
        <time>2021-08-29T06:48:56Z</time>
      </trkpt>
      <trkpt lat="43.2770930" lon="-8.4061090">
        <ele>94.2</ele>
        <time>2021-08-29T06:49:00Z</time>
      </trkpt>
      <trkpt lat="43.2768050" lon="-8.4061760">
        <ele>91.3</ele>
        <time>2021-08-29T06:49:07Z</time>
      </trkpt>
      <trkpt lat="43.2767340" lon="-8.4061870">
        <ele>90.5</ele>
        <time>2021-08-29T06:49:09Z</time>
      </trkpt>
      <trkpt lat="43.2766030" lon="-8.4062420">
        <ele>88.9</ele>
        <time>2021-08-29T06:49:13Z</time>
      </trkpt>
      <trkpt lat="43.2764520" lon="-8.4063880">
        <ele>86.2</ele>
        <time>2021-08-29T06:49:18Z</time>
      </trkpt>
      <trkpt lat="43.2764210" lon="-8.4064220">
        <ele>85.6</ele>
        <time>2021-08-29T06:49:19Z</time>
      </trkpt>
      <trkpt lat="43.2763380" lon="-8.4065280">
        <ele>83.9</ele>
        <time>2021-08-29T06:49:22Z</time>
      </trkpt>
      <trkpt lat="43.2762560" lon="-8.4065790">
        <ele>82.6</ele>
        <time>2021-08-29T06:49:24Z</time>
      </trkpt>
      <trkpt lat="43.2761170" lon="-8.4065870">
        <ele>80.8</ele>
        <time>2021-08-29T06:49:27Z</time>
      </trkpt>
      <trkpt lat="43.2760660" lon="-8.4065810">
        <ele>80.2</ele>
        <time>2021-08-29T06:49:28Z</time>
      </trkpt>
      <trkpt lat="43.2760280" lon="-8.4065750">
        <ele>79.8</ele>
        <time>2021-08-29T06:49:29Z</time>
      </trkpt>
      <trkpt lat="43.2759530" lon="-8.4065510">
        <ele>79.1</ele>
        <time>2021-08-29T06:49:31Z</time>
      </trkpt>
      <trkpt lat="43.2758710" lon="-8.4064870">
        <ele>78.2</ele>
        <time>2021-08-29T06:49:33Z</time>
      </trkpt>
      <trkpt lat="43.2758330" lon="-8.4064520">
        <ele>77.9</ele>
        <time>2021-08-29T06:49:34Z</time>
      </trkpt>
      <trkpt lat="43.2757880" lon="-8.4064450">
        <ele>77.6</ele>
        <time>2021-08-29T06:49:35Z</time>
      </trkpt>
      <trkpt lat="43.2757110" lon="-8.4064620">
        <ele>77.2</ele>
        <time>2021-08-29T06:49:37Z</time>
      </trkpt>
      <trkpt lat="43.2756740" lon="-8.4065480">
        <ele>76.9</ele>
        <time>2021-08-29T06:49:39Z</time>
      </trkpt>
      <trkpt lat="43.2756750" lon="-8.4066170">
        <ele>76.8</ele>
        <time>2021-08-29T06:49:40Z</time>
      </trkpt>
      <trkpt lat="43.2756920" lon="-8.4066830">
        <ele>76.7</ele>
        <time>2021-08-29T06:49:41Z</time>
      </trkpt>
      <trkpt lat="43.2757610" lon="-8.4068000">
        <ele>76.8</ele>
        <time>2021-08-29T06:49:43Z</time>
      </trkpt>
      <trkpt lat="43.2758510" lon="-8.4069380">
        <ele>77.4</ele>
        <time>2021-08-29T06:49:46Z</time>
      </trkpt>
      <trkpt lat="43.2758840" lon="-8.4070030">
        <ele>77.8</ele>
        <time>2021-08-29T06:49:48Z</time>
      </trkpt>
      <trkpt lat="43.2759470" lon="-8.4071200">
        <ele>78.6</ele>
        <time>2021-08-29T06:49:53Z</time>
      </trkpt>
      <trkpt lat="43.2760060" lon="-8.4072480">
        <ele>79.5</ele>
        <time>2021-08-29T06:49:58Z</time>
      </trkpt>
      <trkpt lat="43.2760560" lon="-8.4073570">
        <ele>80.2</ele>
        <time>2021-08-29T06:50:02Z</time>
      </trkpt>
      <trkpt lat="43.2760660" lon="-8.4074180">
        <ele>80.5</ele>
        <time>2021-08-29T06:50:04Z</time>
      </trkpt>
      <trkpt lat="43.2760720" lon="-8.4074900">
        <ele>80.7</ele>
        <time>2021-08-29T06:50:06Z</time>
      </trkpt>
      <trkpt lat="43.2760950" lon="-8.4076300">
        <ele>80.9</ele>
        <time>2021-08-29T06:50:10Z</time>
      </trkpt>
      <trkpt lat="43.2760970" lon="-8.4076680">
        <ele>80.9</ele>
        <time>2021-08-29T06:50:11Z</time>
      </trkpt>
      <trkpt lat="43.2761050" lon="-8.4077490">
        <ele>80.8</ele>
        <time>2021-08-29T06:50:13Z</time>
      </trkpt>
      <trkpt lat="43.2761420" lon="-8.4078600">
        <ele>80.5</ele>
        <time>2021-08-29T06:50:16Z</time>
      </trkpt>
      <trkpt lat="43.2762270" lon="-8.4081230">
        <ele>79.2</ele>
        <time>2021-08-29T06:50:21Z</time>
      </trkpt>
      <trkpt lat="43.2762960" lon="-8.4083900">
        <ele>77.6</ele>
        <time>2021-08-29T06:50:25Z</time>
      </trkpt>
      <trkpt lat="43.2763010" lon="-8.4084620">
        <ele>77.2</ele>
        <time>2021-08-29T06:50:26Z</time>
      </trkpt>
      <trkpt lat="43.2763020" lon="-8.4085330">
        <ele>76.8</ele>
        <time>2021-08-29T06:50:27Z</time>
      </trkpt>
      <trkpt lat="43.2762890" lon="-8.4086730">
        <ele>76.0</ele>
        <time>2021-08-29T06:50:29Z</time>
      </trkpt>
      <trkpt lat="43.2762680" lon="-8.4088200">
        <ele>75.1</ele>
        <time>2021-08-29T06:50:31Z</time>
      </trkpt>
      <trkpt lat="43.2762420" lon="-8.4089450">
        <ele>74.4</ele>
        <time>2021-08-29T06:50:33Z</time>
      </trkpt>
      <trkpt lat="43.2761920" lon="-8.4090510">
        <ele>73.8</ele>
        <time>2021-08-29T06:50:35Z</time>
      </trkpt>
      <trkpt lat="43.2761460" lon="-8.4090830">
        <ele>73.4</ele>
        <time>2021-08-29T06:50:38Z</time>
      </trkpt>
      <trkpt lat="43.2761000" lon="-8.4091140">
        <ele>73.1</ele>
        <time>2021-08-29T06:50:42Z</time>
      </trkpt>
      <trkpt lat="43.2760540" lon="-8.4091460">
        <ele>72.8</ele>
        <time>2021-08-29T06:50:43Z</time>
      </trkpt>
      <trkpt lat="43.2760090" lon="-8.4091770">
        <ele>72.5</ele>
        <time>2021-08-29T06:50:44Z</time>
      </trkpt>
      <trkpt lat="43.2759630" lon="-8.4092090">
        <ele>72.3</ele>
        <time>2021-08-29T06:50:45Z</time>
      </trkpt>
      <trkpt lat="43.2759170" lon="-8.4092400">
        <ele>72.0</ele>
        <time>2021-08-29T06:50:46Z</time>
      </trkpt>
      <trkpt lat="43.2758710" lon="-8.4092720">
        <ele>71.8</ele>
        <time>2021-08-29T06:50:47Z</time>
      </trkpt>
      <trkpt lat="43.2755500" lon="-8.4094920">
        <ele>68.1</ele>
        <time>2021-08-29T06:50:48Z</time>
      </trkpt>
      <trkpt lat="43.2755530" lon="-8.4096810">
        <ele>68.7</ele>
        <time>2021-08-29T06:50:51Z</time>
      </trkpt>
      <trkpt lat="43.2755580" lon="-8.4097390">
        <ele>69.0</ele>
        <time>2021-08-29T06:50:52Z</time>
      </trkpt>
      <trkpt lat="43.2756220" lon="-8.4100070">
        <ele>70.1</ele>
        <time>2021-08-29T06:50:58Z</time>
      </trkpt>
      <trkpt lat="43.2756580" lon="-8.4103620">
        <ele>71.8</ele>
        <time>2021-08-29T06:51:06Z</time>
      </trkpt>
      <trkpt lat="43.2756690" lon="-8.4106910">
        <ele>73.7</ele>
        <time>2021-08-29T06:51:14Z</time>
      </trkpt>
      <trkpt lat="43.2756020" lon="-8.4109460">
        <ele>75.2</ele>
        <time>2021-08-29T06:51:21Z</time>
      </trkpt>
      <trkpt lat="43.2754890" lon="-8.4111420">
        <ele>76.6</ele>
        <time>2021-08-29T06:51:28Z</time>
      </trkpt>
      <trkpt lat="43.2754020" lon="-8.4113210">
        <ele>77.7</ele>
        <time>2021-08-29T06:51:34Z</time>
      </trkpt>
      <trkpt lat="43.2753500" lon="-8.4114450">
        <ele>78.4</ele>
        <time>2021-08-29T06:51:38Z</time>
      </trkpt>
      <trkpt lat="43.2752870" lon="-8.4115930">
        <ele>79.2</ele>
        <time>2021-08-29T06:51:43Z</time>
      </trkpt>
      <trkpt lat="43.2752240" lon="-8.4117090">
        <ele>79.9</ele>
        <time>2021-08-29T06:51:47Z</time>
      </trkpt>
      <trkpt lat="43.2751690" lon="-8.4118930">
        <ele>80.7</ele>
        <time>2021-08-29T06:51:53Z</time>
      </trkpt>
      <trkpt lat="43.2751800" lon="-8.4122370">
        <ele>82.1</ele>
        <time>2021-08-29T06:52:02Z</time>
      </trkpt>
      <trkpt lat="43.2752090" lon="-8.4124600">
        <ele>83.0</ele>
        <time>2021-08-29T06:52:10Z</time>
      </trkpt>
      <trkpt lat="43.2752000" lon="-8.4127320">
        <ele>84.0</ele>
        <time>2021-08-29T06:52:18Z</time>
      </trkpt>
      <trkpt lat="43.2751970" lon="-8.4129220">
        <ele>84.7</ele>
        <time>2021-08-29T06:52:23Z</time>
      </trkpt>
      <trkpt lat="43.2752370" lon="-8.4131200">
        <ele>85.4</ele>
        <time>2021-08-29T06:52:28Z</time>
      </trkpt>
      <trkpt lat="43.2753240" lon="-8.4132700">
        <ele>85.9</ele>
        <time>2021-08-29T06:52:33Z</time>
      </trkpt>
      <trkpt lat="43.2754690" lon="-8.4134060">
        <ele>86.3</ele>
        <time>2021-08-29T06:52:38Z</time>
      </trkpt>
      <trkpt lat="43.2755250" lon="-8.4135250">
        <ele>86.2</ele>
        <time>2021-08-29T06:52:41Z</time>
      </trkpt>
      <trkpt lat="43.2754940" lon="-8.4136750">
        <ele>86.1</ele>
        <time>2021-08-29T06:52:45Z</time>
      </trkpt>
      <trkpt lat="43.2754610" lon="-8.4137500">
        <ele>85.9</ele>
        <time>2021-08-29T06:52:47Z</time>
      </trkpt>
      <trkpt lat="43.2753990" lon="-8.4138560">
        <ele>85.8</ele>
        <time>2021-08-29T06:52:50Z</time>
      </trkpt>
      <trkpt lat="43.2753770" lon="-8.4138860">
        <ele>85.7</ele>
        <time>2021-08-29T06:52:51Z</time>
      </trkpt>
      <trkpt lat="43.2751460" lon="-8.4141710">
        <ele>84.9</ele>
        <time>2021-08-29T06:53:00Z</time>
      </trkpt>
      <trkpt lat="43.2749840" lon="-8.4142560">
        <ele>84.5</ele>
        <time>2021-08-29T06:53:05Z</time>
      </trkpt>
      <trkpt lat="43.2748720" lon="-8.4142670">
        <ele>84.7</ele>
        <time>2021-08-29T06:53:08Z</time>
      </trkpt>
      <trkpt lat="43.2747630" lon="-8.4143330">
        <ele>87.5</ele>
        <time>2021-08-29T06:53:11Z</time>
      </trkpt>
      <trkpt lat="43.2745660" lon="-8.4144880">
        <ele>93.4</ele>
        <time>2021-08-29T06:53:17Z</time>
      </trkpt>
      <trkpt lat="43.2745470" lon="-8.4144830">
        <ele>93.9</ele>
        <time>2021-08-29T06:53:18Z</time>
      </trkpt>
      <trkpt lat="43.2744670" lon="-8.4143420">
        <ele>92.2</ele>
        <time>2021-08-29T06:53:22Z</time>
      </trkpt>
      <trkpt lat="43.2744290" lon="-8.4141610">
        <ele>89.0</ele>
        <time>2021-08-29T06:53:25Z</time>
      </trkpt>
      <trkpt lat="43.2743950" lon="-8.4139580">
        <ele>85.1</ele>
        <time>2021-08-29T06:53:29Z</time>
      </trkpt>
      <trkpt lat="43.2743750" lon="-8.4139150">
        <ele>84.7</ele>
        <time>2021-08-29T06:53:30Z</time>
      </trkpt>
      <trkpt lat="43.2743250" lon="-8.4138480">
        <ele>84.1</ele>
        <time>2021-08-29T06:53:32Z</time>
      </trkpt>
      <trkpt lat="43.2742400" lon="-8.4137720">
        <ele>84.1</ele>
        <time>2021-08-29T06:53:36Z</time>
      </trkpt>
      <trkpt lat="43.2742250" lon="-8.4137520">
        <ele>83.5</ele>
        <time>2021-08-29T06:53:37Z</time>
      </trkpt>
      <trkpt lat="43.2741750" lon="-8.4137010">
        <ele>82.8</ele>
        <time>2021-08-29T06:53:40Z</time>
      </trkpt>
      <trkpt lat="43.2741460" lon="-8.4136980">
        <ele>83.1</ele>
        <time>2021-08-29T06:53:41Z</time>
      </trkpt>
      <trkpt lat="43.2741220" lon="-8.4137050">
        <ele>83.3</ele>
        <time>2021-08-29T06:53:42Z</time>
      </trkpt>
      <trkpt lat="43.2740850" lon="-8.4137420">
        <ele>84.4</ele>
        <time>2021-08-29T06:53:44Z</time>
      </trkpt>
      <trkpt lat="43.2740640" lon="-8.4137850">
        <ele>85.6</ele>
        <time>2021-08-29T06:53:46Z</time>
      </trkpt>
      <trkpt lat="43.2740300" lon="-8.4138690">
        <ele>87.6</ele>
        <time>2021-08-29T06:53:50Z</time>
      </trkpt>
      <trkpt lat="43.2740230" lon="-8.4138840">
        <ele>87.4</ele>
        <time>2021-08-29T06:53:51Z</time>
      </trkpt>
      <trkpt lat="43.2739410" lon="-8.4140270">
        <ele>92.1</ele>
        <time>2021-08-29T06:53:59Z</time>
      </trkpt>
      <trkpt lat="43.2739190" lon="-8.4141090">
        <ele>93.2</ele>
        <time>2021-08-29T06:54:03Z</time>
      </trkpt>
      <trkpt lat="43.2738890" lon="-8.4141630">
        <ele>95.4</ele>
        <time>2021-08-29T06:54:06Z</time>
      </trkpt>
      <trkpt lat="43.2738150" lon="-8.4142550">
        <ele>97.8</ele>
        <time>2021-08-29T06:54:12Z</time>
      </trkpt>
      <trkpt lat="43.2738080" lon="-8.4143260">
        <ele>99.4</ele>
        <time>2021-08-29T06:54:15Z</time>
      </trkpt>
      <trkpt lat="43.2737890" lon="-8.4143530">
        <ele>99.4</ele>
        <time>2021-08-29T06:54:17Z</time>
      </trkpt>
      <trkpt lat="43.2737610" lon="-8.4143700">
        <ele>100.3</ele>
        <time>2021-08-29T06:54:19Z</time>
      </trkpt>
      <trkpt lat="43.2737190" lon="-8.4144150">
        <ele>101.2</ele>
        <time>2021-08-29T06:54:23Z</time>
      </trkpt>
      <trkpt lat="43.2737020" lon="-8.4144810">
        <ele>102.0</ele>
        <time>2021-08-29T06:54:26Z</time>
      </trkpt>
      <trkpt lat="43.2736700" lon="-8.4145570">
        <ele>103.8</ele>
        <time>2021-08-29T06:54:31Z</time>
      </trkpt>
      <trkpt lat="43.2736520" lon="-8.4145410">
        <ele>103.6</ele>
        <time>2021-08-29T06:54:33Z</time>
      </trkpt>
      <trkpt lat="43.2736010" lon="-8.4145270">
        <ele>102.8</ele>
        <time>2021-08-29T06:54:36Z</time>
      </trkpt>
      <trkpt lat="43.2735850" lon="-8.4145250">
        <ele>102.6</ele>
        <time>2021-08-29T06:54:37Z</time>
      </trkpt>
      <trkpt lat="43.2734700" lon="-8.4145240">
        <ele>102.9</ele>
        <time>2021-08-29T06:54:42Z</time>
      </trkpt>
      <trkpt lat="43.2734430" lon="-8.4145260">
        <ele>102.8</ele>
        <time>2021-08-29T06:54:43Z</time>
      </trkpt>
      <trkpt lat="43.2732880" lon="-8.4145240">
        <ele>102.9</ele>
        <time>2021-08-29T06:54:49Z</time>
      </trkpt>
      <trkpt lat="43.2731720" lon="-8.4145330">
        <ele>102.7</ele>
        <time>2021-08-29T06:54:53Z</time>
      </trkpt>
      <trkpt lat="43.2730820" lon="-8.4145300">
        <ele>102.4</ele>
        <time>2021-08-29T06:54:56Z</time>
      </trkpt>
      <trkpt lat="43.2729290" lon="-8.4145770">
        <ele>102.5</ele>
        <time>2021-08-29T06:55:02Z</time>
      </trkpt>
      <trkpt lat="43.2727980" lon="-8.4146480">
        <ele>103.2</ele>
        <time>2021-08-29T06:55:07Z</time>
      </trkpt>
      <trkpt lat="43.2726790" lon="-8.4147350">
        <ele>104.1</ele>
        <time>2021-08-29T06:55:12Z</time>
      </trkpt>
      <trkpt lat="43.2725270" lon="-8.4148090">
        <ele>104.4</ele>
        <time>2021-08-29T06:55:17Z</time>
      </trkpt>
      <trkpt lat="43.2724970" lon="-8.4148140">
        <ele>104.0</ele>
        <time>2021-08-29T06:55:18Z</time>
      </trkpt>
      <trkpt lat="43.2724080" lon="-8.4148500">
        <ele>103.6</ele>
        <time>2021-08-29T06:55:21Z</time>
      </trkpt>
      <trkpt lat="43.2723490" lon="-8.4148690">
        <ele>102.8</ele>
        <time>2021-08-29T06:55:23Z</time>
      </trkpt>
      <trkpt lat="43.2723230" lon="-8.4148770">
        <ele>102.3</ele>
        <time>2021-08-29T06:55:24Z</time>
      </trkpt>
      <trkpt lat="43.2722310" lon="-8.4149140">
        <ele>101.6</ele>
        <time>2021-08-29T06:55:27Z</time>
      </trkpt>
      <trkpt lat="43.2721700" lon="-8.4149500">
        <ele>101.1</ele>
        <time>2021-08-29T06:55:29Z</time>
      </trkpt>
      <trkpt lat="43.2721430" lon="-8.4149710">
        <ele>101.2</ele>
        <time>2021-08-29T06:55:30Z</time>
      </trkpt>
      <trkpt lat="43.2721200" lon="-8.4149890">
        <ele>101.0</ele>
        <time>2021-08-29T06:55:31Z</time>
      </trkpt>
      <trkpt lat="43.2720830" lon="-8.4150110">
        <ele>100.4</ele>
        <time>2021-08-29T06:55:33Z</time>
      </trkpt>
      <trkpt lat="43.2720460" lon="-8.4150090">
        <ele>99.3</ele>
        <time>2021-08-29T06:55:35Z</time>
      </trkpt>
      <trkpt lat="43.2719800" lon="-8.4149750">
        <ele>98.1</ele>
        <time>2021-08-29T06:55:38Z</time>
      </trkpt>
      <trkpt lat="43.2718820" lon="-8.4150130">
        <ele>96.9</ele>
        <time>2021-08-29T06:55:41Z</time>
      </trkpt>
      <trkpt lat="43.2718470" lon="-8.4150280">
        <ele>96.2</ele>
        <time>2021-08-29T06:55:42Z</time>
      </trkpt>
      <trkpt lat="43.2716480" lon="-8.4151360">
        <ele>94.3</ele>
        <time>2021-08-29T06:55:47Z</time>
      </trkpt>
      <trkpt lat="43.2716000" lon="-8.4151600">
        <ele>93.6</ele>
        <time>2021-08-29T06:55:48Z</time>
      </trkpt>
      <trkpt lat="43.2714320" lon="-8.4152950">
        <ele>92.7</ele>
        <time>2021-08-29T06:55:51Z</time>
      </trkpt>
      <trkpt lat="43.2712220" lon="-8.4154890">
        <ele>92.0</ele>
        <time>2021-08-29T06:55:55Z</time>
      </trkpt>
      <trkpt lat="43.2711500" lon="-8.4155620">
        <ele>91.9</ele>
        <time>2021-08-29T06:55:57Z</time>
      </trkpt>
      <trkpt lat="43.2709600" lon="-8.4157580">
        <ele>91.4</ele>
        <time>2021-08-29T06:56:03Z</time>
      </trkpt>
      <trkpt lat="43.2709100" lon="-8.4157960">
        <ele>90.8</ele>
        <time>2021-08-29T06:56:05Z</time>
      </trkpt>
      <trkpt lat="43.2708370" lon="-8.4158030">
        <ele>89.5</ele>
        <time>2021-08-29T06:56:07Z</time>
      </trkpt>
      <trkpt lat="43.2707880" lon="-8.4158170">
        <ele>88.1</ele>
        <time>2021-08-29T06:56:08Z</time>
      </trkpt>
      <trkpt lat="43.2706760" lon="-8.4158350">
        <ele>86.9</ele>
        <time>2021-08-29T06:56:10Z</time>
      </trkpt>
      <trkpt lat="43.2706090" lon="-8.4158500">
        <ele>85.0</ele>
        <time>2021-08-29T06:56:11Z</time>
      </trkpt>
      <trkpt lat="43.2704520" lon="-8.4159090">
        <ele>82.3</ele>
        <time>2021-08-29T06:56:13Z</time>
      </trkpt>
      <trkpt lat="43.2702360" lon="-8.4159960">
        <ele>79.0</ele>
        <time>2021-08-29T06:56:16Z</time>
      </trkpt>
      <trkpt lat="43.2701730" lon="-8.4160150">
        <ele>78.2</ele>
        <time>2021-08-29T06:56:17Z</time>
      </trkpt>
      <trkpt lat="43.2700720" lon="-8.4160340">
        <ele>76.3</ele>
        <time>2021-08-29T06:56:19Z</time>
      </trkpt>
      <trkpt lat="43.2699890" lon="-8.4160610">
        <ele>75.5</ele>
        <time>2021-08-29T06:56:21Z</time>
      </trkpt>
      <trkpt lat="43.2699450" lon="-8.4160850">
        <ele>74.1</ele>
        <time>2021-08-29T06:56:22Z</time>
      </trkpt>
      <trkpt lat="43.2698620" lon="-8.4161500">
        <ele>73.5</ele>
        <time>2021-08-29T06:56:24Z</time>
      </trkpt>
      <trkpt lat="43.2698210" lon="-8.4161730">
        <ele>73.8</ele>
        <time>2021-08-29T06:56:25Z</time>
      </trkpt>
      <trkpt lat="43.2697220" lon="-8.4162830">
        <ele>74.8</ele>
        <time>2021-08-29T06:56:28Z</time>
      </trkpt>
      <trkpt lat="43.2697100" lon="-8.4164160">
        <ele>75.7</ele>
        <time>2021-08-29T06:56:30Z</time>
      </trkpt>
      <trkpt lat="43.2697120" lon="-8.4164670">
        <ele>76.0</ele>
        <time>2021-08-29T06:56:31Z</time>
      </trkpt>
      <trkpt lat="43.2696620" lon="-8.4165300">
        <ele>76.5</ele>
        <time>2021-08-29T06:56:33Z</time>
      </trkpt>
      <trkpt lat="43.2696250" lon="-8.4165330">
        <ele>76.8</ele>
        <time>2021-08-29T06:56:34Z</time>
      </trkpt>
      <trkpt lat="43.2693910" lon="-8.4165670">
        <ele>77.9</ele>
        <time>2021-08-29T06:56:40Z</time>
      </trkpt>
      <trkpt lat="43.2690880" lon="-8.4166810">
        <ele>79.8</ele>
        <time>2021-08-29T06:56:48Z</time>
      </trkpt>
      <trkpt lat="43.2689660" lon="-8.4167780">
        <ele>79.3</ele>
        <time>2021-08-29T06:56:52Z</time>
      </trkpt>
      <trkpt lat="43.2689180" lon="-8.4168540">
        <ele>79.0</ele>
        <time>2021-08-29T06:56:54Z</time>
      </trkpt>
      <trkpt lat="43.2688430" lon="-8.4170740">
        <ele>78.2</ele>
        <time>2021-08-29T06:56:59Z</time>
      </trkpt>
      <trkpt lat="43.2687390" lon="-8.4173670">
        <ele>75.3</ele>
        <time>2021-08-29T06:57:05Z</time>
      </trkpt>
      <trkpt lat="43.2687140" lon="-8.4174260">
        <ele>74.5</ele>
        <time>2021-08-29T06:57:06Z</time>
      </trkpt>
      <trkpt lat="43.2686870" lon="-8.4174780">
        <ele>73.7</ele>
        <time>2021-08-29T06:57:07Z</time>
      </trkpt>
      <trkpt lat="43.2686150" lon="-8.4175490">
        <ele>72.1</ele>
        <time>2021-08-29T06:57:09Z</time>
      </trkpt>
      <trkpt lat="43.2685650" lon="-8.4175640">
        <ele>71.1</ele>
        <time>2021-08-29T06:57:10Z</time>
      </trkpt>
      <trkpt lat="43.2685050" lon="-8.4175590">
        <ele>70.0</ele>
        <time>2021-08-29T06:57:11Z</time>
      </trkpt>
      <trkpt lat="43.2683860" lon="-8.4175230">
        <ele>67.6</ele>
        <time>2021-08-29T06:57:13Z</time>
      </trkpt>
      <trkpt lat="43.2683270" lon="-8.4175110">
        <ele>66.4</ele>
        <time>2021-08-29T06:57:14Z</time>
      </trkpt>
      <trkpt lat="43.2681280" lon="-8.4175260">
        <ele>63.1</ele>
        <time>2021-08-29T06:57:17Z</time>
      </trkpt>
      <trkpt lat="43.2680630" lon="-8.4175290">
        <ele>62.3</ele>
        <time>2021-08-29T06:57:18Z</time>
      </trkpt>
      <trkpt lat="43.2679500" lon="-8.4174780">
        <ele>60.6</ele>
        <time>2021-08-29T06:57:20Z</time>
      </trkpt>
      <trkpt lat="43.2676040" lon="-8.4171610">
        <ele>54.2</ele>
        <time>2021-08-29T06:57:26Z</time>
      </trkpt>
      <trkpt lat="43.2673990" lon="-8.4170430">
        <ele>51.5</ele>
        <time>2021-08-29T06:57:30Z</time>
      </trkpt>
      <trkpt lat="43.2673490" lon="-8.4170490">
        <ele>50.8</ele>
        <time>2021-08-29T06:57:31Z</time>
      </trkpt>
      <trkpt lat="43.2672960" lon="-8.4170740">
        <ele>50.1</ele>
        <time>2021-08-29T06:57:32Z</time>
      </trkpt>
      <trkpt lat="43.2671110" lon="-8.4171410">
        <ele>48.0</ele>
        <time>2021-08-29T06:57:35Z</time>
      </trkpt>
      <trkpt lat="43.2670470" lon="-8.4171640">
        <ele>47.5</ele>
        <time>2021-08-29T06:57:36Z</time>
      </trkpt>
      <trkpt lat="43.2669240" lon="-8.4172620">
        <ele>46.5</ele>
        <time>2021-08-29T06:57:38Z</time>
      </trkpt>
      <trkpt lat="43.2667530" lon="-8.4174620">
        <ele>45.3</ele>
        <time>2021-08-29T06:57:41Z</time>
      </trkpt>
      <trkpt lat="43.2666890" lon="-8.4175080">
        <ele>45.1</ele>
        <time>2021-08-29T06:57:42Z</time>
      </trkpt>
      <trkpt lat="43.2666230" lon="-8.4175380">
        <ele>44.9</ele>
        <time>2021-08-29T06:57:43Z</time>
      </trkpt>
      <trkpt lat="43.2664880" lon="-8.4175500">
        <ele>44.8</ele>
        <time>2021-08-29T06:57:45Z</time>
      </trkpt>
      <trkpt lat="43.2664250" lon="-8.4175430">
        <ele>44.7</ele>
        <time>2021-08-29T06:57:46Z</time>
      </trkpt>
      <trkpt lat="43.2662360" lon="-8.4174750">
        <ele>44.6</ele>
        <time>2021-08-29T06:57:49Z</time>
      </trkpt>
      <trkpt lat="43.2661250" lon="-8.4174010">
        <ele>44.6</ele>
        <time>2021-08-29T06:57:51Z</time>
      </trkpt>
      <trkpt lat="43.2660330" lon="-8.4172940">
        <ele>44.5</ele>
        <time>2021-08-29T06:57:53Z</time>
      </trkpt>
      <trkpt lat="43.2659660" lon="-8.4171630">
        <ele>44.3</ele>
        <time>2021-08-29T06:57:55Z</time>
      </trkpt>
      <trkpt lat="43.2659260" lon="-8.4170130">
        <ele>44.3</ele>
        <time>2021-08-29T06:57:57Z</time>
      </trkpt>
      <trkpt lat="43.2658870" lon="-8.4167960">
        <ele>44.4</ele>
        <time>2021-08-29T06:58:00Z</time>
      </trkpt>
      <trkpt lat="43.2658440" lon="-8.4167010">
        <ele>44.6</ele>
        <time>2021-08-29T06:58:02Z</time>
      </trkpt>
      <trkpt lat="43.2657790" lon="-8.4166880">
        <ele>44.7</ele>
        <time>2021-08-29T06:58:04Z</time>
      </trkpt>
      <trkpt lat="43.2657470" lon="-8.4167120">
        <ele>44.9</ele>
        <time>2021-08-29T06:58:05Z</time>
      </trkpt>
      <trkpt lat="43.2655200" lon="-8.4169010">
        <ele>45.0</ele>
        <time>2021-08-29T06:58:11Z</time>
      </trkpt>
      <trkpt lat="43.2654790" lon="-8.4169280">
        <ele>45.0</ele>
        <time>2021-08-29T06:58:12Z</time>
      </trkpt>
      <trkpt lat="43.2653960" lon="-8.4169440">
        <ele>45.0</ele>
        <time>2021-08-29T06:58:14Z</time>
      </trkpt>
      <trkpt lat="43.2652640" lon="-8.4169180">
        <ele>45.0</ele>
        <time>2021-08-29T06:58:17Z</time>
      </trkpt>
      <trkpt lat="43.2651400" lon="-8.4168210">
        <ele>44.9</ele>
        <time>2021-08-29T06:58:20Z</time>
      </trkpt>
      <trkpt lat="43.2651040" lon="-8.4167800">
        <ele>44.9</ele>
        <time>2021-08-29T06:58:21Z</time>
      </trkpt>
      <trkpt lat="43.2649990" lon="-8.4166400">
        <ele>44.8</ele>
        <time>2021-08-29T06:58:24Z</time>
      </trkpt>
      <trkpt lat="43.2649100" lon="-8.4164640">
        <ele>44.7</ele>
        <time>2021-08-29T06:58:27Z</time>
      </trkpt>
      <trkpt lat="43.2646880" lon="-8.4161490">
        <ele>44.4</ele>
        <time>2021-08-29T06:58:33Z</time>
      </trkpt>
      <trkpt lat="43.2645850" lon="-8.4159890">
        <ele>44.3</ele>
        <time>2021-08-29T06:58:36Z</time>
      </trkpt>
      <trkpt lat="43.2645350" lon="-8.4159030">
        <ele>43.8</ele>
        <time>2021-08-29T06:58:38Z</time>
      </trkpt>
      <trkpt lat="43.2645010" lon="-8.4157970">
        <ele>43.1</ele>
        <time>2021-08-29T06:58:40Z</time>
      </trkpt>
      <trkpt lat="43.2644480" lon="-8.4155740">
        <ele>41.8</ele>
        <time>2021-08-29T06:58:43Z</time>
      </trkpt>
      <trkpt lat="43.2643510" lon="-8.4151250">
        <ele>39.8</ele>
        <time>2021-08-29T06:58:48Z</time>
      </trkpt>
      <trkpt lat="43.2643290" lon="-8.4150250">
        <ele>39.4</ele>
        <time>2021-08-29T06:58:49Z</time>
      </trkpt>
      <trkpt lat="43.2641600" lon="-8.4142980">
        <ele>36.6</ele>
        <time>2021-08-29T06:58:56Z</time>
      </trkpt>
      <trkpt lat="43.2639460" lon="-8.4135830">
        <ele>35.7</ele>
        <time>2021-08-29T06:59:03Z</time>
      </trkpt>
      <trkpt lat="43.2638750" lon="-8.4133630">
        <ele>36.1</ele>
        <time>2021-08-29T06:59:06Z</time>
      </trkpt>
      <trkpt lat="43.2638440" lon="-8.4133200">
        <ele>36.4</ele>
        <time>2021-08-29T06:59:07Z</time>
      </trkpt>
      <trkpt lat="43.2638100" lon="-8.4132970">
        <ele>36.4</ele>
        <time>2021-08-29T06:59:08Z</time>
      </trkpt>
      <trkpt lat="43.2637320" lon="-8.4133100">
        <ele>36.3</ele>
        <time>2021-08-29T06:59:10Z</time>
      </trkpt>
      <trkpt lat="43.2634700" lon="-8.4135190">
        <ele>36.3</ele>
        <time>2021-08-29T06:59:17Z</time>
      </trkpt>
      <trkpt lat="43.2632770" lon="-8.4137150">
        <ele>36.4</ele>
        <time>2021-08-29T06:59:22Z</time>
      </trkpt>
      <trkpt lat="43.2632380" lon="-8.4137490">
        <ele>36.5</ele>
        <time>2021-08-29T06:59:23Z</time>
      </trkpt>
      <trkpt lat="43.2631580" lon="-8.4138360">
        <ele>36.5</ele>
        <time>2021-08-29T06:59:25Z</time>
      </trkpt>
      <trkpt lat="43.2629480" lon="-8.4140470">
        <ele>36.8</ele>
        <time>2021-08-29T06:59:30Z</time>
      </trkpt>
      <trkpt lat="43.2628260" lon="-8.4141700">
        <ele>37.1</ele>
        <time>2021-08-29T06:59:33Z</time>
      </trkpt>
      <trkpt lat="43.2627440" lon="-8.4142510">
        <ele>37.3</ele>
        <time>2021-08-29T06:59:35Z</time>
      </trkpt>
      <trkpt lat="43.2627040" lon="-8.4142880">
        <ele>37.4</ele>
        <time>2021-08-29T06:59:36Z</time>
      </trkpt>
      <trkpt lat="43.2624130" lon="-8.4145560">
        <ele>38.3</ele>
        <time>2021-08-29T06:59:43Z</time>
      </trkpt>
      <trkpt lat="43.2623720" lon="-8.4145900">
        <ele>38.4</ele>
        <time>2021-08-29T06:59:44Z</time>
      </trkpt>
      <trkpt lat="43.2622070" lon="-8.4147370">
        <ele>39.0</ele>
        <time>2021-08-29T06:59:48Z</time>
      </trkpt>
      <trkpt lat="43.2620850" lon="-8.4148420">
        <ele>39.5</ele>
        <time>2021-08-29T06:59:51Z</time>
      </trkpt>
      <trkpt lat="43.2617650" lon="-8.4151330">
        <ele>41.1</ele>
        <time>2021-08-29T06:59:59Z</time>
      </trkpt>
      <trkpt lat="43.2615750" lon="-8.4153080">
        <ele>42.0</ele>
        <time>2021-08-29T07:00:04Z</time>
      </trkpt>
      <trkpt lat="43.2614260" lon="-8.4154490">
        <ele>42.8</ele>
        <time>2021-08-29T07:00:08Z</time>
      </trkpt>
      <trkpt lat="43.2611890" lon="-8.4156730">
        <ele>44.1</ele>
        <time>2021-08-29T07:00:15Z</time>
      </trkpt>
      <trkpt lat="43.2610890" lon="-8.4157600">
        <ele>44.5</ele>
        <time>2021-08-29T07:00:18Z</time>
      </trkpt>
      <trkpt lat="43.2608880" lon="-8.4159500">
        <ele>45.4</ele>
        <time>2021-08-29T07:00:24Z</time>
      </trkpt>
      <trkpt lat="43.2606920" lon="-8.4161490">
        <ele>46.0</ele>
        <time>2021-08-29T07:00:30Z</time>
      </trkpt>
      <trkpt lat="43.2606370" lon="-8.4162290">
        <ele>46.2</ele>
        <time>2021-08-29T07:00:32Z</time>
      </trkpt>
      <trkpt lat="43.2605950" lon="-8.4163140">
        <ele>46.4</ele>
        <time>2021-08-29T07:00:34Z</time>
      </trkpt>
      <trkpt lat="43.2605550" lon="-8.4164070">
        <ele>46.5</ele>
        <time>2021-08-29T07:00:36Z</time>
      </trkpt>
      <trkpt lat="43.2605000" lon="-8.4164800">
        <ele>46.6</ele>
        <time>2021-08-29T07:00:38Z</time>
      </trkpt>
      <trkpt lat="43.2604230" lon="-8.4165060">
        <ele>46.6</ele>
        <time>2021-08-29T07:00:40Z</time>
      </trkpt>
      <trkpt lat="43.2603840" lon="-8.4165000">
        <ele>46.7</ele>
        <time>2021-08-29T07:00:41Z</time>
      </trkpt>
      <trkpt lat="43.2603450" lon="-8.4164820">
        <ele>46.7</ele>
        <time>2021-08-29T07:00:42Z</time>
      </trkpt>
      <trkpt lat="43.2602880" lon="-8.4164030">
        <ele>46.7</ele>
        <time>2021-08-29T07:00:44Z</time>
      </trkpt>
      <trkpt lat="43.2602590" lon="-8.4163030">
        <ele>46.7</ele>
        <time>2021-08-29T07:00:46Z</time>
      </trkpt>
      <trkpt lat="43.2602550" lon="-8.4161900">
        <ele>46.7</ele>
        <time>2021-08-29T07:00:48Z</time>
      </trkpt>
      <trkpt lat="43.2602020" lon="-8.4159770">
        <ele>46.4</ele>
        <time>2021-08-29T07:00:52Z</time>
      </trkpt>
      <trkpt lat="43.2600900" lon="-8.4159130">
        <ele>46.2</ele>
        <time>2021-08-29T07:00:55Z</time>
      </trkpt>
      <trkpt lat="43.2600500" lon="-8.4159240">
        <ele>46.1</ele>
        <time>2021-08-29T07:00:56Z</time>
      </trkpt>
      <trkpt lat="43.2599830" lon="-8.4159970">
        <ele>46.0</ele>
        <time>2021-08-29T07:00:58Z</time>
      </trkpt>
      <trkpt lat="43.2599580" lon="-8.4161120">
        <ele>46.0</ele>
        <time>2021-08-29T07:01:00Z</time>
      </trkpt>
      <trkpt lat="43.2599540" lon="-8.4162280">
        <ele>45.9</ele>
        <time>2021-08-29T07:01:02Z</time>
      </trkpt>
      <trkpt lat="43.2599500" lon="-8.4162830">
        <ele>45.9</ele>
        <time>2021-08-29T07:01:03Z</time>
      </trkpt>
      <trkpt lat="43.2598990" lon="-8.4165580">
        <ele>45.4</ele>
        <time>2021-08-29T07:01:08Z</time>
      </trkpt>
      <trkpt lat="43.2598510" lon="-8.4167050">
        <ele>44.8</ele>
        <time>2021-08-29T07:01:11Z</time>
      </trkpt>
      <trkpt lat="43.2597870" lon="-8.4167940">
        <ele>44.1</ele>
        <time>2021-08-29T07:01:13Z</time>
      </trkpt>
      <trkpt lat="43.2597070" lon="-8.4168840">
        <ele>43.3</ele>
        <time>2021-08-29T07:01:15Z</time>
      </trkpt>
      <trkpt lat="43.2595830" lon="-8.4169610">
        <ele>42.2</ele>
        <time>2021-08-29T07:01:17Z</time>
      </trkpt>
      <trkpt lat="43.2595130" lon="-8.4169870">
        <ele>41.7</ele>
        <time>2021-08-29T07:01:18Z</time>
      </trkpt>
      <trkpt lat="43.2594430" lon="-8.4170010">
        <ele>41.3</ele>
        <time>2021-08-29T07:01:19Z</time>
      </trkpt>
      <trkpt lat="43.2592980" lon="-8.4169920">
        <ele>40.7</ele>
        <time>2021-08-29T07:01:21Z</time>
      </trkpt>
      <trkpt lat="43.2592260" lon="-8.4169720">
        <ele>40.5</ele>
        <time>2021-08-29T07:01:22Z</time>
      </trkpt>
      <trkpt lat="43.2589660" lon="-8.4168660">
        <ele>40.5</ele>
        <time>2021-08-29T07:01:26Z</time>
      </trkpt>
      <trkpt lat="43.2587030" lon="-8.4167710">
        <ele>41.1</ele>
        <time>2021-08-29T07:01:31Z</time>
      </trkpt>
      <trkpt lat="43.2586570" lon="-8.4167820">
        <ele>41.3</ele>
        <time>2021-08-29T07:01:32Z</time>
      </trkpt>
      <trkpt lat="43.2586130" lon="-8.4168020">
        <ele>41.4</ele>
        <time>2021-08-29T07:01:33Z</time>
      </trkpt>
      <trkpt lat="43.2585000" lon="-8.4169000">
        <ele>41.8</ele>
        <time>2021-08-29T07:01:36Z</time>
      </trkpt>
      <trkpt lat="43.2584670" lon="-8.4169340">
        <ele>41.9</ele>
        <time>2021-08-29T07:01:37Z</time>
      </trkpt>
      <trkpt lat="43.2582610" lon="-8.4171620">
        <ele>43.2</ele>
        <time>2021-08-29T07:01:43Z</time>
      </trkpt>
      <trkpt lat="43.2581920" lon="-8.4172280">
        <ele>43.6</ele>
        <time>2021-08-29T07:01:45Z</time>
      </trkpt>
      <trkpt lat="43.2581290" lon="-8.4172970">
        <ele>44.1</ele>
        <time>2021-08-29T07:01:47Z</time>
      </trkpt>
      <trkpt lat="43.2580630" lon="-8.4173530">
        <ele>44.5</ele>
        <time>2021-08-29T07:01:49Z</time>
      </trkpt>
      <trkpt lat="43.2577620" lon="-8.4175980">
        <ele>46.2</ele>
        <time>2021-08-29T07:01:58Z</time>
      </trkpt>
      <trkpt lat="43.2575900" lon="-8.4177270">
        <ele>47.0</ele>
        <time>2021-08-29T07:02:03Z</time>
      </trkpt>
      <trkpt lat="43.2574480" lon="-8.4178190">
        <ele>47.3</ele>
        <time>2021-08-29T07:02:07Z</time>
      </trkpt>
      <trkpt lat="43.2570760" lon="-8.4180620">
        <ele>47.4</ele>
        <time>2021-08-29T07:02:17Z</time>
      </trkpt>
      <trkpt lat="43.2566980" lon="-8.4182210">
        <ele>47.7</ele>
        <time>2021-08-29T07:02:26Z</time>
      </trkpt>
      <trkpt lat="43.2566550" lon="-8.4182360">
        <ele>47.7</ele>
        <time>2021-08-29T07:02:27Z</time>
      </trkpt>
      <trkpt lat="43.2564420" lon="-8.4182920">
        <ele>48.0</ele>
        <time>2021-08-29T07:02:32Z</time>
      </trkpt>
      <trkpt lat="43.2560520" lon="-8.4183120">
        <ele>48.4</ele>
        <time>2021-08-29T07:02:41Z</time>
      </trkpt>
      <trkpt lat="43.2556990" lon="-8.4183500">
        <ele>48.9</ele>
        <time>2021-08-29T07:02:49Z</time>
      </trkpt>
      <trkpt lat="43.2554500" lon="-8.4184380">
        <ele>49.6</ele>
        <time>2021-08-29T07:02:55Z</time>
      </trkpt>
      <trkpt lat="43.2552500" lon="-8.4185290">
        <ele>50.3</ele>
        <time>2021-08-29T07:03:00Z</time>
      </trkpt>
      <trkpt lat="43.2551820" lon="-8.4185980">
        <ele>50.4</ele>
        <time>2021-08-29T07:03:02Z</time>
      </trkpt>
      <trkpt lat="43.2550650" lon="-8.4187690">
        <ele>51.0</ele>
        <time>2021-08-29T07:03:07Z</time>
      </trkpt>
      <trkpt lat="43.2549210" lon="-8.4189880">
        <ele>52.0</ele>
        <time>2021-08-29T07:03:14Z</time>
      </trkpt>
      <trkpt lat="43.2547750" lon="-8.4192130">
        <ele>53.2</ele>
        <time>2021-08-29T07:03:22Z</time>
      </trkpt>
      <trkpt lat="43.2546110" lon="-8.4194560">
        <ele>54.7</ele>
        <time>2021-08-29T07:03:31Z</time>
      </trkpt>
      <trkpt lat="43.2545940" lon="-8.4194800">
        <ele>54.8</ele>
        <time>2021-08-29T07:03:32Z</time>
      </trkpt>
      <trkpt lat="43.2544470" lon="-8.4196110">
        <ele>55.7</ele>
        <time>2021-08-29T07:03:39Z</time>
      </trkpt>
      <trkpt lat="43.2542940" lon="-8.4196040">
        <ele>56.3</ele>
        <time>2021-08-29T07:03:45Z</time>
      </trkpt>
      <trkpt lat="43.2540630" lon="-8.4194390">
        <ele>56.8</ele>
        <time>2021-08-29T07:03:53Z</time>
      </trkpt>
      <trkpt lat="43.2539090" lon="-8.4193610">
        <ele>56.8</ele>
        <time>2021-08-29T07:03:57Z</time>
      </trkpt>
      <trkpt lat="43.2538680" lon="-8.4193470">
        <ele>56.7</ele>
        <time>2021-08-29T07:03:58Z</time>
      </trkpt>
      <trkpt lat="43.2537830" lon="-8.4193240">
        <ele>56.6</ele>
        <time>2021-08-29T07:04:00Z</time>
      </trkpt>
      <trkpt lat="43.2535620" lon="-8.4192810">
        <ele>56.3</ele>
        <time>2021-08-29T07:04:05Z</time>
      </trkpt>
      <trkpt lat="43.2533060" lon="-8.4190730">
        <ele>55.5</ele>
        <time>2021-08-29T07:04:11Z</time>
      </trkpt>
      <trkpt lat="43.2530930" lon="-8.4188210">
        <ele>54.4</ele>
        <time>2021-08-29T07:04:16Z</time>
      </trkpt>
      <trkpt lat="43.2529910" lon="-8.4187230">
        <ele>53.9</ele>
        <time>2021-08-29T07:04:18Z</time>
      </trkpt>
      <trkpt lat="43.2528260" lon="-8.4185800">
        <ele>53.2</ele>
        <time>2021-08-29T07:04:21Z</time>
      </trkpt>
      <trkpt lat="43.2526040" lon="-8.4184050">
        <ele>53.0</ele>
        <time>2021-08-29T07:04:25Z</time>
      </trkpt>
      <trkpt lat="43.2525550" lon="-8.4183670">
        <ele>53.1</ele>
        <time>2021-08-29T07:04:26Z</time>
      </trkpt>
      <trkpt lat="43.2524210" lon="-8.4182660">
        <ele>53.6</ele>
        <time>2021-08-29T07:04:29Z</time>
      </trkpt>
      <trkpt lat="43.2523810" lon="-8.4182370">
        <ele>53.8</ele>
        <time>2021-08-29T07:04:30Z</time>
      </trkpt>
      <trkpt lat="43.2523030" lon="-8.4181940">
        <ele>54.2</ele>
        <time>2021-08-29T07:04:32Z</time>
      </trkpt>
      <trkpt lat="43.2521540" lon="-8.4181460">
        <ele>55.0</ele>
        <time>2021-08-29T07:04:36Z</time>
      </trkpt>
      <trkpt lat="43.2519530" lon="-8.4181410">
        <ele>56.3</ele>
        <time>2021-08-29T07:04:42Z</time>
      </trkpt>
      <trkpt lat="43.2517040" lon="-8.4181800">
        <ele>58.1</ele>
        <time>2021-08-29T07:04:50Z</time>
      </trkpt>
      <trkpt lat="43.2515540" lon="-8.4181970">
        <ele>59.3</ele>
        <time>2021-08-29T07:04:56Z</time>
      </trkpt>
      <trkpt lat="43.2512860" lon="-8.4182770">
        <ele>61.3</ele>
        <time>2021-08-29T07:05:05Z</time>
      </trkpt>
      <trkpt lat="43.2511910" lon="-8.4182820">
        <ele>62.1</ele>
        <time>2021-08-29T07:05:08Z</time>
      </trkpt>
      <trkpt lat="43.2511200" lon="-8.4183030">
        <ele>62.7</ele>
        <time>2021-08-29T07:05:11Z</time>
      </trkpt>
      <trkpt lat="43.2511010" lon="-8.4183160">
        <ele>62.9</ele>
        <time>2021-08-29T07:05:12Z</time>
      </trkpt>
      <trkpt lat="43.2510580" lon="-8.4183540">
        <ele>63.1</ele>
        <time>2021-08-29T07:05:15Z</time>
      </trkpt>
      <trkpt lat="43.2510370" lon="-8.4183480">
        <ele>63.2</ele>
        <time>2021-08-29T07:05:17Z</time>
      </trkpt>
      <trkpt lat="43.2509970" lon="-8.4183340">
        <ele>63.4</ele>
        <time>2021-08-29T07:05:21Z</time>
      </trkpt>
      <trkpt lat="43.2509900" lon="-8.4182950">
        <ele>63.4</ele>
        <time>2021-08-29T07:05:23Z</time>
      </trkpt>
      <trkpt lat="43.2510420" lon="-8.4181540">
        <ele>63.5</ele>
        <time>2021-08-29T07:05:27Z</time>
      </trkpt>
      <trkpt lat="43.2510580" lon="-8.4181170">
        <ele>63.6</ele>
        <time>2021-08-29T07:05:28Z</time>
      </trkpt>
      <trkpt lat="43.2512070" lon="-8.4178280">
        <ele>63.8</ele>
        <time>2021-08-29T07:05:35Z</time>
      </trkpt>
      <trkpt lat="43.2512580" lon="-8.4176890">
        <ele>63.9</ele>
        <time>2021-08-29T07:05:38Z</time>
      </trkpt>
      <trkpt lat="43.2512720" lon="-8.4175430">
        <ele>64.1</ele>
        <time>2021-08-29T07:05:41Z</time>
      </trkpt>
      <trkpt lat="43.2512540" lon="-8.4174130">
        <ele>64.3</ele>
        <time>2021-08-29T07:05:44Z</time>
      </trkpt>
      <trkpt lat="43.2512380" lon="-8.4173800">
        <ele>64.6</ele>
        <time>2021-08-29T07:05:45Z</time>
      </trkpt>
      <trkpt lat="43.2512180" lon="-8.4173570">
        <ele>64.7</ele>
        <time>2021-08-29T07:05:46Z</time>
      </trkpt>
      <trkpt lat="43.2511730" lon="-8.4173560">
        <ele>65.0</ele>
        <time>2021-08-29T07:05:48Z</time>
      </trkpt>
      <trkpt lat="43.2510400" lon="-8.4174000">
        <ele>65.7</ele>
        <time>2021-08-29T07:05:54Z</time>
      </trkpt>
      <trkpt lat="43.2509210" lon="-8.4174620">
        <ele>66.4</ele>
        <time>2021-08-29T07:06:00Z</time>
      </trkpt>
      <trkpt lat="43.2507900" lon="-8.4176040">
        <ele>67.4</ele>
        <time>2021-08-29T07:06:08Z</time>
      </trkpt>
      <trkpt lat="43.2507110" lon="-8.4177940">
        <ele>68.2</ele>
        <time>2021-08-29T07:06:15Z</time>
      </trkpt>
      <trkpt lat="43.2506360" lon="-8.4179200">
        <ele>68.8</ele>
        <time>2021-08-29T07:06:20Z</time>
      </trkpt>
      <trkpt lat="43.2506010" lon="-8.4179750">
        <ele>69.1</ele>
        <time>2021-08-29T07:06:22Z</time>
      </trkpt>
      <trkpt lat="43.2504350" lon="-8.4180950">
        <ele>70.3</ele>
        <time>2021-08-29T07:06:29Z</time>
      </trkpt>
      <trkpt lat="43.2502290" lon="-8.4181850">
        <ele>71.7</ele>
        <time>2021-08-29T07:06:37Z</time>
      </trkpt>
      <trkpt lat="43.2500350" lon="-8.4183220">
        <ele>73.1</ele>
        <time>2021-08-29T07:06:46Z</time>
      </trkpt>
      <trkpt lat="43.2498360" lon="-8.4184360">
        <ele>75.0</ele>
        <time>2021-08-29T07:06:54Z</time>
      </trkpt>
      <trkpt lat="43.2497440" lon="-8.4185180">
        <ele>76.0</ele>
        <time>2021-08-29T07:07:00Z</time>
      </trkpt>
      <trkpt lat="43.2496540" lon="-8.4186320">
        <ele>77.1</ele>
        <time>2021-08-29T07:07:06Z</time>
      </trkpt>
      <trkpt lat="43.2495520" lon="-8.4187670">
        <ele>78.4</ele>
        <time>2021-08-29T07:07:13Z</time>
      </trkpt>
      <trkpt lat="43.2494410" lon="-8.4189070">
        <ele>80.1</ele>
        <time>2021-08-29T07:07:21Z</time>
      </trkpt>
      <trkpt lat="43.2493930" lon="-8.4189770">
        <ele>81.2</ele>
        <time>2021-08-29T07:07:26Z</time>
      </trkpt>
      <trkpt lat="43.2493780" lon="-8.4189900">
        <ele>81.5</ele>
        <time>2021-08-29T07:07:27Z</time>
      </trkpt>
      <trkpt lat="43.2492830" lon="-8.4190070">
        <ele>83.0</ele>
        <time>2021-08-29T07:07:33Z</time>
      </trkpt>
      <trkpt lat="43.2492090" lon="-8.4189760">
        <ele>84.2</ele>
        <time>2021-08-29T07:07:38Z</time>
      </trkpt>
      <trkpt lat="43.2491230" lon="-8.4189080">
        <ele>85.6</ele>
        <time>2021-08-29T07:07:44Z</time>
      </trkpt>
      <trkpt lat="43.2490970" lon="-8.4189270">
        <ele>85.9</ele>
        <time>2021-08-29T07:07:46Z</time>
      </trkpt>
      <trkpt lat="43.2490260" lon="-8.4190000">
        <ele>87.0</ele>
        <time>2021-08-29T07:07:52Z</time>
      </trkpt>
      <trkpt lat="43.2489160" lon="-8.4190940">
        <ele>88.5</ele>
        <time>2021-08-29T07:08:01Z</time>
      </trkpt>
      <trkpt lat="43.2487930" lon="-8.4191750">
        <ele>89.9</ele>
        <time>2021-08-29T07:08:08Z</time>
      </trkpt>
      <trkpt lat="43.2486470" lon="-8.4192210">
        <ele>91.5</ele>
        <time>2021-08-29T07:08:17Z</time>
      </trkpt>
      <trkpt lat="43.2485210" lon="-8.4193030">
        <ele>92.9</ele>
        <time>2021-08-29T07:08:26Z</time>
      </trkpt>
      <trkpt lat="43.2484800" lon="-8.4193770">
        <ele>93.6</ele>
        <time>2021-08-29T07:08:32Z</time>
      </trkpt>
      <trkpt lat="43.2484780" lon="-8.4194120">
        <ele>93.9</ele>
        <time>2021-08-29T07:08:34Z</time>
      </trkpt>
      <trkpt lat="43.2484910" lon="-8.4194600">
        <ele>94.3</ele>
        <time>2021-08-29T07:08:37Z</time>
      </trkpt>
      <trkpt lat="43.2484960" lon="-8.4194890">
        <ele>94.6</ele>
        <time>2021-08-29T07:08:39Z</time>
      </trkpt>
      <trkpt lat="43.2484690" lon="-8.4195710">
        <ele>95.5</ele>
        <time>2021-08-29T07:08:44Z</time>
      </trkpt>
      <trkpt lat="43.2484350" lon="-8.4196900">
        <ele>96.9</ele>
        <time>2021-08-29T07:08:50Z</time>
      </trkpt>
      <trkpt lat="43.2484200" lon="-8.4197750">
        <ele>97.8</ele>
        <time>2021-08-29T07:08:55Z</time>
      </trkpt>
      <trkpt lat="43.2484020" lon="-8.4198510">
        <ele>98.6</ele>
        <time>2021-08-29T07:08:59Z</time>
      </trkpt>
      <trkpt lat="43.2483730" lon="-8.4199780">
        <ele>99.9</ele>
        <time>2021-08-29T07:09:06Z</time>
      </trkpt>
      <trkpt lat="43.2483410" lon="-8.4200690">
        <ele>100.8</ele>
        <time>2021-08-29T07:09:11Z</time>
      </trkpt>
      <trkpt lat="43.2483020" lon="-8.4201530">
        <ele>102.1</ele>
        <time>2021-08-29T07:09:16Z</time>
      </trkpt>
      <trkpt lat="43.2482210" lon="-8.4202710">
        <ele>103.2</ele>
        <time>2021-08-29T07:09:23Z</time>
      </trkpt>
      <trkpt lat="43.2481760" lon="-8.4203300">
        <ele>103.3</ele>
        <time>2021-08-29T07:09:27Z</time>
      </trkpt>
      <trkpt lat="43.2481620" lon="-8.4203220">
        <ele>103.3</ele>
        <time>2021-08-29T07:09:29Z</time>
      </trkpt>
      <trkpt lat="43.2481600" lon="-8.4203070">
        <ele>103.3</ele>
        <time>2021-08-29T07:09:30Z</time>
      </trkpt>
      <trkpt lat="43.2482020" lon="-8.4202610">
        <ele>103.3</ele>
        <time>2021-08-29T07:09:33Z</time>
      </trkpt>
      <trkpt lat="43.2482980" lon="-8.4201080">
        <ele>101.3</ele>
        <time>2021-08-29T07:09:37Z</time>
      </trkpt>
      <trkpt lat="43.2484120" lon="-8.4197870">
        <ele>98.2</ele>
        <time>2021-08-29T07:09:43Z</time>
      </trkpt>
      <trkpt lat="43.2485060" lon="-8.4194490">
        <ele>94.6</ele>
        <time>2021-08-29T07:09:49Z</time>
      </trkpt>
      <trkpt lat="43.2485030" lon="-8.4193980">
        <ele>94.1</ele>
        <time>2021-08-29T07:09:50Z</time>
      </trkpt>
      <trkpt lat="43.2484850" lon="-8.4193550">
        <ele>93.7</ele>
        <time>2021-08-29T07:09:51Z</time>
      </trkpt>
      <trkpt lat="43.2484370" lon="-8.4193030">
        <ele>93.1</ele>
        <time>2021-08-29T07:09:53Z</time>
      </trkpt>
      <trkpt lat="43.2483540" lon="-8.4193190">
        <ele>94.3</ele>
        <time>2021-08-29T07:09:57Z</time>
      </trkpt>
      <trkpt lat="43.2482410" lon="-8.4193650">
        <ele>95.5</ele>
        <time>2021-08-29T07:10:03Z</time>
      </trkpt>
      <trkpt lat="43.2481660" lon="-8.4193830">
        <ele>96.3</ele>
        <time>2021-08-29T07:10:07Z</time>
      </trkpt>
      <trkpt lat="43.2480930" lon="-8.4193870">
        <ele>97.0</ele>
        <time>2021-08-29T07:10:11Z</time>
      </trkpt>
      <trkpt lat="43.2479390" lon="-8.4194090">
        <ele>98.6</ele>
        <time>2021-08-29T07:10:19Z</time>
      </trkpt>
      <trkpt lat="43.2478020" lon="-8.4194070">
        <ele>99.9</ele>
        <time>2021-08-29T07:10:26Z</time>
      </trkpt>
      <trkpt lat="43.2476660" lon="-8.4193940">
        <ele>101.2</ele>
        <time>2021-08-29T07:10:34Z</time>
      </trkpt>
      <trkpt lat="43.2475910" lon="-8.4194100">
        <ele>101.9</ele>
        <time>2021-08-29T07:10:38Z</time>
      </trkpt>
      <trkpt lat="43.2475150" lon="-8.4194180">
        <ele>102.7</ele>
        <time>2021-08-29T07:10:42Z</time>
      </trkpt>
      <trkpt lat="43.2474240" lon="-8.4194460">
        <ele>103.7</ele>
        <time>2021-08-29T07:10:47Z</time>
      </trkpt>
      <trkpt lat="43.2473910" lon="-8.4194500">
        <ele>104.0</ele>
        <time>2021-08-29T07:10:49Z</time>
      </trkpt>
      <trkpt lat="43.2472590" lon="-8.4194900">
        <ele>105.4</ele>
        <time>2021-08-29T07:10:57Z</time>
      </trkpt>
      <trkpt lat="43.2471180" lon="-8.4195370">
        <ele>106.9</ele>
        <time>2021-08-29T07:11:05Z</time>
      </trkpt>
      <trkpt lat="43.2470220" lon="-8.4195860">
        <ele>108.2</ele>
        <time>2021-08-29T07:11:12Z</time>
      </trkpt>
      <trkpt lat="43.2469420" lon="-8.4196490">
        <ele>109.4</ele>
        <time>2021-08-29T07:11:19Z</time>
      </trkpt>
      <trkpt lat="43.2468190" lon="-8.4196820">
        <ele>111.1</ele>
        <time>2021-08-29T07:11:27Z</time>
      </trkpt>
      <trkpt lat="43.2467550" lon="-8.4197030">
        <ele>111.8</ele>
        <time>2021-08-29T07:11:32Z</time>
      </trkpt>
      <trkpt lat="43.2467070" lon="-8.4197280">
        <ele>112.3</ele>
        <time>2021-08-29T07:11:35Z</time>
      </trkpt>
      <trkpt lat="43.2465740" lon="-8.4197820">
        <ele>113.2</ele>
        <time>2021-08-29T07:11:41Z</time>
      </trkpt>
      <trkpt lat="43.2463980" lon="-8.4198100">
        <ele>113.8</ele>
        <time>2021-08-29T07:11:49Z</time>
      </trkpt>
      <trkpt lat="43.2462770" lon="-8.4198270">
        <ele>114.0</ele>
        <time>2021-08-29T07:11:54Z</time>
      </trkpt>
      <trkpt lat="43.2460430" lon="-8.4198570">
        <ele>114.9</ele>
        <time>2021-08-29T07:12:02Z</time>
      </trkpt>
      <trkpt lat="43.2458150" lon="-8.4198810">
        <ele>115.9</ele>
        <time>2021-08-29T07:12:12Z</time>
      </trkpt>
      <trkpt lat="43.2456600" lon="-8.4199370">
        <ele>116.5</ele>
        <time>2021-08-29T07:12:18Z</time>
      </trkpt>
      <trkpt lat="43.2456070" lon="-8.4199830">
        <ele>116.6</ele>
        <time>2021-08-29T07:12:20Z</time>
      </trkpt>
      <trkpt lat="43.2453970" lon="-8.4202270">
        <ele>117.1</ele>
        <time>2021-08-29T07:12:28Z</time>
      </trkpt>
      <trkpt lat="43.2452650" lon="-8.4203900">
        <ele>117.6</ele>
        <time>2021-08-29T07:12:34Z</time>
      </trkpt>
      <trkpt lat="43.2451040" lon="-8.4205770">
        <ele>118.7</ele>
        <time>2021-08-29T07:12:42Z</time>
      </trkpt>
      <trkpt lat="43.2449320" lon="-8.4207760">
        <ele>120.0</ele>
        <time>2021-08-29T07:12:51Z</time>
      </trkpt>
      <trkpt lat="43.2447920" lon="-8.4209790">
        <ele>121.2</ele>
        <time>2021-08-29T07:12:59Z</time>
      </trkpt>
      <trkpt lat="43.2446220" lon="-8.4212070">
        <ele>122.9</ele>
        <time>2021-08-29T07:13:09Z</time>
      </trkpt>
      <trkpt lat="43.2445200" lon="-8.4214330">
        <ele>124.2</ele>
        <time>2021-08-29T07:13:17Z</time>
      </trkpt>
      <trkpt lat="43.2444350" lon="-8.4216810">
        <ele>125.2</ele>
        <time>2021-08-29T07:13:25Z</time>
      </trkpt>
      <trkpt lat="43.2444070" lon="-8.4217850">
        <ele>125.5</ele>
        <time>2021-08-29T07:13:28Z</time>
      </trkpt>
      <trkpt lat="43.2443090" lon="-8.4220030">
        <ele>126.3</ele>
        <time>2021-08-29T07:13:35Z</time>
      </trkpt>
      <trkpt lat="43.2441730" lon="-8.4222490">
        <ele>127.6</ele>
        <time>2021-08-29T07:13:44Z</time>
      </trkpt>
      <trkpt lat="43.2440810" lon="-8.4224170">
        <ele>128.7</ele>
        <time>2021-08-29T07:13:51Z</time>
      </trkpt>
      <trkpt lat="43.2439560" lon="-8.4226490">
        <ele>130.5</ele>
        <time>2021-08-29T07:14:01Z</time>
      </trkpt>
      <trkpt lat="43.2438940" lon="-8.4228230">
        <ele>131.9</ele>
        <time>2021-08-29T07:14:09Z</time>
      </trkpt>
      <trkpt lat="43.2438050" lon="-8.4229740">
        <ele>133.6</ele>
        <time>2021-08-29T07:14:18Z</time>
      </trkpt>
      <trkpt lat="43.2437380" lon="-8.4230990">
        <ele>135.1</ele>
        <time>2021-08-29T07:14:25Z</time>
      </trkpt>
      <trkpt lat="43.2437280" lon="-8.4231140">
        <ele>135.3</ele>
        <time>2021-08-29T07:14:26Z</time>
      </trkpt>
      <trkpt lat="43.2436480" lon="-8.4232140">
        <ele>136.7</ele>
        <time>2021-08-29T07:14:33Z</time>
      </trkpt>
      <trkpt lat="43.2435950" lon="-8.4233600">
        <ele>138.4</ele>
        <time>2021-08-29T07:14:41Z</time>
      </trkpt>
      <trkpt lat="43.2435590" lon="-8.4234100">
        <ele>139.1</ele>
        <time>2021-08-29T07:14:44Z</time>
      </trkpt>
      <trkpt lat="43.2435130" lon="-8.4234900">
        <ele>140.1</ele>
        <time>2021-08-29T07:14:49Z</time>
      </trkpt>
      <trkpt lat="43.2434650" lon="-8.4236050">
        <ele>141.5</ele>
        <time>2021-08-29T07:14:56Z</time>
      </trkpt>
      <trkpt lat="43.2434040" lon="-8.4237180">
        <ele>143.1</ele>
        <time>2021-08-29T07:15:04Z</time>
      </trkpt>
      <trkpt lat="43.2433600" lon="-8.4237990">
        <ele>144.4</ele>
        <time>2021-08-29T07:15:10Z</time>
      </trkpt>
      <trkpt lat="43.2433500" lon="-8.4238300">
        <ele>144.8</ele>
        <time>2021-08-29T07:15:12Z</time>
      </trkpt>
      <trkpt lat="43.2433450" lon="-8.4238490">
        <ele>145.1</ele>
        <time>2021-08-29T07:15:14Z</time>
      </trkpt>
      <trkpt lat="43.2433370" lon="-8.4238590">
        <ele>145.3</ele>
        <time>2021-08-29T07:15:15Z</time>
      </trkpt>
      <trkpt lat="43.2433180" lon="-8.4238890">
        <ele>145.9</ele>
        <time>2021-08-29T07:15:17Z</time>
      </trkpt>
      <trkpt lat="43.2433130" lon="-8.4239530">
        <ele>146.8</ele>
        <time>2021-08-29T07:15:21Z</time>
      </trkpt>
      <trkpt lat="43.2433090" lon="-8.4239680">
        <ele>147.0</ele>
        <time>2021-08-29T07:15:22Z</time>
      </trkpt>
      <trkpt lat="43.2432970" lon="-8.4239970">
        <ele>147.5</ele>
        <time>2021-08-29T07:15:24Z</time>
      </trkpt>
      <trkpt lat="43.2433040" lon="-8.4240280">
        <ele>148.0</ele>
        <time>2021-08-29T07:15:26Z</time>
      </trkpt>
      <trkpt lat="43.2433190" lon="-8.4240640">
        <ele>148.6</ele>
        <time>2021-08-29T07:15:29Z</time>
      </trkpt>
      <trkpt lat="43.2433090" lon="-8.4241020">
        <ele>149.2</ele>
        <time>2021-08-29T07:15:32Z</time>
      </trkpt>
      <trkpt lat="43.2433310" lon="-8.4241740">
        <ele>150.4</ele>
        <time>2021-08-29T07:15:37Z</time>
      </trkpt>
      <trkpt lat="43.2433210" lon="-8.4241980">
        <ele>150.8</ele>
        <time>2021-08-29T07:15:39Z</time>
      </trkpt>
      <trkpt lat="43.2433120" lon="-8.4242830">
        <ele>152.0</ele>
        <time>2021-08-29T07:15:45Z</time>
      </trkpt>
      <trkpt lat="43.2433140" lon="-8.4244040">
        <ele>153.6</ele>
        <time>2021-08-29T07:15:52Z</time>
      </trkpt>
      <trkpt lat="43.2433150" lon="-8.4244200">
        <ele>153.8</ele>
        <time>2021-08-29T07:15:53Z</time>
      </trkpt>
      <trkpt lat="43.2433030" lon="-8.4245210">
        <ele>154.9</ele>
        <time>2021-08-29T07:15:58Z</time>
      </trkpt>
      <trkpt lat="43.2433000" lon="-8.4245750">
        <ele>155.4</ele>
        <time>2021-08-29T07:16:01Z</time>
      </trkpt>
      <trkpt lat="43.2432810" lon="-8.4246300">
        <ele>156.0</ele>
        <time>2021-08-29T07:16:04Z</time>
      </trkpt>
      <trkpt lat="43.2432600" lon="-8.4248080">
        <ele>157.7</ele>
        <time>2021-08-29T07:16:13Z</time>
      </trkpt>
      <trkpt lat="43.2432370" lon="-8.4249720">
        <ele>159.4</ele>
        <time>2021-08-29T07:16:22Z</time>
      </trkpt>
      <trkpt lat="43.2432140" lon="-8.4250950">
        <ele>160.8</ele>
        <time>2021-08-29T07:16:30Z</time>
      </trkpt>
      <trkpt lat="43.2432120" lon="-8.4251110">
        <ele>161.0</ele>
        <time>2021-08-29T07:16:31Z</time>
      </trkpt>
      <trkpt lat="43.2432000" lon="-8.4251410">
        <ele>161.4</ele>
        <time>2021-08-29T07:16:34Z</time>
      </trkpt>
      <trkpt lat="43.2431850" lon="-8.4251490">
        <ele>161.6</ele>
        <time>2021-08-29T07:16:35Z</time>
      </trkpt>
      <trkpt lat="43.2431760" lon="-8.4251600">
        <ele>161.9</ele>
        <time>2021-08-29T07:16:36Z</time>
      </trkpt>
      <trkpt lat="43.2431810" lon="-8.4251970">
        <ele>162.3</ele>
        <time>2021-08-29T07:16:39Z</time>
      </trkpt>
      <trkpt lat="43.2431770" lon="-8.4252050">
        <ele>162.5</ele>
        <time>2021-08-29T07:16:40Z</time>
      </trkpt>
      <trkpt lat="43.2431420" lon="-8.4252470">
        <ele>163.3</ele>
        <time>2021-08-29T07:16:44Z</time>
      </trkpt>
      <trkpt lat="43.2431380" lon="-8.4252650">
        <ele>163.5</ele>
        <time>2021-08-29T07:16:45Z</time>
      </trkpt>
      <trkpt lat="43.2431320" lon="-8.4253460">
        <ele>164.6</ele>
        <time>2021-08-29T07:16:50Z</time>
      </trkpt>
      <trkpt lat="43.2431190" lon="-8.4254090">
        <ele>165.4</ele>
        <time>2021-08-29T07:16:54Z</time>
      </trkpt>
      <trkpt lat="43.2430780" lon="-8.4254350">
        <ele>166.2</ele>
        <time>2021-08-29T07:16:57Z</time>
      </trkpt>
      <trkpt lat="43.2430430" lon="-8.4255160">
        <ele>167.5</ele>
        <time>2021-08-29T07:17:02Z</time>
      </trkpt>
      <trkpt lat="43.2430420" lon="-8.4255340">
        <ele>167.7</ele>
        <time>2021-08-29T07:17:03Z</time>
      </trkpt>
      <trkpt lat="43.2430380" lon="-8.4255470">
        <ele>167.9</ele>
        <time>2021-08-29T07:17:04Z</time>
      </trkpt>
      <trkpt lat="43.2429970" lon="-8.4255890">
        <ele>168.8</ele>
        <time>2021-08-29T07:17:08Z</time>
      </trkpt>
      <trkpt lat="43.2429550" lon="-8.4257160">
        <ele>170.6</ele>
        <time>2021-08-29T07:17:16Z</time>
      </trkpt>
      <trkpt lat="43.2428970" lon="-8.4258180">
        <ele>172.3</ele>
        <time>2021-08-29T07:17:23Z</time>
      </trkpt>
      <trkpt lat="43.2428920" lon="-8.4258340">
        <ele>172.5</ele>
        <time>2021-08-29T07:17:24Z</time>
      </trkpt>
      <trkpt lat="43.2428580" lon="-8.4259060">
        <ele>173.7</ele>
        <time>2021-08-29T07:17:29Z</time>
      </trkpt>
      <trkpt lat="43.2428560" lon="-8.4260160">
        <ele>175.1</ele>
        <time>2021-08-29T07:17:36Z</time>
      </trkpt>
      <trkpt lat="43.2428510" lon="-8.4260620">
        <ele>175.7</ele>
        <time>2021-08-29T07:17:39Z</time>
      </trkpt>
      <trkpt lat="43.2428280" lon="-8.4261200">
        <ele>176.6</ele>
        <time>2021-08-29T07:17:43Z</time>
      </trkpt>
      <trkpt lat="43.2428170" lon="-8.4262460">
        <ele>178.3</ele>
        <time>2021-08-29T07:17:51Z</time>
      </trkpt>
      <trkpt lat="43.2428020" lon="-8.4262910">
        <ele>179.0</ele>
        <time>2021-08-29T07:17:54Z</time>
      </trkpt>
      <trkpt lat="43.2427990" lon="-8.4263360">
        <ele>179.7</ele>
        <time>2021-08-29T07:17:57Z</time>
      </trkpt>
      <trkpt lat="43.2427970" lon="-8.4263510">
        <ele>179.9</ele>
        <time>2021-08-29T07:17:58Z</time>
      </trkpt>
      <trkpt lat="43.2427650" lon="-8.4264250">
        <ele>181.1</ele>
        <time>2021-08-29T07:18:04Z</time>
      </trkpt>
      <trkpt lat="43.2427570" lon="-8.4264960">
        <ele>182.1</ele>
        <time>2021-08-29T07:18:09Z</time>
      </trkpt>
      <trkpt lat="43.2427470" lon="-8.4265060">
        <ele>182.3</ele>
        <time>2021-08-29T07:18:10Z</time>
      </trkpt>
      <trkpt lat="43.2427140" lon="-8.4265390">
        <ele>183.0</ele>
        <time>2021-08-29T07:18:13Z</time>
      </trkpt>
      <trkpt lat="43.2427150" lon="-8.4265880">
        <ele>183.7</ele>
        <time>2021-08-29T07:18:16Z</time>
      </trkpt>
      <trkpt lat="43.2427110" lon="-8.4265990">
        <ele>183.8</ele>
        <time>2021-08-29T07:18:17Z</time>
      </trkpt>
      <trkpt lat="43.2426760" lon="-8.4266300">
        <ele>184.5</ele>
        <time>2021-08-29T07:18:20Z</time>
      </trkpt>
      <trkpt lat="43.2426560" lon="-8.4266630">
        <ele>185.0</ele>
        <time>2021-08-29T07:18:23Z</time>
      </trkpt>
      <trkpt lat="43.2426400" lon="-8.4266980">
        <ele>185.4</ele>
        <time>2021-08-29T07:18:26Z</time>
      </trkpt>
      <trkpt lat="43.2425640" lon="-8.4268030">
        <ele>186.8</ele>
        <time>2021-08-29T07:18:34Z</time>
      </trkpt>
      <trkpt lat="43.2425610" lon="-8.4268270">
        <ele>187.0</ele>
        <time>2021-08-29T07:18:36Z</time>
      </trkpt>
      <trkpt lat="43.2425340" lon="-8.4268710">
        <ele>187.4</ele>
        <time>2021-08-29T07:18:39Z</time>
      </trkpt>
      <trkpt lat="43.2424710" lon="-8.4270120">
        <ele>188.5</ele>
        <time>2021-08-29T07:18:47Z</time>
      </trkpt>
      <trkpt lat="43.2424470" lon="-8.4271080">
        <ele>189.1</ele>
        <time>2021-08-29T07:18:53Z</time>
      </trkpt>
      <trkpt lat="43.2423970" lon="-8.4272720">
        <ele>190.1</ele>
        <time>2021-08-29T07:19:00Z</time>
      </trkpt>
      <trkpt lat="43.2423790" lon="-8.4272970">
        <ele>190.3</ele>
        <time>2021-08-29T07:19:01Z</time>
      </trkpt>
      <trkpt lat="43.2422960" lon="-8.4274910">
        <ele>191.7</ele>
        <time>2021-08-29T07:19:08Z</time>
      </trkpt>
      <trkpt lat="43.2422650" lon="-8.4276050">
        <ele>192.5</ele>
        <time>2021-08-29T07:19:13Z</time>
      </trkpt>
      <trkpt lat="43.2422530" lon="-8.4276470">
        <ele>192.8</ele>
        <time>2021-08-29T07:19:16Z</time>
      </trkpt>
      <trkpt lat="43.2422290" lon="-8.4276930">
        <ele>193.2</ele>
        <time>2021-08-29T07:19:19Z</time>
      </trkpt>
      <trkpt lat="43.2421310" lon="-8.4278840">
        <ele>195.1</ele>
        <time>2021-08-29T07:19:28Z</time>
      </trkpt>
      <trkpt lat="43.2420770" lon="-8.4279870">
        <ele>196.3</ele>
        <time>2021-08-29T07:19:34Z</time>
      </trkpt>
      <trkpt lat="43.2420510" lon="-8.4280950">
        <ele>197.4</ele>
        <time>2021-08-29T07:19:40Z</time>
      </trkpt>
      <trkpt lat="43.2420390" lon="-8.4281280">
        <ele>197.8</ele>
        <time>2021-08-29T07:19:42Z</time>
      </trkpt>
      <trkpt lat="43.2419760" lon="-8.4282640">
        <ele>199.5</ele>
        <time>2021-08-29T07:19:51Z</time>
      </trkpt>
      <trkpt lat="43.2419320" lon="-8.4283550">
        <ele>200.7</ele>
        <time>2021-08-29T07:19:58Z</time>
      </trkpt>
      <trkpt lat="43.2418740" lon="-8.4284430">
        <ele>202.0</ele>
        <time>2021-08-29T07:20:05Z</time>
      </trkpt>
      <trkpt lat="43.2418570" lon="-8.4284820">
        <ele>202.5</ele>
        <time>2021-08-29T07:20:08Z</time>
      </trkpt>
      <trkpt lat="43.2418330" lon="-8.4285180">
        <ele>203.0</ele>
        <time>2021-08-29T07:20:11Z</time>
      </trkpt>
      <trkpt lat="43.2418120" lon="-8.4285570">
        <ele>203.5</ele>
        <time>2021-08-29T07:20:14Z</time>
      </trkpt>
      <trkpt lat="43.2418060" lon="-8.4285700">
        <ele>203.7</ele>
        <time>2021-08-29T07:20:15Z</time>
      </trkpt>
      <trkpt lat="43.2417860" lon="-8.4285960">
        <ele>204.1</ele>
        <time>2021-08-29T07:20:17Z</time>
      </trkpt>
      <trkpt lat="43.2417500" lon="-8.4286730">
        <ele>205.1</ele>
        <time>2021-08-29T07:20:22Z</time>
      </trkpt>
      <trkpt lat="43.2416580" lon="-8.4288510">
        <ele>207.5</ele>
        <time>2021-08-29T07:20:34Z</time>
      </trkpt>
      <trkpt lat="43.2415670" lon="-8.4290110">
        <ele>209.9</ele>
        <time>2021-08-29T07:20:45Z</time>
      </trkpt>
      <trkpt lat="43.2415090" lon="-8.4291080">
        <ele>211.4</ele>
        <time>2021-08-29T07:20:52Z</time>
      </trkpt>
      <trkpt lat="43.2414970" lon="-8.4291330">
        <ele>211.8</ele>
        <time>2021-08-29T07:20:54Z</time>
      </trkpt>
      <trkpt lat="43.2414340" lon="-8.4292500">
        <ele>213.6</ele>
        <time>2021-08-29T07:21:02Z</time>
      </trkpt>
      <trkpt lat="43.2413960" lon="-8.4293310">
        <ele>214.8</ele>
        <time>2021-08-29T07:21:08Z</time>
      </trkpt>
      <trkpt lat="43.2413620" lon="-8.4294380">
        <ele>216.4</ele>
        <time>2021-08-29T07:21:15Z</time>
      </trkpt>
      <trkpt lat="43.2413590" lon="-8.4294650">
        <ele>216.7</ele>
        <time>2021-08-29T07:21:17Z</time>
      </trkpt>
      <trkpt lat="43.2413450" lon="-8.4295080">
        <ele>217.4</ele>
        <time>2021-08-29T07:21:20Z</time>
      </trkpt>
      <trkpt lat="43.2413090" lon="-8.4296690">
        <ele>219.7</ele>
        <time>2021-08-29T07:21:31Z</time>
      </trkpt>
      <trkpt lat="43.2413080" lon="-8.4296890">
        <ele>220.0</ele>
        <time>2021-08-29T07:21:32Z</time>
      </trkpt>
      <trkpt lat="43.2413030" lon="-8.4297420">
        <ele>220.7</ele>
        <time>2021-08-29T07:21:36Z</time>
      </trkpt>
      <trkpt lat="43.2412700" lon="-8.4298310">
        <ele>222.1</ele>
        <time>2021-08-29T07:21:44Z</time>
      </trkpt>
      <trkpt lat="43.2412630" lon="-8.4298480">
        <ele>222.4</ele>
        <time>2021-08-29T07:21:45Z</time>
      </trkpt>
      <trkpt lat="43.2412090" lon="-8.4298940">
        <ele>223.6</ele>
        <time>2021-08-29T07:21:50Z</time>
      </trkpt>
      <trkpt lat="43.2411740" lon="-8.4299780">
        <ele>225.1</ele>
        <time>2021-08-29T07:21:57Z</time>
      </trkpt>
      <trkpt lat="43.2411330" lon="-8.4300390">
        <ele>226.3</ele>
        <time>2021-08-29T07:22:03Z</time>
      </trkpt>
      <trkpt lat="43.2411020" lon="-8.4300810">
        <ele>227.2</ele>
        <time>2021-08-29T07:22:07Z</time>
      </trkpt>
      <trkpt lat="43.2410770" lon="-8.4300750">
        <ele>227.7</ele>
        <time>2021-08-29T07:22:10Z</time>
      </trkpt>
      <trkpt lat="43.2410530" lon="-8.4300840">
        <ele>228.2</ele>
        <time>2021-08-29T07:22:12Z</time>
      </trkpt>
      <trkpt lat="43.2410200" lon="-8.4301020">
        <ele>228.9</ele>
        <time>2021-08-29T07:22:15Z</time>
      </trkpt>
      <trkpt lat="43.2409620" lon="-8.4302240">
        <ele>231.0</ele>
        <time>2021-08-29T07:22:23Z</time>
      </trkpt>
      <trkpt lat="43.2409170" lon="-8.4302880">
        <ele>232.3</ele>
        <time>2021-08-29T07:22:29Z</time>
      </trkpt>
      <trkpt lat="43.2409100" lon="-8.4302940">
        <ele>232.4</ele>
        <time>2021-08-29T07:22:30Z</time>
      </trkpt>
      <trkpt lat="43.2408800" lon="-8.4303300">
        <ele>233.2</ele>
        <time>2021-08-29T07:22:34Z</time>
      </trkpt>
      <trkpt lat="43.2408620" lon="-8.4303550">
        <ele>233.7</ele>
        <time>2021-08-29T07:22:36Z</time>
      </trkpt>
      <trkpt lat="43.2408440" lon="-8.4303910">
        <ele>234.4</ele>
        <time>2021-08-29T07:22:39Z</time>
      </trkpt>
      <trkpt lat="43.2408340" lon="-8.4304140">
        <ele>234.7</ele>
        <time>2021-08-29T07:22:41Z</time>
      </trkpt>
      <trkpt lat="43.2407790" lon="-8.4305000">
        <ele>236.4</ele>
        <time>2021-08-29T07:22:49Z</time>
      </trkpt>
      <trkpt lat="43.2407120" lon="-8.4305720">
        <ele>238.1</ele>
        <time>2021-08-29T07:22:56Z</time>
      </trkpt>
      <trkpt lat="43.2406670" lon="-8.4306620">
        <ele>239.8</ele>
        <time>2021-08-29T07:23:04Z</time>
      </trkpt>
      <trkpt lat="43.2406480" lon="-8.4306860">
        <ele>240.3</ele>
        <time>2021-08-29T07:23:07Z</time>
      </trkpt>
      <trkpt lat="43.2406240" lon="-8.4307040">
        <ele>240.9</ele>
        <time>2021-08-29T07:23:10Z</time>
      </trkpt>
      <trkpt lat="43.2405820" lon="-8.4307730">
        <ele>242.2</ele>
        <time>2021-08-29T07:23:16Z</time>
      </trkpt>
      <trkpt lat="43.2405290" lon="-8.4308620">
        <ele>243.9</ele>
        <time>2021-08-29T07:23:24Z</time>
      </trkpt>
      <trkpt lat="43.2404530" lon="-8.4309640">
        <ele>246.1</ele>
        <time>2021-08-29T07:23:33Z</time>
      </trkpt>
      <trkpt lat="43.2403960" lon="-8.4310380">
        <ele>247.6</ele>
        <time>2021-08-29T07:23:39Z</time>
      </trkpt>
      <trkpt lat="43.2403730" lon="-8.4310710">
        <ele>248.3</ele>
        <time>2021-08-29T07:23:43Z</time>
      </trkpt>
      <trkpt lat="43.2403620" lon="-8.4310950">
        <ele>248.7</ele>
        <time>2021-08-29T07:23:45Z</time>
      </trkpt>
      <trkpt lat="43.2403210" lon="-8.4311470">
        <ele>249.8</ele>
        <time>2021-08-29T07:23:50Z</time>
      </trkpt>
      <trkpt lat="43.2403040" lon="-8.4311630">
        <ele>250.2</ele>
        <time>2021-08-29T07:23:52Z</time>
      </trkpt>
      <trkpt lat="43.2402440" lon="-8.4312560">
        <ele>251.9</ele>
        <time>2021-08-29T07:24:00Z</time>
      </trkpt>
      <trkpt lat="43.2401500" lon="-8.4313540">
        <ele>254.0</ele>
        <time>2021-08-29T07:24:09Z</time>
      </trkpt>
      <trkpt lat="43.2401310" lon="-8.4313740">
        <ele>254.4</ele>
        <time>2021-08-29T07:24:11Z</time>
      </trkpt>
      <trkpt lat="43.2400990" lon="-8.4314300">
        <ele>255.2</ele>
        <time>2021-08-29T07:24:16Z</time>
      </trkpt>
      <trkpt lat="43.2400610" lon="-8.4314940">
        <ele>256.2</ele>
        <time>2021-08-29T07:24:21Z</time>
      </trkpt>
      <trkpt lat="43.2400430" lon="-8.4315330">
        <ele>256.7</ele>
        <time>2021-08-29T07:24:24Z</time>
      </trkpt>
      <trkpt lat="43.2399850" lon="-8.4316240">
        <ele>258.0</ele>
        <time>2021-08-29T07:24:32Z</time>
      </trkpt>
      <trkpt lat="43.2399110" lon="-8.4316990">
        <ele>259.4</ele>
        <time>2021-08-29T07:24:40Z</time>
      </trkpt>
      <trkpt lat="43.2399000" lon="-8.4317190">
        <ele>259.7</ele>
        <time>2021-08-29T07:24:42Z</time>
      </trkpt>
      <trkpt lat="43.2398820" lon="-8.4317360">
        <ele>260.0</ele>
        <time>2021-08-29T07:24:44Z</time>
      </trkpt>
      <trkpt lat="43.2398680" lon="-8.4317570">
        <ele>260.3</ele>
        <time>2021-08-29T07:24:46Z</time>
      </trkpt>
      <trkpt lat="43.2398610" lon="-8.4317670">
        <ele>260.5</ele>
        <time>2021-08-29T07:24:47Z</time>
      </trkpt>
      <trkpt lat="43.2397250" lon="-8.4320030">
        <ele>263.9</ele>
        <time>2021-08-29T07:25:04Z</time>
      </trkpt>
      <trkpt lat="43.2396570" lon="-8.4320960">
        <ele>265.4</ele>
        <time>2021-08-29T07:25:10Z</time>
      </trkpt>
      <trkpt lat="43.2396160" lon="-8.4321440">
        <ele>266.3</ele>
        <time>2021-08-29T07:25:15Z</time>
      </trkpt>
      <trkpt lat="43.2395990" lon="-8.4321560">
        <ele>266.6</ele>
        <time>2021-08-29T07:25:18Z</time>
      </trkpt>
      <trkpt lat="43.2395730" lon="-8.4321720">
        <ele>267.1</ele>
        <time>2021-08-29T07:25:21Z</time>
      </trkpt>
      <trkpt lat="43.2395380" lon="-8.4322020">
        <ele>267.8</ele>
        <time>2021-08-29T07:25:27Z</time>
      </trkpt>
      <trkpt lat="43.2395250" lon="-8.4322060">
        <ele>268.0</ele>
        <time>2021-08-29T07:25:28Z</time>
      </trkpt>
      <trkpt lat="43.2394690" lon="-8.4322280">
        <ele>268.9</ele>
        <time>2021-08-29T07:25:34Z</time>
      </trkpt>
      <trkpt lat="43.2394570" lon="-8.4322420">
        <ele>269.1</ele>
        <time>2021-08-29T07:25:35Z</time>
      </trkpt>
      <trkpt lat="43.2394300" lon="-8.4322540">
        <ele>269.6</ele>
        <time>2021-08-29T07:25:36Z</time>
      </trkpt>
      <trkpt lat="43.2394030" lon="-8.4322650">
        <ele>269.9</ele>
        <time>2021-08-29T07:25:39Z</time>
      </trkpt>
      <trkpt lat="43.2393900" lon="-8.4322720">
        <ele>270.1</ele>
        <time>2021-08-29T07:25:40Z</time>
      </trkpt>
      <trkpt lat="43.2393620" lon="-8.4322740">
        <ele>270.5</ele>
        <time>2021-08-29T07:25:45Z</time>
      </trkpt>
      <trkpt lat="43.2392980" lon="-8.4323200">
        <ele>271.4</ele>
        <time>2021-08-29T07:25:52Z</time>
      </trkpt>
      <trkpt lat="43.2392860" lon="-8.4323290">
        <ele>271.6</ele>
        <time>2021-08-29T07:25:53Z</time>
      </trkpt>
      <trkpt lat="43.2392320" lon="-8.4324020">
        <ele>272.4</ele>
        <time>2021-08-29T07:26:00Z</time>
      </trkpt>
      <trkpt lat="43.2391920" lon="-8.4324740">
        <ele>273.0</ele>
        <time>2021-08-29T07:26:05Z</time>
      </trkpt>
      <trkpt lat="43.2391710" lon="-8.4325010">
        <ele>273.5</ele>
        <time>2021-08-29T07:26:07Z</time>
      </trkpt>
      <trkpt lat="43.2390760" lon="-8.4325710">
        <ele>275.1</ele>
        <time>2021-08-29T07:26:14Z</time>
      </trkpt>
      <trkpt lat="43.2390170" lon="-8.4326440">
        <ele>276.4</ele>
        <time>2021-08-29T07:26:20Z</time>
      </trkpt>
      <trkpt lat="43.2390080" lon="-8.4326700">
        <ele>276.8</ele>
        <time>2021-08-29T07:26:22Z</time>
      </trkpt>
      <trkpt lat="43.2389710" lon="-8.4327150">
        <ele>277.6</ele>
        <time>2021-08-29T07:26:26Z</time>
      </trkpt>
      <trkpt lat="43.2388880" lon="-8.4327810">
        <ele>279.3</ele>
        <time>2021-08-29T07:26:34Z</time>
      </trkpt>
      <trkpt lat="43.2388580" lon="-8.4328020">
        <ele>280.0</ele>
        <time>2021-08-29T07:26:38Z</time>
      </trkpt>
      <trkpt lat="43.2388370" lon="-8.4328310">
        <ele>280.5</ele>
        <time>2021-08-29T07:26:41Z</time>
      </trkpt>
      <trkpt lat="43.2388270" lon="-8.4328370">
        <ele>280.7</ele>
        <time>2021-08-29T07:26:42Z</time>
      </trkpt>
      <trkpt lat="43.2387560" lon="-8.4328380">
        <ele>282.0</ele>
        <time>2021-08-29T07:26:47Z</time>
      </trkpt>
      <trkpt lat="43.2387420" lon="-8.4328450">
        <ele>282.2</ele>
        <time>2021-08-29T07:26:48Z</time>
      </trkpt>
      <trkpt lat="43.2387150" lon="-8.4328830">
        <ele>282.9</ele>
        <time>2021-08-29T07:26:51Z</time>
      </trkpt>
      <trkpt lat="43.2387050" lon="-8.4328860">
        <ele>283.1</ele>
        <time>2021-08-29T07:26:52Z</time>
      </trkpt>
      <trkpt lat="43.2386680" lon="-8.4329140">
        <ele>283.8</ele>
        <time>2021-08-29T07:26:56Z</time>
      </trkpt>
      <trkpt lat="43.2386510" lon="-8.4329230">
        <ele>284.1</ele>
        <time>2021-08-29T07:26:58Z</time>
      </trkpt>
      <trkpt lat="43.2386260" lon="-8.4329470">
        <ele>284.6</ele>
        <time>2021-08-29T07:27:00Z</time>
      </trkpt>
      <trkpt lat="43.2386010" lon="-8.4329730">
        <ele>285.2</ele>
        <time>2021-08-29T07:27:02Z</time>
      </trkpt>
      <trkpt lat="43.2385760" lon="-8.4329930">
        <ele>285.6</ele>
        <time>2021-08-29T07:27:04Z</time>
      </trkpt>
      <trkpt lat="43.2385550" lon="-8.4330210">
        <ele>286.1</ele>
        <time>2021-08-29T07:27:06Z</time>
      </trkpt>
      <trkpt lat="43.2385490" lon="-8.4330470">
        <ele>286.4</ele>
        <time>2021-08-29T07:27:07Z</time>
      </trkpt>
      <trkpt lat="43.2384880" lon="-8.4331080">
        <ele>287.6</ele>
        <time>2021-08-29T07:27:11Z</time>
      </trkpt>
      <trkpt lat="43.2384440" lon="-8.4331210">
        <ele>288.3</ele>
        <time>2021-08-29T07:27:14Z</time>
      </trkpt>
      <trkpt lat="43.2384350" lon="-8.4331180">
        <ele>288.4</ele>
        <time>2021-08-29T07:27:16Z</time>
      </trkpt>
      <trkpt lat="43.2382940" lon="-8.4332290">
        <ele>290.7</ele>
        <time>2021-08-29T07:27:25Z</time>
      </trkpt>
      <trkpt lat="43.2382200" lon="-8.4332280">
        <ele>291.7</ele>
        <time>2021-08-29T07:27:30Z</time>
      </trkpt>
      <trkpt lat="43.2381380" lon="-8.4332650">
        <ele>293.0</ele>
        <time>2021-08-29T07:27:37Z</time>
      </trkpt>
      <trkpt lat="43.2380650" lon="-8.4332980">
        <ele>294.1</ele>
        <time>2021-08-29T07:27:44Z</time>
      </trkpt>
      <trkpt lat="43.2380500" lon="-8.4333090">
        <ele>294.3</ele>
        <time>2021-08-29T07:27:45Z</time>
      </trkpt>
      <trkpt lat="43.2379850" lon="-8.4333690">
        <ele>295.5</ele>
        <time>2021-08-29T07:27:51Z</time>
      </trkpt>
      <trkpt lat="43.2379790" lon="-8.4333800">
        <ele>295.6</ele>
        <time>2021-08-29T07:27:52Z</time>
      </trkpt>
      <trkpt lat="43.2379610" lon="-8.4334130">
        <ele>296.1</ele>
        <time>2021-08-29T07:27:55Z</time>
      </trkpt>
      <trkpt lat="43.2379370" lon="-8.4334260">
        <ele>296.5</ele>
        <time>2021-08-29T07:27:57Z</time>
      </trkpt>
      <trkpt lat="43.2379030" lon="-8.4334470">
        <ele>297.1</ele>
        <time>2021-08-29T07:28:00Z</time>
      </trkpt>
      <trkpt lat="43.2378660" lon="-8.4334870">
        <ele>297.9</ele>
        <time>2021-08-29T07:28:04Z</time>
      </trkpt>
      <trkpt lat="43.2378030" lon="-8.4335410">
        <ele>299.2</ele>
        <time>2021-08-29T07:28:09Z</time>
      </trkpt>
      <trkpt lat="43.2377510" lon="-8.4335580">
        <ele>300.2</ele>
        <time>2021-08-29T07:28:13Z</time>
      </trkpt>
      <trkpt lat="43.2376800" lon="-8.4336000">
        <ele>301.7</ele>
        <time>2021-08-29T07:28:20Z</time>
      </trkpt>
      <trkpt lat="43.2375840" lon="-8.4336120">
        <ele>303.6</ele>
        <time>2021-08-29T07:28:27Z</time>
      </trkpt>
      <trkpt lat="43.2375700" lon="-8.4336080">
        <ele>303.8</ele>
        <time>2021-08-29T07:28:28Z</time>
      </trkpt>
      <trkpt lat="43.2374850" lon="-8.4336760">
        <ele>305.3</ele>
        <time>2021-08-29T07:28:35Z</time>
      </trkpt>
      <trkpt lat="43.2374720" lon="-8.4336850">
        <ele>305.5</ele>
        <time>2021-08-29T07:28:36Z</time>
      </trkpt>
      <trkpt lat="43.2374090" lon="-8.4337420">
        <ele>306.5</ele>
        <time>2021-08-29T07:28:41Z</time>
      </trkpt>
      <trkpt lat="43.2372910" lon="-8.4338080">
        <ele>308.1</ele>
        <time>2021-08-29T07:28:50Z</time>
      </trkpt>
      <trkpt lat="43.2372220" lon="-8.4338430">
        <ele>309.1</ele>
        <time>2021-08-29T07:28:58Z</time>
      </trkpt>
      <trkpt lat="43.2371850" lon="-8.4338470">
        <ele>309.5</ele>
        <time>2021-08-29T07:29:01Z</time>
      </trkpt>
      <trkpt lat="43.2371610" lon="-8.4338660">
        <ele>309.9</ele>
        <time>2021-08-29T07:29:03Z</time>
      </trkpt>
      <trkpt lat="43.2371060" lon="-8.4339070">
        <ele>310.7</ele>
        <time>2021-08-29T07:29:07Z</time>
      </trkpt>
      <trkpt lat="43.2370840" lon="-8.4339190">
        <ele>311.0</ele>
        <time>2021-08-29T07:29:09Z</time>
      </trkpt>
      <trkpt lat="43.2370280" lon="-8.4339530">
        <ele>311.8</ele>
        <time>2021-08-29T07:29:13Z</time>
      </trkpt>
      <trkpt lat="43.2370090" lon="-8.4339750">
        <ele>312.2</ele>
        <time>2021-08-29T07:29:15Z</time>
      </trkpt>
      <trkpt lat="43.2369890" lon="-8.4339920">
        <ele>312.5</ele>
        <time>2021-08-29T07:29:17Z</time>
      </trkpt>
      <trkpt lat="43.2369590" lon="-8.4340020">
        <ele>312.9</ele>
        <time>2021-08-29T07:29:19Z</time>
      </trkpt>
      <trkpt lat="43.2369350" lon="-8.4340280">
        <ele>313.3</ele>
        <time>2021-08-29T07:29:21Z</time>
      </trkpt>
      <trkpt lat="43.2368960" lon="-8.4340480">
        <ele>313.8</ele>
        <time>2021-08-29T07:29:24Z</time>
      </trkpt>
      <trkpt lat="43.2368760" lon="-8.4340670">
        <ele>314.1</ele>
        <time>2021-08-29T07:29:26Z</time>
      </trkpt>
      <trkpt lat="43.2368530" lon="-8.4341040">
        <ele>314.6</ele>
        <time>2021-08-29T07:29:29Z</time>
      </trkpt>
      <trkpt lat="43.2368190" lon="-8.4341340">
        <ele>315.2</ele>
        <time>2021-08-29T07:29:32Z</time>
      </trkpt>
      <trkpt lat="43.2367220" lon="-8.4341890">
        <ele>316.7</ele>
        <time>2021-08-29T07:29:39Z</time>
      </trkpt>
      <trkpt lat="43.2367050" lon="-8.4341930">
        <ele>316.9</ele>
        <time>2021-08-29T07:29:40Z</time>
      </trkpt>
      <trkpt lat="43.2366770" lon="-8.4341900">
        <ele>317.3</ele>
        <time>2021-08-29T07:29:42Z</time>
      </trkpt>
      <trkpt lat="43.2366660" lon="-8.4341930">
        <ele>317.5</ele>
        <time>2021-08-29T07:29:43Z</time>
      </trkpt>
      <trkpt lat="43.2365840" lon="-8.4342650">
        <ele>318.9</ele>
        <time>2021-08-29T07:29:51Z</time>
      </trkpt>
      <trkpt lat="43.2365280" lon="-8.4342920">
        <ele>319.8</ele>
        <time>2021-08-29T07:29:55Z</time>
      </trkpt>
      <trkpt lat="43.2365040" lon="-8.4343040">
        <ele>320.1</ele>
        <time>2021-08-29T07:29:57Z</time>
      </trkpt>
      <trkpt lat="43.2364620" lon="-8.4343460">
        <ele>320.9</ele>
        <time>2021-08-29T07:30:01Z</time>
      </trkpt>
      <trkpt lat="43.2364580" lon="-8.4343470">
        <ele>320.9</ele>
        <time>2021-08-29T07:30:02Z</time>
      </trkpt>
      <trkpt lat="43.2363810" lon="-8.4343870">
        <ele>322.1</ele>
        <time>2021-08-29T07:30:08Z</time>
      </trkpt>
      <trkpt lat="43.2363060" lon="-8.4344990">
        <ele>323.6</ele>
        <time>2021-08-29T07:30:15Z</time>
      </trkpt>
      <trkpt lat="43.2362210" lon="-8.4345830">
        <ele>325.0</ele>
        <time>2021-08-29T07:30:23Z</time>
      </trkpt>
      <trkpt lat="43.2361900" lon="-8.4346200">
        <ele>325.5</ele>
        <time>2021-08-29T07:30:26Z</time>
      </trkpt>
      <trkpt lat="43.2361600" lon="-8.4346530">
        <ele>326.0</ele>
        <time>2021-08-29T07:30:29Z</time>
      </trkpt>
      <trkpt lat="43.2361350" lon="-8.4346800">
        <ele>326.4</ele>
        <time>2021-08-29T07:30:32Z</time>
      </trkpt>
      <trkpt lat="43.2361190" lon="-8.4346880">
        <ele>326.6</ele>
        <time>2021-08-29T07:30:34Z</time>
      </trkpt>
      <trkpt lat="43.2361080" lon="-8.4347010">
        <ele>326.8</ele>
        <time>2021-08-29T07:30:35Z</time>
      </trkpt>
      <trkpt lat="43.2360660" lon="-8.4347830">
        <ele>327.6</ele>
        <time>2021-08-29T07:30:39Z</time>
      </trkpt>
      <trkpt lat="43.2360530" lon="-8.4348020">
        <ele>327.8</ele>
        <time>2021-08-29T07:30:41Z</time>
      </trkpt>
      <trkpt lat="43.2360280" lon="-8.4348110">
        <ele>328.2</ele>
        <time>2021-08-29T07:30:43Z</time>
      </trkpt>
      <trkpt lat="43.2360030" lon="-8.4348320">
        <ele>328.5</ele>
        <time>2021-08-29T07:30:46Z</time>
      </trkpt>
      <trkpt lat="43.2359590" lon="-8.4348580">
        <ele>329.1</ele>
        <time>2021-08-29T07:30:49Z</time>
      </trkpt>
      <trkpt lat="43.2358820" lon="-8.4348740">
        <ele>330.0</ele>
        <time>2021-08-29T07:30:54Z</time>
      </trkpt>
      <trkpt lat="43.2358720" lon="-8.4348830">
        <ele>330.1</ele>
        <time>2021-08-29T07:30:55Z</time>
      </trkpt>
      <trkpt lat="43.2358070" lon="-8.4349170">
        <ele>330.9</ele>
        <time>2021-08-29T07:31:00Z</time>
      </trkpt>
      <trkpt lat="43.2357950" lon="-8.4349220">
        <ele>331.0</ele>
        <time>2021-08-29T07:31:01Z</time>
      </trkpt>
      <trkpt lat="43.2356270" lon="-8.4349100">
        <ele>332.8</ele>
        <time>2021-08-29T07:31:11Z</time>
      </trkpt>
      <trkpt lat="43.2356120" lon="-8.4349160">
        <ele>333.1</ele>
        <time>2021-08-29T07:31:13Z</time>
      </trkpt>
      <trkpt lat="43.2355780" lon="-8.4349260">
        <ele>333.5</ele>
        <time>2021-08-29T07:31:16Z</time>
      </trkpt>
      <trkpt lat="43.2354860" lon="-8.4349080">
        <ele>334.9</ele>
        <time>2021-08-29T07:31:23Z</time>
      </trkpt>
      <trkpt lat="43.2354560" lon="-8.4349110">
        <ele>335.4</ele>
        <time>2021-08-29T07:31:26Z</time>
      </trkpt>
      <trkpt lat="43.2354330" lon="-8.4349130">
        <ele>335.8</ele>
        <time>2021-08-29T07:31:28Z</time>
      </trkpt>
      <trkpt lat="43.2353670" lon="-8.4349280">
        <ele>337.1</ele>
        <time>2021-08-29T07:31:35Z</time>
      </trkpt>
      <trkpt lat="43.2353490" lon="-8.4349430">
        <ele>337.5</ele>
        <time>2021-08-29T07:31:37Z</time>
      </trkpt>
      <trkpt lat="43.2352490" lon="-8.4350390">
        <ele>339.8</ele>
        <time>2021-08-29T07:31:46Z</time>
      </trkpt>
      <trkpt lat="43.2352400" lon="-8.4350450">
        <ele>340.0</ele>
        <time>2021-08-29T07:31:47Z</time>
      </trkpt>
      <trkpt lat="43.2352120" lon="-8.4350470">
        <ele>340.6</ele>
        <time>2021-08-29T07:31:49Z</time>
      </trkpt>
      <trkpt lat="43.2351820" lon="-8.4350460">
        <ele>341.1</ele>
        <time>2021-08-29T07:31:51Z</time>
      </trkpt>
      <trkpt lat="43.2351400" lon="-8.4350470">
        <ele>341.8</ele>
        <time>2021-08-29T07:31:54Z</time>
      </trkpt>
      <trkpt lat="43.2350710" lon="-8.4350690">
        <ele>343.0</ele>
        <time>2021-08-29T07:31:59Z</time>
      </trkpt>
      <trkpt lat="43.2350590" lon="-8.4350680">
        <ele>343.1</ele>
        <time>2021-08-29T07:32:00Z</time>
      </trkpt>
      <trkpt lat="43.2350090" lon="-8.4350530">
        <ele>343.9</ele>
        <time>2021-08-29T07:32:04Z</time>
      </trkpt>
      <trkpt lat="43.2349960" lon="-8.4350440">
        <ele>344.1</ele>
        <time>2021-08-29T07:32:05Z</time>
      </trkpt>
      <trkpt lat="43.2349540" lon="-8.4350240">
        <ele>344.7</ele>
        <time>2021-08-29T07:32:08Z</time>
      </trkpt>
      <trkpt lat="43.2349430" lon="-8.4350270">
        <ele>344.9</ele>
        <time>2021-08-29T07:32:09Z</time>
      </trkpt>
      <trkpt lat="43.2349160" lon="-8.4350160">
        <ele>345.3</ele>
        <time>2021-08-29T07:32:11Z</time>
      </trkpt>
      <trkpt lat="43.2348970" lon="-8.4349920">
        <ele>345.7</ele>
        <time>2021-08-29T07:32:13Z</time>
      </trkpt>
      <trkpt lat="43.2348780" lon="-8.4349810">
        <ele>346.0</ele>
        <time>2021-08-29T07:32:15Z</time>
      </trkpt>
      <trkpt lat="43.2347890" lon="-8.4349670">
        <ele>347.3</ele>
        <time>2021-08-29T07:32:23Z</time>
      </trkpt>
      <trkpt lat="43.2346820" lon="-8.4349510">
        <ele>349.1</ele>
        <time>2021-08-29T07:32:31Z</time>
      </trkpt>
      <trkpt lat="43.2345880" lon="-8.4349710">
        <ele>350.8</ele>
        <time>2021-08-29T07:32:38Z</time>
      </trkpt>
      <trkpt lat="43.2345420" lon="-8.4349800">
        <ele>351.5</ele>
        <time>2021-08-29T07:32:42Z</time>
      </trkpt>
      <trkpt lat="43.2344780" lon="-8.4349780">
        <ele>352.4</ele>
        <time>2021-08-29T07:32:46Z</time>
      </trkpt>
      <trkpt lat="43.2343770" lon="-8.4350220">
        <ele>353.6</ele>
        <time>2021-08-29T07:32:53Z</time>
      </trkpt>
      <trkpt lat="43.2343510" lon="-8.4350210">
        <ele>353.8</ele>
        <time>2021-08-29T07:32:59Z</time>
      </trkpt>
      <trkpt lat="43.2343510" lon="-8.4350210">
        <ele>353.8</ele>
        <time>2021-08-29T07:33:09Z</time>
      </trkpt>
      <trkpt lat="43.2343840" lon="-8.4350200">
        <ele>354.1</ele>
        <time>2021-08-29T07:33:12Z</time>
      </trkpt>
      <trkpt lat="43.2344070" lon="-8.4350200">
        <ele>354.2</ele>
        <time>2021-08-29T07:33:13Z</time>
      </trkpt>
      <trkpt lat="43.2345390" lon="-8.4349650">
        <ele>352.8</ele>
        <time>2021-08-29T07:33:19Z</time>
      </trkpt>
      <trkpt lat="43.2347110" lon="-8.4349580">
        <ele>349.9</ele>
        <time>2021-08-29T07:33:24Z</time>
      </trkpt>
      <trkpt lat="43.2348380" lon="-8.4349450">
        <ele>347.5</ele>
        <time>2021-08-29T07:33:27Z</time>
      </trkpt>
      <trkpt lat="43.2349320" lon="-8.4349750">
        <ele>345.9</ele>
        <time>2021-08-29T07:33:29Z</time>
      </trkpt>
      <trkpt lat="43.2351250" lon="-8.4350280">
        <ele>342.7</ele>
        <time>2021-08-29T07:33:33Z</time>
      </trkpt>
      <trkpt lat="43.2352200" lon="-8.4350230">
        <ele>340.9</ele>
        <time>2021-08-29T07:33:35Z</time>
      </trkpt>
      <trkpt lat="43.2352680" lon="-8.4350000">
        <ele>339.8</ele>
        <time>2021-08-29T07:33:36Z</time>
      </trkpt>
      <trkpt lat="43.2355260" lon="-8.4348870">
        <ele>334.3</ele>
        <time>2021-08-29T07:33:41Z</time>
      </trkpt>
      <trkpt lat="43.2355810" lon="-8.4348740">
        <ele>333.4</ele>
        <time>2021-08-29T07:33:42Z</time>
      </trkpt>
      <trkpt lat="43.2357370" lon="-8.4348740">
        <ele>331.4</ele>
        <time>2021-08-29T07:33:45Z</time>
      </trkpt>
      <trkpt lat="43.2358310" lon="-8.4348370">
        <ele>330.4</ele>
        <time>2021-08-29T07:33:47Z</time>
      </trkpt>
      <trkpt lat="43.2359540" lon="-8.4347850">
        <ele>329.0</ele>
        <time>2021-08-29T07:33:50Z</time>
      </trkpt>
      <trkpt lat="43.2360180" lon="-8.4347800">
        <ele>328.2</ele>
        <time>2021-08-29T07:33:52Z</time>
      </trkpt>
      <trkpt lat="43.2360420" lon="-8.4347400">
        <ele>327.8</ele>
        <time>2021-08-29T07:33:54Z</time>
      </trkpt>
      <trkpt lat="43.2360100" lon="-8.4347240">
        <ele>328.1</ele>
        <time>2021-08-29T07:33:57Z</time>
      </trkpt>
      <trkpt lat="43.2359980" lon="-8.4347280">
        <ele>328.2</ele>
        <time>2021-08-29T07:33:58Z</time>
      </trkpt>
      <trkpt lat="43.2359790" lon="-8.4347280">
        <ele>328.4</ele>
        <time>2021-08-29T07:34:00Z</time>
      </trkpt>
      <trkpt lat="43.2359660" lon="-8.4347280">
        <ele>328.6</ele>
        <time>2021-08-29T07:34:01Z</time>
      </trkpt>
      <trkpt lat="43.2359480" lon="-8.4347250">
        <ele>328.8</ele>
        <time>2021-08-29T07:34:02Z</time>
      </trkpt>
      <trkpt lat="43.2358570" lon="-8.4347430">
        <ele>329.9</ele>
        <time>2021-08-29T07:34:05Z</time>
      </trkpt>
      <trkpt lat="43.2358290" lon="-8.4347510">
        <ele>330.2</ele>
        <time>2021-08-29T07:34:06Z</time>
      </trkpt>
      <trkpt lat="43.2357640" lon="-8.4347630">
        <ele>330.9</ele>
        <time>2021-08-29T07:34:08Z</time>
      </trkpt>
      <trkpt lat="43.2356640" lon="-8.4347670">
        <ele>331.9</ele>
        <time>2021-08-29T07:34:12Z</time>
      </trkpt>
      <trkpt lat="43.2355530" lon="-8.4347700">
        <ele>332.5</ele>
        <time>2021-08-29T07:34:17Z</time>
      </trkpt>
      <trkpt lat="43.2354220" lon="-8.4347490">
        <ele>332.7</ele>
        <time>2021-08-29T07:34:23Z</time>
      </trkpt>
      <trkpt lat="43.2353210" lon="-8.4347190">
        <ele>332.6</ele>
        <time>2021-08-29T07:34:26Z</time>
      </trkpt>
      <trkpt lat="43.2352900" lon="-8.4346890">
        <ele>332.5</ele>
        <time>2021-08-29T07:34:27Z</time>
      </trkpt>
      <trkpt lat="43.2352510" lon="-8.4346120">
        <ele>332.3</ele>
        <time>2021-08-29T07:34:29Z</time>
      </trkpt>
      <trkpt lat="43.2351680" lon="-8.4345080">
        <ele>332.0</ele>
        <time>2021-08-29T07:34:32Z</time>
      </trkpt>
      <trkpt lat="43.2349990" lon="-8.4344620">
        <ele>331.6</ele>
        <time>2021-08-29T07:34:36Z</time>
      </trkpt>
      <trkpt lat="43.2348030" lon="-8.4343990">
        <ele>331.2</ele>
        <time>2021-08-29T07:34:41Z</time>
      </trkpt>
      <trkpt lat="43.2346860" lon="-8.4342900">
        <ele>331.0</ele>
        <time>2021-08-29T07:34:44Z</time>
      </trkpt>
      <trkpt lat="43.2345760" lon="-8.4342520">
        <ele>330.9</ele>
        <time>2021-08-29T07:34:47Z</time>
      </trkpt>
      <trkpt lat="43.2343580" lon="-8.4343330">
        <ele>330.7</ele>
        <time>2021-08-29T07:34:53Z</time>
      </trkpt>
      <trkpt lat="43.2341890" lon="-8.4343390">
        <ele>331.1</ele>
        <time>2021-08-29T07:34:58Z</time>
      </trkpt>
      <trkpt lat="43.2340480" lon="-8.4342970">
        <ele>332.1</ele>
        <time>2021-08-29T07:35:03Z</time>
      </trkpt>
      <trkpt lat="43.2339230" lon="-8.4343380">
        <ele>333.1</ele>
        <time>2021-08-29T07:35:09Z</time>
      </trkpt>
      <trkpt lat="43.2337770" lon="-8.4344230">
        <ele>333.6</ele>
        <time>2021-08-29T07:35:16Z</time>
      </trkpt>
      <trkpt lat="43.2336100" lon="-8.4343800">
        <ele>332.9</ele>
        <time>2021-08-29T07:35:20Z</time>
      </trkpt>
      <trkpt lat="43.2335740" lon="-8.4343320">
        <ele>332.7</ele>
        <time>2021-08-29T07:35:21Z</time>
      </trkpt>
      <trkpt lat="43.2335310" lon="-8.4342090">
        <ele>332.3</ele>
        <time>2021-08-29T07:35:23Z</time>
      </trkpt>
      <trkpt lat="43.2334350" lon="-8.4339370">
        <ele>332.0</ele>
        <time>2021-08-29T07:35:28Z</time>
      </trkpt>
      <trkpt lat="43.2334110" lon="-8.4338890">
        <ele>332.0</ele>
        <time>2021-08-29T07:35:29Z</time>
      </trkpt>
      <trkpt lat="43.2333530" lon="-8.4338080">
        <ele>331.6</ele>
        <time>2021-08-29T07:35:31Z</time>
      </trkpt>
      <trkpt lat="43.2332700" lon="-8.4337290">
        <ele>331.0</ele>
        <time>2021-08-29T07:35:33Z</time>
      </trkpt>
      <trkpt lat="43.2331690" lon="-8.4336630">
        <ele>330.1</ele>
        <time>2021-08-29T07:35:35Z</time>
      </trkpt>
      <trkpt lat="43.2329800" lon="-8.4336060">
        <ele>328.4</ele>
        <time>2021-08-29T07:35:38Z</time>
      </trkpt>
      <trkpt lat="43.2327710" lon="-8.4335260">
        <ele>326.7</ele>
        <time>2021-08-29T07:35:41Z</time>
      </trkpt>
      <trkpt lat="43.2327090" lon="-8.4334720">
        <ele>326.8</ele>
        <time>2021-08-29T07:35:42Z</time>
      </trkpt>
      <trkpt lat="43.2325260" lon="-8.4332260">
        <ele>329.1</ele>
        <time>2021-08-29T07:35:47Z</time>
      </trkpt>
      <trkpt lat="43.2324180" lon="-8.4331540">
        <ele>330.2</ele>
        <time>2021-08-29T07:35:51Z</time>
      </trkpt>
      <trkpt lat="43.2323940" lon="-8.4331450">
        <ele>330.4</ele>
        <time>2021-08-29T07:35:52Z</time>
      </trkpt>
      <trkpt lat="43.2322410" lon="-8.4331580">
        <ele>331.8</ele>
        <time>2021-08-29T07:35:58Z</time>
      </trkpt>
      <trkpt lat="43.2320990" lon="-8.4332330">
        <ele>333.3</ele>
        <time>2021-08-29T07:36:05Z</time>
      </trkpt>
      <trkpt lat="43.2319630" lon="-8.4332710">
        <ele>334.7</ele>
        <time>2021-08-29T07:36:12Z</time>
      </trkpt>
      <trkpt lat="43.2318760" lon="-8.4331780">
        <ele>335.9</ele>
        <time>2021-08-29T07:36:18Z</time>
      </trkpt>
      <trkpt lat="43.2318490" lon="-8.4331130">
        <ele>336.5</ele>
        <time>2021-08-29T07:36:21Z</time>
      </trkpt>
      <trkpt lat="43.2318260" lon="-8.4329870">
        <ele>337.4</ele>
        <time>2021-08-29T07:36:26Z</time>
      </trkpt>
      <trkpt lat="43.2317880" lon="-8.4328190">
        <ele>338.6</ele>
        <time>2021-08-29T07:36:33Z</time>
      </trkpt>
      <trkpt lat="43.2317470" lon="-8.4327750">
        <ele>339.0</ele>
        <time>2021-08-29T07:36:36Z</time>
      </trkpt>
      <trkpt lat="43.2316950" lon="-8.4327610">
        <ele>339.5</ele>
        <time>2021-08-29T07:36:39Z</time>
      </trkpt>
      <trkpt lat="43.2315590" lon="-8.4327830">
        <ele>340.7</ele>
        <time>2021-08-29T07:36:47Z</time>
      </trkpt>
      <trkpt lat="43.2314060" lon="-8.4327870">
        <ele>341.8</ele>
        <time>2021-08-29T07:36:55Z</time>
      </trkpt>
      <trkpt lat="43.2313160" lon="-8.4326360">
        <ele>342.6</ele>
        <time>2021-08-29T07:37:02Z</time>
      </trkpt>
      <trkpt lat="43.2312910" lon="-8.4323800">
        <ele>343.6</ele>
        <time>2021-08-29T07:37:10Z</time>
      </trkpt>
      <trkpt lat="43.2311910" lon="-8.4322650">
        <ele>344.3</ele>
        <time>2021-08-29T07:37:16Z</time>
      </trkpt>
      <trkpt lat="43.2310460" lon="-8.4322560">
        <ele>345.2</ele>
        <time>2021-08-29T07:37:23Z</time>
      </trkpt>
      <trkpt lat="43.2308950" lon="-8.4322310">
        <ele>346.1</ele>
        <time>2021-08-29T07:37:30Z</time>
      </trkpt>
      <trkpt lat="43.2308020" lon="-8.4321440">
        <ele>346.9</ele>
        <time>2021-08-29T07:37:35Z</time>
      </trkpt>
      <trkpt lat="43.2307350" lon="-8.4319580">
        <ele>348.0</ele>
        <time>2021-08-29T07:37:42Z</time>
      </trkpt>
      <trkpt lat="43.2306420" lon="-8.4318140">
        <ele>349.2</ele>
        <time>2021-08-29T07:37:49Z</time>
      </trkpt>
      <trkpt lat="43.2305370" lon="-8.4316720">
        <ele>350.5</ele>
        <time>2021-08-29T07:37:57Z</time>
      </trkpt>
      <trkpt lat="43.2305090" lon="-8.4314970">
        <ele>351.5</ele>
        <time>2021-08-29T07:38:05Z</time>
      </trkpt>
      <trkpt lat="43.2306160" lon="-8.4312950">
        <ele>352.8</ele>
        <time>2021-08-29T07:38:14Z</time>
      </trkpt>
      <trkpt lat="43.2307050" lon="-8.4311300">
        <ele>353.7</ele>
        <time>2021-08-29T07:38:21Z</time>
      </trkpt>
      <trkpt lat="43.2307060" lon="-8.4309230">
        <ele>354.6</ele>
        <time>2021-08-29T07:38:28Z</time>
      </trkpt>
      <trkpt lat="43.2306270" lon="-8.4308120">
        <ele>355.5</ele>
        <time>2021-08-29T07:38:34Z</time>
      </trkpt>
      <trkpt lat="43.2305550" lon="-8.4306940">
        <ele>356.5</ele>
        <time>2021-08-29T07:38:40Z</time>
      </trkpt>
      <trkpt lat="43.2304770" lon="-8.4305950">
        <ele>357.5</ele>
        <time>2021-08-29T07:38:46Z</time>
      </trkpt>
      <trkpt lat="43.2303670" lon="-8.4304620">
        <ele>358.9</ele>
        <time>2021-08-29T07:38:54Z</time>
      </trkpt>
      <trkpt lat="43.2302350" lon="-8.4302920">
        <ele>360.5</ele>
        <time>2021-08-29T07:39:04Z</time>
      </trkpt>
      <trkpt lat="43.2301400" lon="-8.4301610">
        <ele>361.6</ele>
        <time>2021-08-29T07:39:11Z</time>
      </trkpt>
      <trkpt lat="43.2300000" lon="-8.4300050">
        <ele>362.9</ele>
        <time>2021-08-29T07:39:21Z</time>
      </trkpt>
      <trkpt lat="43.2298620" lon="-8.4298740">
        <ele>364.1</ele>
        <time>2021-08-29T07:39:29Z</time>
      </trkpt>
      <trkpt lat="43.2297390" lon="-8.4297370">
        <ele>365.3</ele>
        <time>2021-08-29T07:39:37Z</time>
      </trkpt>
      <trkpt lat="43.2296570" lon="-8.4296270">
        <ele>366.2</ele>
        <time>2021-08-29T07:39:43Z</time>
      </trkpt>
      <trkpt lat="43.2295710" lon="-8.4295110">
        <ele>367.3</ele>
        <time>2021-08-29T07:39:50Z</time>
      </trkpt>
      <trkpt lat="43.2295380" lon="-8.4294050">
        <ele>368.0</ele>
        <time>2021-08-29T07:39:56Z</time>
      </trkpt>
      <trkpt lat="43.2294900" lon="-8.4293100">
        <ele>368.8</ele>
        <time>2021-08-29T07:40:01Z</time>
      </trkpt>
      <trkpt lat="43.2294190" lon="-8.4290950">
        <ele>370.4</ele>
        <time>2021-08-29T07:40:11Z</time>
      </trkpt>
      <trkpt lat="43.2293660" lon="-8.4289240">
        <ele>371.5</ele>
        <time>2021-08-29T07:40:18Z</time>
      </trkpt>
      <trkpt lat="43.2293360" lon="-8.4287720">
        <ele>372.4</ele>
        <time>2021-08-29T07:40:24Z</time>
      </trkpt>
      <trkpt lat="43.2293250" lon="-8.4287500">
        <ele>372.5</ele>
        <time>2021-08-29T07:40:25Z</time>
      </trkpt>
      <trkpt lat="43.2293100" lon="-8.4286780">
        <ele>372.9</ele>
        <time>2021-08-29T07:40:28Z</time>
      </trkpt>
      <trkpt lat="43.2292930" lon="-8.4284890">
        <ele>373.8</ele>
        <time>2021-08-29T07:40:35Z</time>
      </trkpt>
      <trkpt lat="43.2292920" lon="-8.4284130">
        <ele>374.2</ele>
        <time>2021-08-29T07:40:38Z</time>
      </trkpt>
      <trkpt lat="43.2292870" lon="-8.4283630">
        <ele>374.5</ele>
        <time>2021-08-29T07:40:40Z</time>
      </trkpt>
      <trkpt lat="43.2292760" lon="-8.4283190">
        <ele>374.7</ele>
        <time>2021-08-29T07:40:42Z</time>
      </trkpt>
      <trkpt lat="43.2292790" lon="-8.4282690">
        <ele>375.0</ele>
        <time>2021-08-29T07:40:44Z</time>
      </trkpt>
      <trkpt lat="43.2293090" lon="-8.4280000">
        <ele>376.7</ele>
        <time>2021-08-29T07:40:54Z</time>
      </trkpt>
      <trkpt lat="43.2293060" lon="-8.4277840">
        <ele>378.1</ele>
        <time>2021-08-29T07:41:02Z</time>
      </trkpt>
      <trkpt lat="43.2292910" lon="-8.4275150">
        <ele>379.7</ele>
        <time>2021-08-29T07:41:12Z</time>
      </trkpt>
      <trkpt lat="43.2292650" lon="-8.4273440">
        <ele>380.8</ele>
        <time>2021-08-29T07:41:19Z</time>
      </trkpt>
      <trkpt lat="43.2292510" lon="-8.4271500">
        <ele>382.1</ele>
        <time>2021-08-29T07:41:27Z</time>
      </trkpt>
      <trkpt lat="43.2292230" lon="-8.4269310">
        <ele>383.6</ele>
        <time>2021-08-29T07:41:36Z</time>
      </trkpt>
      <trkpt lat="43.2291890" lon="-8.4267120">
        <ele>385.3</ele>
        <time>2021-08-29T07:41:46Z</time>
      </trkpt>
      <trkpt lat="43.2291800" lon="-8.4265220">
        <ele>386.9</ele>
        <time>2021-08-29T07:41:55Z</time>
      </trkpt>
      <trkpt lat="43.2291710" lon="-8.4264440">
        <ele>387.7</ele>
        <time>2021-08-29T07:41:59Z</time>
      </trkpt>
      <trkpt lat="43.2291690" lon="-8.4263920">
        <ele>388.2</ele>
        <time>2021-08-29T07:42:02Z</time>
      </trkpt>
      <trkpt lat="43.2291490" lon="-8.4262740">
        <ele>389.3</ele>
        <time>2021-08-29T07:42:09Z</time>
      </trkpt>
      <trkpt lat="43.2291180" lon="-8.4260900">
        <ele>391.2</ele>
        <time>2021-08-29T07:42:19Z</time>
      </trkpt>
      <trkpt lat="43.2290870" lon="-8.4259180">
        <ele>393.1</ele>
        <time>2021-08-29T07:42:29Z</time>
      </trkpt>
      <trkpt lat="43.2290590" lon="-8.4257920">
        <ele>394.4</ele>
        <time>2021-08-29T07:42:36Z</time>
      </trkpt>
      <trkpt lat="43.2290480" lon="-8.4256750">
        <ele>395.6</ele>
        <time>2021-08-29T07:42:43Z</time>
      </trkpt>
      <trkpt lat="43.2290410" lon="-8.4255710">
        <ele>396.6</ele>
        <time>2021-08-29T07:42:49Z</time>
      </trkpt>
      <trkpt lat="43.2290440" lon="-8.4255320">
        <ele>396.9</ele>
        <time>2021-08-29T07:42:51Z</time>
      </trkpt>
      <trkpt lat="43.2290470" lon="-8.4253730">
        <ele>398.3</ele>
        <time>2021-08-29T07:42:59Z</time>
      </trkpt>
      <trkpt lat="43.2290120" lon="-8.4252080">
        <ele>399.9</ele>
        <time>2021-08-29T07:43:08Z</time>
      </trkpt>
      <trkpt lat="43.2290070" lon="-8.4251900">
        <ele>400.0</ele>
        <time>2021-08-29T07:43:09Z</time>
      </trkpt>
      <trkpt lat="43.2289990" lon="-8.4251160">
        <ele>400.7</ele>
        <time>2021-08-29T07:43:13Z</time>
      </trkpt>
      <trkpt lat="43.2289680" lon="-8.4249550">
        <ele>402.1</ele>
        <time>2021-08-29T07:43:22Z</time>
      </trkpt>
      <trkpt lat="43.2289190" lon="-8.4248180">
        <ele>403.5</ele>
        <time>2021-08-29T07:43:31Z</time>
      </trkpt>
      <trkpt lat="43.2288870" lon="-8.4246910">
        <ele>404.8</ele>
        <time>2021-08-29T07:43:39Z</time>
      </trkpt>
      <trkpt lat="43.2288560" lon="-8.4245940">
        <ele>405.8</ele>
        <time>2021-08-29T07:43:45Z</time>
      </trkpt>
      <trkpt lat="43.2288490" lon="-8.4245590">
        <ele>406.1</ele>
        <time>2021-08-29T07:43:47Z</time>
      </trkpt>
      <trkpt lat="43.2288270" lon="-8.4244970">
        <ele>406.8</ele>
        <time>2021-08-29T07:43:52Z</time>
      </trkpt>
      <trkpt lat="43.2287510" lon="-8.4243390">
        <ele>408.5</ele>
        <time>2021-08-29T07:44:01Z</time>
      </trkpt>
      <trkpt lat="43.2287410" lon="-8.4243290">
        <ele>408.7</ele>
        <time>2021-08-29T07:44:02Z</time>
      </trkpt>
      <trkpt lat="43.2287010" lon="-8.4243010">
        <ele>409.3</ele>
        <time>2021-08-29T07:44:06Z</time>
      </trkpt>
      <trkpt lat="43.2286490" lon="-8.4242340">
        <ele>410.1</ele>
        <time>2021-08-29T07:44:12Z</time>
      </trkpt>
      <trkpt lat="43.2286380" lon="-8.4242070">
        <ele>410.4</ele>
        <time>2021-08-29T07:44:14Z</time>
      </trkpt>
      <trkpt lat="43.2286030" lon="-8.4241720">
        <ele>410.9</ele>
        <time>2021-08-29T07:44:18Z</time>
      </trkpt>
      <trkpt lat="43.2285910" lon="-8.4241530">
        <ele>411.1</ele>
        <time>2021-08-29T07:44:20Z</time>
      </trkpt>
      <trkpt lat="43.2285540" lon="-8.4241240">
        <ele>411.6</ele>
        <time>2021-08-29T07:44:24Z</time>
      </trkpt>
      <trkpt lat="43.2285270" lon="-8.4240940">
        <ele>412.0</ele>
        <time>2021-08-29T07:44:27Z</time>
      </trkpt>
      <trkpt lat="43.2284420" lon="-8.4239550">
        <ele>413.3</ele>
        <time>2021-08-29T07:44:35Z</time>
      </trkpt>
      <trkpt lat="43.2284250" lon="-8.4239140">
        <ele>413.6</ele>
        <time>2021-08-29T07:44:37Z</time>
      </trkpt>
      <trkpt lat="43.2283870" lon="-8.4238060">
        <ele>414.4</ele>
        <time>2021-08-29T07:44:42Z</time>
      </trkpt>
      <trkpt lat="43.2283860" lon="-8.4236460">
        <ele>415.4</ele>
        <time>2021-08-29T07:44:48Z</time>
      </trkpt>
      <trkpt lat="43.2284040" lon="-8.4235030">
        <ele>416.3</ele>
        <time>2021-08-29T07:44:54Z</time>
      </trkpt>
      <trkpt lat="43.2284200" lon="-8.4234300">
        <ele>416.7</ele>
        <time>2021-08-29T07:44:59Z</time>
      </trkpt>
      <trkpt lat="43.2284200" lon="-8.4234130">
        <ele>416.8</ele>
        <time>2021-08-29T07:45:00Z</time>
      </trkpt>
      <trkpt lat="43.2284280" lon="-8.4233600">
        <ele>417.1</ele>
        <time>2021-08-29T07:45:03Z</time>
      </trkpt>
      <trkpt lat="43.2284360" lon="-8.4233240">
        <ele>417.3</ele>
        <time>2021-08-29T07:45:05Z</time>
      </trkpt>
      <trkpt lat="43.2284680" lon="-8.4232210">
        <ele>417.9</ele>
        <time>2021-08-29T07:45:11Z</time>
      </trkpt>
      <trkpt lat="43.2284690" lon="-8.4231610">
        <ele>418.3</ele>
        <time>2021-08-29T07:45:14Z</time>
      </trkpt>
      <trkpt lat="43.2284690" lon="-8.4231190">
        <ele>418.5</ele>
        <time>2021-08-29T07:45:16Z</time>
      </trkpt>
      <trkpt lat="43.2284630" lon="-8.4230980">
        <ele>418.6</ele>
        <time>2021-08-29T07:45:17Z</time>
      </trkpt>
      <trkpt lat="43.2284680" lon="-8.4230790">
        <ele>418.7</ele>
        <time>2021-08-29T07:45:19Z</time>
      </trkpt>
      <trkpt lat="43.2284850" lon="-8.4230400">
        <ele>419.0</ele>
        <time>2021-08-29T07:45:21Z</time>
      </trkpt>
      <trkpt lat="43.2284920" lon="-8.4230020">
        <ele>419.2</ele>
        <time>2021-08-29T07:45:22Z</time>
      </trkpt>
      <trkpt lat="43.2284920" lon="-8.4229730">
        <ele>419.4</ele>
        <time>2021-08-29T07:45:23Z</time>
      </trkpt>
      <trkpt lat="43.2285010" lon="-8.4229570">
        <ele>419.5</ele>
        <time>2021-08-29T07:45:25Z</time>
      </trkpt>
      <trkpt lat="43.2285220" lon="-8.4228680">
        <ele>420.1</ele>
        <time>2021-08-29T07:45:27Z</time>
      </trkpt>
      <trkpt lat="43.2285350" lon="-8.4227830">
        <ele>420.7</ele>
        <time>2021-08-29T07:45:29Z</time>
      </trkpt>
      <trkpt lat="43.2285840" lon="-8.4226700">
        <ele>421.6</ele>
        <time>2021-08-29T07:45:33Z</time>
      </trkpt>
      <trkpt lat="43.2285950" lon="-8.4225090">
        <ele>422.7</ele>
        <time>2021-08-29T07:45:39Z</time>
      </trkpt>
      <trkpt lat="43.2286110" lon="-8.4223420">
        <ele>423.9</ele>
        <time>2021-08-29T07:45:47Z</time>
      </trkpt>
      <trkpt lat="43.2286150" lon="-8.4223100">
        <ele>424.2</ele>
        <time>2021-08-29T07:45:49Z</time>
      </trkpt>
      <trkpt lat="43.2286290" lon="-8.4222540">
        <ele>424.6</ele>
        <time>2021-08-29T07:45:52Z</time>
      </trkpt>
      <trkpt lat="43.2286430" lon="-8.4221990">
        <ele>425.0</ele>
        <time>2021-08-29T07:45:55Z</time>
      </trkpt>
      <trkpt lat="43.2286360" lon="-8.4221670">
        <ele>425.3</ele>
        <time>2021-08-29T07:45:57Z</time>
      </trkpt>
      <trkpt lat="43.2286270" lon="-8.4221520">
        <ele>425.4</ele>
        <time>2021-08-29T07:45:58Z</time>
      </trkpt>
      <trkpt lat="43.2286390" lon="-8.4221240">
        <ele>425.6</ele>
        <time>2021-08-29T07:46:00Z</time>
      </trkpt>
      <trkpt lat="43.2286520" lon="-8.4221060">
        <ele>425.8</ele>
        <time>2021-08-29T07:46:01Z</time>
      </trkpt>
      <trkpt lat="43.2287390" lon="-8.4218810">
        <ele>427.6</ele>
        <time>2021-08-29T07:46:11Z</time>
      </trkpt>
      <trkpt lat="43.2287790" lon="-8.4217680">
        <ele>428.5</ele>
        <time>2021-08-29T07:46:15Z</time>
      </trkpt>
      <trkpt lat="43.2288010" lon="-8.4217070">
        <ele>429.0</ele>
        <time>2021-08-29T07:46:17Z</time>
      </trkpt>
      <trkpt lat="43.2288150" lon="-8.4216800">
        <ele>429.2</ele>
        <time>2021-08-29T07:46:18Z</time>
      </trkpt>
      <trkpt lat="43.2288280" lon="-8.4216280">
        <ele>429.6</ele>
        <time>2021-08-29T07:46:21Z</time>
      </trkpt>
      <trkpt lat="43.2288020" lon="-8.4215900">
        <ele>430.0</ele>
        <time>2021-08-29T07:46:24Z</time>
      </trkpt>
      <trkpt lat="43.2288300" lon="-8.4214700">
        <ele>431.0</ele>
        <time>2021-08-29T07:46:31Z</time>
      </trkpt>
      <trkpt lat="43.2288760" lon="-8.4212930">
        <ele>432.5</ele>
        <time>2021-08-29T07:46:40Z</time>
      </trkpt>
      <trkpt lat="43.2289260" lon="-8.4211580">
        <ele>433.8</ele>
        <time>2021-08-29T07:46:47Z</time>
      </trkpt>
      <trkpt lat="43.2289800" lon="-8.4210040">
        <ele>435.4</ele>
        <time>2021-08-29T07:46:56Z</time>
      </trkpt>
      <trkpt lat="43.2290170" lon="-8.4208610">
        <ele>436.8</ele>
        <time>2021-08-29T07:47:05Z</time>
      </trkpt>
      <trkpt lat="43.2290230" lon="-8.4207250">
        <ele>438.1</ele>
        <time>2021-08-29T07:47:13Z</time>
      </trkpt>
      <trkpt lat="43.2290280" lon="-8.4206720">
        <ele>438.6</ele>
        <time>2021-08-29T07:47:16Z</time>
      </trkpt>
      <trkpt lat="43.2290440" lon="-8.4206090">
        <ele>439.1</ele>
        <time>2021-08-29T07:47:20Z</time>
      </trkpt>
      <trkpt lat="43.2290740" lon="-8.4204230">
        <ele>440.8</ele>
        <time>2021-08-29T07:47:30Z</time>
      </trkpt>
      <trkpt lat="43.2290600" lon="-8.4202830">
        <ele>442.1</ele>
        <time>2021-08-29T07:47:37Z</time>
      </trkpt>
      <trkpt lat="43.2290510" lon="-8.4201100">
        <ele>443.8</ele>
        <time>2021-08-29T07:47:46Z</time>
      </trkpt>
      <trkpt lat="43.2290360" lon="-8.4200080">
        <ele>444.8</ele>
        <time>2021-08-29T07:47:52Z</time>
      </trkpt>
      <trkpt lat="43.2290400" lon="-8.4199030">
        <ele>445.9</ele>
        <time>2021-08-29T07:47:58Z</time>
      </trkpt>
      <trkpt lat="43.2290460" lon="-8.4198820">
        <ele>446.1</ele>
        <time>2021-08-29T07:47:59Z</time>
      </trkpt>
      <trkpt lat="43.2290470" lon="-8.4198620">
        <ele>446.3</ele>
        <time>2021-08-29T07:48:00Z</time>
      </trkpt>
      <trkpt lat="43.2290380" lon="-8.4198320">
        <ele>446.6</ele>
        <time>2021-08-29T07:48:02Z</time>
      </trkpt>
      <trkpt lat="43.2290350" lon="-8.4197880">
        <ele>447.0</ele>
        <time>2021-08-29T07:48:04Z</time>
      </trkpt>
      <trkpt lat="43.2290020" lon="-8.4196820">
        <ele>448.1</ele>
        <time>2021-08-29T07:48:09Z</time>
      </trkpt>
      <trkpt lat="43.2289800" lon="-8.4196570">
        <ele>448.4</ele>
        <time>2021-08-29T07:48:11Z</time>
      </trkpt>
      <trkpt lat="43.2289740" lon="-8.4196320">
        <ele>448.6</ele>
        <time>2021-08-29T07:48:13Z</time>
      </trkpt>
      <trkpt lat="43.2289780" lon="-8.4195870">
        <ele>449.0</ele>
        <time>2021-08-29T07:48:17Z</time>
      </trkpt>
      <trkpt lat="43.2289780" lon="-8.4195870">
        <ele>449.0</ele>
        <time>2021-08-29T07:48:18Z</time>
      </trkpt>
      <trkpt lat="43.2289690" lon="-8.4195160">
        <ele>449.5</ele>
        <time>2021-08-29T07:48:23Z</time>
      </trkpt>
      <trkpt lat="43.2289790" lon="-8.4194330">
        <ele>450.1</ele>
        <time>2021-08-29T07:48:27Z</time>
      </trkpt>
      <trkpt lat="43.2289840" lon="-8.4193430">
        <ele>450.7</ele>
        <time>2021-08-29T07:48:30Z</time>
      </trkpt>
      <trkpt lat="43.2289760" lon="-8.4192680">
        <ele>451.1</ele>
        <time>2021-08-29T07:48:32Z</time>
      </trkpt>
      <trkpt lat="43.2289520" lon="-8.4192310">
        <ele>451.4</ele>
        <time>2021-08-29T07:48:33Z</time>
      </trkpt>
      <trkpt lat="43.2289200" lon="-8.4190450">
        <ele>452.4</ele>
        <time>2021-08-29T07:48:40Z</time>
      </trkpt>
      <trkpt lat="43.2289230" lon="-8.4189850">
        <ele>452.8</ele>
        <time>2021-08-29T07:48:43Z</time>
      </trkpt>
      <trkpt lat="43.2289230" lon="-8.4189610">
        <ele>452.9</ele>
        <time>2021-08-29T07:48:44Z</time>
      </trkpt>
      <trkpt lat="43.2289200" lon="-8.4187990">
        <ele>453.8</ele>
        <time>2021-08-29T07:48:51Z</time>
      </trkpt>
      <trkpt lat="43.2289360" lon="-8.4187360">
        <ele>454.2</ele>
        <time>2021-08-29T07:48:53Z</time>
      </trkpt>
      <trkpt lat="43.2289220" lon="-8.4186360">
        <ele>454.8</ele>
        <time>2021-08-29T07:48:57Z</time>
      </trkpt>
      <trkpt lat="43.2288920" lon="-8.4184480">
        <ele>455.8</ele>
        <time>2021-08-29T07:49:05Z</time>
      </trkpt>
      <trkpt lat="43.2288160" lon="-8.4182620">
        <ele>457.0</ele>
        <time>2021-08-29T07:49:13Z</time>
      </trkpt>
      <trkpt lat="43.2287910" lon="-8.4182170">
        <ele>457.2</ele>
        <time>2021-08-29T07:49:15Z</time>
      </trkpt>
      <trkpt lat="43.2288120" lon="-8.4181410">
        <ele>457.7</ele>
        <time>2021-08-29T07:49:18Z</time>
      </trkpt>
      <trkpt lat="43.2288400" lon="-8.4181070">
        <ele>457.9</ele>
        <time>2021-08-29T07:49:19Z</time>
      </trkpt>
      <trkpt lat="43.2289290" lon="-8.4178770">
        <ele>459.1</ele>
        <time>2021-08-29T07:49:27Z</time>
      </trkpt>
      <trkpt lat="43.2289350" lon="-8.4178560">
        <ele>459.2</ele>
        <time>2021-08-29T07:49:28Z</time>
      </trkpt>
      <trkpt lat="43.2289890" lon="-8.4177090">
        <ele>459.9</ele>
        <time>2021-08-29T07:49:33Z</time>
      </trkpt>
      <trkpt lat="43.2290480" lon="-8.4174750">
        <ele>461.1</ele>
        <time>2021-08-29T07:49:43Z</time>
      </trkpt>
      <trkpt lat="43.2290800" lon="-8.4172760">
        <ele>462.2</ele>
        <time>2021-08-29T07:49:51Z</time>
      </trkpt>
      <trkpt lat="43.2291090" lon="-8.4170550">
        <ele>463.4</ele>
        <time>2021-08-29T07:50:00Z</time>
      </trkpt>
      <trkpt lat="43.2291610" lon="-8.4168710">
        <ele>464.4</ele>
        <time>2021-08-29T07:50:08Z</time>
      </trkpt>
      <trkpt lat="43.2292430" lon="-8.4166350">
        <ele>465.6</ele>
        <time>2021-08-29T07:50:18Z</time>
      </trkpt>
      <trkpt lat="43.2293100" lon="-8.4164280">
        <ele>466.7</ele>
        <time>2021-08-29T07:50:26Z</time>
      </trkpt>
      <trkpt lat="43.2293700" lon="-8.4162440">
        <ele>467.7</ele>
        <time>2021-08-29T07:50:34Z</time>
      </trkpt>
      <trkpt lat="43.2294350" lon="-8.4160370">
        <ele>468.8</ele>
        <time>2021-08-29T07:50:42Z</time>
      </trkpt>
      <trkpt lat="43.2294900" lon="-8.4158790">
        <ele>469.7</ele>
        <time>2021-08-29T07:50:49Z</time>
      </trkpt>
      <trkpt lat="43.2295230" lon="-8.4156530">
        <ele>471.0</ele>
        <time>2021-08-29T07:50:58Z</time>
      </trkpt>
      <trkpt lat="43.2295270" lon="-8.4155310">
        <ele>471.6</ele>
        <time>2021-08-29T07:51:03Z</time>
      </trkpt>
      <trkpt lat="43.2295290" lon="-8.4154830">
        <ele>471.9</ele>
        <time>2021-08-29T07:51:05Z</time>
      </trkpt>
      <trkpt lat="43.2295260" lon="-8.4153850">
        <ele>472.5</ele>
        <time>2021-08-29T07:51:09Z</time>
      </trkpt>
      <trkpt lat="43.2295090" lon="-8.4151160">
        <ele>474.2</ele>
        <time>2021-08-29T07:51:19Z</time>
      </trkpt>
      <trkpt lat="43.2294760" lon="-8.4149010">
        <ele>475.6</ele>
        <time>2021-08-29T07:51:28Z</time>
      </trkpt>
      <trkpt lat="43.2294600" lon="-8.4146920">
        <ele>477.0</ele>
        <time>2021-08-29T07:51:36Z</time>
      </trkpt>
      <trkpt lat="43.2294180" lon="-8.4144790">
        <ele>478.4</ele>
        <time>2021-08-29T07:51:44Z</time>
      </trkpt>
      <trkpt lat="43.2293640" lon="-8.4142850">
        <ele>479.6</ele>
        <time>2021-08-29T07:51:53Z</time>
      </trkpt>
      <trkpt lat="43.2293190" lon="-8.4141540">
        <ele>480.3</ele>
        <time>2021-08-29T07:51:59Z</time>
      </trkpt>
      <trkpt lat="43.2292960" lon="-8.4139420">
        <ele>481.4</ele>
        <time>2021-08-29T07:52:07Z</time>
      </trkpt>
      <trkpt lat="43.2292700" lon="-8.4137470">
        <ele>482.4</ele>
        <time>2021-08-29T07:52:16Z</time>
      </trkpt>
      <trkpt lat="43.2292510" lon="-8.4135790">
        <ele>483.4</ele>
        <time>2021-08-29T07:52:23Z</time>
      </trkpt>
      <trkpt lat="43.2291870" lon="-8.4133420">
        <ele>485.1</ele>
        <time>2021-08-29T07:52:33Z</time>
      </trkpt>
      <trkpt lat="43.2291070" lon="-8.4130690">
        <ele>487.1</ele>
        <time>2021-08-29T07:52:45Z</time>
      </trkpt>
      <trkpt lat="43.2290810" lon="-8.4128710">
        <ele>488.5</ele>
        <time>2021-08-29T07:52:53Z</time>
      </trkpt>
      <trkpt lat="43.2290310" lon="-8.4126480">
        <ele>490.0</ele>
        <time>2021-08-29T07:53:02Z</time>
      </trkpt>
      <trkpt lat="43.2290070" lon="-8.4125340">
        <ele>490.8</ele>
        <time>2021-08-29T07:53:07Z</time>
      </trkpt>
      <trkpt lat="43.2289500" lon="-8.4123310">
        <ele>491.9</ele>
        <time>2021-08-29T07:53:15Z</time>
      </trkpt>
      <trkpt lat="43.2289120" lon="-8.4121940">
        <ele>492.6</ele>
        <time>2021-08-29T07:53:21Z</time>
      </trkpt>
      <trkpt lat="43.2288720" lon="-8.4119810">
        <ele>493.3</ele>
        <time>2021-08-29T07:53:29Z</time>
      </trkpt>
      <trkpt lat="43.2288500" lon="-8.4117950">
        <ele>493.8</ele>
        <time>2021-08-29T07:53:35Z</time>
      </trkpt>
      <trkpt lat="43.2288340" lon="-8.4116090">
        <ele>494.2</ele>
        <time>2021-08-29T07:53:41Z</time>
      </trkpt>
      <trkpt lat="43.2288210" lon="-8.4113940">
        <ele>494.6</ele>
        <time>2021-08-29T07:53:48Z</time>
      </trkpt>
      <trkpt lat="43.2288230" lon="-8.4110460">
        <ele>495.6</ele>
        <time>2021-08-29T07:53:59Z</time>
      </trkpt>
      <trkpt lat="43.2288170" lon="-8.4108000">
        <ele>496.4</ele>
        <time>2021-08-29T07:54:07Z</time>
      </trkpt>
      <trkpt lat="43.2288140" lon="-8.4106480">
        <ele>496.8</ele>
        <time>2021-08-29T07:54:12Z</time>
      </trkpt>
      <trkpt lat="43.2288300" lon="-8.4103640">
        <ele>497.6</ele>
        <time>2021-08-29T07:54:20Z</time>
      </trkpt>
      <trkpt lat="43.2288440" lon="-8.4101100">
        <ele>498.0</ele>
        <time>2021-08-29T07:54:27Z</time>
      </trkpt>
      <trkpt lat="43.2288730" lon="-8.4100520">
        <ele>498.1</ele>
        <time>2021-08-29T07:54:29Z</time>
      </trkpt>
      <trkpt lat="43.2289100" lon="-8.4100330">
        <ele>498.1</ele>
        <time>2021-08-29T07:54:31Z</time>
      </trkpt>
      <trkpt lat="43.2290770" lon="-8.4100040">
        <ele>497.7</ele>
        <time>2021-08-29T07:54:38Z</time>
      </trkpt>
      <trkpt lat="43.2293080" lon="-8.4100690">
        <ele>496.9</ele>
        <time>2021-08-29T07:54:46Z</time>
      </trkpt>
      <trkpt lat="43.2294280" lon="-8.4102040">
        <ele>496.4</ele>
        <time>2021-08-29T07:54:50Z</time>
      </trkpt>
      <trkpt lat="43.2294670" lon="-8.4102290">
        <ele>496.3</ele>
        <time>2021-08-29T07:54:51Z</time>
      </trkpt>
      <trkpt lat="43.2295080" lon="-8.4102440">
        <ele>496.1</ele>
        <time>2021-08-29T07:54:52Z</time>
      </trkpt>
      <trkpt lat="43.2296230" lon="-8.4102240">
        <ele>495.7</ele>
        <time>2021-08-29T07:54:55Z</time>
      </trkpt>
      <trkpt lat="43.2297230" lon="-8.4102200">
        <ele>495.4</ele>
        <time>2021-08-29T07:54:58Z</time>
      </trkpt>
      <trkpt lat="43.2297960" lon="-8.4102350">
        <ele>495.3</ele>
        <time>2021-08-29T07:55:00Z</time>
      </trkpt>
      <trkpt lat="43.2299340" lon="-8.4103000">
        <ele>495.4</ele>
        <time>2021-08-29T07:55:04Z</time>
      </trkpt>
      <trkpt lat="43.2300230" lon="-8.4103320">
        <ele>495.6</ele>
        <time>2021-08-29T07:55:07Z</time>
      </trkpt>
      <trkpt lat="43.2301300" lon="-8.4103810">
        <ele>496.0</ele>
        <time>2021-08-29T07:55:11Z</time>
      </trkpt>
      <trkpt lat="43.2302670" lon="-8.4104260">
        <ele>497.0</ele>
        <time>2021-08-29T07:55:16Z</time>
      </trkpt>
      <trkpt lat="43.2303560" lon="-8.4104500">
        <ele>497.8</ele>
        <time>2021-08-29T07:55:20Z</time>
      </trkpt>
      <trkpt lat="43.2304070" lon="-8.4104510">
        <ele>498.2</ele>
        <time>2021-08-29T07:55:23Z</time>
      </trkpt>
      <trkpt lat="43.2304860" lon="-8.4104800">
        <ele>498.7</ele>
        <time>2021-08-29T07:55:27Z</time>
      </trkpt>
      <trkpt lat="43.2305080" lon="-8.4104860">
        <ele>498.8</ele>
        <time>2021-08-29T07:55:28Z</time>
      </trkpt>
      <trkpt lat="43.2306380" lon="-8.4105180">
        <ele>499.6</ele>
        <time>2021-08-29T07:55:35Z</time>
      </trkpt>
      <trkpt lat="43.2307590" lon="-8.4105440">
        <ele>500.2</ele>
        <time>2021-08-29T07:55:42Z</time>
      </trkpt>
      <trkpt lat="43.2309020" lon="-8.4106440">
        <ele>501.1</ele>
        <time>2021-08-29T07:55:50Z</time>
      </trkpt>
      <trkpt lat="43.2309220" lon="-8.4106630">
        <ele>501.2</ele>
        <time>2021-08-29T07:55:51Z</time>
      </trkpt>
      <trkpt lat="43.2309610" lon="-8.4106940">
        <ele>501.4</ele>
        <time>2021-08-29T07:55:53Z</time>
      </trkpt>
      <trkpt lat="43.2310240" lon="-8.4107460">
        <ele>501.8</ele>
        <time>2021-08-29T07:55:56Z</time>
      </trkpt>
      <trkpt lat="43.2310370" lon="-8.4107710">
        <ele>501.9</ele>
        <time>2021-08-29T07:55:58Z</time>
      </trkpt>
      <trkpt lat="43.2310690" lon="-8.4108290">
        <ele>502.2</ele>
        <time>2021-08-29T07:56:04Z</time>
      </trkpt>
      <trkpt lat="43.2310740" lon="-8.4108440">
        <ele>502.3</ele>
        <time>2021-08-29T07:56:11Z</time>
      </trkpt>
      <trkpt lat="43.2310730" lon="-8.4108610">
        <ele>502.3</ele>
        <time>2021-08-29T07:56:12Z</time>
      </trkpt>
      <trkpt lat="43.2310710" lon="-8.4108660">
        <ele>502.4</ele>
        <time>2021-08-29T07:56:13Z</time>
      </trkpt>
      <trkpt lat="43.2310710" lon="-8.4108660">
        <ele>502.4</ele>
        <time>2021-08-29T07:56:18Z</time>
      </trkpt>
      <trkpt lat="43.2310710" lon="-8.4108660">
        <ele>502.4</ele>
        <time>2021-08-29T07:56:20Z</time>
      </trkpt>
      <trkpt lat="43.2310740" lon="-8.4108670">
        <ele>502.4</ele>
        <time>2021-08-29T07:56:31Z</time>
      </trkpt>
      <trkpt lat="43.2310860" lon="-8.4108770">
        <ele>502.5</ele>
        <time>2021-08-29T07:56:43Z</time>
      </trkpt>
      <trkpt lat="43.2311070" lon="-8.4108960">
        <ele>502.6</ele>
        <time>2021-08-29T07:56:51Z</time>
      </trkpt>
      <trkpt lat="43.2311520" lon="-8.4109050">
        <ele>502.9</ele>
        <time>2021-08-29T07:57:09Z</time>
      </trkpt>
      <trkpt lat="43.2311570" lon="-8.4109200">
        <ele>503.0</ele>
        <time>2021-08-29T07:57:14Z</time>
      </trkpt>
      <trkpt lat="43.2311570" lon="-8.4109200">
        <ele>503.0</ele>
        <time>2021-08-29T07:57:19Z</time>
      </trkpt>
      <trkpt lat="43.2311560" lon="-8.4109370">
        <ele>503.0</ele>
        <time>2021-08-29T07:57:28Z</time>
      </trkpt>
      <trkpt lat="43.2311560" lon="-8.4109380">
        <ele>503.1</ele>
        <time>2021-08-29T07:57:31Z</time>
      </trkpt>
      <trkpt lat="43.2311580" lon="-8.4109510">
        <ele>503.1</ele>
        <time>2021-08-29T07:58:10Z</time>
      </trkpt>
      <trkpt lat="43.2311590" lon="-8.4109440">
        <ele>503.1</ele>
        <time>2021-08-29T07:58:36Z</time>
      </trkpt>
      <trkpt lat="43.2311680" lon="-8.4109350">
        <ele>503.2</ele>
        <time>2021-08-29T07:58:43Z</time>
      </trkpt>
      <trkpt lat="43.2311760" lon="-8.4109350">
        <ele>503.3</ele>
        <time>2021-08-29T07:58:48Z</time>
      </trkpt>
      <trkpt lat="43.2311790" lon="-8.4109350">
        <ele>503.3</ele>
        <time>2021-08-29T07:58:50Z</time>
      </trkpt>
      <trkpt lat="43.2311800" lon="-8.4109350">
        <ele>503.3</ele>
        <time>2021-08-29T07:58:52Z</time>
      </trkpt>
      <trkpt lat="43.2311800" lon="-8.4109350">
        <ele>503.3</ele>
        <time>2021-08-29T07:58:54Z</time>
      </trkpt>
      <trkpt lat="43.2311800" lon="-8.4109350">
        <ele>503.3</ele>
        <time>2021-08-29T07:58:55Z</time>
      </trkpt>
      <trkpt lat="43.2311800" lon="-8.4109350">
        <ele>503.3</ele>
        <time>2021-08-29T07:58:58Z</time>
      </trkpt>
      <trkpt lat="43.2311880" lon="-8.4109160">
        <ele>503.4</ele>
        <time>2021-08-29T07:59:01Z</time>
      </trkpt>
      <trkpt lat="43.2311920" lon="-8.4108960">
        <ele>503.5</ele>
        <time>2021-08-29T07:59:10Z</time>
      </trkpt>
      <trkpt lat="43.2311840" lon="-8.4109040">
        <ele>503.6</ele>
        <time>2021-08-29T07:59:13Z</time>
      </trkpt>
      <trkpt lat="43.2311710" lon="-8.4109220">
        <ele>503.7</ele>
        <time>2021-08-29T07:59:15Z</time>
      </trkpt>
      <trkpt lat="43.2311560" lon="-8.4109300">
        <ele>503.8</ele>
        <time>2021-08-29T07:59:17Z</time>
      </trkpt>
      <trkpt lat="43.2311480" lon="-8.4109290">
        <ele>503.9</ele>
        <time>2021-08-29T07:59:18Z</time>
      </trkpt>
      <trkpt lat="43.2311230" lon="-8.4109100">
        <ele>504.1</ele>
        <time>2021-08-29T07:59:21Z</time>
      </trkpt>
      <trkpt lat="43.2311120" lon="-8.4109040">
        <ele>504.2</ele>
        <time>2021-08-29T07:59:24Z</time>
      </trkpt>
      <trkpt lat="43.2310940" lon="-8.4108870">
        <ele>504.4</ele>
        <time>2021-08-29T07:59:27Z</time>
      </trkpt>
      <trkpt lat="43.2310880" lon="-8.4108530">
        <ele>504.6</ele>
        <time>2021-08-29T07:59:30Z</time>
      </trkpt>
      <trkpt lat="43.2310810" lon="-8.4108360">
        <ele>504.7</ele>
        <time>2021-08-29T07:59:33Z</time>
      </trkpt>
      <trkpt lat="43.2310820" lon="-8.4108320">
        <ele>504.7</ele>
        <time>2021-08-29T07:59:37Z</time>
      </trkpt>
      <trkpt lat="43.2310720" lon="-8.4108160">
        <ele>504.9</ele>
        <time>2021-08-29T07:59:40Z</time>
      </trkpt>
      <trkpt lat="43.2310680" lon="-8.4107990">
        <ele>505.0</ele>
        <time>2021-08-29T07:59:41Z</time>
      </trkpt>
      <trkpt lat="43.2310290" lon="-8.4107020">
        <ele>505.6</ele>
        <time>2021-08-29T07:59:46Z</time>
      </trkpt>
      <trkpt lat="43.2310480" lon="-8.4106200">
        <ele>506.1</ele>
        <time>2021-08-29T07:59:50Z</time>
      </trkpt>
      <trkpt lat="43.2310790" lon="-8.4105980">
        <ele>506.4</ele>
        <time>2021-08-29T07:59:52Z</time>
      </trkpt>
      <trkpt lat="43.2311730" lon="-8.4105890">
        <ele>507.0</ele>
        <time>2021-08-29T07:59:59Z</time>
      </trkpt>
      <trkpt lat="43.2312010" lon="-8.4105840">
        <ele>507.1</ele>
        <time>2021-08-29T08:00:01Z</time>
      </trkpt>
      <trkpt lat="43.2312200" lon="-8.4105600">
        <ele>507.3</ele>
        <time>2021-08-29T08:00:04Z</time>
      </trkpt>
      <trkpt lat="43.2312080" lon="-8.4105270">
        <ele>507.4</ele>
        <time>2021-08-29T08:00:07Z</time>
      </trkpt>
      <trkpt lat="43.2311930" lon="-8.4104700">
        <ele>507.6</ele>
        <time>2021-08-29T08:00:10Z</time>
      </trkpt>
      <trkpt lat="43.2311670" lon="-8.4103250">
        <ele>508.1</ele>
        <time>2021-08-29T08:00:15Z</time>
      </trkpt>
      <trkpt lat="43.2312090" lon="-8.4102830">
        <ele>508.3</ele>
        <time>2021-08-29T08:00:18Z</time>
      </trkpt>
      <trkpt lat="43.2312490" lon="-8.4102800">
        <ele>508.4</ele>
        <time>2021-08-29T08:00:20Z</time>
      </trkpt>
      <trkpt lat="43.2312920" lon="-8.4102790">
        <ele>508.6</ele>
        <time>2021-08-29T08:00:23Z</time>
      </trkpt>
      <trkpt lat="43.2313180" lon="-8.4102480">
        <ele>508.7</ele>
        <time>2021-08-29T08:00:25Z</time>
      </trkpt>
      <trkpt lat="43.2313740" lon="-8.4100490">
        <ele>509.0</ele>
        <time>2021-08-29T08:00:32Z</time>
      </trkpt>
      <trkpt lat="43.2314540" lon="-8.4099730">
        <ele>509.3</ele>
        <time>2021-08-29T08:00:36Z</time>
      </trkpt>
      <trkpt lat="43.2314890" lon="-8.4099160">
        <ele>509.4</ele>
        <time>2021-08-29T08:00:38Z</time>
      </trkpt>
      <trkpt lat="43.2315100" lon="-8.4098590">
        <ele>509.5</ele>
        <time>2021-08-29T08:00:40Z</time>
      </trkpt>
      <trkpt lat="43.2315290" lon="-8.4098030">
        <ele>509.7</ele>
        <time>2021-08-29T08:00:42Z</time>
      </trkpt>
      <trkpt lat="43.2315520" lon="-8.4097440">
        <ele>509.9</ele>
        <time>2021-08-29T08:00:44Z</time>
      </trkpt>
      <trkpt lat="43.2316700" lon="-8.4095420">
        <ele>510.2</ele>
        <time>2021-08-29T08:00:52Z</time>
      </trkpt>
      <trkpt lat="43.2318340" lon="-8.4092600">
        <ele>510.0</ele>
        <time>2021-08-29T08:01:02Z</time>
      </trkpt>
      <trkpt lat="43.2319930" lon="-8.4091450">
        <ele>509.6</ele>
        <time>2021-08-29T08:01:08Z</time>
      </trkpt>
      <trkpt lat="43.2320680" lon="-8.4090580">
        <ele>509.3</ele>
        <time>2021-08-29T08:01:10Z</time>
      </trkpt>
      <trkpt lat="43.2321100" lon="-8.4090080">
        <ele>509.3</ele>
        <time>2021-08-29T08:01:11Z</time>
      </trkpt>
      <trkpt lat="43.2322910" lon="-8.4088620">
        <ele>509.8</ele>
        <time>2021-08-29T08:01:16Z</time>
      </trkpt>
      <trkpt lat="43.2324290" lon="-8.4087680">
        <ele>510.3</ele>
        <time>2021-08-29T08:01:22Z</time>
      </trkpt>
      <trkpt lat="43.2325120" lon="-8.4086450">
        <ele>510.3</ele>
        <time>2021-08-29T08:01:27Z</time>
      </trkpt>
      <trkpt lat="43.2325240" lon="-8.4086320">
        <ele>510.2</ele>
        <time>2021-08-29T08:01:28Z</time>
      </trkpt>
      <trkpt lat="43.2325300" lon="-8.4086670">
        <ele>510.2</ele>
        <time>2021-08-29T08:01:31Z</time>
      </trkpt>
      <trkpt lat="43.2325220" lon="-8.4087490">
        <ele>510.0</ele>
        <time>2021-08-29T08:01:35Z</time>
      </trkpt>
      <trkpt lat="43.2325240" lon="-8.4087550">
        <ele>510.0</ele>
        <time>2021-08-29T08:01:36Z</time>
      </trkpt>
      <trkpt lat="43.2325240" lon="-8.4087550">
        <ele>510.0</ele>
        <time>2021-08-29T08:01:41Z</time>
      </trkpt>
      <trkpt lat="43.2325240" lon="-8.4087540">
        <ele>510.0</ele>
        <time>2021-08-29T08:02:00Z</time>
      </trkpt>
      <trkpt lat="43.2325220" lon="-8.4087400">
        <ele>509.9</ele>
        <time>2021-08-29T08:02:02Z</time>
      </trkpt>
      <trkpt lat="43.2325010" lon="-8.4086940">
        <ele>509.7</ele>
        <time>2021-08-29T08:02:06Z</time>
      </trkpt>
      <trkpt lat="43.2324940" lon="-8.4086760">
        <ele>509.7</ele>
        <time>2021-08-29T08:02:07Z</time>
      </trkpt>
      <trkpt lat="43.2324910" lon="-8.4086570">
        <ele>509.6</ele>
        <time>2021-08-29T08:02:08Z</time>
      </trkpt>
      <trkpt lat="43.2324950" lon="-8.4086390">
        <ele>509.5</ele>
        <time>2021-08-29T08:02:09Z</time>
      </trkpt>
      <trkpt lat="43.2325620" lon="-8.4085660">
        <ele>509.1</ele>
        <time>2021-08-29T08:02:13Z</time>
      </trkpt>
      <trkpt lat="43.2326780" lon="-8.4082860">
        <ele>507.8</ele>
        <time>2021-08-29T08:02:18Z</time>
      </trkpt>
      <trkpt lat="43.2326810" lon="-8.4082220">
        <ele>507.5</ele>
        <time>2021-08-29T08:02:20Z</time>
      </trkpt>
      <trkpt lat="43.2326540" lon="-8.4080930">
        <ele>507.0</ele>
        <time>2021-08-29T08:02:22Z</time>
      </trkpt>
      <trkpt lat="43.2325940" lon="-8.4080000">
        <ele>506.6</ele>
        <time>2021-08-29T08:02:24Z</time>
      </trkpt>
      <trkpt lat="43.2325110" lon="-8.4079700">
        <ele>506.3</ele>
        <time>2021-08-29T08:02:26Z</time>
      </trkpt>
      <trkpt lat="43.2323390" lon="-8.4079450">
        <ele>505.7</ele>
        <time>2021-08-29T08:02:30Z</time>
      </trkpt>
      <trkpt lat="43.2323000" lon="-8.4079440">
        <ele>505.6</ele>
        <time>2021-08-29T08:02:31Z</time>
      </trkpt>
      <trkpt lat="43.2319840" lon="-8.4079390">
        <ele>504.6</ele>
        <time>2021-08-29T08:02:39Z</time>
      </trkpt>
      <trkpt lat="43.2316840" lon="-8.4079140">
        <ele>503.1</ele>
        <time>2021-08-29T08:02:45Z</time>
      </trkpt>
      <trkpt lat="43.2313720" lon="-8.4078870">
        <ele>501.5</ele>
        <time>2021-08-29T08:02:50Z</time>
      </trkpt>
      <trkpt lat="43.2310940" lon="-8.4078650">
        <ele>500.4</ele>
        <time>2021-08-29T08:02:54Z</time>
      </trkpt>
      <trkpt lat="43.2310160" lon="-8.4078540">
        <ele>500.2</ele>
        <time>2021-08-29T08:02:55Z</time>
      </trkpt>
      <trkpt lat="43.2305450" lon="-8.4077750">
        <ele>499.6</ele>
        <time>2021-08-29T08:03:02Z</time>
      </trkpt>
      <trkpt lat="43.2302350" lon="-8.4077400">
        <ele>499.8</ele>
        <time>2021-08-29T08:03:08Z</time>
      </trkpt>
      <trkpt lat="43.2301460" lon="-8.4077310">
        <ele>499.8</ele>
        <time>2021-08-29T08:03:10Z</time>
      </trkpt>
      <trkpt lat="43.2299990" lon="-8.4077020">
        <ele>499.9</ele>
        <time>2021-08-29T08:03:13Z</time>
      </trkpt>
      <trkpt lat="43.2298640" lon="-8.4076900">
        <ele>500.0</ele>
        <time>2021-08-29T08:03:16Z</time>
      </trkpt>
      <trkpt lat="43.2297380" lon="-8.4076710">
        <ele>500.0</ele>
        <time>2021-08-29T08:03:19Z</time>
      </trkpt>
      <trkpt lat="43.2296940" lon="-8.4076710">
        <ele>500.0</ele>
        <time>2021-08-29T08:03:20Z</time>
      </trkpt>
      <trkpt lat="43.2296120" lon="-8.4077090">
        <ele>499.9</ele>
        <time>2021-08-29T08:03:22Z</time>
      </trkpt>
      <trkpt lat="43.2295440" lon="-8.4078000">
        <ele>500.1</ele>
        <time>2021-08-29T08:03:24Z</time>
      </trkpt>
      <trkpt lat="43.2294230" lon="-8.4081050">
        <ele>500.1</ele>
        <time>2021-08-29T08:03:30Z</time>
      </trkpt>
      <trkpt lat="43.2294120" lon="-8.4081540">
        <ele>500.1</ele>
        <time>2021-08-29T08:03:31Z</time>
      </trkpt>
      <trkpt lat="43.2293460" lon="-8.4084260">
        <ele>499.8</ele>
        <time>2021-08-29T08:03:36Z</time>
      </trkpt>
      <trkpt lat="43.2292400" lon="-8.4087770">
        <ele>499.5</ele>
        <time>2021-08-29T08:03:42Z</time>
      </trkpt>
      <trkpt lat="43.2291850" lon="-8.4089730">
        <ele>499.3</ele>
        <time>2021-08-29T08:03:45Z</time>
      </trkpt>
      <trkpt lat="43.2290380" lon="-8.4094880">
        <ele>498.8</ele>
        <time>2021-08-29T08:03:53Z</time>
      </trkpt>
      <trkpt lat="43.2288950" lon="-8.4099110">
        <ele>498.2</ele>
        <time>2021-08-29T08:04:00Z</time>
      </trkpt>
      <trkpt lat="43.2288320" lon="-8.4101690">
        <ele>497.9</ele>
        <time>2021-08-29T08:04:04Z</time>
      </trkpt>
      <trkpt lat="43.2288190" lon="-8.4102960">
        <ele>497.7</ele>
        <time>2021-08-29T08:04:06Z</time>
      </trkpt>
      <trkpt lat="43.2288130" lon="-8.4103620">
        <ele>497.6</ele>
        <time>2021-08-29T08:04:07Z</time>
      </trkpt>
      <trkpt lat="43.2288130" lon="-8.4108220">
        <ele>496.3</ele>
        <time>2021-08-29T08:04:14Z</time>
      </trkpt>
      <trkpt lat="43.2288160" lon="-8.4112150">
        <ele>495.1</ele>
        <time>2021-08-29T08:04:19Z</time>
      </trkpt>
      <trkpt lat="43.2288410" lon="-8.4119260">
        <ele>493.5</ele>
        <time>2021-08-29T08:04:27Z</time>
      </trkpt>
      <trkpt lat="43.2288600" lon="-8.4120990">
        <ele>493.0</ele>
        <time>2021-08-29T08:04:29Z</time>
      </trkpt>
      <trkpt lat="43.2289320" lon="-8.4123460">
        <ele>491.9</ele>
        <time>2021-08-29T08:04:32Z</time>
      </trkpt>
      <trkpt lat="43.2291090" lon="-8.4129170">
        <ele>488.1</ele>
        <time>2021-08-29T08:04:38Z</time>
      </trkpt>
      <trkpt lat="43.2292280" lon="-8.4134400">
        <ele>484.3</ele>
        <time>2021-08-29T08:04:43Z</time>
      </trkpt>
      <trkpt lat="43.2292490" lon="-8.4135590">
        <ele>483.5</ele>
        <time>2021-08-29T08:04:44Z</time>
      </trkpt>
      <trkpt lat="43.2293380" lon="-8.4141200">
        <ele>480.5</ele>
        <time>2021-08-29T08:04:49Z</time>
      </trkpt>
      <trkpt lat="43.2294210" lon="-8.4144950">
        <ele>478.3</ele>
        <time>2021-08-29T08:04:53Z</time>
      </trkpt>
      <trkpt lat="43.2294490" lon="-8.4145880">
        <ele>477.7</ele>
        <time>2021-08-29T08:04:54Z</time>
      </trkpt>
      <trkpt lat="43.2294730" lon="-8.4146860">
        <ele>477.0</ele>
        <time>2021-08-29T08:04:55Z</time>
      </trkpt>
      <trkpt lat="43.2295180" lon="-8.4150100">
        <ele>474.8</ele>
        <time>2021-08-29T08:04:58Z</time>
      </trkpt>
      <trkpt lat="43.2295460" lon="-8.4153520">
        <ele>472.6</ele>
        <time>2021-08-29T08:05:01Z</time>
      </trkpt>
      <trkpt lat="43.2295380" lon="-8.4157000">
        <ele>470.6</ele>
        <time>2021-08-29T08:05:04Z</time>
      </trkpt>
      <trkpt lat="43.2294950" lon="-8.4159280">
        <ele>469.3</ele>
        <time>2021-08-29T08:05:06Z</time>
      </trkpt>
      <trkpt lat="43.2294270" lon="-8.4161540">
        <ele>468.1</ele>
        <time>2021-08-29T08:05:08Z</time>
      </trkpt>
      <trkpt lat="43.2293550" lon="-8.4163740">
        <ele>466.9</ele>
        <time>2021-08-29T08:05:10Z</time>
      </trkpt>
      <trkpt lat="43.2292710" lon="-8.4165820">
        <ele>465.7</ele>
        <time>2021-08-29T08:05:12Z</time>
      </trkpt>
      <trkpt lat="43.2292370" lon="-8.4166890">
        <ele>465.2</ele>
        <time>2021-08-29T08:05:13Z</time>
      </trkpt>
      <trkpt lat="43.2291370" lon="-8.4170230">
        <ele>463.3</ele>
        <time>2021-08-29T08:05:16Z</time>
      </trkpt>
      <trkpt lat="43.2290650" lon="-8.4173660">
        <ele>461.4</ele>
        <time>2021-08-29T08:05:19Z</time>
      </trkpt>
      <trkpt lat="43.2289670" lon="-8.4178250">
        <ele>459.1</ele>
        <time>2021-08-29T08:05:23Z</time>
      </trkpt>
      <trkpt lat="43.2288820" lon="-8.4181600">
        <ele>457.4</ele>
        <time>2021-08-29T08:05:26Z</time>
      </trkpt>
      <trkpt lat="43.2288660" lon="-8.4182650">
        <ele>456.9</ele>
        <time>2021-08-29T08:05:27Z</time>
      </trkpt>
      <trkpt lat="43.2288660" lon="-8.4184790">
        <ele>455.7</ele>
        <time>2021-08-29T08:05:29Z</time>
      </trkpt>
      <trkpt lat="43.2288790" lon="-8.4185830">
        <ele>455.1</ele>
        <time>2021-08-29T08:05:30Z</time>
      </trkpt>
      <trkpt lat="43.2289080" lon="-8.4192610">
        <ele>451.3</ele>
        <time>2021-08-29T08:05:36Z</time>
      </trkpt>
      <trkpt lat="43.2289260" lon="-8.4194910">
        <ele>449.9</ele>
        <time>2021-08-29T08:05:38Z</time>
      </trkpt>
      <trkpt lat="43.2289410" lon="-8.4195990">
        <ele>449.1</ele>
        <time>2021-08-29T08:05:39Z</time>
      </trkpt>
      <trkpt lat="43.2289880" lon="-8.4198090">
        <ele>447.2</ele>
        <time>2021-08-29T08:05:41Z</time>
      </trkpt>
      <trkpt lat="43.2290300" lon="-8.4201240">
        <ele>444.0</ele>
        <time>2021-08-29T08:05:44Z</time>
      </trkpt>
      <trkpt lat="43.2290410" lon="-8.4203570">
        <ele>441.7</ele>
        <time>2021-08-29T08:05:46Z</time>
      </trkpt>
      <trkpt lat="43.2289890" lon="-8.4208260">
        <ele>437.4</ele>
        <time>2021-08-29T08:05:50Z</time>
      </trkpt>
      <trkpt lat="43.2289600" lon="-8.4209450">
        <ele>436.2</ele>
        <time>2021-08-29T08:05:51Z</time>
      </trkpt>
      <trkpt lat="43.2288630" lon="-8.4213130">
        <ele>432.6</ele>
        <time>2021-08-29T08:05:54Z</time>
      </trkpt>
      <trkpt lat="43.2286400" lon="-8.4220460">
        <ele>426.6</ele>
        <time>2021-08-29T08:06:00Z</time>
      </trkpt>
      <trkpt lat="43.2285790" lon="-8.4222860">
        <ele>424.8</ele>
        <time>2021-08-29T08:06:02Z</time>
      </trkpt>
      <trkpt lat="43.2285290" lon="-8.4225220">
        <ele>423.0</ele>
        <time>2021-08-29T08:06:04Z</time>
      </trkpt>
      <trkpt lat="43.2285030" lon="-8.4226410">
        <ele>422.1</ele>
        <time>2021-08-29T08:06:05Z</time>
      </trkpt>
      <trkpt lat="43.2283850" lon="-8.4231250">
        <ele>418.7</ele>
        <time>2021-08-29T08:06:09Z</time>
      </trkpt>
      <trkpt lat="43.2283390" lon="-8.4233590">
        <ele>417.4</ele>
        <time>2021-08-29T08:06:11Z</time>
      </trkpt>
      <trkpt lat="43.2283270" lon="-8.4234730">
        <ele>416.7</ele>
        <time>2021-08-29T08:06:12Z</time>
      </trkpt>
      <trkpt lat="43.2283180" lon="-8.4236980">
        <ele>415.4</ele>
        <time>2021-08-29T08:06:14Z</time>
      </trkpt>
      <trkpt lat="43.2283540" lon="-8.4239130">
        <ele>413.9</ele>
        <time>2021-08-29T08:06:16Z</time>
      </trkpt>
      <trkpt lat="43.2284580" lon="-8.4240940">
        <ele>412.3</ele>
        <time>2021-08-29T08:06:18Z</time>
      </trkpt>
      <trkpt lat="43.2285260" lon="-8.4241750">
        <ele>411.4</ele>
        <time>2021-08-29T08:06:19Z</time>
      </trkpt>
      <trkpt lat="43.2287160" lon="-8.4243940">
        <ele>408.3</ele>
        <time>2021-08-29T08:06:22Z</time>
      </trkpt>
      <trkpt lat="43.2287670" lon="-8.4244880">
        <ele>407.2</ele>
        <time>2021-08-29T08:06:23Z</time>
      </trkpt>
      <trkpt lat="43.2288590" lon="-8.4247090">
        <ele>404.8</ele>
        <time>2021-08-29T08:06:25Z</time>
      </trkpt>
      <trkpt lat="43.2289200" lon="-8.4249240">
        <ele>402.6</ele>
        <time>2021-08-29T08:06:27Z</time>
      </trkpt>
      <trkpt lat="43.2290090" lon="-8.4254860">
        <ele>397.4</ele>
        <time>2021-08-29T08:06:32Z</time>
      </trkpt>
      <trkpt lat="43.2290330" lon="-8.4258620">
        <ele>393.8</ele>
        <time>2021-08-29T08:06:35Z</time>
      </trkpt>
      <trkpt lat="43.2290760" lon="-8.4261090">
        <ele>391.2</ele>
        <time>2021-08-29T08:06:37Z</time>
      </trkpt>
      <trkpt lat="43.2291720" lon="-8.4267670">
        <ele>384.9</ele>
        <time>2021-08-29T08:06:42Z</time>
      </trkpt>
      <trkpt lat="43.2292400" lon="-8.4273720">
        <ele>380.7</ele>
        <time>2021-08-29T08:06:46Z</time>
      </trkpt>
      <trkpt lat="43.2292910" lon="-8.4280770">
        <ele>376.2</ele>
        <time>2021-08-29T08:06:51Z</time>
      </trkpt>
      <trkpt lat="43.2292810" lon="-8.4283700">
        <ele>374.5</ele>
        <time>2021-08-29T08:06:53Z</time>
      </trkpt>
      <trkpt lat="43.2293090" lon="-8.4288050">
        <ele>372.3</ele>
        <time>2021-08-29T08:06:56Z</time>
      </trkpt>
      <trkpt lat="43.2293820" lon="-8.4291940">
        <ele>369.9</ele>
        <time>2021-08-29T08:06:59Z</time>
      </trkpt>
      <trkpt lat="43.2294200" lon="-8.4293110">
        <ele>369.0</ele>
        <time>2021-08-29T08:07:00Z</time>
      </trkpt>
      <trkpt lat="43.2295070" lon="-8.4295190">
        <ele>367.5</ele>
        <time>2021-08-29T08:07:02Z</time>
      </trkpt>
      <trkpt lat="43.2296240" lon="-8.4296960">
        <ele>366.1</ele>
        <time>2021-08-29T08:07:04Z</time>
      </trkpt>
      <trkpt lat="43.2300750" lon="-8.4301850">
        <ele>361.9</ele>
        <time>2021-08-29T08:07:10Z</time>
      </trkpt>
      <trkpt lat="43.2305000" lon="-8.4306740">
        <ele>356.8</ele>
        <time>2021-08-29T08:07:16Z</time>
      </trkpt>
      <trkpt lat="43.2306650" lon="-8.4308920">
        <ele>354.8</ele>
        <time>2021-08-29T08:07:19Z</time>
      </trkpt>
      <trkpt lat="43.2306980" lon="-8.4309570">
        <ele>354.4</ele>
        <time>2021-08-29T08:07:20Z</time>
      </trkpt>
      <trkpt lat="43.2307230" lon="-8.4310270">
        <ele>354.0</ele>
        <time>2021-08-29T08:07:21Z</time>
      </trkpt>
      <trkpt lat="43.2307280" lon="-8.4311720">
        <ele>353.4</ele>
        <time>2021-08-29T08:07:23Z</time>
      </trkpt>
      <trkpt lat="43.2306780" lon="-8.4313190">
        <ele>352.6</ele>
        <time>2021-08-29T08:07:25Z</time>
      </trkpt>
      <trkpt lat="43.2306120" lon="-8.4314520">
        <ele>351.8</ele>
        <time>2021-08-29T08:07:27Z</time>
      </trkpt>
      <trkpt lat="43.2305830" lon="-8.4315310">
        <ele>351.2</ele>
        <time>2021-08-29T08:07:28Z</time>
      </trkpt>
      <trkpt lat="43.2305720" lon="-8.4316160">
        <ele>350.7</ele>
        <time>2021-08-29T08:07:29Z</time>
      </trkpt>
      <trkpt lat="43.2305800" lon="-8.4316970">
        <ele>350.2</ele>
        <time>2021-08-29T08:07:30Z</time>
      </trkpt>
      <trkpt lat="43.2307020" lon="-8.4319110">
        <ele>348.5</ele>
        <time>2021-08-29T08:07:33Z</time>
      </trkpt>
      <trkpt lat="43.2308370" lon="-8.4321730">
        <ele>346.7</ele>
        <time>2021-08-29T08:07:36Z</time>
      </trkpt>
      <trkpt lat="43.2308890" lon="-8.4322400">
        <ele>346.2</ele>
        <time>2021-08-29T08:07:37Z</time>
      </trkpt>
      <trkpt lat="43.2309520" lon="-8.4322740">
        <ele>345.8</ele>
        <time>2021-08-29T08:07:38Z</time>
      </trkpt>
      <trkpt lat="43.2310260" lon="-8.4322790">
        <ele>345.3</ele>
        <time>2021-08-29T08:07:39Z</time>
      </trkpt>
      <trkpt lat="43.2311690" lon="-8.4322920">
        <ele>344.4</ele>
        <time>2021-08-29T08:07:41Z</time>
      </trkpt>
      <trkpt lat="43.2312810" lon="-8.4323690">
        <ele>343.6</ele>
        <time>2021-08-29T08:07:43Z</time>
      </trkpt>
      <trkpt lat="43.2313480" lon="-8.4325190">
        <ele>342.9</ele>
        <time>2021-08-29T08:07:45Z</time>
      </trkpt>
      <trkpt lat="43.2313620" lon="-8.4326000">
        <ele>342.6</ele>
        <time>2021-08-29T08:07:46Z</time>
      </trkpt>
      <trkpt lat="43.2313850" lon="-8.4326830">
        <ele>342.2</ele>
        <time>2021-08-29T08:07:47Z</time>
      </trkpt>
      <trkpt lat="43.2314690" lon="-8.4327950">
        <ele>341.4</ele>
        <time>2021-08-29T08:07:49Z</time>
      </trkpt>
      <trkpt lat="43.2315880" lon="-8.4328010">
        <ele>340.5</ele>
        <time>2021-08-29T08:07:51Z</time>
      </trkpt>
      <trkpt lat="43.2317090" lon="-8.4327820">
        <ele>339.4</ele>
        <time>2021-08-29T08:07:53Z</time>
      </trkpt>
      <trkpt lat="43.2317640" lon="-8.4327960">
        <ele>338.8</ele>
        <time>2021-08-29T08:07:54Z</time>
      </trkpt>
      <trkpt lat="43.2318130" lon="-8.4328320">
        <ele>338.3</ele>
        <time>2021-08-29T08:07:55Z</time>
      </trkpt>
      <trkpt lat="43.2318670" lon="-8.4329700">
        <ele>337.2</ele>
        <time>2021-08-29T08:07:57Z</time>
      </trkpt>
      <trkpt lat="43.2319020" lon="-8.4331430">
        <ele>335.8</ele>
        <time>2021-08-29T08:07:59Z</time>
      </trkpt>
      <trkpt lat="43.2319810" lon="-8.4332600">
        <ele>334.5</ele>
        <time>2021-08-29T08:08:01Z</time>
      </trkpt>
      <trkpt lat="43.2321110" lon="-8.4332600">
        <ele>333.1</ele>
        <time>2021-08-29T08:08:03Z</time>
      </trkpt>
      <trkpt lat="43.2322520" lon="-8.4332000">
        <ele>331.6</ele>
        <time>2021-08-29T08:08:05Z</time>
      </trkpt>
      <trkpt lat="43.2323970" lon="-8.4332060">
        <ele>330.2</ele>
        <time>2021-08-29T08:08:07Z</time>
      </trkpt>
      <trkpt lat="43.2325350" lon="-8.4332810">
        <ele>328.8</ele>
        <time>2021-08-29T08:08:09Z</time>
      </trkpt>
      <trkpt lat="43.2326470" lon="-8.4333860">
        <ele>327.6</ele>
        <time>2021-08-29T08:08:11Z</time>
      </trkpt>
      <trkpt lat="43.2327050" lon="-8.4334320">
        <ele>327.0</ele>
        <time>2021-08-29T08:08:12Z</time>
      </trkpt>
      <trkpt lat="43.2328290" lon="-8.4334710">
        <ele>325.1</ele>
        <time>2021-08-29T08:08:14Z</time>
      </trkpt>
      <trkpt lat="43.2329530" lon="-8.4334170">
        <ele>323.1</ele>
        <time>2021-08-29T08:08:16Z</time>
      </trkpt>
      <trkpt lat="43.2330190" lon="-8.4333690">
        <ele>321.9</ele>
        <time>2021-08-29T08:08:17Z</time>
      </trkpt>
      <trkpt lat="43.2332390" lon="-8.4332380">
        <ele>318.0</ele>
        <time>2021-08-29T08:08:20Z</time>
      </trkpt>
      <trkpt lat="43.2333080" lon="-8.4332190">
        <ele>316.9</ele>
        <time>2021-08-29T08:08:21Z</time>
      </trkpt>
      <trkpt lat="43.2333780" lon="-8.4332140">
        <ele>315.8</ele>
        <time>2021-08-29T08:08:22Z</time>
      </trkpt>
      <trkpt lat="43.2335960" lon="-8.4332660">
        <ele>312.7</ele>
        <time>2021-08-29T08:08:25Z</time>
      </trkpt>
      <trkpt lat="43.2336550" lon="-8.4333000">
        <ele>312.0</ele>
        <time>2021-08-29T08:08:26Z</time>
      </trkpt>
      <trkpt lat="43.2337560" lon="-8.4334050">
        <ele>311.1</ele>
        <time>2021-08-29T08:08:28Z</time>
      </trkpt>
      <trkpt lat="43.2338980" lon="-8.4336200">
        <ele>309.6</ele>
        <time>2021-08-29T08:08:31Z</time>
      </trkpt>
      <trkpt lat="43.2339990" lon="-8.4337510">
        <ele>308.5</ele>
        <time>2021-08-29T08:08:33Z</time>
      </trkpt>
      <trkpt lat="43.2341270" lon="-8.4337430">
        <ele>307.4</ele>
        <time>2021-08-29T08:08:35Z</time>
      </trkpt>
      <trkpt lat="43.2343120" lon="-8.4336480">
        <ele>305.5</ele>
        <time>2021-08-29T08:08:38Z</time>
      </trkpt>
      <trkpt lat="43.2343840" lon="-8.4336120">
        <ele>304.8</ele>
        <time>2021-08-29T08:08:39Z</time>
      </trkpt>
      <trkpt lat="43.2344650" lon="-8.4335830">
        <ele>303.9</ele>
        <time>2021-08-29T08:08:40Z</time>
      </trkpt>
      <trkpt lat="43.2346260" lon="-8.4335270">
        <ele>302.2</ele>
        <time>2021-08-29T08:08:42Z</time>
      </trkpt>
      <trkpt lat="43.2346990" lon="-8.4334920">
        <ele>301.3</ele>
        <time>2021-08-29T08:08:43Z</time>
      </trkpt>
      <trkpt lat="43.2349080" lon="-8.4334240">
        <ele>299.1</ele>
        <time>2021-08-29T08:08:46Z</time>
      </trkpt>
      <trkpt lat="43.2349800" lon="-8.4334380">
        <ele>298.5</ele>
        <time>2021-08-29T08:08:47Z</time>
      </trkpt>
      <trkpt lat="43.2350500" lon="-8.4334830">
        <ele>297.9</ele>
        <time>2021-08-29T08:08:48Z</time>
      </trkpt>
      <trkpt lat="43.2351660" lon="-8.4335790">
        <ele>296.8</ele>
        <time>2021-08-29T08:08:50Z</time>
      </trkpt>
      <trkpt lat="43.2352900" lon="-8.4335940">
        <ele>295.8</ele>
        <time>2021-08-29T08:08:52Z</time>
      </trkpt>
      <trkpt lat="43.2353530" lon="-8.4335540">
        <ele>295.2</ele>
        <time>2021-08-29T08:08:53Z</time>
      </trkpt>
      <trkpt lat="43.2354130" lon="-8.4335120">
        <ele>294.6</ele>
        <time>2021-08-29T08:08:54Z</time>
      </trkpt>
      <trkpt lat="43.2355430" lon="-8.4334810">
        <ele>293.8</ele>
        <time>2021-08-29T08:08:56Z</time>
      </trkpt>
      <trkpt lat="43.2355960" lon="-8.4335000">
        <ele>293.6</ele>
        <time>2021-08-29T08:08:57Z</time>
      </trkpt>
      <trkpt lat="43.2356400" lon="-8.4335380">
        <ele>293.5</ele>
        <time>2021-08-29T08:08:58Z</time>
      </trkpt>
      <trkpt lat="43.2357080" lon="-8.4336390">
        <ele>293.7</ele>
        <time>2021-08-29T08:09:00Z</time>
      </trkpt>
      <trkpt lat="43.2357430" lon="-8.4336890">
        <ele>293.8</ele>
        <time>2021-08-29T08:09:01Z</time>
      </trkpt>
      <trkpt lat="43.2358550" lon="-8.4337970">
        <ele>294.5</ele>
        <time>2021-08-29T08:09:04Z</time>
      </trkpt>
      <trkpt lat="43.2358950" lon="-8.4338180">
        <ele>294.7</ele>
        <time>2021-08-29T08:09:05Z</time>
      </trkpt>
      <trkpt lat="43.2359370" lon="-8.4338260">
        <ele>294.9</ele>
        <time>2021-08-29T08:09:06Z</time>
      </trkpt>
      <trkpt lat="43.2360150" lon="-8.4338110">
        <ele>295.1</ele>
        <time>2021-08-29T08:09:08Z</time>
      </trkpt>
      <trkpt lat="43.2360570" lon="-8.4337850">
        <ele>295.3</ele>
        <time>2021-08-29T08:09:09Z</time>
      </trkpt>
      <trkpt lat="43.2360920" lon="-8.4337530">
        <ele>295.3</ele>
        <time>2021-08-29T08:09:10Z</time>
      </trkpt>
      <trkpt lat="43.2362130" lon="-8.4336060">
        <ele>295.0</ele>
        <time>2021-08-29T08:09:14Z</time>
      </trkpt>
      <trkpt lat="43.2363200" lon="-8.4335170">
        <ele>294.0</ele>
        <time>2021-08-29T08:09:17Z</time>
      </trkpt>
      <trkpt lat="43.2364220" lon="-8.4334740">
        <ele>292.6</ele>
        <time>2021-08-29T08:09:19Z</time>
      </trkpt>
      <trkpt lat="43.2364850" lon="-8.4334590">
        <ele>291.6</ele>
        <time>2021-08-29T08:09:20Z</time>
      </trkpt>
      <trkpt lat="43.2368170" lon="-8.4333990">
        <ele>287.8</ele>
        <time>2021-08-29T08:09:24Z</time>
      </trkpt>
      <trkpt lat="43.2372730" lon="-8.4332430">
        <ele>284.3</ele>
        <time>2021-08-29T08:09:29Z</time>
      </trkpt>
      <trkpt lat="43.2374930" lon="-8.4330760">
        <ele>281.8</ele>
        <time>2021-08-29T08:09:32Z</time>
      </trkpt>
      <trkpt lat="43.2375760" lon="-8.4330360">
        <ele>281.0</ele>
        <time>2021-08-29T08:09:33Z</time>
      </trkpt>
      <trkpt lat="43.2380320" lon="-8.4329120">
        <ele>278.8</ele>
        <time>2021-08-29T08:09:38Z</time>
      </trkpt>
      <trkpt lat="43.2382990" lon="-8.4328740">
        <ele>277.6</ele>
        <time>2021-08-29T08:09:41Z</time>
      </trkpt>
      <trkpt lat="43.2384700" lon="-8.4328490">
        <ele>276.9</ele>
        <time>2021-08-29T08:09:43Z</time>
      </trkpt>
      <trkpt lat="43.2387210" lon="-8.4327770">
        <ele>275.6</ele>
        <time>2021-08-29T08:09:46Z</time>
      </trkpt>
      <trkpt lat="43.2388670" lon="-8.4327040">
        <ele>274.7</ele>
        <time>2021-08-29T08:09:48Z</time>
      </trkpt>
      <trkpt lat="43.2389370" lon="-8.4326640">
        <ele>274.4</ele>
        <time>2021-08-29T08:09:49Z</time>
      </trkpt>
      <trkpt lat="43.2390730" lon="-8.4325720">
        <ele>273.7</ele>
        <time>2021-08-29T08:09:51Z</time>
      </trkpt>
      <trkpt lat="43.2392040" lon="-8.4324900">
        <ele>272.9</ele>
        <time>2021-08-29T08:09:53Z</time>
      </trkpt>
      <trkpt lat="43.2392530" lon="-8.4324540">
        <ele>272.4</ele>
        <time>2021-08-29T08:09:54Z</time>
      </trkpt>
      <trkpt lat="43.2393350" lon="-8.4323750">
        <ele>271.3</ele>
        <time>2021-08-29T08:09:56Z</time>
      </trkpt>
      <trkpt lat="43.2395600" lon="-8.4321480">
        <ele>267.1</ele>
        <time>2021-08-29T08:10:00Z</time>
      </trkpt>
      <trkpt lat="43.2396320" lon="-8.4320660">
        <ele>265.5</ele>
        <time>2021-08-29T08:10:01Z</time>
      </trkpt>
      <trkpt lat="43.2399880" lon="-8.4315900">
        <ele>257.7</ele>
        <time>2021-08-29T08:10:07Z</time>
      </trkpt>
      <trkpt lat="43.2402900" lon="-8.4311350">
        <ele>250.0</ele>
        <time>2021-08-29T08:10:14Z</time>
      </trkpt>
      <trkpt lat="43.2405680" lon="-8.4307670">
        <ele>242.3</ele>
        <time>2021-08-29T08:10:20Z</time>
      </trkpt>
      <trkpt lat="43.2406730" lon="-8.4306510">
        <ele>239.5</ele>
        <time>2021-08-29T08:10:25Z</time>
      </trkpt>
      <trkpt lat="43.2407030" lon="-8.4306070">
        <ele>238.6</ele>
        <time>2021-08-29T08:10:26Z</time>
      </trkpt>
      <trkpt lat="43.2408150" lon="-8.4304760">
        <ele>235.6</ele>
        <time>2021-08-29T08:10:29Z</time>
      </trkpt>
      <trkpt lat="43.2409030" lon="-8.4303690">
        <ele>233.2</ele>
        <time>2021-08-29T08:10:31Z</time>
      </trkpt>
      <trkpt lat="43.2412020" lon="-8.4299970">
        <ele>225.0</ele>
        <time>2021-08-29T08:10:38Z</time>
      </trkpt>
      <trkpt lat="43.2412720" lon="-8.4298860">
        <ele>222.8</ele>
        <time>2021-08-29T08:10:40Z</time>
      </trkpt>
      <trkpt lat="43.2413140" lon="-8.4297260">
        <ele>220.4</ele>
        <time>2021-08-29T08:10:42Z</time>
      </trkpt>
      <trkpt lat="43.2414770" lon="-8.4292510">
        <ele>213.2</ele>
        <time>2021-08-29T08:10:48Z</time>
      </trkpt>
      <trkpt lat="43.2415110" lon="-8.4291640">
        <ele>212.0</ele>
        <time>2021-08-29T08:10:49Z</time>
      </trkpt>
      <trkpt lat="43.2417290" lon="-8.4287480">
        <ele>205.8</ele>
        <time>2021-08-29T08:10:54Z</time>
      </trkpt>
      <trkpt lat="43.2420510" lon="-8.4281590">
        <ele>197.7</ele>
        <time>2021-08-29T08:11:01Z</time>
      </trkpt>
      <trkpt lat="43.2422440" lon="-8.4277020">
        <ele>192.9</ele>
        <time>2021-08-29T08:11:05Z</time>
      </trkpt>
      <trkpt lat="43.2423370" lon="-8.4274620">
        <ele>191.1</ele>
        <time>2021-08-29T08:11:07Z</time>
      </trkpt>
      <trkpt lat="43.2425330" lon="-8.4270250">
        <ele>188.0</ele>
        <time>2021-08-29T08:11:11Z</time>
      </trkpt>
      <trkpt lat="43.2426150" lon="-8.4268510">
        <ele>186.4</ele>
        <time>2021-08-29T08:11:13Z</time>
      </trkpt>
      <trkpt lat="43.2426880" lon="-8.4266830">
        <ele>184.3</ele>
        <time>2021-08-29T08:11:15Z</time>
      </trkpt>
      <trkpt lat="43.2427670" lon="-8.4265060">
        <ele>181.6</ele>
        <time>2021-08-29T08:11:17Z</time>
      </trkpt>
      <trkpt lat="43.2428310" lon="-8.4262890">
        <ele>178.2</ele>
        <time>2021-08-29T08:11:19Z</time>
      </trkpt>
      <trkpt lat="43.2429310" lon="-8.4258640">
        <ele>172.1</ele>
        <time>2021-08-29T08:11:23Z</time>
      </trkpt>
      <trkpt lat="43.2430150" lon="-8.4256570">
        <ele>169.0</ele>
        <time>2021-08-29T08:11:25Z</time>
      </trkpt>
      <trkpt lat="43.2432260" lon="-8.4250920">
        <ele>160.6</ele>
        <time>2021-08-29T08:11:30Z</time>
      </trkpt>
      <trkpt lat="43.2432790" lon="-8.4248640">
        <ele>158.0</ele>
        <time>2021-08-29T08:11:32Z</time>
      </trkpt>
      <trkpt lat="43.2432990" lon="-8.4246660">
        <ele>156.1</ele>
        <time>2021-08-29T08:11:34Z</time>
      </trkpt>
      <trkpt lat="43.2433260" lon="-8.4242120">
        <ele>150.6</ele>
        <time>2021-08-29T08:11:39Z</time>
      </trkpt>
      <trkpt lat="43.2433700" lon="-8.4237920">
        <ele>144.2</ele>
        <time>2021-08-29T08:11:43Z</time>
      </trkpt>
      <trkpt lat="43.2435040" lon="-8.4234570">
        <ele>139.9</ele>
        <time>2021-08-29T08:11:46Z</time>
      </trkpt>
      <trkpt lat="43.2437080" lon="-8.4230690">
        <ele>135.1</ele>
        <time>2021-08-29T08:11:49Z</time>
      </trkpt>
      <trkpt lat="43.2437820" lon="-8.4229250">
        <ele>133.4</ele>
        <time>2021-08-29T08:11:50Z</time>
      </trkpt>
      <trkpt lat="43.2439390" lon="-8.4226260">
        <ele>130.5</ele>
        <time>2021-08-29T08:11:52Z</time>
      </trkpt>
      <trkpt lat="43.2441620" lon="-8.4222200">
        <ele>127.5</ele>
        <time>2021-08-29T08:11:55Z</time>
      </trkpt>
      <trkpt lat="43.2443850" lon="-8.4217740">
        <ele>125.6</ele>
        <time>2021-08-29T08:11:59Z</time>
      </trkpt>
      <trkpt lat="43.2445990" lon="-8.4212890">
        <ele>123.4</ele>
        <time>2021-08-29T08:12:04Z</time>
      </trkpt>
      <trkpt lat="43.2449510" lon="-8.4207860">
        <ele>120.0</ele>
        <time>2021-08-29T08:12:10Z</time>
      </trkpt>
      <trkpt lat="43.2452850" lon="-8.4203650">
        <ele>117.5</ele>
        <time>2021-08-29T08:12:15Z</time>
      </trkpt>
      <trkpt lat="43.2456260" lon="-8.4199780">
        <ele>116.6</ele>
        <time>2021-08-29T08:12:20Z</time>
      </trkpt>
      <trkpt lat="43.2456960" lon="-8.4199230">
        <ele>116.4</ele>
        <time>2021-08-29T08:12:21Z</time>
      </trkpt>
      <trkpt lat="43.2457660" lon="-8.4198840">
        <ele>116.1</ele>
        <time>2021-08-29T08:12:22Z</time>
      </trkpt>
      <trkpt lat="43.2458410" lon="-8.4198620">
        <ele>115.8</ele>
        <time>2021-08-29T08:12:23Z</time>
      </trkpt>
      <trkpt lat="43.2460650" lon="-8.4198350">
        <ele>114.8</ele>
        <time>2021-08-29T08:12:26Z</time>
      </trkpt>
      <trkpt lat="43.2466080" lon="-8.4197480">
        <ele>113.1</ele>
        <time>2021-08-29T08:12:33Z</time>
      </trkpt>
      <trkpt lat="43.2468970" lon="-8.4196660">
        <ele>110.1</ele>
        <time>2021-08-29T08:12:37Z</time>
      </trkpt>
      <trkpt lat="43.2470470" lon="-8.4195870">
        <ele>107.9</ele>
        <time>2021-08-29T08:12:39Z</time>
      </trkpt>
      <trkpt lat="43.2474170" lon="-8.4194330">
        <ele>103.8</ele>
        <time>2021-08-29T08:12:43Z</time>
      </trkpt>
      <trkpt lat="43.2477650" lon="-8.4193890">
        <ele>100.3</ele>
        <time>2021-08-29T08:12:47Z</time>
      </trkpt>
      <trkpt lat="43.2481020" lon="-8.4194030">
        <ele>97.0</ele>
        <time>2021-08-29T08:12:51Z</time>
      </trkpt>
      <trkpt lat="43.2482440" lon="-8.4193710">
        <ele>95.5</ele>
        <time>2021-08-29T08:12:53Z</time>
      </trkpt>
      <trkpt lat="43.2486840" lon="-8.4192150">
        <ele>91.1</ele>
        <time>2021-08-29T08:12:59Z</time>
      </trkpt>
      <trkpt lat="43.2488170" lon="-8.4191620">
        <ele>89.7</ele>
        <time>2021-08-29T08:13:01Z</time>
      </trkpt>
      <trkpt lat="43.2489450" lon="-8.4190770">
        <ele>88.1</ele>
        <time>2021-08-29T08:13:03Z</time>
      </trkpt>
      <trkpt lat="43.2491350" lon="-8.4189200">
        <ele>85.4</ele>
        <time>2021-08-29T08:13:06Z</time>
      </trkpt>
      <trkpt lat="43.2491920" lon="-8.4189070">
        <ele>84.6</ele>
        <time>2021-08-29T08:13:07Z</time>
      </trkpt>
      <trkpt lat="43.2492430" lon="-8.4189190">
        <ele>83.8</ele>
        <time>2021-08-29T08:13:08Z</time>
      </trkpt>
      <trkpt lat="43.2493330" lon="-8.4189580">
        <ele>82.3</ele>
        <time>2021-08-29T08:13:10Z</time>
      </trkpt>
      <trkpt lat="43.2494170" lon="-8.4189270">
        <ele>80.9</ele>
        <time>2021-08-29T08:13:12Z</time>
      </trkpt>
      <trkpt lat="43.2494580" lon="-8.4188740">
        <ele>80.1</ele>
        <time>2021-08-29T08:13:13Z</time>
      </trkpt>
      <trkpt lat="43.2495780" lon="-8.4187190">
        <ele>78.2</ele>
        <time>2021-08-29T08:13:15Z</time>
      </trkpt>
      <trkpt lat="43.2496480" lon="-8.4186340">
        <ele>77.3</ele>
        <time>2021-08-29T08:13:16Z</time>
      </trkpt>
      <trkpt lat="43.2497860" lon="-8.4184880">
        <ele>75.7</ele>
        <time>2021-08-29T08:13:18Z</time>
      </trkpt>
      <trkpt lat="43.2500080" lon="-8.4183150">
        <ele>73.4</ele>
        <time>2021-08-29T08:13:21Z</time>
      </trkpt>
      <trkpt lat="43.2503140" lon="-8.4181140">
        <ele>71.1</ele>
        <time>2021-08-29T08:13:25Z</time>
      </trkpt>
      <trkpt lat="43.2504630" lon="-8.4180350">
        <ele>70.1</ele>
        <time>2021-08-29T08:13:27Z</time>
      </trkpt>
      <trkpt lat="43.2505330" lon="-8.4179910">
        <ele>69.5</ele>
        <time>2021-08-29T08:13:28Z</time>
      </trkpt>
      <trkpt lat="43.2506400" lon="-8.4178670">
        <ele>68.7</ele>
        <time>2021-08-29T08:13:30Z</time>
      </trkpt>
      <trkpt lat="43.2507670" lon="-8.4176440">
        <ele>67.7</ele>
        <time>2021-08-29T08:13:33Z</time>
      </trkpt>
      <trkpt lat="43.2508100" lon="-8.4175700">
        <ele>67.3</ele>
        <time>2021-08-29T08:13:34Z</time>
      </trkpt>
      <trkpt lat="43.2508630" lon="-8.4175110">
        <ele>66.9</ele>
        <time>2021-08-29T08:13:35Z</time>
      </trkpt>
      <trkpt lat="43.2509200" lon="-8.4174620">
        <ele>66.5</ele>
        <time>2021-08-29T08:13:36Z</time>
      </trkpt>
      <trkpt lat="43.2510860" lon="-8.4173710">
        <ele>65.6</ele>
        <time>2021-08-29T08:13:39Z</time>
      </trkpt>
      <trkpt lat="43.2511690" lon="-8.4173510">
        <ele>65.2</ele>
        <time>2021-08-29T08:13:41Z</time>
      </trkpt>
      <trkpt lat="43.2512170" lon="-8.4173550">
        <ele>65.0</ele>
        <time>2021-08-29T08:13:43Z</time>
      </trkpt>
      <trkpt lat="43.2513030" lon="-8.4174460">
        <ele>64.3</ele>
        <time>2021-08-29T08:13:48Z</time>
      </trkpt>
      <trkpt lat="43.2513160" lon="-8.4176680">
        <ele>63.9</ele>
        <time>2021-08-29T08:13:53Z</time>
      </trkpt>
      <trkpt lat="43.2513470" lon="-8.4178590">
        <ele>63.8</ele>
        <time>2021-08-29T08:13:57Z</time>
      </trkpt>
      <trkpt lat="43.2513370" lon="-8.4179640">
        <ele>63.7</ele>
        <time>2021-08-29T08:13:59Z</time>
      </trkpt>
      <trkpt lat="43.2512510" lon="-8.4181640">
        <ele>63.1</ele>
        <time>2021-08-29T08:14:03Z</time>
      </trkpt>
      <trkpt lat="43.2512900" lon="-8.4182220">
        <ele>61.2</ele>
        <time>2021-08-29T08:14:05Z</time>
      </trkpt>
      <trkpt lat="43.2513200" lon="-8.4182330">
        <ele>61.0</ele>
        <time>2021-08-29T08:14:06Z</time>
      </trkpt>
      <trkpt lat="43.2514500" lon="-8.4182240">
        <ele>60.1</ele>
        <time>2021-08-29T08:14:09Z</time>
      </trkpt>
      <trkpt lat="43.2514910" lon="-8.4182070">
        <ele>59.8</ele>
        <time>2021-08-29T08:14:10Z</time>
      </trkpt>
      <trkpt lat="43.2515510" lon="-8.4181440">
        <ele>59.2</ele>
        <time>2021-08-29T08:14:12Z</time>
      </trkpt>
      <trkpt lat="43.2516320" lon="-8.4180900">
        <ele>58.6</ele>
        <time>2021-08-29T08:14:14Z</time>
      </trkpt>
      <trkpt lat="43.2518150" lon="-8.4180440">
        <ele>57.2</ele>
        <time>2021-08-29T08:14:16Z</time>
      </trkpt>
      <trkpt lat="43.2520270" lon="-8.4180490">
        <ele>55.7</ele>
        <time>2021-08-29T08:14:20Z</time>
      </trkpt>
      <trkpt lat="43.2520990" lon="-8.4180630">
        <ele>55.4</ele>
        <time>2021-08-29T08:14:21Z</time>
      </trkpt>
      <trkpt lat="43.2523180" lon="-8.4181450">
        <ele>54.2</ele>
        <time>2021-08-29T08:14:24Z</time>
      </trkpt>
      <trkpt lat="43.2523860" lon="-8.4182000">
        <ele>53.8</ele>
        <time>2021-08-29T08:14:25Z</time>
      </trkpt>
      <trkpt lat="43.2528750" lon="-8.4185660">
        <ele>53.3</ele>
        <time>2021-08-29T08:14:32Z</time>
      </trkpt>
      <trkpt lat="43.2529380" lon="-8.4186100">
        <ele>53.5</ele>
        <time>2021-08-29T08:14:33Z</time>
      </trkpt>
      <trkpt lat="43.2529880" lon="-8.4186480">
        <ele>53.7</ele>
        <time>2021-08-29T08:14:34Z</time>
      </trkpt>
      <trkpt lat="43.2530840" lon="-8.4187210">
        <ele>54.2</ele>
        <time>2021-08-29T08:14:36Z</time>
      </trkpt>
      <trkpt lat="43.2531210" lon="-8.4187490">
        <ele>54.4</ele>
        <time>2021-08-29T08:14:37Z</time>
      </trkpt>
      <trkpt lat="43.2533480" lon="-8.4190130">
        <ele>55.6</ele>
        <time>2021-08-29T08:14:44Z</time>
      </trkpt>
      <trkpt lat="43.2533820" lon="-8.4190510">
        <ele>55.7</ele>
        <time>2021-08-29T08:14:45Z</time>
      </trkpt>
      <trkpt lat="43.2534520" lon="-8.4191250">
        <ele>56.0</ele>
        <time>2021-08-29T08:14:47Z</time>
      </trkpt>
      <trkpt lat="43.2535230" lon="-8.4191970">
        <ele>56.2</ele>
        <time>2021-08-29T08:14:49Z</time>
      </trkpt>
      <trkpt lat="43.2536420" lon="-8.4192800">
        <ele>56.4</ele>
        <time>2021-08-29T08:14:52Z</time>
      </trkpt>
      <trkpt lat="43.2536840" lon="-8.4192990">
        <ele>56.5</ele>
        <time>2021-08-29T08:14:53Z</time>
      </trkpt>
      <trkpt lat="43.2537710" lon="-8.4193190">
        <ele>56.6</ele>
        <time>2021-08-29T08:14:55Z</time>
      </trkpt>
      <trkpt lat="43.2539550" lon="-8.4193480">
        <ele>56.8</ele>
        <time>2021-08-29T08:14:59Z</time>
      </trkpt>
      <trkpt lat="43.2540880" lon="-8.4193830">
        <ele>56.8</ele>
        <time>2021-08-29T08:15:02Z</time>
      </trkpt>
      <trkpt lat="43.2542030" lon="-8.4194580">
        <ele>56.7</ele>
        <time>2021-08-29T08:15:05Z</time>
      </trkpt>
      <trkpt lat="43.2543250" lon="-8.4195480">
        <ele>56.2</ele>
        <time>2021-08-29T08:15:08Z</time>
      </trkpt>
      <trkpt lat="43.2544100" lon="-8.4195760">
        <ele>55.8</ele>
        <time>2021-08-29T08:15:10Z</time>
      </trkpt>
      <trkpt lat="43.2544550" lon="-8.4195650">
        <ele>55.6</ele>
        <time>2021-08-29T08:15:11Z</time>
      </trkpt>
      <trkpt lat="43.2545020" lon="-8.4195370">
        <ele>55.4</ele>
        <time>2021-08-29T08:15:12Z</time>
      </trkpt>
      <trkpt lat="43.2545920" lon="-8.4194360">
        <ele>54.7</ele>
        <time>2021-08-29T08:15:14Z</time>
      </trkpt>
      <trkpt lat="43.2546390" lon="-8.4193730">
        <ele>54.4</ele>
        <time>2021-08-29T08:15:15Z</time>
      </trkpt>
      <trkpt lat="43.2548980" lon="-8.4190000">
        <ele>52.2</ele>
        <time>2021-08-29T08:15:20Z</time>
      </trkpt>
      <trkpt lat="43.2552520" lon="-8.4185130">
        <ele>50.3</ele>
        <time>2021-08-29T08:15:26Z</time>
      </trkpt>
      <trkpt lat="43.2554900" lon="-8.4183940">
        <ele>49.5</ele>
        <time>2021-08-29T08:15:29Z</time>
      </trkpt>
      <trkpt lat="43.2558670" lon="-8.4182650">
        <ele>48.6</ele>
        <time>2021-08-29T08:15:34Z</time>
      </trkpt>
      <trkpt lat="43.2559340" lon="-8.4182510">
        <ele>48.5</ele>
        <time>2021-08-29T08:15:35Z</time>
      </trkpt>
      <trkpt lat="43.2560010" lon="-8.4182430">
        <ele>48.4</ele>
        <time>2021-08-29T08:15:36Z</time>
      </trkpt>
      <trkpt lat="43.2562050" lon="-8.4182330">
        <ele>48.2</ele>
        <time>2021-08-29T08:15:39Z</time>
      </trkpt>
      <trkpt lat="43.2563420" lon="-8.4182280">
        <ele>48.1</ele>
        <time>2021-08-29T08:15:41Z</time>
      </trkpt>
      <trkpt lat="43.2568170" lon="-8.4181330">
        <ele>47.6</ele>
        <time>2021-08-29T08:15:48Z</time>
      </trkpt>
      <trkpt lat="43.2571880" lon="-8.4179510">
        <ele>47.4</ele>
        <time>2021-08-29T08:15:54Z</time>
      </trkpt>
      <trkpt lat="43.2575440" lon="-8.4177220">
        <ele>47.1</ele>
        <time>2021-08-29T08:16:00Z</time>
      </trkpt>
      <trkpt lat="43.2576510" lon="-8.4176350">
        <ele>46.6</ele>
        <time>2021-08-29T08:16:02Z</time>
      </trkpt>
      <trkpt lat="43.2577640" lon="-8.4175480">
        <ele>46.0</ele>
        <time>2021-08-29T08:16:04Z</time>
      </trkpt>
      <trkpt lat="43.2580610" lon="-8.4173100">
        <ele>44.3</ele>
        <time>2021-08-29T08:16:09Z</time>
      </trkpt>
      <trkpt lat="43.2581200" lon="-8.4172580">
        <ele>43.9</ele>
        <time>2021-08-29T08:16:10Z</time>
      </trkpt>
      <trkpt lat="43.2582340" lon="-8.4171450">
        <ele>43.2</ele>
        <time>2021-08-29T08:16:12Z</time>
      </trkpt>
      <trkpt lat="43.2586440" lon="-8.4167430">
        <ele>41.2</ele>
        <time>2021-08-29T08:16:19Z</time>
      </trkpt>
      <trkpt lat="43.2586960" lon="-8.4166980">
        <ele>41.0</ele>
        <time>2021-08-29T08:16:20Z</time>
      </trkpt>
      <trkpt lat="43.2588110" lon="-8.4166610">
        <ele>40.7</ele>
        <time>2021-08-29T08:16:22Z</time>
      </trkpt>
      <trkpt lat="43.2589470" lon="-8.4166900">
        <ele>40.4</ele>
        <time>2021-08-29T08:16:24Z</time>
      </trkpt>
      <trkpt lat="43.2590660" lon="-8.4167430">
        <ele>40.3</ele>
        <time>2021-08-29T08:16:26Z</time>
      </trkpt>
      <trkpt lat="43.2591420" lon="-8.4167780">
        <ele>40.4</ele>
        <time>2021-08-29T08:16:27Z</time>
      </trkpt>
      <trkpt lat="43.2594630" lon="-8.4168630">
        <ele>41.7</ele>
        <time>2021-08-29T08:16:32Z</time>
      </trkpt>
      <trkpt lat="43.2595830" lon="-8.4168520">
        <ele>42.7</ele>
        <time>2021-08-29T08:16:34Z</time>
      </trkpt>
      <trkpt lat="43.2596710" lon="-8.4168080">
        <ele>43.4</ele>
        <time>2021-08-29T08:16:36Z</time>
      </trkpt>
      <trkpt lat="43.2597380" lon="-8.4167530">
        <ele>44.0</ele>
        <time>2021-08-29T08:16:38Z</time>
      </trkpt>
      <trkpt lat="43.2598280" lon="-8.4166570">
        <ele>44.8</ele>
        <time>2021-08-29T08:16:41Z</time>
      </trkpt>
      <trkpt lat="43.2599290" lon="-8.4164570">
        <ele>45.7</ele>
        <time>2021-08-29T08:16:46Z</time>
      </trkpt>
      <trkpt lat="43.2599670" lon="-8.4163140">
        <ele>45.9</ele>
        <time>2021-08-29T08:16:49Z</time>
      </trkpt>
      <trkpt lat="43.2599680" lon="-8.4162040">
        <ele>46.0</ele>
        <time>2021-08-29T08:16:51Z</time>
      </trkpt>
      <trkpt lat="43.2600360" lon="-8.4158600">
        <ele>46.1</ele>
        <time>2021-08-29T08:16:58Z</time>
      </trkpt>
      <trkpt lat="43.2601530" lon="-8.4158380">
        <ele>46.3</ele>
        <time>2021-08-29T08:17:01Z</time>
      </trkpt>
      <trkpt lat="43.2602360" lon="-8.4158610">
        <ele>46.4</ele>
        <time>2021-08-29T08:17:03Z</time>
      </trkpt>
      <trkpt lat="43.2603520" lon="-8.4159240">
        <ele>46.7</ele>
        <time>2021-08-29T08:17:06Z</time>
      </trkpt>
      <trkpt lat="43.2603960" lon="-8.4159370">
        <ele>46.7</ele>
        <time>2021-08-29T08:17:07Z</time>
      </trkpt>
      <trkpt lat="43.2604460" lon="-8.4159420">
        <ele>46.6</ele>
        <time>2021-08-29T08:17:08Z</time>
      </trkpt>
      <trkpt lat="43.2606500" lon="-8.4158900">
        <ele>46.0</ele>
        <time>2021-08-29T08:17:12Z</time>
      </trkpt>
      <trkpt lat="43.2609590" lon="-8.4157060">
        <ele>44.8</ele>
        <time>2021-08-29T08:17:18Z</time>
      </trkpt>
      <trkpt lat="43.2613630" lon="-8.4153540">
        <ele>42.9</ele>
        <time>2021-08-29T08:17:26Z</time>
      </trkpt>
      <trkpt lat="43.2618080" lon="-8.4149420">
        <ele>40.6</ele>
        <time>2021-08-29T08:17:34Z</time>
      </trkpt>
      <trkpt lat="43.2622810" lon="-8.4145110">
        <ele>38.6</ele>
        <time>2021-08-29T08:17:42Z</time>
      </trkpt>
      <trkpt lat="43.2623410" lon="-8.4144580">
        <ele>38.4</ele>
        <time>2021-08-29T08:17:43Z</time>
      </trkpt>
      <trkpt lat="43.2625770" lon="-8.4142460">
        <ele>37.6</ele>
        <time>2021-08-29T08:17:47Z</time>
      </trkpt>
      <trkpt lat="43.2629170" lon="-8.4139460">
        <ele>36.8</ele>
        <time>2021-08-29T08:17:53Z</time>
      </trkpt>
      <trkpt lat="43.2631250" lon="-8.4137450">
        <ele>36.5</ele>
        <time>2021-08-29T08:17:57Z</time>
      </trkpt>
      <trkpt lat="43.2632730" lon="-8.4136140">
        <ele>36.4</ele>
        <time>2021-08-29T08:18:00Z</time>
      </trkpt>
      <trkpt lat="43.2633670" lon="-8.4135310">
        <ele>36.4</ele>
        <time>2021-08-29T08:18:02Z</time>
      </trkpt>
      <trkpt lat="43.2634970" lon="-8.4134070">
        <ele>36.3</ele>
        <time>2021-08-29T08:18:05Z</time>
      </trkpt>
      <trkpt lat="43.2636280" lon="-8.4132820">
        <ele>36.2</ele>
        <time>2021-08-29T08:18:08Z</time>
      </trkpt>
      <trkpt lat="43.2637170" lon="-8.4132030">
        <ele>36.2</ele>
        <time>2021-08-29T08:18:10Z</time>
      </trkpt>
      <trkpt lat="43.2638080" lon="-8.4131230">
        <ele>36.2</ele>
        <time>2021-08-29T08:18:12Z</time>
      </trkpt>
      <trkpt lat="43.2638930" lon="-8.4131230">
        <ele>36.3</ele>
        <time>2021-08-29T08:18:14Z</time>
      </trkpt>
      <trkpt lat="43.2639330" lon="-8.4132170">
        <ele>36.3</ele>
        <time>2021-08-29T08:18:16Z</time>
      </trkpt>
      <trkpt lat="43.2639500" lon="-8.4133690">
        <ele>36.0</ele>
        <time>2021-08-29T08:18:18Z</time>
      </trkpt>
      <trkpt lat="43.2639910" lon="-8.4135320">
        <ele>35.8</ele>
        <time>2021-08-29T08:18:20Z</time>
      </trkpt>
      <trkpt lat="43.2640180" lon="-8.4136140">
        <ele>35.7</ele>
        <time>2021-08-29T08:18:21Z</time>
      </trkpt>
      <trkpt lat="43.2640860" lon="-8.4138360">
        <ele>35.7</ele>
        <time>2021-08-29T08:18:24Z</time>
      </trkpt>
      <trkpt lat="43.2641070" lon="-8.4139070">
        <ele>35.8</ele>
        <time>2021-08-29T08:18:25Z</time>
      </trkpt>
      <trkpt lat="43.2641270" lon="-8.4139760">
        <ele>35.9</ele>
        <time>2021-08-29T08:18:26Z</time>
      </trkpt>
      <trkpt lat="43.2641680" lon="-8.4141110">
        <ele>36.1</ele>
        <time>2021-08-29T08:18:28Z</time>
      </trkpt>
      <trkpt lat="43.2641860" lon="-8.4141710">
        <ele>36.3</ele>
        <time>2021-08-29T08:18:29Z</time>
      </trkpt>
      <trkpt lat="43.2642180" lon="-8.4142900">
        <ele>36.7</ele>
        <time>2021-08-29T08:18:31Z</time>
      </trkpt>
      <trkpt lat="43.2642460" lon="-8.4144060">
        <ele>37.1</ele>
        <time>2021-08-29T08:18:33Z</time>
      </trkpt>
      <trkpt lat="43.2642590" lon="-8.4144580">
        <ele>37.3</ele>
        <time>2021-08-29T08:18:34Z</time>
      </trkpt>
      <trkpt lat="43.2642910" lon="-8.4146110">
        <ele>37.9</ele>
        <time>2021-08-29T08:18:37Z</time>
      </trkpt>
      <trkpt lat="43.2643080" lon="-8.4147160">
        <ele>38.3</ele>
        <time>2021-08-29T08:18:39Z</time>
      </trkpt>
      <trkpt lat="43.2643260" lon="-8.4148200">
        <ele>38.7</ele>
        <time>2021-08-29T08:18:41Z</time>
      </trkpt>
      <trkpt lat="43.2643630" lon="-8.4150260">
        <ele>39.5</ele>
        <time>2021-08-29T08:18:45Z</time>
      </trkpt>
      <trkpt lat="43.2643980" lon="-8.4152350">
        <ele>40.2</ele>
        <time>2021-08-29T08:18:49Z</time>
      </trkpt>
      <trkpt lat="43.2644380" lon="-8.4154380">
        <ele>41.1</ele>
        <time>2021-08-29T08:18:53Z</time>
      </trkpt>
      <trkpt lat="43.2644630" lon="-8.4156010">
        <ele>41.9</ele>
        <time>2021-08-29T08:18:56Z</time>
      </trkpt>
      <trkpt lat="43.2644690" lon="-8.4156420">
        <ele>42.1</ele>
        <time>2021-08-29T08:18:57Z</time>
      </trkpt>
      <trkpt lat="43.2645380" lon="-8.4159100">
        <ele>43.9</ele>
        <time>2021-08-29T08:19:03Z</time>
      </trkpt>
      <trkpt lat="43.2646710" lon="-8.4161110">
        <ele>44.4</ele>
        <time>2021-08-29T08:19:09Z</time>
      </trkpt>
      <trkpt lat="43.2647960" lon="-8.4162970">
        <ele>44.5</ele>
        <time>2021-08-29T08:19:14Z</time>
      </trkpt>
      <trkpt lat="43.2650000" lon="-8.4165820">
        <ele>44.8</ele>
        <time>2021-08-29T08:19:21Z</time>
      </trkpt>
      <trkpt lat="43.2652100" lon="-8.4168770">
        <ele>44.9</ele>
        <time>2021-08-29T08:19:28Z</time>
      </trkpt>
      <trkpt lat="43.2653660" lon="-8.4169730">
        <ele>45.0</ele>
        <time>2021-08-29T08:19:32Z</time>
      </trkpt>
      <trkpt lat="43.2654540" lon="-8.4169680">
        <ele>45.0</ele>
        <time>2021-08-29T08:19:34Z</time>
      </trkpt>
      <trkpt lat="43.2655380" lon="-8.4169270">
        <ele>45.0</ele>
        <time>2021-08-29T08:19:36Z</time>
      </trkpt>
      <trkpt lat="43.2656680" lon="-8.4168310">
        <ele>44.9</ele>
        <time>2021-08-29T08:19:39Z</time>
      </trkpt>
      <trkpt lat="43.2657600" lon="-8.4167690">
        <ele>44.9</ele>
        <time>2021-08-29T08:19:41Z</time>
      </trkpt>
      <trkpt lat="43.2658070" lon="-8.4167330">
        <ele>44.8</ele>
        <time>2021-08-29T08:19:42Z</time>
      </trkpt>
      <trkpt lat="43.2659270" lon="-8.4165840">
        <ele>44.7</ele>
        <time>2021-08-29T08:19:45Z</time>
      </trkpt>
      <trkpt lat="43.2661220" lon="-8.4162310">
        <ele>44.3</ele>
        <time>2021-08-29T08:19:51Z</time>
      </trkpt>
      <trkpt lat="43.2661810" lon="-8.4160970">
        <ele>44.1</ele>
        <time>2021-08-29T08:19:53Z</time>
      </trkpt>
      <trkpt lat="43.2663000" lon="-8.4157550">
        <ele>43.9</ele>
        <time>2021-08-29T08:19:58Z</time>
      </trkpt>
      <trkpt lat="43.2663330" lon="-8.4156170">
        <ele>43.9</ele>
        <time>2021-08-29T08:20:00Z</time>
      </trkpt>
      <trkpt lat="43.2664750" lon="-8.4150020">
        <ele>43.9</ele>
        <time>2021-08-29T08:20:09Z</time>
      </trkpt>
      <trkpt lat="43.2665380" lon="-8.4147440">
        <ele>44.0</ele>
        <time>2021-08-29T08:20:13Z</time>
      </trkpt>
      <trkpt lat="43.2665720" lon="-8.4146220">
        <ele>44.0</ele>
        <time>2021-08-29T08:20:15Z</time>
      </trkpt>
      <trkpt lat="43.2666220" lon="-8.4145120">
        <ele>44.0</ele>
        <time>2021-08-29T08:20:17Z</time>
      </trkpt>
      <trkpt lat="43.2667400" lon="-8.4143110">
        <ele>44.0</ele>
        <time>2021-08-29T08:20:21Z</time>
      </trkpt>
      <trkpt lat="43.2668570" lon="-8.4141510">
        <ele>43.9</ele>
        <time>2021-08-29T08:20:24Z</time>
      </trkpt>
      <trkpt lat="43.2671980" lon="-8.4137310">
        <ele>43.3</ele>
        <time>2021-08-29T08:20:32Z</time>
      </trkpt>
      <trkpt lat="43.2672640" lon="-8.4135910">
        <ele>43.0</ele>
        <time>2021-08-29T08:20:34Z</time>
      </trkpt>
      <trkpt lat="43.2673090" lon="-8.4134370">
        <ele>42.7</ele>
        <time>2021-08-29T08:20:36Z</time>
      </trkpt>
      <trkpt lat="43.2673620" lon="-8.4131040">
        <ele>42.1</ele>
        <time>2021-08-29T08:20:40Z</time>
      </trkpt>
      <trkpt lat="43.2674170" lon="-8.4127500">
        <ele>41.4</ele>
        <time>2021-08-29T08:20:44Z</time>
      </trkpt>
      <trkpt lat="43.2674510" lon="-8.4124800">
        <ele>41.0</ele>
        <time>2021-08-29T08:20:47Z</time>
      </trkpt>
      <trkpt lat="43.2675490" lon="-8.4120430">
        <ele>40.3</ele>
        <time>2021-08-29T08:20:52Z</time>
      </trkpt>
      <trkpt lat="43.2676110" lon="-8.4118850">
        <ele>40.0</ele>
        <time>2021-08-29T08:20:54Z</time>
      </trkpt>
      <trkpt lat="43.2677260" lon="-8.4116820">
        <ele>39.7</ele>
        <time>2021-08-29T08:20:57Z</time>
      </trkpt>
      <trkpt lat="43.2679370" lon="-8.4113340">
        <ele>39.3</ele>
        <time>2021-08-29T08:21:03Z</time>
      </trkpt>
      <trkpt lat="43.2681590" lon="-8.4110170">
        <ele>39.2</ele>
        <time>2021-08-29T08:21:09Z</time>
      </trkpt>
      <trkpt lat="43.2684080" lon="-8.4105850">
        <ele>38.9</ele>
        <time>2021-08-29T08:21:17Z</time>
      </trkpt>
      <trkpt lat="43.2684410" lon="-8.4105410">
        <ele>38.9</ele>
        <time>2021-08-29T08:21:18Z</time>
      </trkpt>
      <trkpt lat="43.2685940" lon="-8.4103880">
        <ele>38.7</ele>
        <time>2021-08-29T08:21:22Z</time>
      </trkpt>
      <trkpt lat="43.2687870" lon="-8.4101720">
        <ele>38.6</ele>
        <time>2021-08-29T08:21:27Z</time>
      </trkpt>
      <trkpt lat="43.2688480" lon="-8.4100660">
        <ele>38.6</ele>
        <time>2021-08-29T08:21:29Z</time>
      </trkpt>
      <trkpt lat="43.2689230" lon="-8.4098860">
        <ele>38.5</ele>
        <time>2021-08-29T08:21:32Z</time>
      </trkpt>
      <trkpt lat="43.2689760" lon="-8.4097630">
        <ele>38.5</ele>
        <time>2021-08-29T08:21:34Z</time>
      </trkpt>
      <trkpt lat="43.2690060" lon="-8.4097050">
        <ele>38.4</ele>
        <time>2021-08-29T08:21:35Z</time>
      </trkpt>
      <trkpt lat="43.2690360" lon="-8.4096510">
        <ele>38.4</ele>
        <time>2021-08-29T08:21:36Z</time>
      </trkpt>
      <trkpt lat="43.2691460" lon="-8.4095080">
        <ele>38.3</ele>
        <time>2021-08-29T08:21:39Z</time>
      </trkpt>
      <trkpt lat="43.2691840" lon="-8.4094640">
        <ele>38.3</ele>
        <time>2021-08-29T08:21:40Z</time>
      </trkpt>
      <trkpt lat="43.2693430" lon="-8.4092840">
        <ele>38.1</ele>
        <time>2021-08-29T08:21:44Z</time>
      </trkpt>
      <trkpt lat="43.2694300" lon="-8.4092000">
        <ele>38.1</ele>
        <time>2021-08-29T08:21:46Z</time>
      </trkpt>
      <trkpt lat="43.2694740" lon="-8.4091590">
        <ele>38.0</ele>
        <time>2021-08-29T08:21:47Z</time>
      </trkpt>
      <trkpt lat="43.2696140" lon="-8.4090300">
        <ele>37.9</ele>
        <time>2021-08-29T08:21:50Z</time>
      </trkpt>
      <trkpt lat="43.2697080" lon="-8.4089420">
        <ele>37.8</ele>
        <time>2021-08-29T08:21:52Z</time>
      </trkpt>
      <trkpt lat="43.2698380" lon="-8.4088220">
        <ele>37.8</ele>
        <time>2021-08-29T08:21:55Z</time>
      </trkpt>
      <trkpt lat="43.2700980" lon="-8.4086320">
        <ele>38.1</ele>
        <time>2021-08-29T08:22:01Z</time>
      </trkpt>
      <trkpt lat="43.2701460" lon="-8.4086150">
        <ele>38.2</ele>
        <time>2021-08-29T08:22:02Z</time>
      </trkpt>
      <trkpt lat="43.2701900" lon="-8.4086050">
        <ele>38.3</ele>
        <time>2021-08-29T08:22:03Z</time>
      </trkpt>
      <trkpt lat="43.2702740" lon="-8.4086200">
        <ele>38.5</ele>
        <time>2021-08-29T08:22:05Z</time>
      </trkpt>
      <trkpt lat="43.2703120" lon="-8.4086440">
        <ele>38.5</ele>
        <time>2021-08-29T08:22:06Z</time>
      </trkpt>
      <trkpt lat="43.2703470" lon="-8.4086770">
        <ele>38.6</ele>
        <time>2021-08-29T08:22:07Z</time>
      </trkpt>
      <trkpt lat="43.2704070" lon="-8.4087560">
        <ele>38.7</ele>
        <time>2021-08-29T08:22:09Z</time>
      </trkpt>
      <trkpt lat="43.2704300" lon="-8.4087990">
        <ele>38.7</ele>
        <time>2021-08-29T08:22:10Z</time>
      </trkpt>
      <trkpt lat="43.2704520" lon="-8.4088430">
        <ele>38.7</ele>
        <time>2021-08-29T08:22:11Z</time>
      </trkpt>
      <trkpt lat="43.2704870" lon="-8.4089420">
        <ele>38.8</ele>
        <time>2021-08-29T08:22:13Z</time>
      </trkpt>
      <trkpt lat="43.2705190" lon="-8.4090340">
        <ele>39.1</ele>
        <time>2021-08-29T08:22:15Z</time>
      </trkpt>
      <trkpt lat="43.2705500" lon="-8.4091060">
        <ele>39.5</ele>
        <time>2021-08-29T08:22:17Z</time>
      </trkpt>
      <trkpt lat="43.2705850" lon="-8.4091700">
        <ele>39.7</ele>
        <time>2021-08-29T08:22:19Z</time>
      </trkpt>
      <trkpt lat="43.2706040" lon="-8.4091960">
        <ele>39.9</ele>
        <time>2021-08-29T08:22:20Z</time>
      </trkpt>
      <trkpt lat="43.2706230" lon="-8.4092070">
        <ele>39.9</ele>
        <time>2021-08-29T08:22:21Z</time>
      </trkpt>
      <trkpt lat="43.2706640" lon="-8.4091850">
        <ele>40.0</ele>
        <time>2021-08-29T08:22:23Z</time>
      </trkpt>
      <trkpt lat="43.2707740" lon="-8.4090690">
        <ele>40.2</ele>
        <time>2021-08-29T08:22:27Z</time>
      </trkpt>
      <trkpt lat="43.2709660" lon="-8.4089000">
        <ele>40.5</ele>
        <time>2021-08-29T08:22:33Z</time>
      </trkpt>
      <trkpt lat="43.2710000" lon="-8.4088690">
        <ele>40.6</ele>
        <time>2021-08-29T08:22:34Z</time>
      </trkpt>
      <trkpt lat="43.2710720" lon="-8.4088080">
        <ele>40.7</ele>
        <time>2021-08-29T08:22:36Z</time>
      </trkpt>
      <trkpt lat="43.2712770" lon="-8.4086160">
        <ele>41.0</ele>
        <time>2021-08-29T08:22:42Z</time>
      </trkpt>
      <trkpt lat="43.2714120" lon="-8.4084890">
        <ele>41.2</ele>
        <time>2021-08-29T08:22:46Z</time>
      </trkpt>
      <trkpt lat="43.2715230" lon="-8.4084050">
        <ele>41.4</ele>
        <time>2021-08-29T08:22:49Z</time>
      </trkpt>
      <trkpt lat="43.2715980" lon="-8.4083500">
        <ele>41.5</ele>
        <time>2021-08-29T08:22:51Z</time>
      </trkpt>
      <trkpt lat="43.2717290" lon="-8.4082140">
        <ele>41.8</ele>
        <time>2021-08-29T08:22:55Z</time>
      </trkpt>
      <trkpt lat="43.2718200" lon="-8.4081050">
        <ele>42.0</ele>
        <time>2021-08-29T08:22:58Z</time>
      </trkpt>
      <trkpt lat="43.2720110" lon="-8.4079080">
        <ele>42.5</ele>
        <time>2021-08-29T08:23:04Z</time>
      </trkpt>
      <trkpt lat="43.2720410" lon="-8.4078760">
        <ele>42.6</ele>
        <time>2021-08-29T08:23:05Z</time>
      </trkpt>
      <trkpt lat="43.2720710" lon="-8.4078370">
        <ele>42.7</ele>
        <time>2021-08-29T08:23:06Z</time>
      </trkpt>
      <trkpt lat="43.2720960" lon="-8.4077930">
        <ele>42.8</ele>
        <time>2021-08-29T08:23:07Z</time>
      </trkpt>
      <trkpt lat="43.2721310" lon="-8.4076910">
        <ele>43.0</ele>
        <time>2021-08-29T08:23:09Z</time>
      </trkpt>
      <trkpt lat="43.2721410" lon="-8.4076380">
        <ele>43.0</ele>
        <time>2021-08-29T08:23:10Z</time>
      </trkpt>
      <trkpt lat="43.2721960" lon="-8.4073420">
        <ele>43.7</ele>
        <time>2021-08-29T08:23:16Z</time>
      </trkpt>
      <trkpt lat="43.2723790" lon="-8.4071250">
        <ele>44.8</ele>
        <time>2021-08-29T08:23:23Z</time>
      </trkpt>
      <trkpt lat="43.2725860" lon="-8.4069520">
        <ele>46.1</ele>
        <time>2021-08-29T08:23:30Z</time>
      </trkpt>
      <trkpt lat="43.2727920" lon="-8.4068020">
        <ele>47.4</ele>
        <time>2021-08-29T08:23:37Z</time>
      </trkpt>
      <trkpt lat="43.2729690" lon="-8.4066770">
        <ele>48.4</ele>
        <time>2021-08-29T08:23:43Z</time>
      </trkpt>
      <trkpt lat="43.2730520" lon="-8.4066060">
        <ele>48.8</ele>
        <time>2021-08-29T08:23:46Z</time>
      </trkpt>
      <trkpt lat="43.2731900" lon="-8.4064970">
        <ele>49.5</ele>
        <time>2021-08-29T08:23:51Z</time>
      </trkpt>
      <trkpt lat="43.2732710" lon="-8.4064320">
        <ele>49.9</ele>
        <time>2021-08-29T08:23:54Z</time>
      </trkpt>
      <trkpt lat="43.2733580" lon="-8.4063730">
        <ele>50.3</ele>
        <time>2021-08-29T08:23:57Z</time>
      </trkpt>
      <trkpt lat="43.2734400" lon="-8.4063090">
        <ele>50.8</ele>
        <time>2021-08-29T08:24:00Z</time>
      </trkpt>
      <trkpt lat="43.2735490" lon="-8.4062170">
        <ele>51.4</ele>
        <time>2021-08-29T08:24:04Z</time>
      </trkpt>
      <trkpt lat="43.2736500" lon="-8.4061100">
        <ele>52.0</ele>
        <time>2021-08-29T08:24:08Z</time>
      </trkpt>
      <trkpt lat="43.2736760" lon="-8.4060880">
        <ele>52.1</ele>
        <time>2021-08-29T08:24:09Z</time>
      </trkpt>
      <trkpt lat="43.2737280" lon="-8.4060450">
        <ele>52.5</ele>
        <time>2021-08-29T08:24:11Z</time>
      </trkpt>
      <trkpt lat="43.2738110" lon="-8.4059910">
        <ele>53.0</ele>
        <time>2021-08-29T08:24:14Z</time>
      </trkpt>
      <trkpt lat="43.2738620" lon="-8.4059470">
        <ele>53.3</ele>
        <time>2021-08-29T08:24:16Z</time>
      </trkpt>
      <trkpt lat="43.2739070" lon="-8.4059070">
        <ele>53.6</ele>
        <time>2021-08-29T08:24:18Z</time>
      </trkpt>
      <trkpt lat="43.2740050" lon="-8.4058460">
        <ele>54.1</ele>
        <time>2021-08-29T08:24:22Z</time>
      </trkpt>
      <trkpt lat="43.2740840" lon="-8.4058150">
        <ele>54.6</ele>
        <time>2021-08-29T08:24:26Z</time>
      </trkpt>
      <trkpt lat="43.2741300" lon="-8.4058200">
        <ele>54.8</ele>
        <time>2021-08-29T08:24:28Z</time>
      </trkpt>
      <trkpt lat="43.2741840" lon="-8.4058410">
        <ele>55.1</ele>
        <time>2021-08-29T08:24:30Z</time>
      </trkpt>
      <trkpt lat="43.2742290" lon="-8.4058800">
        <ele>55.3</ele>
        <time>2021-08-29T08:24:32Z</time>
      </trkpt>
      <trkpt lat="43.2742640" lon="-8.4059360">
        <ele>55.5</ele>
        <time>2021-08-29T08:24:34Z</time>
      </trkpt>
      <trkpt lat="43.2743120" lon="-8.4060250">
        <ele>55.9</ele>
        <time>2021-08-29T08:24:37Z</time>
      </trkpt>
      <trkpt lat="43.2743730" lon="-8.4061030">
        <ele>56.3</ele>
        <time>2021-08-29T08:24:40Z</time>
      </trkpt>
      <trkpt lat="43.2743900" lon="-8.4061330">
        <ele>56.4</ele>
        <time>2021-08-29T08:24:41Z</time>
      </trkpt>
      <trkpt lat="43.2745800" lon="-8.4064640">
        <ele>57.8</ele>
        <time>2021-08-29T08:24:52Z</time>
      </trkpt>
      <trkpt lat="43.2746690" lon="-8.4066630">
        <ele>58.6</ele>
        <time>2021-08-29T08:24:58Z</time>
      </trkpt>
      <trkpt lat="43.2746970" lon="-8.4067310">
        <ele>58.8</ele>
        <time>2021-08-29T08:25:00Z</time>
      </trkpt>
      <trkpt lat="43.2747490" lon="-8.4068230">
        <ele>59.2</ele>
        <time>2021-08-29T08:25:03Z</time>
      </trkpt>
      <trkpt lat="43.2748490" lon="-8.4070520">
        <ele>60.1</ele>
        <time>2021-08-29T08:25:10Z</time>
      </trkpt>
      <trkpt lat="43.2749240" lon="-8.4072590">
        <ele>60.9</ele>
        <time>2021-08-29T08:25:16Z</time>
      </trkpt>
      <trkpt lat="43.2750010" lon="-8.4074690">
        <ele>61.7</ele>
        <time>2021-08-29T08:25:22Z</time>
      </trkpt>
      <trkpt lat="43.2750890" lon="-8.4076620">
        <ele>62.6</ele>
        <time>2021-08-29T08:25:28Z</time>
      </trkpt>
      <trkpt lat="43.2751040" lon="-8.4076930">
        <ele>62.7</ele>
        <time>2021-08-29T08:25:29Z</time>
      </trkpt>
      <trkpt lat="43.2751980" lon="-8.4080050">
        <ele>63.9</ele>
        <time>2021-08-29T08:25:38Z</time>
      </trkpt>
      <trkpt lat="43.2753160" lon="-8.4084560">
        <ele>65.5</ele>
        <time>2021-08-29T08:25:51Z</time>
      </trkpt>
      <trkpt lat="43.2753900" lon="-8.4087350">
        <ele>66.5</ele>
        <time>2021-08-29T08:25:59Z</time>
      </trkpt>
      <trkpt lat="43.2754240" lon="-8.4089440">
        <ele>67.3</ele>
        <time>2021-08-29T08:26:05Z</time>
      </trkpt>
      <trkpt lat="43.2755000" lon="-8.4092740">
        <ele>67.9</ele>
        <time>2021-08-29T08:26:14Z</time>
      </trkpt>
      <trkpt lat="43.2755920" lon="-8.4093910">
        <ele>68.3</ele>
        <time>2021-08-29T08:26:19Z</time>
      </trkpt>
      <trkpt lat="43.2756120" lon="-8.4093860">
        <ele>69.6</ele>
        <time>2021-08-29T08:26:20Z</time>
      </trkpt>
      <trkpt lat="43.2756680" lon="-8.4093210">
        <ele>71.0</ele>
        <time>2021-08-29T08:26:23Z</time>
      </trkpt>
      <trkpt lat="43.2757810" lon="-8.4092180">
        <ele>71.4</ele>
        <time>2021-08-29T08:26:30Z</time>
      </trkpt>
      <trkpt lat="43.2758010" lon="-8.4092030">
        <ele>71.5</ele>
        <time>2021-08-29T08:26:32Z</time>
      </trkpt>
      <trkpt lat="43.2758210" lon="-8.4091890">
        <ele>71.6</ele>
        <time>2021-08-29T08:26:40Z</time>
      </trkpt>
      <trkpt lat="43.2758410" lon="-8.4091740">
        <ele>71.7</ele>
        <time>2021-08-29T08:26:41Z</time>
      </trkpt>
      <trkpt lat="43.2758610" lon="-8.4091600">
        <ele>71.8</ele>
        <time>2021-08-29T08:26:42Z</time>
      </trkpt>
      <trkpt lat="43.2758810" lon="-8.4091450">
        <ele>71.9</ele>
        <time>2021-08-29T08:26:47Z</time>
      </trkpt>
      <trkpt lat="43.2759010" lon="-8.4091310">
        <ele>72.0</ele>
        <time>2021-08-29T08:26:48Z</time>
      </trkpt>
      <trkpt lat="43.2759210" lon="-8.4091160">
        <ele>72.1</ele>
        <time>2021-08-29T08:26:49Z</time>
      </trkpt>
      <trkpt lat="43.2762020" lon="-8.4089130">
        <ele>74.5</ele>
        <time>2021-08-29T08:26:51Z</time>
      </trkpt>
      <trkpt lat="43.2762280" lon="-8.4087170">
        <ele>75.5</ele>
        <time>2021-08-29T08:26:58Z</time>
      </trkpt>
      <trkpt lat="43.2762380" lon="-8.4086850">
        <ele>75.7</ele>
        <time>2021-08-29T08:26:59Z</time>
      </trkpt>
      <trkpt lat="43.2762620" lon="-8.4086000">
        <ele>76.3</ele>
        <time>2021-08-29T08:27:02Z</time>
      </trkpt>
      <trkpt lat="43.2762900" lon="-8.4084260">
        <ele>77.3</ele>
        <time>2021-08-29T08:27:09Z</time>
      </trkpt>
      <trkpt lat="43.2762320" lon="-8.4082110">
        <ele>78.6</ele>
        <time>2021-08-29T08:27:17Z</time>
      </trkpt>
      <trkpt lat="43.2761940" lon="-8.4080000">
        <ele>79.7</ele>
        <time>2021-08-29T08:27:25Z</time>
      </trkpt>
      <trkpt lat="43.2760740" lon="-8.4077580">
        <ele>80.7</ele>
        <time>2021-08-29T08:27:34Z</time>
      </trkpt>
      <trkpt lat="43.2760430" lon="-8.4075390">
        <ele>80.9</ele>
        <time>2021-08-29T08:27:41Z</time>
      </trkpt>
      <trkpt lat="43.2760090" lon="-8.4072270">
        <ele>79.6</ele>
        <time>2021-08-29T08:27:48Z</time>
      </trkpt>
      <trkpt lat="43.2759860" lon="-8.4071630">
        <ele>79.2</ele>
        <time>2021-08-29T08:27:49Z</time>
      </trkpt>
      <trkpt lat="43.2759110" lon="-8.4070270">
        <ele>78.1</ele>
        <time>2021-08-29T08:27:51Z</time>
      </trkpt>
      <trkpt lat="43.2756880" lon="-8.4066800">
        <ele>76.7</ele>
        <time>2021-08-29T08:27:56Z</time>
      </trkpt>
      <trkpt lat="43.2756590" lon="-8.4065340">
        <ele>76.9</ele>
        <time>2021-08-29T08:27:58Z</time>
      </trkpt>
      <trkpt lat="43.2756680" lon="-8.4064810">
        <ele>77.0</ele>
        <time>2021-08-29T08:27:59Z</time>
      </trkpt>
      <trkpt lat="43.2757020" lon="-8.4064270">
        <ele>77.2</ele>
        <time>2021-08-29T08:28:01Z</time>
      </trkpt>
      <trkpt lat="43.2757200" lon="-8.4064160">
        <ele>77.4</ele>
        <time>2021-08-29T08:28:02Z</time>
      </trkpt>
      <trkpt lat="43.2758270" lon="-8.4064020">
        <ele>78.0</ele>
        <time>2021-08-29T08:28:07Z</time>
      </trkpt>
      <trkpt lat="43.2759010" lon="-8.4064180">
        <ele>78.5</ele>
        <time>2021-08-29T08:28:11Z</time>
      </trkpt>
      <trkpt lat="43.2759310" lon="-8.4064570">
        <ele>78.8</ele>
        <time>2021-08-29T08:28:13Z</time>
      </trkpt>
      <trkpt lat="43.2759690" lon="-8.4064900">
        <ele>79.2</ele>
        <time>2021-08-29T08:28:15Z</time>
      </trkpt>
      <trkpt lat="43.2760450" lon="-8.4065090">
        <ele>79.9</ele>
        <time>2021-08-29T08:28:19Z</time>
      </trkpt>
      <trkpt lat="43.2761010" lon="-8.4065180">
        <ele>80.5</ele>
        <time>2021-08-29T08:28:22Z</time>
      </trkpt>
      <trkpt lat="43.2761320" lon="-8.4065250">
        <ele>80.9</ele>
        <time>2021-08-29T08:28:24Z</time>
      </trkpt>
      <trkpt lat="43.2761730" lon="-8.4065400">
        <ele>81.4</ele>
        <time>2021-08-29T08:28:27Z</time>
      </trkpt>
      <trkpt lat="43.2762830" lon="-8.4065630">
        <ele>83.0</ele>
        <time>2021-08-29T08:28:34Z</time>
      </trkpt>
      <trkpt lat="43.2763020" lon="-8.4065600">
        <ele>83.2</ele>
        <time>2021-08-29T08:28:35Z</time>
      </trkpt>
      <trkpt lat="43.2763330" lon="-8.4065440">
        <ele>83.7</ele>
        <time>2021-08-29T08:28:37Z</time>
      </trkpt>
      <trkpt lat="43.2763680" lon="-8.4065090">
        <ele>84.4</ele>
        <time>2021-08-29T08:28:40Z</time>
      </trkpt>
      <trkpt lat="43.2763900" lon="-8.4064840">
        <ele>84.8</ele>
        <time>2021-08-29T08:28:42Z</time>
      </trkpt>
      <trkpt lat="43.2764120" lon="-8.4064560">
        <ele>85.3</ele>
        <time>2021-08-29T08:28:44Z</time>
      </trkpt>
      <trkpt lat="43.2764230" lon="-8.4064470">
        <ele>85.5</ele>
        <time>2021-08-29T08:28:45Z</time>
      </trkpt>
      <trkpt lat="43.2764310" lon="-8.4064350">
        <ele>85.7</ele>
        <time>2021-08-29T08:28:46Z</time>
      </trkpt>
      <trkpt lat="43.2765120" lon="-8.4063740">
        <ele>87.1</ele>
        <time>2021-08-29T08:28:51Z</time>
      </trkpt>
      <trkpt lat="43.2765550" lon="-8.4063280">
        <ele>87.9</ele>
        <time>2021-08-29T08:28:54Z</time>
      </trkpt>
      <trkpt lat="43.2765830" lon="-8.4063010">
        <ele>88.4</ele>
        <time>2021-08-29T08:28:56Z</time>
      </trkpt>
      <trkpt lat="43.2766000" lon="-8.4062900">
        <ele>88.6</ele>
        <time>2021-08-29T08:28:57Z</time>
      </trkpt>
      <trkpt lat="43.2766280" lon="-8.4062680">
        <ele>89.0</ele>
        <time>2021-08-29T08:29:00Z</time>
      </trkpt>
      <trkpt lat="43.2766760" lon="-8.4062400">
        <ele>89.7</ele>
        <time>2021-08-29T08:29:03Z</time>
      </trkpt>
      <trkpt lat="43.2766880" lon="-8.4062200">
        <ele>89.9</ele>
        <time>2021-08-29T08:29:06Z</time>
      </trkpt>
      <trkpt lat="43.2767400" lon="-8.4062150">
        <ele>90.5</ele>
        <time>2021-08-29T08:29:10Z</time>
      </trkpt>
      <trkpt lat="43.2767490" lon="-8.4062120">
        <ele>90.6</ele>
        <time>2021-08-29T08:29:11Z</time>
      </trkpt>
      <trkpt lat="43.2768060" lon="-8.4061980">
        <ele>91.3</ele>
        <time>2021-08-29T08:29:16Z</time>
      </trkpt>
      <trkpt lat="43.2768120" lon="-8.4061930">
        <ele>91.4</ele>
        <time>2021-08-29T08:29:17Z</time>
      </trkpt>
      <trkpt lat="43.2768220" lon="-8.4061880">
        <ele>91.5</ele>
        <time>2021-08-29T08:29:18Z</time>
      </trkpt>
      <trkpt lat="43.2768310" lon="-8.4061810">
        <ele>91.6</ele>
        <time>2021-08-29T08:29:19Z</time>
      </trkpt>
      <trkpt lat="43.2768400" lon="-8.4061750">
        <ele>91.7</ele>
        <time>2021-08-29T08:29:20Z</time>
      </trkpt>
      <trkpt lat="43.2768450" lon="-8.4061670">
        <ele>91.8</ele>
        <time>2021-08-29T08:29:21Z</time>
      </trkpt>
      <trkpt lat="43.2768550" lon="-8.4061600">
        <ele>91.9</ele>
        <time>2021-08-29T08:29:23Z</time>
      </trkpt>
      <trkpt lat="43.2768600" lon="-8.4061600">
        <ele>92.0</ele>
        <time>2021-08-29T08:29:24Z</time>
      </trkpt>
      <trkpt lat="43.2768720" lon="-8.4061620">
        <ele>92.1</ele>
        <time>2021-08-29T08:29:28Z</time>
      </trkpt>
      <trkpt lat="43.2769710" lon="-8.4061320">
        <ele>93.1</ele>
        <time>2021-08-29T08:29:39Z</time>
      </trkpt>
      <trkpt lat="43.2769850" lon="-8.4061260">
        <ele>93.2</ele>
        <time>2021-08-29T08:29:40Z</time>
      </trkpt>
      <trkpt lat="43.2771040" lon="-8.4060980">
        <ele>94.4</ele>
        <time>2021-08-29T08:29:47Z</time>
      </trkpt>
      <trkpt lat="43.2771960" lon="-8.4061140">
        <ele>95.4</ele>
        <time>2021-08-29T08:29:52Z</time>
      </trkpt>
      <trkpt lat="43.2772230" lon="-8.4061370">
        <ele>95.9</ele>
        <time>2021-08-29T08:29:54Z</time>
      </trkpt>
      <trkpt lat="43.2773080" lon="-8.4061730">
        <ele>97.2</ele>
        <time>2021-08-29T08:29:59Z</time>
      </trkpt>
      <trkpt lat="43.2773520" lon="-8.4062140">
        <ele>98.1</ele>
        <time>2021-08-29T08:30:03Z</time>
      </trkpt>
      <trkpt lat="43.2773910" lon="-8.4062350">
        <ele>98.7</ele>
        <time>2021-08-29T08:30:06Z</time>
      </trkpt>
      <trkpt lat="43.2774160" lon="-8.4062490">
        <ele>99.1</ele>
        <time>2021-08-29T08:30:08Z</time>
      </trkpt>
      <trkpt lat="43.2774310" lon="-8.4062530">
        <ele>99.4</ele>
        <time>2021-08-29T08:30:09Z</time>
      </trkpt>
      <trkpt lat="43.2774440" lon="-8.4062500">
        <ele>99.6</ele>
        <time>2021-08-29T08:30:10Z</time>
      </trkpt>
      <trkpt lat="43.2774570" lon="-8.4062430">
        <ele>99.8</ele>
        <time>2021-08-29T08:30:11Z</time>
      </trkpt>
      <trkpt lat="43.2774690" lon="-8.4062380">
        <ele>100.0</ele>
        <time>2021-08-29T08:30:13Z</time>
      </trkpt>
      <trkpt lat="43.2775300" lon="-8.4062460">
        <ele>101.0</ele>
        <time>2021-08-29T08:30:17Z</time>
      </trkpt>
      <trkpt lat="43.2775910" lon="-8.4062510">
        <ele>101.9</ele>
        <time>2021-08-29T08:30:21Z</time>
      </trkpt>
      <trkpt lat="43.2776290" lon="-8.4062320">
        <ele>102.4</ele>
        <time>2021-08-29T08:30:24Z</time>
      </trkpt>
      <trkpt lat="43.2777090" lon="-8.4062180">
        <ele>103.4</ele>
        <time>2021-08-29T08:30:30Z</time>
      </trkpt>
      <trkpt lat="43.2777240" lon="-8.4062160">
        <ele>103.6</ele>
        <time>2021-08-29T08:30:31Z</time>
      </trkpt>
      <trkpt lat="43.2777960" lon="-8.4062130">
        <ele>104.5</ele>
        <time>2021-08-29T08:30:36Z</time>
      </trkpt>
      <trkpt lat="43.2778190" lon="-8.4062120">
        <ele>104.7</ele>
        <time>2021-08-29T08:30:38Z</time>
      </trkpt>
      <trkpt lat="43.2778310" lon="-8.4062110">
        <ele>104.9</ele>
        <time>2021-08-29T08:30:39Z</time>
      </trkpt>
      <trkpt lat="43.2778830" lon="-8.4061960">
        <ele>105.5</ele>
        <time>2021-08-29T08:30:44Z</time>
      </trkpt>
      <trkpt lat="43.2778940" lon="-8.4061920">
        <ele>105.6</ele>
        <time>2021-08-29T08:30:47Z</time>
      </trkpt>
      <trkpt lat="43.2779730" lon="-8.4061420">
        <ele>106.5</ele>
        <time>2021-08-29T08:30:53Z</time>
      </trkpt>
      <trkpt lat="43.2779830" lon="-8.4061360">
        <ele>106.6</ele>
        <time>2021-08-29T08:30:54Z</time>
      </trkpt>
      <trkpt lat="43.2780410" lon="-8.4061170">
        <ele>107.2</ele>
        <time>2021-08-29T08:30:57Z</time>
      </trkpt>
      <trkpt lat="43.2780790" lon="-8.4061130">
        <ele>107.6</ele>
        <time>2021-08-29T08:30:59Z</time>
      </trkpt>
      <trkpt lat="43.2781060" lon="-8.4061050">
        <ele>107.8</ele>
        <time>2021-08-29T08:31:03Z</time>
      </trkpt>
      <trkpt lat="43.2781190" lon="-8.4060950">
        <ele>108.0</ele>
        <time>2021-08-29T08:31:05Z</time>
      </trkpt>
      <trkpt lat="43.2781710" lon="-8.4060910">
        <ele>108.4</ele>
        <time>2021-08-29T08:31:09Z</time>
      </trkpt>
      <trkpt lat="43.2781880" lon="-8.4060930">
        <ele>108.6</ele>
        <time>2021-08-29T08:31:12Z</time>
      </trkpt>
      <trkpt lat="43.2781880" lon="-8.4060930">
        <ele>108.6</ele>
        <time>2021-08-29T08:31:13Z</time>
      </trkpt>
      <trkpt lat="43.2782180" lon="-8.4060880">
        <ele>108.8</ele>
        <time>2021-08-29T08:31:18Z</time>
      </trkpt>
      <trkpt lat="43.2782260" lon="-8.4060880">
        <ele>108.9</ele>
        <time>2021-08-29T08:31:19Z</time>
      </trkpt>
      <trkpt lat="43.2782890" lon="-8.4060800">
        <ele>109.4</ele>
        <time>2021-08-29T08:31:24Z</time>
      </trkpt>
      <trkpt lat="43.2783330" lon="-8.4060870">
        <ele>109.8</ele>
        <time>2021-08-29T08:31:26Z</time>
      </trkpt>
      <trkpt lat="43.2783940" lon="-8.4060860">
        <ele>110.3</ele>
        <time>2021-08-29T08:31:29Z</time>
      </trkpt>
      <trkpt lat="43.2784310" lon="-8.4060800">
        <ele>110.6</ele>
        <time>2021-08-29T08:31:31Z</time>
      </trkpt>
      <trkpt lat="43.2784440" lon="-8.4060850">
        <ele>110.7</ele>
        <time>2021-08-29T08:31:33Z</time>
      </trkpt>
      <trkpt lat="43.2784500" lon="-8.4060870">
        <ele>110.7</ele>
        <time>2021-08-29T08:31:34Z</time>
      </trkpt>
      <trkpt lat="43.2785500" lon="-8.4060710">
        <ele>111.5</ele>
        <time>2021-08-29T08:31:40Z</time>
      </trkpt>
      <trkpt lat="43.2785930" lon="-8.4060720">
        <ele>111.9</ele>
        <time>2021-08-29T08:31:42Z</time>
      </trkpt>
      <trkpt lat="43.2786410" lon="-8.4060440">
        <ele>112.3</ele>
        <time>2021-08-29T08:31:44Z</time>
      </trkpt>
      <trkpt lat="43.2786940" lon="-8.4060070">
        <ele>112.8</ele>
        <time>2021-08-29T08:31:47Z</time>
      </trkpt>
      <trkpt lat="43.2787850" lon="-8.4059170">
        <ele>113.7</ele>
        <time>2021-08-29T08:31:52Z</time>
      </trkpt>
      <trkpt lat="43.2788010" lon="-8.4059060">
        <ele>113.9</ele>
        <time>2021-08-29T08:31:53Z</time>
      </trkpt>
      <trkpt lat="43.2788170" lon="-8.4058920">
        <ele>114.0</ele>
        <time>2021-08-29T08:31:54Z</time>
      </trkpt>
      <trkpt lat="43.2788310" lon="-8.4058800">
        <ele>114.2</ele>
        <time>2021-08-29T08:31:55Z</time>
      </trkpt>
      <trkpt lat="43.2788570" lon="-8.4058650">
        <ele>114.4</ele>
        <time>2021-08-29T08:31:58Z</time>
      </trkpt>
      <trkpt lat="43.2789330" lon="-8.4058480">
        <ele>115.2</ele>
        <time>2021-08-29T08:32:04Z</time>
      </trkpt>
      <trkpt lat="43.2789700" lon="-8.4058550">
        <ele>115.7</ele>
        <time>2021-08-29T08:32:06Z</time>
      </trkpt>
      <trkpt lat="43.2790020" lon="-8.4058540">
        <ele>116.0</ele>
        <time>2021-08-29T08:32:08Z</time>
      </trkpt>
      <trkpt lat="43.2790600" lon="-8.4058420">
        <ele>116.8</ele>
        <time>2021-08-29T08:32:12Z</time>
      </trkpt>
      <trkpt lat="43.2791130" lon="-8.4058640">
        <ele>117.6</ele>
        <time>2021-08-29T08:32:18Z</time>
      </trkpt>
      <trkpt lat="43.2791230" lon="-8.4058650">
        <ele>117.7</ele>
        <time>2021-08-29T08:32:21Z</time>
      </trkpt>
      <trkpt lat="43.2791410" lon="-8.4058540">
        <ele>118.0</ele>
        <time>2021-08-29T08:32:26Z</time>
      </trkpt>
      <trkpt lat="43.2791660" lon="-8.4058300">
        <ele>118.5</ele>
        <time>2021-08-29T08:32:28Z</time>
      </trkpt>
      <trkpt lat="43.2792210" lon="-8.4057920">
        <ele>119.5</ele>
        <time>2021-08-29T08:32:31Z</time>
      </trkpt>
      <trkpt lat="43.2792680" lon="-8.4057770">
        <ele>120.2</ele>
        <time>2021-08-29T08:32:34Z</time>
      </trkpt>
      <trkpt lat="43.2792900" lon="-8.4057840">
        <ele>120.6</ele>
        <time>2021-08-29T08:32:36Z</time>
      </trkpt>
      <trkpt lat="43.2793200" lon="-8.4058220">
        <ele>121.3</ele>
        <time>2021-08-29T08:32:40Z</time>
      </trkpt>
      <trkpt lat="43.2793340" lon="-8.4058520">
        <ele>121.7</ele>
        <time>2021-08-29T08:32:44Z</time>
      </trkpt>
      <trkpt lat="43.2793320" lon="-8.4058820">
        <ele>122.0</ele>
        <time>2021-08-29T08:32:46Z</time>
      </trkpt>
      <trkpt lat="43.2793330" lon="-8.4058970">
        <ele>122.2</ele>
        <time>2021-08-29T08:32:47Z</time>
      </trkpt>
      <trkpt lat="43.2793400" lon="-8.4059680">
        <ele>123.1</ele>
        <time>2021-08-29T08:32:51Z</time>
      </trkpt>
      <trkpt lat="43.2793870" lon="-8.4060190">
        <ele>124.2</ele>
        <time>2021-08-29T08:32:54Z</time>
      </trkpt>
      <trkpt lat="43.2794040" lon="-8.4060260">
        <ele>124.5</ele>
        <time>2021-08-29T08:32:55Z</time>
      </trkpt>
      <trkpt lat="43.2794590" lon="-8.4060310">
        <ele>125.6</ele>
        <time>2021-08-29T08:32:59Z</time>
      </trkpt>
      <trkpt lat="43.2794630" lon="-8.4060290">
        <ele>125.6</ele>
        <time>2021-08-29T08:33:03Z</time>
      </trkpt>
      <trkpt lat="43.2794700" lon="-8.4060280">
        <ele>125.8</ele>
        <time>2021-08-29T08:33:10Z</time>
      </trkpt>
      <trkpt lat="43.2794700" lon="-8.4060280">
        <ele>125.8</ele>
        <time>2021-08-29T08:33:11Z</time>
      </trkpt>
      <trkpt lat="43.2794700" lon="-8.4060280">
        <ele>125.8</ele>
        <time>2021-08-29T08:33:20Z</time>
      </trkpt>
      <trkpt lat="43.2794730" lon="-8.4060300">
        <ele>125.8</ele>
        <time>2021-08-29T08:33:30Z</time>
      </trkpt>
      <trkpt lat="43.2794730" lon="-8.4060300">
        <ele>125.8</ele>
        <time>2021-08-29T08:33:31Z</time>
      </trkpt>
      <trkpt lat="43.2794730" lon="-8.4060280">
        <ele>125.9</ele>
        <time>2021-08-29T08:33:39Z</time>
      </trkpt>
      <trkpt lat="43.2794730" lon="-8.4060240">
        <ele>125.9</ele>
        <time>2021-08-29T08:33:41Z</time>
      </trkpt>
      <trkpt lat="43.2794740" lon="-8.4060230">
        <ele>126.0</ele>
        <time>2021-08-29T08:33:44Z</time>
      </trkpt>
      <trkpt lat="43.2794790" lon="-8.4060230">
        <ele>126.1</ele>
        <time>2021-08-29T08:33:47Z</time>
      </trkpt>
      <trkpt lat="43.2795000" lon="-8.4060240">
        <ele>126.5</ele>
        <time>2021-08-29T08:33:49Z</time>
      </trkpt>
      <trkpt lat="43.2795380" lon="-8.4060270">
        <ele>127.2</ele>
        <time>2021-08-29T08:33:51Z</time>
      </trkpt>
      <trkpt lat="43.2795640" lon="-8.4060360">
        <ele>127.7</ele>
        <time>2021-08-29T08:33:53Z</time>
      </trkpt>
      <trkpt lat="43.2796120" lon="-8.4060950">
        <ele>128.9</ele>
        <time>2021-08-29T08:33:57Z</time>
      </trkpt>
      <trkpt lat="43.2796370" lon="-8.4061400">
        <ele>129.6</ele>
        <time>2021-08-29T08:34:00Z</time>
      </trkpt>
      <trkpt lat="43.2796460" lon="-8.4061990">
        <ele>130.3</ele>
        <time>2021-08-29T08:34:04Z</time>
      </trkpt>
      <trkpt lat="43.2796370" lon="-8.4062350">
        <ele>130.7</ele>
        <time>2021-08-29T08:34:08Z</time>
      </trkpt>
      <trkpt lat="43.2796400" lon="-8.4062360">
        <ele>130.8</ele>
        <time>2021-08-29T08:34:11Z</time>
      </trkpt>
      <trkpt lat="43.2796570" lon="-8.4062820">
        <ele>131.4</ele>
        <time>2021-08-29T08:34:16Z</time>
      </trkpt>
      <trkpt lat="43.2796530" lon="-8.4062910">
        <ele>131.5</ele>
        <time>2021-08-29T08:34:17Z</time>
      </trkpt>
      <trkpt lat="43.2796700" lon="-8.4063130">
        <ele>131.8</ele>
        <time>2021-08-29T08:34:21Z</time>
      </trkpt>
      <trkpt lat="43.2796700" lon="-8.4063130">
        <ele>131.8</ele>
        <time>2021-08-29T08:34:23Z</time>
      </trkpt>
      <trkpt lat="43.2796700" lon="-8.4063130">
        <ele>131.8</ele>
        <time>2021-08-29T08:34:27Z</time>
      </trkpt>
      <trkpt lat="43.2796700" lon="-8.4063130">
        <ele>131.8</ele>
        <time>2021-08-29T08:34:31Z</time>
      </trkpt>
      <trkpt lat="43.2796700" lon="-8.4063140">
        <ele>131.8</ele>
        <time>2021-08-29T08:34:36Z</time>
      </trkpt>
      <trkpt lat="43.2796700" lon="-8.4063140">
        <ele>131.8</ele>
        <time>2021-08-29T08:34:39Z</time>
      </trkpt>
      <trkpt lat="43.2796710" lon="-8.4063150">
        <ele>131.9</ele>
        <time>2021-08-29T08:34:40Z</time>
      </trkpt>
      <trkpt lat="43.2796830" lon="-8.4063330">
        <ele>132.1</ele>
        <time>2021-08-29T08:34:42Z</time>
      </trkpt>
      <trkpt lat="43.2797050" lon="-8.4063740">
        <ele>132.6</ele>
        <time>2021-08-29T08:34:45Z</time>
      </trkpt>
      <trkpt lat="43.2797500" lon="-8.4063950">
        <ele>133.2</ele>
        <time>2021-08-29T08:34:49Z</time>
      </trkpt>
      <trkpt lat="43.2798120" lon="-8.4064440">
        <ele>133.9</ele>
        <time>2021-08-29T08:34:55Z</time>
      </trkpt>
      <trkpt lat="43.2798250" lon="-8.4064480">
        <ele>134.0</ele>
        <time>2021-08-29T08:34:56Z</time>
      </trkpt>
      <trkpt lat="43.2798540" lon="-8.4064250">
        <ele>134.2</ele>
        <time>2021-08-29T08:34:58Z</time>
      </trkpt>
      <trkpt lat="43.2798890" lon="-8.4063920">
        <ele>134.4</ele>
        <time>2021-08-29T08:35:01Z</time>
      </trkpt>
      <trkpt lat="43.2800070" lon="-8.4064130">
        <ele>134.9</ele>
        <time>2021-08-29T08:35:07Z</time>
      </trkpt>
      <trkpt lat="43.2801230" lon="-8.4064960">
        <ele>135.3</ele>
        <time>2021-08-29T08:35:14Z</time>
      </trkpt>
      <trkpt lat="43.2803450" lon="-8.4065950">
        <ele>136.6</ele>
        <time>2021-08-29T08:35:25Z</time>
      </trkpt>
      <trkpt lat="43.2804800" lon="-8.4066280">
        <ele>137.6</ele>
        <time>2021-08-29T08:35:32Z</time>
      </trkpt>
      <trkpt lat="43.2805520" lon="-8.4066500">
        <ele>138.1</ele>
        <time>2021-08-29T08:35:36Z</time>
      </trkpt>
      <trkpt lat="43.2806500" lon="-8.4066790">
        <ele>138.8</ele>
        <time>2021-08-29T08:35:41Z</time>
      </trkpt>
      <trkpt lat="43.2807990" lon="-8.4067450">
        <ele>139.7</ele>
        <time>2021-08-29T08:35:48Z</time>
      </trkpt>
      <trkpt lat="43.2808450" lon="-8.4067640">
        <ele>140.0</ele>
        <time>2021-08-29T08:35:50Z</time>
      </trkpt>
      <trkpt lat="43.2809430" lon="-8.4068010">
        <ele>140.6</ele>
        <time>2021-08-29T08:35:55Z</time>
      </trkpt>
      <trkpt lat="43.2809830" lon="-8.4068180">
        <ele>140.9</ele>
        <time>2021-08-29T08:35:57Z</time>
      </trkpt>
      <trkpt lat="43.2810000" lon="-8.4068290">
        <ele>141.0</ele>
        <time>2021-08-29T08:35:58Z</time>
      </trkpt>
      <trkpt lat="43.2810350" lon="-8.4068360">
        <ele>141.1</ele>
        <time>2021-08-29T08:36:00Z</time>
      </trkpt>
      <trkpt lat="43.2810540" lon="-8.4068380">
        <ele>141.2</ele>
        <time>2021-08-29T08:36:01Z</time>
      </trkpt>
      <trkpt lat="43.2810920" lon="-8.4068290">
        <ele>141.4</ele>
        <time>2021-08-29T08:36:03Z</time>
      </trkpt>
      <trkpt lat="43.2811040" lon="-8.4068120">
        <ele>141.3</ele>
        <time>2021-08-29T08:36:04Z</time>
      </trkpt>
      <trkpt lat="43.2811360" lon="-8.4066540">
        <ele>140.7</ele>
        <time>2021-08-29T08:36:10Z</time>
      </trkpt>
      <trkpt lat="43.2811570" lon="-8.4065790">
        <ele>140.5</ele>
        <time>2021-08-29T08:36:12Z</time>
      </trkpt>
      <trkpt lat="43.2811720" lon="-8.4064300">
        <ele>140.0</ele>
        <time>2021-08-29T08:36:15Z</time>
      </trkpt>
      <trkpt lat="43.2812050" lon="-8.4062190">
        <ele>139.4</ele>
        <time>2021-08-29T08:36:19Z</time>
      </trkpt>
      <trkpt lat="43.2812440" lon="-8.4061090">
        <ele>139.0</ele>
        <time>2021-08-29T08:36:21Z</time>
      </trkpt>
      <trkpt lat="43.2812840" lon="-8.4058380">
        <ele>138.2</ele>
        <time>2021-08-29T08:36:25Z</time>
      </trkpt>
      <trkpt lat="43.2812930" lon="-8.4057660">
        <ele>138.0</ele>
        <time>2021-08-29T08:36:26Z</time>
      </trkpt>
      <trkpt lat="43.2813340" lon="-8.4053000">
        <ele>137.0</ele>
        <time>2021-08-29T08:36:32Z</time>
      </trkpt>
      <trkpt lat="43.2813680" lon="-8.4049700">
        <ele>136.5</ele>
        <time>2021-08-29T08:36:36Z</time>
      </trkpt>
      <trkpt lat="43.2813910" lon="-8.4048180">
        <ele>136.4</ele>
        <time>2021-08-29T08:36:38Z</time>
      </trkpt>
      <trkpt lat="43.2814160" lon="-8.4047510">
        <ele>136.3</ele>
        <time>2021-08-29T08:36:39Z</time>
      </trkpt>
      <trkpt lat="43.2814530" lon="-8.4046930">
        <ele>136.4</ele>
        <time>2021-08-29T08:36:40Z</time>
      </trkpt>
      <trkpt lat="43.2815420" lon="-8.4046120">
        <ele>136.5</ele>
        <time>2021-08-29T08:36:42Z</time>
      </trkpt>
      <trkpt lat="43.2817300" lon="-8.4044910">
        <ele>136.9</ele>
        <time>2021-08-29T08:36:46Z</time>
      </trkpt>
      <trkpt lat="43.2817760" lon="-8.4044790">
        <ele>137.0</ele>
        <time>2021-08-29T08:36:47Z</time>
      </trkpt>
      <trkpt lat="43.2818170" lon="-8.4044840">
        <ele>137.1</ele>
        <time>2021-08-29T08:36:48Z</time>
      </trkpt>
      <trkpt lat="43.2818780" lon="-8.4045240">
        <ele>137.1</ele>
        <time>2021-08-29T08:36:50Z</time>
      </trkpt>
      <trkpt lat="43.2819390" lon="-8.4047330">
        <ele>137.4</ele>
        <time>2021-08-29T08:36:54Z</time>
      </trkpt>
      <trkpt lat="43.2819980" lon="-8.4051910">
        <ele>138.4</ele>
        <time>2021-08-29T08:37:03Z</time>
      </trkpt>
      <trkpt lat="43.2820290" lon="-8.4053530">
        <ele>139.3</ele>
        <time>2021-08-29T08:37:09Z</time>
      </trkpt>
      <trkpt lat="43.2820330" lon="-8.4053420">
        <ele>139.3</ele>
        <time>2021-08-29T08:37:14Z</time>
      </trkpt>
      <trkpt lat="43.2820300" lon="-8.4053250">
        <ele>139.4</ele>
        <time>2021-08-29T08:37:15Z</time>
      </trkpt>
      <trkpt lat="43.2820090" lon="-8.4052560">
        <ele>139.9</ele>
        <time>2021-08-29T08:37:18Z</time>
      </trkpt>
      <trkpt lat="43.2820110" lon="-8.4052420">
        <ele>139.9</ele>
        <time>2021-08-29T08:37:19Z</time>
      </trkpt>
      <trkpt lat="43.2820310" lon="-8.4052670">
        <ele>140.2</ele>
        <time>2021-08-29T08:37:22Z</time>
      </trkpt>
      <trkpt lat="43.2820370" lon="-8.4052980">
        <ele>140.3</ele>
        <time>2021-08-29T08:37:23Z</time>
      </trkpt>
      <trkpt lat="43.2820370" lon="-8.4053560">
        <ele>140.7</ele>
        <time>2021-08-29T08:37:25Z</time>
      </trkpt>
      <trkpt lat="43.2820560" lon="-8.4054230">
        <ele>141.0</ele>
        <time>2021-08-29T08:37:28Z</time>
      </trkpt>
      <trkpt lat="43.2820900" lon="-8.4055720">
        <ele>141.7</ele>
        <time>2021-08-29T08:37:34Z</time>
      </trkpt>
      <trkpt lat="43.2820970" lon="-8.4056140">
        <ele>141.9</ele>
        <time>2021-08-29T08:37:36Z</time>
      </trkpt>
      <trkpt lat="43.2820990" lon="-8.4056480">
        <ele>142.0</ele>
        <time>2021-08-29T08:37:38Z</time>
      </trkpt>
      <trkpt lat="43.2821160" lon="-8.4056990">
        <ele>142.2</ele>
        <time>2021-08-29T08:37:40Z</time>
      </trkpt>
      <trkpt lat="43.2821170" lon="-8.4058930">
        <ele>142.9</ele>
        <time>2021-08-29T08:37:46Z</time>
      </trkpt>
      <trkpt lat="43.2821260" lon="-8.4059870">
        <ele>143.2</ele>
        <time>2021-08-29T08:37:49Z</time>
      </trkpt>
      <trkpt lat="43.2821920" lon="-8.4061740">
        <ele>144.0</ele>
        <time>2021-08-29T08:37:55Z</time>
      </trkpt>
      <trkpt lat="43.2821620" lon="-8.4063040">
        <ele>144.6</ele>
        <time>2021-08-29T08:38:00Z</time>
      </trkpt>
      <trkpt lat="43.2822030" lon="-8.4064580">
        <ele>145.5</ele>
        <time>2021-08-29T08:38:05Z</time>
      </trkpt>
      <trkpt lat="43.2822780" lon="-8.4066270">
        <ele>146.7</ele>
        <time>2021-08-29T08:38:12Z</time>
      </trkpt>
      <trkpt lat="43.2823160" lon="-8.4067890">
        <ele>147.7</ele>
        <time>2021-08-29T08:38:19Z</time>
      </trkpt>
      <trkpt lat="43.2823260" lon="-8.4068100">
        <ele>147.8</ele>
        <time>2021-08-29T08:38:20Z</time>
      </trkpt>
      <trkpt lat="43.2824020" lon="-8.4070210">
        <ele>149.0</ele>
        <time>2021-08-29T08:38:29Z</time>
      </trkpt>
      <trkpt lat="43.2824290" lon="-8.4072390">
        <ele>150.0</ele>
        <time>2021-08-29T08:38:36Z</time>
      </trkpt>
      <trkpt lat="43.2824490" lon="-8.4073200">
        <ele>150.4</ele>
        <time>2021-08-29T08:38:39Z</time>
      </trkpt>
      <trkpt lat="43.2824690" lon="-8.4074010">
        <ele>150.7</ele>
        <time>2021-08-29T08:38:42Z</time>
      </trkpt>
      <trkpt lat="43.2825840" lon="-8.4076090">
        <ele>151.4</ele>
        <time>2021-08-29T08:38:51Z</time>
      </trkpt>
      <trkpt lat="43.2825970" lon="-8.4076330">
        <ele>151.5</ele>
        <time>2021-08-29T08:38:52Z</time>
      </trkpt>
      <trkpt lat="43.2826390" lon="-8.4077140">
        <ele>151.7</ele>
        <time>2021-08-29T08:38:55Z</time>
      </trkpt>
      <trkpt lat="43.2827360" lon="-8.4078370">
        <ele>151.9</ele>
        <time>2021-08-29T08:39:00Z</time>
      </trkpt>
      <trkpt lat="43.2828060" lon="-8.4079920">
        <ele>152.1</ele>
        <time>2021-08-29T08:39:05Z</time>
      </trkpt>
      <trkpt lat="43.2828390" lon="-8.4080890">
        <ele>152.2</ele>
        <time>2021-08-29T08:39:08Z</time>
      </trkpt>
      <trkpt lat="43.2828630" lon="-8.4081570">
        <ele>152.3</ele>
        <time>2021-08-29T08:39:10Z</time>
      </trkpt>
      <trkpt lat="43.2829380" lon="-8.4083800">
        <ele>152.6</ele>
        <time>2021-08-29T08:39:17Z</time>
      </trkpt>
      <trkpt lat="43.2829850" lon="-8.4085390">
        <ele>152.9</ele>
        <time>2021-08-29T08:39:23Z</time>
      </trkpt>
      <trkpt lat="43.2830350" lon="-8.4087410">
        <ele>153.4</ele>
        <time>2021-08-29T08:39:30Z</time>
      </trkpt>
      <trkpt lat="43.2831000" lon="-8.4089870">
        <ele>154.1</ele>
        <time>2021-08-29T08:39:38Z</time>
      </trkpt>
      <trkpt lat="43.2831330" lon="-8.4091170">
        <ele>154.4</ele>
        <time>2021-08-29T08:39:42Z</time>
      </trkpt>
      <trkpt lat="43.2831670" lon="-8.4092380">
        <ele>154.7</ele>
        <time>2021-08-29T08:39:46Z</time>
      </trkpt>
      <trkpt lat="43.2832450" lon="-8.4094940">
        <ele>155.1</ele>
        <time>2021-08-29T08:39:54Z</time>
      </trkpt>
      <trkpt lat="43.2833130" lon="-8.4097110">
        <ele>155.4</ele>
        <time>2021-08-29T08:40:01Z</time>
      </trkpt>
      <trkpt lat="43.2833720" lon="-8.4099320">
        <ele>155.9</ele>
        <time>2021-08-29T08:40:08Z</time>
      </trkpt>
      <trkpt lat="43.2833690" lon="-8.4101200">
        <ele>156.6</ele>
        <time>2021-08-29T08:40:14Z</time>
      </trkpt>
      <trkpt lat="43.2833420" lon="-8.4102570">
        <ele>157.1</ele>
        <time>2021-08-29T08:40:19Z</time>
      </trkpt>
      <trkpt lat="43.2833320" lon="-8.4102810">
        <ele>157.2</ele>
        <time>2021-08-29T08:40:20Z</time>
      </trkpt>
      <trkpt lat="43.2832920" lon="-8.4104650">
        <ele>158.3</ele>
        <time>2021-08-29T08:40:27Z</time>
      </trkpt>
      <trkpt lat="43.2832890" lon="-8.4105590">
        <ele>159.0</ele>
        <time>2021-08-29T08:40:31Z</time>
      </trkpt>
      <trkpt lat="43.2832950" lon="-8.4105930">
        <ele>159.3</ele>
        <time>2021-08-29T08:40:33Z</time>
      </trkpt>
      <trkpt lat="43.2832930" lon="-8.4106980">
        <ele>160.7</ele>
        <time>2021-08-29T08:40:39Z</time>
      </trkpt>
      <trkpt lat="43.2833040" lon="-8.4107070">
        <ele>160.7</ele>
        <time>2021-08-29T08:40:40Z</time>
      </trkpt>
      <trkpt lat="43.2833310" lon="-8.4106720">
        <ele>160.9</ele>
        <time>2021-08-29T08:40:43Z</time>
      </trkpt>
      <trkpt lat="43.2834490" lon="-8.4105770">
        <ele>161.4</ele>
        <time>2021-08-29T08:40:51Z</time>
      </trkpt>
      <trkpt lat="43.2835500" lon="-8.4104840">
        <ele>161.7</ele>
        <time>2021-08-29T08:40:58Z</time>
      </trkpt>
      <trkpt lat="43.2836810" lon="-8.4103820">
        <ele>162.0</ele>
        <time>2021-08-29T08:41:04Z</time>
      </trkpt>
      <trkpt lat="43.2837400" lon="-8.4103250">
        <ele>162.1</ele>
        <time>2021-08-29T08:41:06Z</time>
      </trkpt>
      <trkpt lat="43.2838170" lon="-8.4102670">
        <ele>162.4</ele>
        <time>2021-08-29T08:41:09Z</time>
      </trkpt>
      <trkpt lat="43.2838600" lon="-8.4102660">
        <ele>162.5</ele>
        <time>2021-08-29T08:41:11Z</time>
      </trkpt>
      <trkpt lat="43.2840570" lon="-8.4103430">
        <ele>163.4</ele>
        <time>2021-08-29T08:41:19Z</time>
      </trkpt>
      <trkpt lat="43.2842880" lon="-8.4103820">
        <ele>163.7</ele>
        <time>2021-08-29T08:41:28Z</time>
      </trkpt>
      <trkpt lat="43.2844550" lon="-8.4103580">
        <ele>163.2</ele>
        <time>2021-08-29T08:41:33Z</time>
      </trkpt>
      <trkpt lat="43.2845700" lon="-8.4104150">
        <ele>163.0</ele>
        <time>2021-08-29T08:41:36Z</time>
      </trkpt>
      <trkpt lat="43.2846450" lon="-8.4104840">
        <ele>162.9</ele>
        <time>2021-08-29T08:41:38Z</time>
      </trkpt>
      <trkpt lat="43.2847270" lon="-8.4105500">
        <ele>163.0</ele>
        <time>2021-08-29T08:41:40Z</time>
      </trkpt>
      <trkpt lat="43.2848220" lon="-8.4106040">
        <ele>163.2</ele>
        <time>2021-08-29T08:41:43Z</time>
      </trkpt>
      <trkpt lat="43.2849260" lon="-8.4106470">
        <ele>163.5</ele>
        <time>2021-08-29T08:41:48Z</time>
      </trkpt>
      <trkpt lat="43.2850140" lon="-8.4106280">
        <ele>163.6</ele>
        <time>2021-08-29T08:41:52Z</time>
      </trkpt>
      <trkpt lat="43.2850380" lon="-8.4105810">
        <ele>163.6</ele>
        <time>2021-08-29T08:41:54Z</time>
      </trkpt>
      <trkpt lat="43.2850630" lon="-8.4104220">
        <ele>163.4</ele>
        <time>2021-08-29T08:41:58Z</time>
      </trkpt>
      <trkpt lat="43.2850840" lon="-8.4101930">
        <ele>162.7</ele>
        <time>2021-08-29T08:42:03Z</time>
      </trkpt>
      <trkpt lat="43.2851940" lon="-8.4099220">
        <ele>161.9</ele>
        <time>2021-08-29T08:42:08Z</time>
      </trkpt>
      <trkpt lat="43.2852610" lon="-8.4098230">
        <ele>161.6</ele>
        <time>2021-08-29T08:42:10Z</time>
      </trkpt>
      <trkpt lat="43.2853350" lon="-8.4097350">
        <ele>161.4</ele>
        <time>2021-08-29T08:42:12Z</time>
      </trkpt>
      <trkpt lat="43.2853740" lon="-8.4096920">
        <ele>161.3</ele>
        <time>2021-08-29T08:42:13Z</time>
      </trkpt>
      <trkpt lat="43.2854470" lon="-8.4095890">
        <ele>161.0</ele>
        <time>2021-08-29T08:42:15Z</time>
      </trkpt>
      <trkpt lat="43.2855140" lon="-8.4094910">
        <ele>160.7</ele>
        <time>2021-08-29T08:42:17Z</time>
      </trkpt>
      <trkpt lat="43.2856470" lon="-8.4093230">
        <ele>160.2</ele>
        <time>2021-08-29T08:42:21Z</time>
      </trkpt>
      <trkpt lat="43.2857100" lon="-8.4092520">
        <ele>160.1</ele>
        <time>2021-08-29T08:42:23Z</time>
      </trkpt>
      <trkpt lat="43.2857770" lon="-8.4091860">
        <ele>159.9</ele>
        <time>2021-08-29T08:42:25Z</time>
      </trkpt>
      <trkpt lat="43.2858870" lon="-8.4090300">
        <ele>159.7</ele>
        <time>2021-08-29T08:42:29Z</time>
      </trkpt>
      <trkpt lat="43.2859550" lon="-8.4089200">
        <ele>159.7</ele>
        <time>2021-08-29T08:42:32Z</time>
      </trkpt>
      <trkpt lat="43.2859740" lon="-8.4088870">
        <ele>159.7</ele>
        <time>2021-08-29T08:42:33Z</time>
      </trkpt>
      <trkpt lat="43.2860880" lon="-8.4087570">
        <ele>159.7</ele>
        <time>2021-08-29T08:42:38Z</time>
      </trkpt>
      <trkpt lat="43.2862330" lon="-8.4086500">
        <ele>159.9</ele>
        <time>2021-08-29T08:42:44Z</time>
      </trkpt>
      <trkpt lat="43.2864290" lon="-8.4085020">
        <ele>160.4</ele>
        <time>2021-08-29T08:42:51Z</time>
      </trkpt>
      <trkpt lat="43.2865250" lon="-8.4083980">
        <ele>160.9</ele>
        <time>2021-08-29T08:42:54Z</time>
      </trkpt>
      <trkpt lat="43.2865460" lon="-8.4083590">
        <ele>161.0</ele>
        <time>2021-08-29T08:42:55Z</time>
      </trkpt>
      <trkpt lat="43.2865690" lon="-8.4083290">
        <ele>161.2</ele>
        <time>2021-08-29T08:42:56Z</time>
      </trkpt>
      <trkpt lat="43.2866150" lon="-8.4081960">
        <ele>161.7</ele>
        <time>2021-08-29T08:43:00Z</time>
      </trkpt>
      <trkpt lat="43.2867050" lon="-8.4080380">
        <ele>162.5</ele>
        <time>2021-08-29T08:43:06Z</time>
      </trkpt>
      <trkpt lat="43.2867150" lon="-8.4080320">
        <ele>162.6</ele>
        <time>2021-08-29T08:43:08Z</time>
      </trkpt>
      <trkpt lat="43.2867610" lon="-8.4080310">
        <ele>162.8</ele>
        <time>2021-08-29T08:43:10Z</time>
      </trkpt>
      <trkpt lat="43.2868310" lon="-8.4080100">
        <ele>163.0</ele>
        <time>2021-08-29T08:43:12Z</time>
      </trkpt>
      <trkpt lat="43.2868810" lon="-8.4079610">
        <ele>163.2</ele>
        <time>2021-08-29T08:43:14Z</time>
      </trkpt>
      <trkpt lat="43.2870090" lon="-8.4077880">
        <ele>163.2</ele>
        <time>2021-08-29T08:43:19Z</time>
      </trkpt>
      <trkpt lat="43.2870730" lon="-8.4076740">
        <ele>162.9</ele>
        <time>2021-08-29T08:43:22Z</time>
      </trkpt>
      <trkpt lat="43.2870910" lon="-8.4076400">
        <ele>162.9</ele>
        <time>2021-08-29T08:43:23Z</time>
      </trkpt>
      <trkpt lat="43.2872110" lon="-8.4074680">
        <ele>162.4</ele>
        <time>2021-08-29T08:43:28Z</time>
      </trkpt>
      <trkpt lat="43.2872930" lon="-8.4072760">
        <ele>162.3</ele>
        <time>2021-08-29T08:43:33Z</time>
      </trkpt>
      <trkpt lat="43.2873150" lon="-8.4072540">
        <ele>162.3</ele>
        <time>2021-08-29T08:43:36Z</time>
      </trkpt>
      <trkpt lat="43.2873150" lon="-8.4072540">
        <ele>162.3</ele>
        <time>2021-08-29T08:43:37Z</time>
      </trkpt>
      <trkpt lat="43.2873360" lon="-8.4072650">
        <ele>162.4</ele>
        <time>2021-08-29T08:43:41Z</time>
      </trkpt>
      <trkpt lat="43.2873880" lon="-8.4073020">
        <ele>163.3</ele>
        <time>2021-08-29T08:43:45Z</time>
      </trkpt>
      <trkpt lat="43.2874490" lon="-8.4073760">
        <ele>164.4</ele>
        <time>2021-08-29T08:43:52Z</time>
      </trkpt>
      <trkpt lat="43.2874700" lon="-8.4073830">
        <ele>164.7</ele>
        <time>2021-08-29T08:43:53Z</time>
      </trkpt>
      <trkpt lat="43.2875070" lon="-8.4073780">
        <ele>165.1</ele>
        <time>2021-08-29T08:43:55Z</time>
      </trkpt>
      <trkpt lat="43.2875230" lon="-8.4073510">
        <ele>165.5</ele>
        <time>2021-08-29T08:43:57Z</time>
      </trkpt>
      <trkpt lat="43.2875400" lon="-8.4073420">
        <ele>165.7</ele>
        <time>2021-08-29T08:43:58Z</time>
      </trkpt>
      <trkpt lat="43.2876300" lon="-8.4073090">
        <ele>166.8</ele>
        <time>2021-08-29T08:44:03Z</time>
      </trkpt>
      <trkpt lat="43.2877490" lon="-8.4072620">
        <ele>168.2</ele>
        <time>2021-08-29T08:44:11Z</time>
      </trkpt>
      <trkpt lat="43.2877830" lon="-8.4072440">
        <ele>168.6</ele>
        <time>2021-08-29T08:44:14Z</time>
      </trkpt>
      <trkpt lat="43.2877950" lon="-8.4072380">
        <ele>168.7</ele>
        <time>2021-08-29T08:44:15Z</time>
      </trkpt>
      <trkpt lat="43.2878200" lon="-8.4072190">
        <ele>169.1</ele>
        <time>2021-08-29T08:44:17Z</time>
      </trkpt>
      <trkpt lat="43.2878370" lon="-8.4071960">
        <ele>169.3</ele>
        <time>2021-08-29T08:44:19Z</time>
      </trkpt>
      <trkpt lat="43.2878570" lon="-8.4071660">
        <ele>169.7</ele>
        <time>2021-08-29T08:44:22Z</time>
      </trkpt>
      <trkpt lat="43.2878800" lon="-8.4071600">
        <ele>170.0</ele>
        <time>2021-08-29T08:44:24Z</time>
      </trkpt>
      <trkpt lat="43.2878940" lon="-8.4071500">
        <ele>170.2</ele>
        <time>2021-08-29T08:44:25Z</time>
      </trkpt>
      <trkpt lat="43.2879110" lon="-8.4071300">
        <ele>170.4</ele>
        <time>2021-08-29T08:44:27Z</time>
      </trkpt>
      <trkpt lat="43.2879280" lon="-8.4070970">
        <ele>170.8</ele>
        <time>2021-08-29T08:44:29Z</time>
      </trkpt>
      <trkpt lat="43.2879430" lon="-8.4070390">
        <ele>171.3</ele>
        <time>2021-08-29T08:44:32Z</time>
      </trkpt>
      <trkpt lat="43.2879620" lon="-8.4070130">
        <ele>171.6</ele>
        <time>2021-08-29T08:44:34Z</time>
      </trkpt>
      <trkpt lat="43.2879850" lon="-8.4069670">
        <ele>172.1</ele>
        <time>2021-08-29T08:44:37Z</time>
      </trkpt>
      <trkpt lat="43.2879880" lon="-8.4069630">
        <ele>172.1</ele>
        <time>2021-08-29T08:44:38Z</time>
      </trkpt>
      <trkpt lat="43.2880060" lon="-8.4069010">
        <ele>172.7</ele>
        <time>2021-08-29T08:44:42Z</time>
      </trkpt>
      <trkpt lat="43.2880150" lon="-8.4068920">
        <ele>172.8</ele>
        <time>2021-08-29T08:44:43Z</time>
      </trkpt>
      <trkpt lat="43.2881150" lon="-8.4068200">
        <ele>173.9</ele>
        <time>2021-08-29T08:44:51Z</time>
      </trkpt>
      <trkpt lat="43.2881420" lon="-8.4067880">
        <ele>174.3</ele>
        <time>2021-08-29T08:44:54Z</time>
      </trkpt>
      <trkpt lat="43.2881990" lon="-8.4067510">
        <ele>174.9</ele>
        <time>2021-08-29T08:44:58Z</time>
      </trkpt>
      <trkpt lat="43.2882960" lon="-8.4067080">
        <ele>175.8</ele>
        <time>2021-08-29T08:45:04Z</time>
      </trkpt>
      <trkpt lat="43.2884020" lon="-8.4066730">
        <ele>176.8</ele>
        <time>2021-08-29T08:45:11Z</time>
      </trkpt>
      <trkpt lat="43.2884270" lon="-8.4066790">
        <ele>177.0</ele>
        <time>2021-08-29T08:45:13Z</time>
      </trkpt>
      <trkpt lat="43.2884610" lon="-8.4066800">
        <ele>177.4</ele>
        <time>2021-08-29T08:45:16Z</time>
      </trkpt>
      <trkpt lat="43.2885360" lon="-8.4066470">
        <ele>178.2</ele>
        <time>2021-08-29T08:45:23Z</time>
      </trkpt>
      <trkpt lat="43.2885470" lon="-8.4066370">
        <ele>178.3</ele>
        <time>2021-08-29T08:45:24Z</time>
      </trkpt>
      <trkpt lat="43.2886670" lon="-8.4066340">
        <ele>179.6</ele>
        <time>2021-08-29T08:45:32Z</time>
      </trkpt>
      <trkpt lat="43.2887040" lon="-8.4066470">
        <ele>180.0</ele>
        <time>2021-08-29T08:45:35Z</time>
      </trkpt>
      <trkpt lat="43.2887470" lon="-8.4066690">
        <ele>180.4</ele>
        <time>2021-08-29T08:45:38Z</time>
      </trkpt>
      <trkpt lat="43.2888010" lon="-8.4066940">
        <ele>181.0</ele>
        <time>2021-08-29T08:45:43Z</time>
      </trkpt>
      <trkpt lat="43.2888120" lon="-8.4066960">
        <ele>181.1</ele>
        <time>2021-08-29T08:45:44Z</time>
      </trkpt>
      <trkpt lat="43.2888250" lon="-8.4067020">
        <ele>181.3</ele>
        <time>2021-08-29T08:45:47Z</time>
      </trkpt>
      <trkpt lat="43.2888060" lon="-8.4067250">
        <ele>181.5</ele>
        <time>2021-08-29T08:45:51Z</time>
      </trkpt>
      <trkpt lat="43.2887940" lon="-8.4067350">
        <ele>181.6</ele>
        <time>2021-08-29T08:45:52Z</time>
      </trkpt>
      <trkpt lat="43.2887800" lon="-8.4067630">
        <ele>181.9</ele>
        <time>2021-08-29T08:45:54Z</time>
      </trkpt>
      <trkpt lat="43.2887900" lon="-8.4067780">
        <ele>182.0</ele>
        <time>2021-08-29T08:45:56Z</time>
      </trkpt>
      <trkpt lat="43.2888060" lon="-8.4067610">
        <ele>182.2</ele>
        <time>2021-08-29T08:46:00Z</time>
      </trkpt>
      <trkpt lat="43.2888660" lon="-8.4066510">
        <ele>182.4</ele>
        <time>2021-08-29T08:46:05Z</time>
      </trkpt>
      <trkpt lat="43.2889210" lon="-8.4065680">
        <ele>182.4</ele>
        <time>2021-08-29T08:46:08Z</time>
      </trkpt>
      <trkpt lat="43.2890600" lon="-8.4064260">
        <ele>182.5</ele>
        <time>2021-08-29T08:46:15Z</time>
      </trkpt>
      <trkpt lat="43.2892140" lon="-8.4064510">
        <ele>182.4</ele>
        <time>2021-08-29T08:46:21Z</time>
      </trkpt>
      <trkpt lat="43.2893080" lon="-8.4065220">
        <ele>182.1</ele>
        <time>2021-08-29T08:46:25Z</time>
      </trkpt>
      <trkpt lat="43.2893590" lon="-8.4065140">
        <ele>181.8</ele>
        <time>2021-08-29T08:46:27Z</time>
      </trkpt>
      <trkpt lat="43.2893910" lon="-8.4064940">
        <ele>181.6</ele>
        <time>2021-08-29T08:46:28Z</time>
      </trkpt>
      <trkpt lat="43.2894600" lon="-8.4064250">
        <ele>181.1</ele>
        <time>2021-08-29T08:46:30Z</time>
      </trkpt>
      <trkpt lat="43.2894930" lon="-8.4063870">
        <ele>180.8</ele>
        <time>2021-08-29T08:46:31Z</time>
      </trkpt>
      <trkpt lat="43.2895600" lon="-8.4062990">
        <ele>180.2</ele>
        <time>2021-08-29T08:46:33Z</time>
      </trkpt>
      <trkpt lat="43.2896380" lon="-8.4061970">
        <ele>179.6</ele>
        <time>2021-08-29T08:46:35Z</time>
      </trkpt>
      <trkpt lat="43.2897230" lon="-8.4061160">
        <ele>179.0</ele>
        <time>2021-08-29T08:46:37Z</time>
      </trkpt>
      <trkpt lat="43.2898050" lon="-8.4060370">
        <ele>178.4</ele>
        <time>2021-08-29T08:46:39Z</time>
      </trkpt>
      <trkpt lat="43.2898610" lon="-8.4059290">
        <ele>177.8</ele>
        <time>2021-08-29T08:46:41Z</time>
      </trkpt>
      <trkpt lat="43.2898850" lon="-8.4058680">
        <ele>177.4</ele>
        <time>2021-08-29T08:46:42Z</time>
      </trkpt>
      <trkpt lat="43.2899280" lon="-8.4057420">
        <ele>176.8</ele>
        <time>2021-08-29T08:46:44Z</time>
      </trkpt>
      <trkpt lat="43.2899870" lon="-8.4056370">
        <ele>176.0</ele>
        <time>2021-08-29T08:46:46Z</time>
      </trkpt>
      <trkpt lat="43.2900170" lon="-8.4055970">
        <ele>175.7</ele>
        <time>2021-08-29T08:46:47Z</time>
      </trkpt>
      <trkpt lat="43.2902120" lon="-8.4054740">
        <ele>173.9</ele>
        <time>2021-08-29T08:46:52Z</time>
      </trkpt>
      <trkpt lat="43.2904350" lon="-8.4052780">
        <ele>172.4</ele>
        <time>2021-08-29T08:46:57Z</time>
      </trkpt>
      <trkpt lat="43.2904940" lon="-8.4051900">
        <ele>172.1</ele>
        <time>2021-08-29T08:46:59Z</time>
      </trkpt>
      <trkpt lat="43.2905700" lon="-8.4051300">
        <ele>171.8</ele>
        <time>2021-08-29T08:47:01Z</time>
      </trkpt>
      <trkpt lat="43.2906480" lon="-8.4050820">
        <ele>171.6</ele>
        <time>2021-08-29T08:47:03Z</time>
      </trkpt>
      <trkpt lat="43.2907160" lon="-8.4050030">
        <ele>171.5</ele>
        <time>2021-08-29T08:47:05Z</time>
      </trkpt>
      <trkpt lat="43.2907420" lon="-8.4049570">
        <ele>171.4</ele>
        <time>2021-08-29T08:47:06Z</time>
      </trkpt>
      <trkpt lat="43.2908060" lon="-8.4047530">
        <ele>171.3</ele>
        <time>2021-08-29T08:47:11Z</time>
      </trkpt>
      <trkpt lat="43.2909030" lon="-8.4045450">
        <ele>170.7</ele>
        <time>2021-08-29T08:47:16Z</time>
      </trkpt>
      <trkpt lat="43.2910020" lon="-8.4043770">
        <ele>169.5</ele>
        <time>2021-08-29T08:47:20Z</time>
      </trkpt>
      <trkpt lat="43.2910420" lon="-8.4043320">
        <ele>168.9</ele>
        <time>2021-08-29T08:47:21Z</time>
      </trkpt>
      <trkpt lat="43.2910910" lon="-8.4042940">
        <ele>168.1</ele>
        <time>2021-08-29T08:47:22Z</time>
      </trkpt>
      <trkpt lat="43.2911920" lon="-8.4042220">
        <ele>166.6</ele>
        <time>2021-08-29T08:47:24Z</time>
      </trkpt>
      <trkpt lat="43.2912920" lon="-8.4041240">
        <ele>164.9</ele>
        <time>2021-08-29T08:47:26Z</time>
      </trkpt>
      <trkpt lat="43.2913730" lon="-8.4040250">
        <ele>163.5</ele>
        <time>2021-08-29T08:47:28Z</time>
      </trkpt>
      <trkpt lat="43.2914470" lon="-8.4039300">
        <ele>162.3</ele>
        <time>2021-08-29T08:47:30Z</time>
      </trkpt>
      <trkpt lat="43.2914800" lon="-8.4038950">
        <ele>161.9</ele>
        <time>2021-08-29T08:47:31Z</time>
      </trkpt>
      <trkpt lat="43.2915690" lon="-8.4037760">
        <ele>160.9</ele>
        <time>2021-08-29T08:47:35Z</time>
      </trkpt>
      <trkpt lat="43.2916000" lon="-8.4037320">
        <ele>160.6</ele>
        <time>2021-08-29T08:47:37Z</time>
      </trkpt>
      <trkpt lat="43.2916240" lon="-8.4037350">
        <ele>160.5</ele>
        <time>2021-08-29T08:47:38Z</time>
      </trkpt>
      <trkpt lat="43.2917210" lon="-8.4038610">
        <ele>160.1</ele>
        <time>2021-08-29T08:47:42Z</time>
      </trkpt>
      <trkpt lat="43.2918550" lon="-8.4040010">
        <ele>159.6</ele>
        <time>2021-08-29T08:47:47Z</time>
      </trkpt>
      <trkpt lat="43.2919190" lon="-8.4040830">
        <ele>159.6</ele>
        <time>2021-08-29T08:47:49Z</time>
      </trkpt>
      <trkpt lat="43.2919760" lon="-8.4041900">
        <ele>159.9</ele>
        <time>2021-08-29T08:47:51Z</time>
      </trkpt>
      <trkpt lat="43.2920890" lon="-8.4043900">
        <ele>161.0</ele>
        <time>2021-08-29T08:47:56Z</time>
      </trkpt>
      <trkpt lat="43.2922430" lon="-8.4044880">
        <ele>161.8</ele>
        <time>2021-08-29T08:48:02Z</time>
      </trkpt>
      <trkpt lat="43.2925170" lon="-8.4044980">
        <ele>162.2</ele>
        <time>2021-08-29T08:48:10Z</time>
      </trkpt>
      <trkpt lat="43.2927320" lon="-8.4045010">
        <ele>162.6</ele>
        <time>2021-08-29T08:48:16Z</time>
      </trkpt>
      <trkpt lat="43.2928070" lon="-8.4044950">
        <ele>162.9</ele>
        <time>2021-08-29T08:48:18Z</time>
      </trkpt>
      <trkpt lat="43.2929780" lon="-8.4044920">
        <ele>163.6</ele>
        <time>2021-08-29T08:48:23Z</time>
      </trkpt>
      <trkpt lat="43.2930680" lon="-8.4044660">
        <ele>164.0</ele>
        <time>2021-08-29T08:48:26Z</time>
      </trkpt>
      <trkpt lat="43.2931860" lon="-8.4044090">
        <ele>164.3</ele>
        <time>2021-08-29T08:48:30Z</time>
      </trkpt>
      <trkpt lat="43.2933300" lon="-8.4042930">
        <ele>164.5</ele>
        <time>2021-08-29T08:48:35Z</time>
      </trkpt>
      <trkpt lat="43.2936520" lon="-8.4040180">
        <ele>165.2</ele>
        <time>2021-08-29T08:48:46Z</time>
      </trkpt>
      <trkpt lat="43.2938070" lon="-8.4038340">
        <ele>165.9</ele>
        <time>2021-08-29T08:48:53Z</time>
      </trkpt>
      <trkpt lat="43.2939100" lon="-8.4036960">
        <ele>166.7</ele>
        <time>2021-08-29T08:48:59Z</time>
      </trkpt>
      <trkpt lat="43.2939780" lon="-8.4035780">
        <ele>167.5</ele>
        <time>2021-08-29T08:49:04Z</time>
      </trkpt>
      <trkpt lat="43.2941230" lon="-8.4033510">
        <ele>169.2</ele>
        <time>2021-08-29T08:49:14Z</time>
      </trkpt>
      <trkpt lat="43.2942110" lon="-8.4031940">
        <ele>170.4</ele>
        <time>2021-08-29T08:49:21Z</time>
      </trkpt>
      <trkpt lat="43.2942750" lon="-8.4030460">
        <ele>171.7</ele>
        <time>2021-08-29T08:49:28Z</time>
      </trkpt>
      <trkpt lat="43.2943020" lon="-8.4029480">
        <ele>172.8</ele>
        <time>2021-08-29T08:49:33Z</time>
      </trkpt>
      <trkpt lat="43.2943100" lon="-8.4029170">
        <ele>173.1</ele>
        <time>2021-08-29T08:49:35Z</time>
      </trkpt>
      <trkpt lat="43.2943720" lon="-8.4028580">
        <ele>174.3</ele>
        <time>2021-08-29T08:49:40Z</time>
      </trkpt>
      <trkpt lat="43.2943770" lon="-8.4028370">
        <ele>174.5</ele>
        <time>2021-08-29T08:49:41Z</time>
      </trkpt>
      <trkpt lat="43.2943850" lon="-8.4027580">
        <ele>175.4</ele>
        <time>2021-08-29T08:49:45Z</time>
      </trkpt>
      <trkpt lat="43.2944030" lon="-8.4027320">
        <ele>175.8</ele>
        <time>2021-08-29T08:49:47Z</time>
      </trkpt>
      <trkpt lat="43.2944300" lon="-8.4026860">
        <ele>176.4</ele>
        <time>2021-08-29T08:49:50Z</time>
      </trkpt>
      <trkpt lat="43.2944420" lon="-8.4026270">
        <ele>177.0</ele>
        <time>2021-08-29T08:49:53Z</time>
      </trkpt>
      <trkpt lat="43.2944570" lon="-8.4025950">
        <ele>177.4</ele>
        <time>2021-08-29T08:49:55Z</time>
      </trkpt>
      <trkpt lat="43.2945010" lon="-8.4025210">
        <ele>178.4</ele>
        <time>2021-08-29T08:49:59Z</time>
      </trkpt>
      <trkpt lat="43.2946000" lon="-8.4023940">
        <ele>180.3</ele>
        <time>2021-08-29T08:50:09Z</time>
      </trkpt>
      <trkpt lat="43.2947020" lon="-8.4023770">
        <ele>181.8</ele>
        <time>2021-08-29T08:50:16Z</time>
      </trkpt>
      <trkpt lat="43.2948450" lon="-8.4023180">
        <ele>183.5</ele>
        <time>2021-08-29T08:50:25Z</time>
      </trkpt>
      <trkpt lat="43.2950120" lon="-8.4022540">
        <ele>184.5</ele>
        <time>2021-08-29T08:50:34Z</time>
      </trkpt>
      <trkpt lat="43.2952220" lon="-8.4021460">
        <ele>184.2</ele>
        <time>2021-08-29T08:50:43Z</time>
      </trkpt>
      <trkpt lat="43.2954800" lon="-8.4020090">
        <ele>181.9</ele>
        <time>2021-08-29T08:50:49Z</time>
      </trkpt>
      <trkpt lat="43.2957880" lon="-8.4018480">
        <ele>176.5</ele>
        <time>2021-08-29T08:50:54Z</time>
      </trkpt>
      <trkpt lat="43.2961320" lon="-8.4016590">
        <ele>170.4</ele>
        <time>2021-08-29T08:50:59Z</time>
      </trkpt>
      <trkpt lat="43.2965120" lon="-8.4015530">
        <ele>164.3</ele>
        <time>2021-08-29T08:51:04Z</time>
      </trkpt>
      <trkpt lat="43.2966770" lon="-8.4015190">
        <ele>162.2</ele>
        <time>2021-08-29T08:51:06Z</time>
      </trkpt>
      <trkpt lat="43.2968820" lon="-8.4014820">
        <ele>160.1</ele>
        <time>2021-08-29T08:51:09Z</time>
      </trkpt>
      <trkpt lat="43.2969970" lon="-8.4014950">
        <ele>159.1</ele>
        <time>2021-08-29T08:51:11Z</time>
      </trkpt>
      <trkpt lat="43.2970600" lon="-8.4014940">
        <ele>158.7</ele>
        <time>2021-08-29T08:51:12Z</time>
      </trkpt>
      <trkpt lat="43.2971890" lon="-8.4014860">
        <ele>157.6</ele>
        <time>2021-08-29T08:51:14Z</time>
      </trkpt>
      <trkpt lat="43.2973750" lon="-8.4014290">
        <ele>156.1</ele>
        <time>2021-08-29T08:51:17Z</time>
      </trkpt>
      <trkpt lat="43.2974780" lon="-8.4013350">
        <ele>155.2</ele>
        <time>2021-08-29T08:51:19Z</time>
      </trkpt>
      <trkpt lat="43.2976060" lon="-8.4010250">
        <ele>154.3</ele>
        <time>2021-08-29T08:51:23Z</time>
      </trkpt>
      <trkpt lat="43.2976270" lon="-8.4009200">
        <ele>154.2</ele>
        <time>2021-08-29T08:51:25Z</time>
      </trkpt>
      <trkpt lat="43.2976380" lon="-8.4008910">
        <ele>154.1</ele>
        <time>2021-08-29T08:51:26Z</time>
      </trkpt>
      <trkpt lat="43.2976410" lon="-8.4008440">
        <ele>154.0</ele>
        <time>2021-08-29T08:51:27Z</time>
      </trkpt>
      <trkpt lat="43.2976700" lon="-8.4006560">
        <ele>153.7</ele>
        <time>2021-08-29T08:51:30Z</time>
      </trkpt>
      <trkpt lat="43.2976260" lon="-8.4005300">
        <ele>153.5</ele>
        <time>2021-08-29T08:51:32Z</time>
      </trkpt>
      <trkpt lat="43.2975730" lon="-8.4004770">
        <ele>153.3</ele>
        <time>2021-08-29T08:51:33Z</time>
      </trkpt>
      <trkpt lat="43.2975390" lon="-8.4004360">
        <ele>153.2</ele>
        <time>2021-08-29T08:51:34Z</time>
      </trkpt>
      <trkpt lat="43.2974220" lon="-8.4003550">
        <ele>153.0</ele>
        <time>2021-08-29T08:51:37Z</time>
      </trkpt>
      <trkpt lat="43.2973890" lon="-8.4003370">
        <ele>153.0</ele>
        <time>2021-08-29T08:51:38Z</time>
      </trkpt>
      <trkpt lat="43.2972110" lon="-8.4002920">
        <ele>152.9</ele>
        <time>2021-08-29T08:51:43Z</time>
      </trkpt>
      <trkpt lat="43.2971810" lon="-8.4002780">
        <ele>152.9</ele>
        <time>2021-08-29T08:51:44Z</time>
      </trkpt>
      <trkpt lat="43.2971490" lon="-8.4002160">
        <ele>152.3</ele>
        <time>2021-08-29T08:51:46Z</time>
      </trkpt>
      <trkpt lat="43.2971910" lon="-8.4000750">
        <ele>151.9</ele>
        <time>2021-08-29T08:51:49Z</time>
      </trkpt>
      <trkpt lat="43.2973070" lon="-8.3999370">
        <ele>151.5</ele>
        <time>2021-08-29T08:51:52Z</time>
      </trkpt>
      <trkpt lat="43.2973940" lon="-8.3998760">
        <ele>151.4</ele>
        <time>2021-08-29T08:51:54Z</time>
      </trkpt>
      <trkpt lat="43.2975150" lon="-8.3997900">
        <ele>151.4</ele>
        <time>2021-08-29T08:51:57Z</time>
      </trkpt>
      <trkpt lat="43.2975500" lon="-8.3997720">
        <ele>151.4</ele>
        <time>2021-08-29T08:51:58Z</time>
      </trkpt>
      <trkpt lat="43.2976130" lon="-8.3997670">
        <ele>151.5</ele>
        <time>2021-08-29T08:52:00Z</time>
      </trkpt>
      <trkpt lat="43.2977050" lon="-8.3998010">
        <ele>151.7</ele>
        <time>2021-08-29T08:52:03Z</time>
      </trkpt>
      <trkpt lat="43.2977590" lon="-8.3998300">
        <ele>151.8</ele>
        <time>2021-08-29T08:52:05Z</time>
      </trkpt>
      <trkpt lat="43.2977820" lon="-8.3998600">
        <ele>151.9</ele>
        <time>2021-08-29T08:52:06Z</time>
      </trkpt>
      <trkpt lat="43.2978330" lon="-8.3999480">
        <ele>152.3</ele>
        <time>2021-08-29T08:52:09Z</time>
      </trkpt>
      <trkpt lat="43.2978820" lon="-8.4000250">
        <ele>152.6</ele>
        <time>2021-08-29T08:52:12Z</time>
      </trkpt>
      <trkpt lat="43.2980070" lon="-8.4001700">
        <ele>153.6</ele>
        <time>2021-08-29T08:52:19Z</time>
      </trkpt>
      <trkpt lat="43.2980860" lon="-8.4002340">
        <ele>154.2</ele>
        <time>2021-08-29T08:52:24Z</time>
      </trkpt>
      <trkpt lat="43.2981900" lon="-8.4003410">
        <ele>155.0</ele>
        <time>2021-08-29T08:52:31Z</time>
      </trkpt>
      <trkpt lat="43.2982280" lon="-8.4004110">
        <ele>155.3</ele>
        <time>2021-08-29T08:52:34Z</time>
      </trkpt>
      <trkpt lat="43.2982650" lon="-8.4004420">
        <ele>155.7</ele>
        <time>2021-08-29T08:52:36Z</time>
      </trkpt>
      <trkpt lat="43.2983050" lon="-8.4004620">
        <ele>155.9</ele>
        <time>2021-08-29T08:52:38Z</time>
      </trkpt>
      <trkpt lat="43.2983490" lon="-8.4004870">
        <ele>156.1</ele>
        <time>2021-08-29T08:52:40Z</time>
      </trkpt>
      <trkpt lat="43.2983930" lon="-8.4005090">
        <ele>156.3</ele>
        <time>2021-08-29T08:52:42Z</time>
      </trkpt>
      <trkpt lat="43.2984520" lon="-8.4005330">
        <ele>156.6</ele>
        <time>2021-08-29T08:52:45Z</time>
      </trkpt>
      <trkpt lat="43.2984740" lon="-8.4005460">
        <ele>156.7</ele>
        <time>2021-08-29T08:52:46Z</time>
      </trkpt>
      <trkpt lat="43.2986490" lon="-8.4006440">
        <ele>157.5</ele>
        <time>2021-08-29T08:52:54Z</time>
      </trkpt>
      <trkpt lat="43.2986720" lon="-8.4006560">
        <ele>157.6</ele>
        <time>2021-08-29T08:52:55Z</time>
      </trkpt>
      <trkpt lat="43.2988260" lon="-8.4007320">
        <ele>158.2</ele>
        <time>2021-08-29T08:53:02Z</time>
      </trkpt>
      <trkpt lat="43.2989920" lon="-8.4007900">
        <ele>159.0</ele>
        <time>2021-08-29T08:53:09Z</time>
      </trkpt>
      <trkpt lat="43.2990190" lon="-8.4008000">
        <ele>159.1</ele>
        <time>2021-08-29T08:53:10Z</time>
      </trkpt>
      <trkpt lat="43.2991880" lon="-8.4008630">
        <ele>160.0</ele>
        <time>2021-08-29T08:53:17Z</time>
      </trkpt>
      <trkpt lat="43.2994250" lon="-8.4009990">
        <ele>161.3</ele>
        <time>2021-08-29T08:53:27Z</time>
      </trkpt>
      <trkpt lat="43.2996390" lon="-8.4011160">
        <ele>162.4</ele>
        <time>2021-08-29T08:53:37Z</time>
      </trkpt>
      <trkpt lat="43.2998400" lon="-8.4012470">
        <ele>163.2</ele>
        <time>2021-08-29T08:53:46Z</time>
      </trkpt>
      <trkpt lat="43.2999640" lon="-8.4013380">
        <ele>163.5</ele>
        <time>2021-08-29T08:53:52Z</time>
      </trkpt>
      <trkpt lat="43.3001360" lon="-8.4014690">
        <ele>163.8</ele>
        <time>2021-08-29T08:54:00Z</time>
      </trkpt>
      <trkpt lat="43.3003830" lon="-8.4015840">
        <ele>164.1</ele>
        <time>2021-08-29T08:54:09Z</time>
      </trkpt>
      <trkpt lat="43.3005880" lon="-8.4016750">
        <ele>164.3</ele>
        <time>2021-08-29T08:54:17Z</time>
      </trkpt>
      <trkpt lat="43.3007470" lon="-8.4017840">
        <ele>164.4</ele>
        <time>2021-08-29T08:54:24Z</time>
      </trkpt>
      <trkpt lat="43.3009800" lon="-8.4019230">
        <ele>164.6</ele>
        <time>2021-08-29T08:54:33Z</time>
      </trkpt>
      <trkpt lat="43.3011790" lon="-8.4020590">
        <ele>165.1</ele>
        <time>2021-08-29T08:54:41Z</time>
      </trkpt>
      <trkpt lat="43.3013370" lon="-8.4021580">
        <ele>165.9</ele>
        <time>2021-08-29T08:54:49Z</time>
      </trkpt>
      <trkpt lat="43.3014660" lon="-8.4022390">
        <ele>166.9</ele>
        <time>2021-08-29T08:54:57Z</time>
      </trkpt>
      <trkpt lat="43.3016170" lon="-8.4023700">
        <ele>168.2</ele>
        <time>2021-08-29T08:55:06Z</time>
      </trkpt>
      <trkpt lat="43.3017570" lon="-8.4024720">
        <ele>169.5</ele>
        <time>2021-08-29T08:55:14Z</time>
      </trkpt>
      <trkpt lat="43.3018620" lon="-8.4024990">
        <ele>170.6</ele>
        <time>2021-08-29T08:55:20Z</time>
      </trkpt>
      <trkpt lat="43.3019140" lon="-8.4025090">
        <ele>171.3</ele>
        <time>2021-08-29T08:55:23Z</time>
      </trkpt>
      <trkpt lat="43.3020120" lon="-8.4025540">
        <ele>172.8</ele>
        <time>2021-08-29T08:55:30Z</time>
      </trkpt>
      <trkpt lat="43.3020270" lon="-8.4025570">
        <ele>173.1</ele>
        <time>2021-08-29T08:55:31Z</time>
      </trkpt>
      <trkpt lat="43.3021370" lon="-8.4025810">
        <ele>175.1</ele>
        <time>2021-08-29T08:55:39Z</time>
      </trkpt>
      <trkpt lat="43.3021500" lon="-8.4025820">
        <ele>175.4</ele>
        <time>2021-08-29T08:55:40Z</time>
      </trkpt>
      <trkpt lat="43.3022460" lon="-8.4025860">
        <ele>177.3</ele>
        <time>2021-08-29T08:55:47Z</time>
      </trkpt>
      <trkpt lat="43.3022920" lon="-8.4025990">
        <ele>178.3</ele>
        <time>2021-08-29T08:55:51Z</time>
      </trkpt>
      <trkpt lat="43.3023160" lon="-8.4025970">
        <ele>178.7</ele>
        <time>2021-08-29T08:55:53Z</time>
      </trkpt>
      <trkpt lat="43.3023540" lon="-8.4026090">
        <ele>179.5</ele>
        <time>2021-08-29T08:55:56Z</time>
      </trkpt>
      <trkpt lat="43.3024040" lon="-8.4026340">
        <ele>180.5</ele>
        <time>2021-08-29T08:56:00Z</time>
      </trkpt>
      <trkpt lat="43.3024680" lon="-8.4026560">
        <ele>181.7</ele>
        <time>2021-08-29T08:56:05Z</time>
      </trkpt>
      <trkpt lat="43.3025070" lon="-8.4026550">
        <ele>182.4</ele>
        <time>2021-08-29T08:56:08Z</time>
      </trkpt>
      <trkpt lat="43.3025310" lon="-8.4026630">
        <ele>182.8</ele>
        <time>2021-08-29T08:56:10Z</time>
      </trkpt>
      <trkpt lat="43.3026410" lon="-8.4027270">
        <ele>184.5</ele>
        <time>2021-08-29T08:56:19Z</time>
      </trkpt>
      <trkpt lat="43.3027350" lon="-8.4027660">
        <ele>185.5</ele>
        <time>2021-08-29T08:56:25Z</time>
      </trkpt>
      <trkpt lat="43.3027760" lon="-8.4027840">
        <ele>185.9</ele>
        <time>2021-08-29T08:56:28Z</time>
      </trkpt>
      <trkpt lat="43.3029300" lon="-8.4028350">
        <ele>186.8</ele>
        <time>2021-08-29T08:56:36Z</time>
      </trkpt>
      <trkpt lat="43.3029800" lon="-8.4028570">
        <ele>187.0</ele>
        <time>2021-08-29T08:56:39Z</time>
      </trkpt>
      <trkpt lat="43.3031210" lon="-8.4029140">
        <ele>187.5</ele>
        <time>2021-08-29T08:56:45Z</time>
      </trkpt>
      <trkpt lat="43.3032510" lon="-8.4029420">
        <ele>188.0</ele>
        <time>2021-08-29T08:56:50Z</time>
      </trkpt>
      <trkpt lat="43.3034330" lon="-8.4029650">
        <ele>188.8</ele>
        <time>2021-08-29T08:56:59Z</time>
      </trkpt>
      <trkpt lat="43.3035000" lon="-8.4030950">
        <ele>191.3</ele>
        <time>2021-08-29T08:57:05Z</time>
      </trkpt>
      <trkpt lat="43.3035330" lon="-8.4033090">
        <ele>191.2</ele>
        <time>2021-08-29T08:57:10Z</time>
      </trkpt>
      <trkpt lat="43.3035830" lon="-8.4036730">
        <ele>191.2</ele>
        <time>2021-08-29T08:57:18Z</time>
      </trkpt>
      <trkpt lat="43.3036460" lon="-8.4041020">
        <ele>191.1</ele>
        <time>2021-08-29T08:57:27Z</time>
      </trkpt>
      <trkpt lat="43.3036500" lon="-8.4041530">
        <ele>191.1</ele>
        <time>2021-08-29T08:57:28Z</time>
      </trkpt>
      <trkpt lat="43.3037310" lon="-8.4046050">
        <ele>191.4</ele>
        <time>2021-08-29T08:57:37Z</time>
      </trkpt>
      <trkpt lat="43.3037990" lon="-8.4050680">
        <ele>191.8</ele>
        <time>2021-08-29T08:57:46Z</time>
      </trkpt>
      <trkpt lat="43.3038390" lon="-8.4052840">
        <ele>192.1</ele>
        <time>2021-08-29T08:57:51Z</time>
      </trkpt>
      <trkpt lat="43.3038580" lon="-8.4053720">
        <ele>192.2</ele>
        <time>2021-08-29T08:57:53Z</time>
      </trkpt>
      <trkpt lat="43.3039130" lon="-8.4056940">
        <ele>192.6</ele>
        <time>2021-08-29T08:58:00Z</time>
      </trkpt>
      <trkpt lat="43.3039290" lon="-8.4057940">
        <ele>195.2</ele>
        <time>2021-08-29T08:58:03Z</time>
      </trkpt>
      <trkpt lat="43.3039420" lon="-8.4057950">
        <ele>195.2</ele>
        <time>2021-08-29T08:58:04Z</time>
      </trkpt>
      <trkpt lat="43.3040480" lon="-8.4057810">
        <ele>195.2</ele>
        <time>2021-08-29T08:58:08Z</time>
      </trkpt>
      <trkpt lat="43.3041980" lon="-8.4058110">
        <ele>195.2</ele>
        <time>2021-08-29T08:58:14Z</time>
      </trkpt>
      <trkpt lat="43.3044540" lon="-8.4058600">
        <ele>195.3</ele>
        <time>2021-08-29T08:58:23Z</time>
      </trkpt>
      <trkpt lat="43.3046640" lon="-8.4059150">
        <ele>195.4</ele>
        <time>2021-08-29T08:58:30Z</time>
      </trkpt>
      <trkpt lat="43.3046980" lon="-8.4059250">
        <ele>195.5</ele>
        <time>2021-08-29T08:58:31Z</time>
      </trkpt>
      <trkpt lat="43.3049790" lon="-8.4059870">
        <ele>195.7</ele>
        <time>2021-08-29T08:58:40Z</time>
      </trkpt>
      <trkpt lat="43.3052000" lon="-8.4060210">
        <ele>196.0</ele>
        <time>2021-08-29T08:58:47Z</time>
      </trkpt>
      <trkpt lat="43.3054000" lon="-8.4061370">
        <ele>196.5</ele>
        <time>2021-08-29T08:58:54Z</time>
      </trkpt>
      <trkpt lat="43.3056810" lon="-8.4062720">
        <ele>197.2</ele>
        <time>2021-08-29T08:59:04Z</time>
      </trkpt>
      <trkpt lat="43.3058430" lon="-8.4063650">
        <ele>197.4</ele>
        <time>2021-08-29T08:59:10Z</time>
      </trkpt>
      <trkpt lat="43.3060010" lon="-8.4064730">
        <ele>197.6</ele>
        <time>2021-08-29T08:59:15Z</time>
      </trkpt>
      <trkpt lat="43.3061450" lon="-8.4065920">
        <ele>197.8</ele>
        <time>2021-08-29T08:59:21Z</time>
      </trkpt>
      <trkpt lat="43.3061980" lon="-8.4066070">
        <ele>197.7</ele>
        <time>2021-08-29T08:59:24Z</time>
      </trkpt>
      <trkpt lat="43.3062330" lon="-8.4065740">
        <ele>197.7</ele>
        <time>2021-08-29T08:59:26Z</time>
      </trkpt>
      <trkpt lat="43.3063330" lon="-8.4063570">
        <ele>197.3</ele>
        <time>2021-08-29T08:59:33Z</time>
      </trkpt>
      <trkpt lat="43.3064590" lon="-8.4062100">
        <ele>197.0</ele>
        <time>2021-08-29T08:59:38Z</time>
      </trkpt>
      <trkpt lat="43.3066240" lon="-8.4060300">
        <ele>196.6</ele>
        <time>2021-08-29T08:59:44Z</time>
      </trkpt>
      <trkpt lat="43.3068050" lon="-8.4058370">
        <ele>196.3</ele>
        <time>2021-08-29T08:59:51Z</time>
      </trkpt>
      <trkpt lat="43.3069930" lon="-8.4057800">
        <ele>196.0</ele>
        <time>2021-08-29T08:59:57Z</time>
      </trkpt>
      <trkpt lat="43.3072530" lon="-8.4057380">
        <ele>195.9</ele>
        <time>2021-08-29T09:00:04Z</time>
      </trkpt>
      <trkpt lat="43.3072800" lon="-8.4057530">
        <ele>195.9</ele>
        <time>2021-08-29T09:00:05Z</time>
      </trkpt>
      <trkpt lat="43.3073240" lon="-8.4058100">
        <ele>196.0</ele>
        <time>2021-08-29T09:00:07Z</time>
      </trkpt>
      <trkpt lat="43.3075460" lon="-8.4059930">
        <ele>196.3</ele>
        <time>2021-08-29T09:00:14Z</time>
      </trkpt>
      <trkpt lat="43.3077040" lon="-8.4060770">
        <ele>196.3</ele>
        <time>2021-08-29T09:00:19Z</time>
      </trkpt>
      <trkpt lat="43.3077990" lon="-8.4061040">
        <ele>196.1</ele>
        <time>2021-08-29T09:00:22Z</time>
      </trkpt>
      <trkpt lat="43.3079760" lon="-8.4060920">
        <ele>195.2</ele>
        <time>2021-08-29T09:00:27Z</time>
      </trkpt>
      <trkpt lat="43.3080180" lon="-8.4060920">
        <ele>195.0</ele>
        <time>2021-08-29T09:00:28Z</time>
      </trkpt>
      <trkpt lat="43.3081960" lon="-8.4061200">
        <ele>193.8</ele>
        <time>2021-08-29T09:00:32Z</time>
      </trkpt>
      <trkpt lat="43.3083670" lon="-8.4061620">
        <ele>192.6</ele>
        <time>2021-08-29T09:00:36Z</time>
      </trkpt>
      <trkpt lat="43.3084540" lon="-8.4061700">
        <ele>192.0</ele>
        <time>2021-08-29T09:00:38Z</time>
      </trkpt>
      <trkpt lat="43.3084980" lon="-8.4061850">
        <ele>191.6</ele>
        <time>2021-08-29T09:00:39Z</time>
      </trkpt>
      <trkpt lat="43.3085900" lon="-8.4062290">
        <ele>190.9</ele>
        <time>2021-08-29T09:00:41Z</time>
      </trkpt>
      <trkpt lat="43.3087040" lon="-8.4063240">
        <ele>189.8</ele>
        <time>2021-08-29T09:00:44Z</time>
      </trkpt>
      <trkpt lat="43.3087390" lon="-8.4063600">
        <ele>189.5</ele>
        <time>2021-08-29T09:00:45Z</time>
      </trkpt>
      <trkpt lat="43.3088420" lon="-8.4064810">
        <ele>188.4</ele>
        <time>2021-08-29T09:00:48Z</time>
      </trkpt>
      <trkpt lat="43.3088930" lon="-8.4065780">
        <ele>187.6</ele>
        <time>2021-08-29T09:00:50Z</time>
      </trkpt>
      <trkpt lat="43.3090140" lon="-8.4067070">
        <ele>186.2</ele>
        <time>2021-08-29T09:00:54Z</time>
      </trkpt>
      <trkpt lat="43.3090540" lon="-8.4067300">
        <ele>185.8</ele>
        <time>2021-08-29T09:00:55Z</time>
      </trkpt>
      <trkpt lat="43.3092410" lon="-8.4067910">
        <ele>183.6</ele>
        <time>2021-08-29T09:00:59Z</time>
      </trkpt>
      <trkpt lat="43.3094890" lon="-8.4069110">
        <ele>181.2</ele>
        <time>2021-08-29T09:01:04Z</time>
      </trkpt>
      <trkpt lat="43.3095330" lon="-8.4069220">
        <ele>180.9</ele>
        <time>2021-08-29T09:01:05Z</time>
      </trkpt>
      <trkpt lat="43.3096190" lon="-8.4069190">
        <ele>180.3</ele>
        <time>2021-08-29T09:01:07Z</time>
      </trkpt>
      <trkpt lat="43.3096550" lon="-8.4069030">
        <ele>180.0</ele>
        <time>2021-08-29T09:01:08Z</time>
      </trkpt>
      <trkpt lat="43.3098540" lon="-8.4067650">
        <ele>177.6</ele>
        <time>2021-08-29T09:01:14Z</time>
      </trkpt>
      <trkpt lat="43.3100840" lon="-8.4065900">
        <ele>173.9</ele>
        <time>2021-08-29T09:01:21Z</time>
      </trkpt>
      <trkpt lat="43.3101760" lon="-8.4065570">
        <ele>172.4</ele>
        <time>2021-08-29T09:01:24Z</time>
      </trkpt>
      <trkpt lat="43.3102130" lon="-8.4065620">
        <ele>171.8</ele>
        <time>2021-08-29T09:01:25Z</time>
      </trkpt>
      <trkpt lat="43.3102450" lon="-8.4065860">
        <ele>171.3</ele>
        <time>2021-08-29T09:01:26Z</time>
      </trkpt>
      <trkpt lat="43.3102870" lon="-8.4066720">
        <ele>170.2</ele>
        <time>2021-08-29T09:01:28Z</time>
      </trkpt>
      <trkpt lat="43.3103090" lon="-8.4068630">
        <ele>169.0</ele>
        <time>2021-08-29T09:01:33Z</time>
      </trkpt>
      <trkpt lat="43.3103930" lon="-8.4070630">
        <ele>168.5</ele>
        <time>2021-08-29T09:01:39Z</time>
      </trkpt>
      <trkpt lat="43.3105260" lon="-8.4073600">
        <ele>168.3</ele>
        <time>2021-08-29T09:01:47Z</time>
      </trkpt>
      <trkpt lat="43.3105410" lon="-8.4075440">
        <ele>168.3</ele>
        <time>2021-08-29T09:01:51Z</time>
      </trkpt>
      <trkpt lat="43.3105420" lon="-8.4076200">
        <ele>168.4</ele>
        <time>2021-08-29T09:01:53Z</time>
      </trkpt>
      <trkpt lat="43.3105270" lon="-8.4078220">
        <ele>168.4</ele>
        <time>2021-08-29T09:01:58Z</time>
      </trkpt>
      <trkpt lat="43.3105510" lon="-8.4080510">
        <ele>167.9</ele>
        <time>2021-08-29T09:02:03Z</time>
      </trkpt>
      <trkpt lat="43.3105590" lon="-8.4081850">
        <ele>167.4</ele>
        <time>2021-08-29T09:02:05Z</time>
      </trkpt>
      <trkpt lat="43.3105450" lon="-8.4083780">
        <ele>166.7</ele>
        <time>2021-08-29T09:02:08Z</time>
      </trkpt>
      <trkpt lat="43.3105520" lon="-8.4084180">
        <ele>166.6</ele>
        <time>2021-08-29T09:02:09Z</time>
      </trkpt>
      <trkpt lat="43.3106500" lon="-8.4085720">
        <ele>166.6</ele>
        <time>2021-08-29T09:02:14Z</time>
      </trkpt>
      <trkpt lat="43.3107040" lon="-8.4087650">
        <ele>167.5</ele>
        <time>2021-08-29T09:02:20Z</time>
      </trkpt>
      <trkpt lat="43.3107480" lon="-8.4089130">
        <ele>168.2</ele>
        <time>2021-08-29T09:02:26Z</time>
      </trkpt>
      <trkpt lat="43.3108900" lon="-8.4089500">
        <ele>168.0</ele>
        <time>2021-08-29T09:02:32Z</time>
      </trkpt>
      <trkpt lat="43.3110650" lon="-8.4089450">
        <ele>166.3</ele>
        <time>2021-08-29T09:02:37Z</time>
      </trkpt>
      <trkpt lat="43.3111290" lon="-8.4089410">
        <ele>165.6</ele>
        <time>2021-08-29T09:02:39Z</time>
      </trkpt>
      <trkpt lat="43.3112900" lon="-8.4089100">
        <ele>163.4</ele>
        <time>2021-08-29T09:02:45Z</time>
      </trkpt>
      <trkpt lat="43.3114110" lon="-8.4088290">
        <ele>161.1</ele>
        <time>2021-08-29T09:02:50Z</time>
      </trkpt>
      <trkpt lat="43.3115550" lon="-8.4088030">
        <ele>158.3</ele>
        <time>2021-08-29T09:02:55Z</time>
      </trkpt>
      <trkpt lat="43.3117590" lon="-8.4087950">
        <ele>154.8</ele>
        <time>2021-08-29T09:03:02Z</time>
      </trkpt>
      <trkpt lat="43.3119300" lon="-8.4088720">
        <ele>152.0</ele>
        <time>2021-08-29T09:03:08Z</time>
      </trkpt>
      <trkpt lat="43.3120550" lon="-8.4088580">
        <ele>150.0</ele>
        <time>2021-08-29T09:03:12Z</time>
      </trkpt>
      <trkpt lat="43.3120780" lon="-8.4088320">
        <ele>149.4</ele>
        <time>2021-08-29T09:03:13Z</time>
      </trkpt>
      <trkpt lat="43.3121240" lon="-8.4086730">
        <ele>147.8</ele>
        <time>2021-08-29T09:03:17Z</time>
      </trkpt>
      <trkpt lat="43.3121430" lon="-8.4086020">
        <ele>147.0</ele>
        <time>2021-08-29T09:03:19Z</time>
      </trkpt>
      <trkpt lat="43.3121800" lon="-8.4085240">
        <ele>145.9</ele>
        <time>2021-08-29T09:03:22Z</time>
      </trkpt>
      <trkpt lat="43.3122190" lon="-8.4084710">
        <ele>145.0</ele>
        <time>2021-08-29T09:03:24Z</time>
      </trkpt>
      <trkpt lat="43.3123030" lon="-8.4084270">
        <ele>143.6</ele>
        <time>2021-08-29T09:03:27Z</time>
      </trkpt>
      <trkpt lat="43.3123870" lon="-8.4083540">
        <ele>142.4</ele>
        <time>2021-08-29T09:03:30Z</time>
      </trkpt>
      <trkpt lat="43.3124170" lon="-8.4083200">
        <ele>142.0</ele>
        <time>2021-08-29T09:03:31Z</time>
      </trkpt>
      <trkpt lat="43.3124460" lon="-8.4083010">
        <ele>141.8</ele>
        <time>2021-08-29T09:03:32Z</time>
      </trkpt>
      <trkpt lat="43.3125250" lon="-8.4083110">
        <ele>141.8</ele>
        <time>2021-08-29T09:03:34Z</time>
      </trkpt>
      <trkpt lat="43.3125940" lon="-8.4083510">
        <ele>141.7</ele>
        <time>2021-08-29T09:03:36Z</time>
      </trkpt>
      <trkpt lat="43.3127010" lon="-8.4084400">
        <ele>141.7</ele>
        <time>2021-08-29T09:03:40Z</time>
      </trkpt>
      <trkpt lat="43.3127440" lon="-8.4084690">
        <ele>141.8</ele>
        <time>2021-08-29T09:03:42Z</time>
      </trkpt>
      <trkpt lat="43.3127620" lon="-8.4084890">
        <ele>141.8</ele>
        <time>2021-08-29T09:03:43Z</time>
      </trkpt>
      <trkpt lat="43.3127810" lon="-8.4085060">
        <ele>141.8</ele>
        <time>2021-08-29T09:03:44Z</time>
      </trkpt>
      <trkpt lat="43.3128030" lon="-8.4085160">
        <ele>141.8</ele>
        <time>2021-08-29T09:03:45Z</time>
      </trkpt>
      <trkpt lat="43.3128510" lon="-8.4085220">
        <ele>141.8</ele>
        <time>2021-08-29T09:03:47Z</time>
      </trkpt>
      <trkpt lat="43.3129200" lon="-8.4084670">
        <ele>141.9</ele>
        <time>2021-08-29T09:03:49Z</time>
      </trkpt>
      <trkpt lat="43.3129530" lon="-8.4084320">
        <ele>141.9</ele>
        <time>2021-08-29T09:03:50Z</time>
      </trkpt>
      <trkpt lat="43.3130000" lon="-8.4083610">
        <ele>142.0</ele>
        <time>2021-08-29T09:03:52Z</time>
      </trkpt>
      <trkpt lat="43.3130370" lon="-8.4082910">
        <ele>142.0</ele>
        <time>2021-08-29T09:03:54Z</time>
      </trkpt>
      <trkpt lat="43.3131310" lon="-8.4081520">
        <ele>141.9</ele>
        <time>2021-08-29T09:03:59Z</time>
      </trkpt>
      <trkpt lat="43.3132260" lon="-8.4079780">
        <ele>141.6</ele>
        <time>2021-08-29T09:04:04Z</time>
      </trkpt>
      <trkpt lat="43.3132960" lon="-8.4078630">
        <ele>141.3</ele>
        <time>2021-08-29T09:04:07Z</time>
      </trkpt>
      <trkpt lat="43.3133330" lon="-8.4077270">
        <ele>140.9</ele>
        <time>2021-08-29T09:04:10Z</time>
      </trkpt>
      <trkpt lat="43.3133370" lon="-8.4074990">
        <ele>140.4</ele>
        <time>2021-08-29T09:04:13Z</time>
      </trkpt>
      <trkpt lat="43.3133460" lon="-8.4074360">
        <ele>140.3</ele>
        <time>2021-08-29T09:04:14Z</time>
      </trkpt>
      <trkpt lat="43.3133420" lon="-8.4073120">
        <ele>140.1</ele>
        <time>2021-08-29T09:04:16Z</time>
      </trkpt>
      <trkpt lat="43.3133490" lon="-8.4072160">
        <ele>140.1</ele>
        <time>2021-08-29T09:04:18Z</time>
      </trkpt>
      <trkpt lat="43.3134320" lon="-8.4070900">
        <ele>139.9</ele>
        <time>2021-08-29T09:04:22Z</time>
      </trkpt>
      <trkpt lat="43.3135910" lon="-8.4069940">
        <ele>139.7</ele>
        <time>2021-08-29T09:04:27Z</time>
      </trkpt>
      <trkpt lat="43.3136280" lon="-8.4069850">
        <ele>139.6</ele>
        <time>2021-08-29T09:04:28Z</time>
      </trkpt>
      <trkpt lat="43.3138750" lon="-8.4069440">
        <ele>139.5</ele>
        <time>2021-08-29T09:04:35Z</time>
      </trkpt>
      <trkpt lat="43.3140860" lon="-8.4069910">
        <ele>139.9</ele>
        <time>2021-08-29T09:04:41Z</time>
      </trkpt>
      <trkpt lat="43.3141950" lon="-8.4070620">
        <ele>140.3</ele>
        <time>2021-08-29T09:04:45Z</time>
      </trkpt>
      <trkpt lat="43.3142350" lon="-8.4070940">
        <ele>140.5</ele>
        <time>2021-08-29T09:04:47Z</time>
      </trkpt>
      <trkpt lat="43.3143540" lon="-8.4072060">
        <ele>141.4</ele>
        <time>2021-08-29T09:04:54Z</time>
      </trkpt>
      <trkpt lat="43.3143880" lon="-8.4072480">
        <ele>142.5</ele>
        <time>2021-08-29T09:04:58Z</time>
      </trkpt>
      <trkpt lat="43.3144060" lon="-8.4072630">
        <ele>142.9</ele>
        <time>2021-08-29T09:05:00Z</time>
      </trkpt>
      <trkpt lat="43.3144050" lon="-8.4072940">
        <ele>143.2</ele>
        <time>2021-08-29T09:05:02Z</time>
      </trkpt>
      <trkpt lat="43.3143930" lon="-8.4073340">
        <ele>143.8</ele>
        <time>2021-08-29T09:05:04Z</time>
      </trkpt>
      <trkpt lat="43.3143980" lon="-8.4073780">
        <ele>144.3</ele>
        <time>2021-08-29T09:05:06Z</time>
      </trkpt>
      <trkpt lat="43.3144130" lon="-8.4074080">
        <ele>144.7</ele>
        <time>2021-08-29T09:05:08Z</time>
      </trkpt>
      <trkpt lat="43.3144020" lon="-8.4074420">
        <ele>145.2</ele>
        <time>2021-08-29T09:05:11Z</time>
      </trkpt>
      <trkpt lat="43.3143930" lon="-8.4074580">
        <ele>145.4</ele>
        <time>2021-08-29T09:05:12Z</time>
      </trkpt>
      <trkpt lat="43.3143980" lon="-8.4074970">
        <ele>145.9</ele>
        <time>2021-08-29T09:05:14Z</time>
      </trkpt>
      <trkpt lat="43.3144040" lon="-8.4075120">
        <ele>146.1</ele>
        <time>2021-08-29T09:05:15Z</time>
      </trkpt>
      <trkpt lat="43.3144050" lon="-8.4075290">
        <ele>146.3</ele>
        <time>2021-08-29T09:05:16Z</time>
      </trkpt>
      <trkpt lat="43.3143840" lon="-8.4075730">
        <ele>146.9</ele>
        <time>2021-08-29T09:05:19Z</time>
      </trkpt>
      <trkpt lat="43.3143870" lon="-8.4076360">
        <ele>147.6</ele>
        <time>2021-08-29T09:05:22Z</time>
      </trkpt>
      <trkpt lat="43.3143980" lon="-8.4076740">
        <ele>148.1</ele>
        <time>2021-08-29T09:05:24Z</time>
      </trkpt>
      <trkpt lat="43.3143970" lon="-8.4077080">
        <ele>148.5</ele>
        <time>2021-08-29T09:05:26Z</time>
      </trkpt>
      <trkpt lat="43.3143730" lon="-8.4077850">
        <ele>149.5</ele>
        <time>2021-08-29T09:05:30Z</time>
      </trkpt>
      <trkpt lat="43.3143830" lon="-8.4078590">
        <ele>150.4</ele>
        <time>2021-08-29T09:05:34Z</time>
      </trkpt>
      <trkpt lat="43.3143880" lon="-8.4078900">
        <ele>150.8</ele>
        <time>2021-08-29T09:05:36Z</time>
      </trkpt>
      <trkpt lat="43.3143760" lon="-8.4079340">
        <ele>151.4</ele>
        <time>2021-08-29T09:05:39Z</time>
      </trkpt>
      <trkpt lat="43.3143820" lon="-8.4079640">
        <ele>151.8</ele>
        <time>2021-08-29T09:05:41Z</time>
      </trkpt>
      <trkpt lat="43.3143850" lon="-8.4079950">
        <ele>152.2</ele>
        <time>2021-08-29T09:05:43Z</time>
      </trkpt>
      <trkpt lat="43.3143860" lon="-8.4080470">
        <ele>152.9</ele>
        <time>2021-08-29T09:05:46Z</time>
      </trkpt>
      <trkpt lat="43.3143690" lon="-8.4080880">
        <ele>153.5</ele>
        <time>2021-08-29T09:05:49Z</time>
      </trkpt>
      <trkpt lat="43.3143650" lon="-8.4081070">
        <ele>153.8</ele>
        <time>2021-08-29T09:05:50Z</time>
      </trkpt>
      <trkpt lat="43.3143820" lon="-8.4081670">
        <ele>154.6</ele>
        <time>2021-08-29T09:05:54Z</time>
      </trkpt>
      <trkpt lat="43.3143770" lon="-8.4081770">
        <ele>154.8</ele>
        <time>2021-08-29T09:05:55Z</time>
      </trkpt>
      <trkpt lat="43.3143660" lon="-8.4082250">
        <ele>155.5</ele>
        <time>2021-08-29T09:05:58Z</time>
      </trkpt>
      <trkpt lat="43.3144070" lon="-8.4083140">
        <ele>156.9</ele>
        <time>2021-08-29T09:06:04Z</time>
      </trkpt>
      <trkpt lat="43.3144050" lon="-8.4083270">
        <ele>157.0</ele>
        <time>2021-08-29T09:06:05Z</time>
      </trkpt>
      <trkpt lat="43.3143900" lon="-8.4083590">
        <ele>157.5</ele>
        <time>2021-08-29T09:06:07Z</time>
      </trkpt>
      <trkpt lat="43.3143890" lon="-8.4083780">
        <ele>157.8</ele>
        <time>2021-08-29T09:06:08Z</time>
      </trkpt>
      <trkpt lat="43.3144060" lon="-8.4084290">
        <ele>158.5</ele>
        <time>2021-08-29T09:06:11Z</time>
      </trkpt>
      <trkpt lat="43.3144120" lon="-8.4084860">
        <ele>159.2</ele>
        <time>2021-08-29T09:06:15Z</time>
      </trkpt>
      <trkpt lat="43.3144000" lon="-8.4085200">
        <ele>159.6</ele>
        <time>2021-08-29T09:06:17Z</time>
      </trkpt>
      <trkpt lat="43.3144140" lon="-8.4086410">
        <ele>161.0</ele>
        <time>2021-08-29T09:06:24Z</time>
      </trkpt>
      <trkpt lat="43.3144120" lon="-8.4086550">
        <ele>161.2</ele>
        <time>2021-08-29T09:06:25Z</time>
      </trkpt>
      <trkpt lat="43.3143950" lon="-8.4087270">
        <ele>162.0</ele>
        <time>2021-08-29T09:06:29Z</time>
      </trkpt>
      <trkpt lat="43.3144270" lon="-8.4088090">
        <ele>162.9</ele>
        <time>2021-08-29T09:06:34Z</time>
      </trkpt>
      <trkpt lat="43.3144290" lon="-8.4088450">
        <ele>163.2</ele>
        <time>2021-08-29T09:06:36Z</time>
      </trkpt>
      <trkpt lat="43.3144160" lon="-8.4090160">
        <ele>164.5</ele>
        <time>2021-08-29T09:06:45Z</time>
      </trkpt>
      <trkpt lat="43.3144200" lon="-8.4090330">
        <ele>164.6</ele>
        <time>2021-08-29T09:06:46Z</time>
      </trkpt>
      <trkpt lat="43.3144660" lon="-8.4092460">
        <ele>165.5</ele>
        <time>2021-08-29T09:06:55Z</time>
      </trkpt>
      <trkpt lat="43.3145460" lon="-8.4093510">
        <ele>164.6</ele>
        <time>2021-08-29T09:07:01Z</time>
      </trkpt>
      <trkpt lat="43.3145810" lon="-8.4094760">
        <ele>165.2</ele>
        <time>2021-08-29T09:07:07Z</time>
      </trkpt>
      <trkpt lat="43.3145830" lon="-8.4094950">
        <ele>165.6</ele>
        <time>2021-08-29T09:07:08Z</time>
      </trkpt>
      <trkpt lat="43.3145850" lon="-8.4095190">
        <ele>165.6</ele>
        <time>2021-08-29T09:07:09Z</time>
      </trkpt>
      <trkpt lat="43.3145910" lon="-8.4095500">
        <ele>166.0</ele>
        <time>2021-08-29T09:07:10Z</time>
      </trkpt>
      <trkpt lat="43.3145980" lon="-8.4095750">
        <ele>166.2</ele>
        <time>2021-08-29T09:07:11Z</time>
      </trkpt>
      <trkpt lat="43.3146120" lon="-8.4095930">
        <ele>166.2</ele>
        <time>2021-08-29T09:07:12Z</time>
      </trkpt>
      <trkpt lat="43.3146480" lon="-8.4096200">
        <ele>166.1</ele>
        <time>2021-08-29T09:07:14Z</time>
      </trkpt>
      <trkpt lat="43.3147740" lon="-8.4096660">
        <ele>166.0</ele>
        <time>2021-08-29T09:07:20Z</time>
      </trkpt>
      <trkpt lat="43.3148710" lon="-8.4097030">
        <ele>165.8</ele>
        <time>2021-08-29T09:07:23Z</time>
      </trkpt>
      <trkpt lat="43.3149710" lon="-8.4097580">
        <ele>165.6</ele>
        <time>2021-08-29T09:07:26Z</time>
      </trkpt>
      <trkpt lat="43.3152090" lon="-8.4098460">
        <ele>165.1</ele>
        <time>2021-08-29T09:07:32Z</time>
      </trkpt>
      <trkpt lat="43.3154140" lon="-8.4099430">
        <ele>164.6</ele>
        <time>2021-08-29T09:07:37Z</time>
      </trkpt>
      <trkpt lat="43.3157110" lon="-8.4100550">
        <ele>163.7</ele>
        <time>2021-08-29T09:07:43Z</time>
      </trkpt>
      <trkpt lat="43.3157600" lon="-8.4100770">
        <ele>163.5</ele>
        <time>2021-08-29T09:07:44Z</time>
      </trkpt>
      <trkpt lat="43.3158520" lon="-8.4101350">
        <ele>163.0</ele>
        <time>2021-08-29T09:07:46Z</time>
      </trkpt>
      <trkpt lat="43.3159840" lon="-8.4102820">
        <ele>162.0</ele>
        <time>2021-08-29T09:07:49Z</time>
      </trkpt>
      <trkpt lat="43.3160360" lon="-8.4103360">
        <ele>161.6</ele>
        <time>2021-08-29T09:07:50Z</time>
      </trkpt>
      <trkpt lat="43.3161730" lon="-8.4104250">
        <ele>160.6</ele>
        <time>2021-08-29T09:07:52Z</time>
      </trkpt>
      <trkpt lat="43.3164240" lon="-8.4104920">
        <ele>159.8</ele>
        <time>2021-08-29T09:07:54Z</time>
      </trkpt>
      <trkpt lat="43.3164240" lon="-8.4104920">
        <ele>159.8</ele>
        <time>2021-08-29T09:07:55Z</time>
      </trkpt>
      <trkpt lat="43.3167290" lon="-8.4104640">
        <ele>160.4</ele>
        <time>2021-08-29T09:07:59Z</time>
      </trkpt>
      <trkpt lat="43.3169000" lon="-8.4104100">
        <ele>161.0</ele>
        <time>2021-08-29T09:08:02Z</time>
      </trkpt>
      <trkpt lat="43.3169990" lon="-8.4103750">
        <ele>161.3</ele>
        <time>2021-08-29T09:08:04Z</time>
      </trkpt>
      <trkpt lat="43.3171830" lon="-8.4103040">
        <ele>162.0</ele>
        <time>2021-08-29T09:08:08Z</time>
      </trkpt>
      <trkpt lat="43.3172740" lon="-8.4102750">
        <ele>162.4</ele>
        <time>2021-08-29T09:08:10Z</time>
      </trkpt>
      <trkpt lat="43.3173630" lon="-8.4102420">
        <ele>162.7</ele>
        <time>2021-08-29T09:08:12Z</time>
      </trkpt>
      <trkpt lat="43.3175320" lon="-8.4102050">
        <ele>163.4</ele>
        <time>2021-08-29T09:08:16Z</time>
      </trkpt>
      <trkpt lat="43.3175710" lon="-8.4101980">
        <ele>163.6</ele>
        <time>2021-08-29T09:08:17Z</time>
      </trkpt>
      <trkpt lat="43.3176880" lon="-8.4101960">
        <ele>164.4</ele>
        <time>2021-08-29T09:08:20Z</time>
      </trkpt>
      <trkpt lat="43.3177710" lon="-8.4102410">
        <ele>165.0</ele>
        <time>2021-08-29T09:08:22Z</time>
      </trkpt>
      <trkpt lat="43.3178190" lon="-8.4102640">
        <ele>165.4</ele>
        <time>2021-08-29T09:08:23Z</time>
      </trkpt>
      <trkpt lat="43.3179290" lon="-8.4102840">
        <ele>166.2</ele>
        <time>2021-08-29T09:08:26Z</time>
      </trkpt>
      <trkpt lat="43.3180390" lon="-8.4102790">
        <ele>167.1</ele>
        <time>2021-08-29T09:08:31Z</time>
      </trkpt>
      <trkpt lat="43.3181480" lon="-8.4102910">
        <ele>167.7</ele>
        <time>2021-08-29T09:08:37Z</time>
      </trkpt>
      <trkpt lat="43.3181840" lon="-8.4102850">
        <ele>167.8</ele>
        <time>2021-08-29T09:08:40Z</time>
      </trkpt>
      <trkpt lat="43.3182250" lon="-8.4102370">
        <ele>167.9</ele>
        <time>2021-08-29T09:08:43Z</time>
      </trkpt>
      <trkpt lat="43.3183180" lon="-8.4101510">
        <ele>167.7</ele>
        <time>2021-08-29T09:08:46Z</time>
      </trkpt>
      <trkpt lat="43.3183560" lon="-8.4101260">
        <ele>167.6</ele>
        <time>2021-08-29T09:08:47Z</time>
      </trkpt>
      <trkpt lat="43.3184840" lon="-8.4100770">
        <ele>167.5</ele>
        <time>2021-08-29T09:08:50Z</time>
      </trkpt>
      <trkpt lat="43.3186010" lon="-8.4100590">
        <ele>167.4</ele>
        <time>2021-08-29T09:08:53Z</time>
      </trkpt>
      <trkpt lat="43.3188500" lon="-8.4099930">
        <ele>167.3</ele>
        <time>2021-08-29T09:09:00Z</time>
      </trkpt>
      <trkpt lat="43.3192020" lon="-8.4098930">
        <ele>168.1</ele>
        <time>2021-08-29T09:09:09Z</time>
      </trkpt>
      <trkpt lat="43.3193170" lon="-8.4098600">
        <ele>168.7</ele>
        <time>2021-08-29T09:09:12Z</time>
      </trkpt>
      <trkpt lat="43.3195200" lon="-8.4098100">
        <ele>170.1</ele>
        <time>2021-08-29T09:09:18Z</time>
      </trkpt>
      <trkpt lat="43.3196390" lon="-8.4097910">
        <ele>171.5</ele>
        <time>2021-08-29T09:09:24Z</time>
      </trkpt>
      <trkpt lat="43.3197770" lon="-8.4097840">
        <ele>173.6</ele>
        <time>2021-08-29T09:09:32Z</time>
      </trkpt>
      <trkpt lat="43.3197950" lon="-8.4097850">
        <ele>173.9</ele>
        <time>2021-08-29T09:09:33Z</time>
      </trkpt>
      <trkpt lat="43.3199120" lon="-8.4097800">
        <ele>175.4</ele>
        <time>2021-08-29T09:09:40Z</time>
      </trkpt>
      <trkpt lat="43.3200590" lon="-8.4097380">
        <ele>175.9</ele>
        <time>2021-08-29T09:09:48Z</time>
      </trkpt>
      <trkpt lat="43.3202780" lon="-8.4096510">
        <ele>173.8</ele>
        <time>2021-08-29T09:09:53Z</time>
      </trkpt>
      <trkpt lat="43.3204970" lon="-8.4095450">
        <ele>170.8</ele>
        <time>2021-08-29T09:09:56Z</time>
      </trkpt>
      <trkpt lat="43.3205860" lon="-8.4095090">
        <ele>169.8</ele>
        <time>2021-08-29T09:09:57Z</time>
      </trkpt>
      <trkpt lat="43.3209150" lon="-8.4094140">
        <ele>167.1</ele>
        <time>2021-08-29T09:10:01Z</time>
      </trkpt>
      <trkpt lat="43.3209880" lon="-8.4094290">
        <ele>166.7</ele>
        <time>2021-08-29T09:10:02Z</time>
      </trkpt>
      <trkpt lat="43.3210550" lon="-8.4094650">
        <ele>166.3</ele>
        <time>2021-08-29T09:10:03Z</time>
      </trkpt>
      <trkpt lat="43.3211670" lon="-8.4095670">
        <ele>165.7</ele>
        <time>2021-08-29T09:10:05Z</time>
      </trkpt>
      <trkpt lat="43.3212730" lon="-8.4096410">
        <ele>165.1</ele>
        <time>2021-08-29T09:10:07Z</time>
      </trkpt>
      <trkpt lat="43.3213930" lon="-8.4096890">
        <ele>164.5</ele>
        <time>2021-08-29T09:10:09Z</time>
      </trkpt>
      <trkpt lat="43.3217250" lon="-8.4097510">
        <ele>163.0</ele>
        <time>2021-08-29T09:10:14Z</time>
      </trkpt>
      <trkpt lat="43.3217990" lon="-8.4097460">
        <ele>162.8</ele>
        <time>2021-08-29T09:10:15Z</time>
      </trkpt>
      <trkpt lat="43.3218690" lon="-8.4097200">
        <ele>162.7</ele>
        <time>2021-08-29T09:10:16Z</time>
      </trkpt>
      <trkpt lat="43.3219910" lon="-8.4096400">
        <ele>162.5</ele>
        <time>2021-08-29T09:10:18Z</time>
      </trkpt>
      <trkpt lat="43.3220460" lon="-8.4096050">
        <ele>162.5</ele>
        <time>2021-08-29T09:10:19Z</time>
      </trkpt>
      <trkpt lat="43.3221430" lon="-8.4095730">
        <ele>162.5</ele>
        <time>2021-08-29T09:10:21Z</time>
      </trkpt>
      <trkpt lat="43.3221840" lon="-8.4095840">
        <ele>162.4</ele>
        <time>2021-08-29T09:10:22Z</time>
      </trkpt>
      <trkpt lat="43.3223330" lon="-8.4097000">
        <ele>162.5</ele>
        <time>2021-08-29T09:10:26Z</time>
      </trkpt>
      <trkpt lat="43.3223980" lon="-8.4097510">
        <ele>162.5</ele>
        <time>2021-08-29T09:10:28Z</time>
      </trkpt>
      <trkpt lat="43.3224200" lon="-8.4097840">
        <ele>162.5</ele>
        <time>2021-08-29T09:10:29Z</time>
      </trkpt>
      <trkpt lat="43.3224470" lon="-8.4098720">
        <ele>162.6</ele>
        <time>2021-08-29T09:10:31Z</time>
      </trkpt>
      <trkpt lat="43.3224910" lon="-8.4099340">
        <ele>163.1</ele>
        <time>2021-08-29T09:10:33Z</time>
      </trkpt>
      <trkpt lat="43.3225160" lon="-8.4099360">
        <ele>163.0</ele>
        <time>2021-08-29T09:10:34Z</time>
      </trkpt>
      <trkpt lat="43.3225450" lon="-8.4099180">
        <ele>163.0</ele>
        <time>2021-08-29T09:10:35Z</time>
      </trkpt>
      <trkpt lat="43.3225940" lon="-8.4098440">
        <ele>162.9</ele>
        <time>2021-08-29T09:10:37Z</time>
      </trkpt>
      <trkpt lat="43.3227490" lon="-8.4094830">
        <ele>163.4</ele>
        <time>2021-08-29T09:10:45Z</time>
      </trkpt>
      <trkpt lat="43.3227720" lon="-8.4094390">
        <ele>163.5</ele>
        <time>2021-08-29T09:10:46Z</time>
      </trkpt>
      <trkpt lat="43.3229220" lon="-8.4090150">
        <ele>164.0</ele>
        <time>2021-08-29T09:10:55Z</time>
      </trkpt>
      <trkpt lat="43.3228710" lon="-8.4087580">
        <ele>164.0</ele>
        <time>2021-08-29T09:11:00Z</time>
      </trkpt>
      <trkpt lat="43.3228580" lon="-8.4084810">
        <ele>164.2</ele>
        <time>2021-08-29T09:11:05Z</time>
      </trkpt>
      <trkpt lat="43.3229670" lon="-8.4082760">
        <ele>164.5</ele>
        <time>2021-08-29T09:11:10Z</time>
      </trkpt>
      <trkpt lat="43.3231060" lon="-8.4082000">
        <ele>164.9</ele>
        <time>2021-08-29T09:11:14Z</time>
      </trkpt>
      <trkpt lat="43.3233150" lon="-8.4082780">
        <ele>166.0</ele>
        <time>2021-08-29T09:11:19Z</time>
      </trkpt>
      <trkpt lat="43.3233790" lon="-8.4083470">
        <ele>166.5</ele>
        <time>2021-08-29T09:11:21Z</time>
      </trkpt>
      <trkpt lat="43.3234280" lon="-8.4084290">
        <ele>166.9</ele>
        <time>2021-08-29T09:11:23Z</time>
      </trkpt>
      <trkpt lat="43.3234440" lon="-8.4084790">
        <ele>166.9</ele>
        <time>2021-08-29T09:11:24Z</time>
      </trkpt>
      <trkpt lat="43.3235040" lon="-8.4087240">
        <ele>166.5</ele>
        <time>2021-08-29T09:11:29Z</time>
      </trkpt>
      <trkpt lat="43.3235540" lon="-8.4088170">
        <ele>166.0</ele>
        <time>2021-08-29T09:11:31Z</time>
      </trkpt>
      <trkpt lat="43.3237240" lon="-8.4091510">
        <ele>164.6</ele>
        <time>2021-08-29T09:11:37Z</time>
      </trkpt>
      <trkpt lat="43.3239320" lon="-8.4094570">
        <ele>163.4</ele>
        <time>2021-08-29T09:11:42Z</time>
      </trkpt>
      <trkpt lat="43.3240430" lon="-8.4095570">
        <ele>162.9</ele>
        <time>2021-08-29T09:11:44Z</time>
      </trkpt>
      <trkpt lat="43.3242360" lon="-8.4096500">
        <ele>162.0</ele>
        <time>2021-08-29T09:11:47Z</time>
      </trkpt>
      <trkpt lat="43.3245810" lon="-8.4097330">
        <ele>159.5</ele>
        <time>2021-08-29T09:11:52Z</time>
      </trkpt>
      <trkpt lat="43.3247600" lon="-8.4098560">
        <ele>156.9</ele>
        <time>2021-08-29T09:11:55Z</time>
      </trkpt>
      <trkpt lat="43.3248080" lon="-8.4099170">
        <ele>155.9</ele>
        <time>2021-08-29T09:11:56Z</time>
      </trkpt>
      <trkpt lat="43.3249520" lon="-8.4101270">
        <ele>152.2</ele>
        <time>2021-08-29T09:11:58Z</time>
      </trkpt>
      <trkpt lat="43.3250330" lon="-8.4102900">
        <ele>149.4</ele>
        <time>2021-08-29T09:12:01Z</time>
      </trkpt>
      <trkpt lat="43.3251190" lon="-8.4105730">
        <ele>145.0</ele>
        <time>2021-08-29T09:12:04Z</time>
      </trkpt>
      <trkpt lat="43.3251250" lon="-8.4106700">
        <ele>143.6</ele>
        <time>2021-08-29T09:12:05Z</time>
      </trkpt>
      <trkpt lat="43.3251260" lon="-8.4107680">
        <ele>142.2</ele>
        <time>2021-08-29T09:12:06Z</time>
      </trkpt>
      <trkpt lat="43.3251230" lon="-8.4108640">
        <ele>140.8</ele>
        <time>2021-08-29T09:12:07Z</time>
      </trkpt>
      <trkpt lat="43.3251010" lon="-8.4110510">
        <ele>138.2</ele>
        <time>2021-08-29T09:12:09Z</time>
      </trkpt>
      <trkpt lat="43.3250770" lon="-8.4113010">
        <ele>134.7</ele>
        <time>2021-08-29T09:12:12Z</time>
      </trkpt>
      <trkpt lat="43.3250870" lon="-8.4113810">
        <ele>133.6</ele>
        <time>2021-08-29T09:12:13Z</time>
      </trkpt>
      <trkpt lat="43.3251070" lon="-8.4114560">
        <ele>132.4</ele>
        <time>2021-08-29T09:12:14Z</time>
      </trkpt>
      <trkpt lat="43.3251830" lon="-8.4115660">
        <ele>130.3</ele>
        <time>2021-08-29T09:12:16Z</time>
      </trkpt>
      <trkpt lat="43.3252950" lon="-8.4115940">
        <ele>128.1</ele>
        <time>2021-08-29T09:12:18Z</time>
      </trkpt>
      <trkpt lat="43.3253520" lon="-8.4115840">
        <ele>127.1</ele>
        <time>2021-08-29T09:12:19Z</time>
      </trkpt>
      <trkpt lat="43.3254540" lon="-8.4115380">
        <ele>125.4</ele>
        <time>2021-08-29T09:12:21Z</time>
      </trkpt>
      <trkpt lat="43.3255520" lon="-8.4114690">
        <ele>123.9</ele>
        <time>2021-08-29T09:12:23Z</time>
      </trkpt>
      <trkpt lat="43.3256910" lon="-8.4113990">
        <ele>122.0</ele>
        <time>2021-08-29T09:12:26Z</time>
      </trkpt>
      <trkpt lat="43.3257200" lon="-8.4114040">
        <ele>121.6</ele>
        <time>2021-08-29T09:12:27Z</time>
      </trkpt>
      <trkpt lat="43.3257630" lon="-8.4115420">
        <ele>119.8</ele>
        <time>2021-08-29T09:12:30Z</time>
      </trkpt>
      <trkpt lat="43.3257360" lon="-8.4116510">
        <ele>119.6</ele>
        <time>2021-08-29T09:12:32Z</time>
      </trkpt>
      <trkpt lat="43.3256900" lon="-8.4116990">
        <ele>119.5</ele>
        <time>2021-08-29T09:12:33Z</time>
      </trkpt>
      <trkpt lat="43.3254510" lon="-8.4118660">
        <ele>120.1</ele>
        <time>2021-08-29T09:12:38Z</time>
      </trkpt>
      <trkpt lat="43.3253910" lon="-8.4119310">
        <ele>120.5</ele>
        <time>2021-08-29T09:12:40Z</time>
      </trkpt>
      <trkpt lat="43.3253220" lon="-8.4120520">
        <ele>121.2</ele>
        <time>2021-08-29T09:12:43Z</time>
      </trkpt>
      <trkpt lat="43.3252520" lon="-8.4121540">
        <ele>122.1</ele>
        <time>2021-08-29T09:12:46Z</time>
      </trkpt>
      <trkpt lat="43.3252140" lon="-8.4122050">
        <ele>122.5</ele>
        <time>2021-08-29T09:12:48Z</time>
      </trkpt>
      <trkpt lat="43.3251990" lon="-8.4122320">
        <ele>122.8</ele>
        <time>2021-08-29T09:12:49Z</time>
      </trkpt>
      <trkpt lat="43.3251420" lon="-8.4123380">
        <ele>123.5</ele>
        <time>2021-08-29T09:12:53Z</time>
      </trkpt>
      <trkpt lat="43.3251010" lon="-8.4123950">
        <ele>124.0</ele>
        <time>2021-08-29T09:12:55Z</time>
      </trkpt>
      <trkpt lat="43.3250680" lon="-8.4124930">
        <ele>124.6</ele>
        <time>2021-08-29T09:12:58Z</time>
      </trkpt>
      <trkpt lat="43.3250360" lon="-8.4125950">
        <ele>125.3</ele>
        <time>2021-08-29T09:13:01Z</time>
      </trkpt>
      <trkpt lat="43.3250180" lon="-8.4126980">
        <ele>125.9</ele>
        <time>2021-08-29T09:13:04Z</time>
      </trkpt>
      <trkpt lat="43.3250000" lon="-8.4128470">
        <ele>126.7</ele>
        <time>2021-08-29T09:13:08Z</time>
      </trkpt>
      <trkpt lat="43.3249840" lon="-8.4129540">
        <ele>127.3</ele>
        <time>2021-08-29T09:13:11Z</time>
      </trkpt>
      <trkpt lat="43.3249890" lon="-8.4131520">
        <ele>128.5</ele>
        <time>2021-08-29T09:13:17Z</time>
      </trkpt>
      <trkpt lat="43.3250270" lon="-8.4131970">
        <ele>128.2</ele>
        <time>2021-08-29T09:13:19Z</time>
      </trkpt>
      <trkpt lat="43.3251090" lon="-8.4132170">
        <ele>127.8</ele>
        <time>2021-08-29T09:13:21Z</time>
      </trkpt>
      <trkpt lat="43.3252380" lon="-8.4132470">
        <ele>128.4</ele>
        <time>2021-08-29T09:13:24Z</time>
      </trkpt>
      <trkpt lat="43.3252980" lon="-8.4132580">
        <ele>129.2</ele>
        <time>2021-08-29T09:13:26Z</time>
      </trkpt>
      <trkpt lat="43.3253220" lon="-8.4132660">
        <ele>129.6</ele>
        <time>2021-08-29T09:13:27Z</time>
      </trkpt>
      <trkpt lat="43.3254030" lon="-8.4132610">
        <ele>130.8</ele>
        <time>2021-08-29T09:13:32Z</time>
      </trkpt>
      <trkpt lat="43.3254750" lon="-8.4132760">
        <ele>131.9</ele>
        <time>2021-08-29T09:13:36Z</time>
      </trkpt>
      <trkpt lat="43.3255420" lon="-8.4132880">
        <ele>132.8</ele>
        <time>2021-08-29T09:13:40Z</time>
      </trkpt>
      <trkpt lat="43.3256600" lon="-8.4134010">
        <ele>134.0</ele>
        <time>2021-08-29T09:13:48Z</time>
      </trkpt>
      <trkpt lat="43.3256840" lon="-8.4134550">
        <ele>134.3</ele>
        <time>2021-08-29T09:13:51Z</time>
      </trkpt>
      <trkpt lat="43.3257090" lon="-8.4134990">
        <ele>134.6</ele>
        <time>2021-08-29T09:13:53Z</time>
      </trkpt>
      <trkpt lat="43.3257230" lon="-8.4135220">
        <ele>134.7</ele>
        <time>2021-08-29T09:13:54Z</time>
      </trkpt>
      <trkpt lat="43.3257340" lon="-8.4135410">
        <ele>134.8</ele>
        <time>2021-08-29T09:13:55Z</time>
      </trkpt>
      <trkpt lat="43.3257440" lon="-8.4135620">
        <ele>134.9</ele>
        <time>2021-08-29T09:13:56Z</time>
      </trkpt>
      <trkpt lat="43.3257720" lon="-8.4136010">
        <ele>135.2</ele>
        <time>2021-08-29T09:13:58Z</time>
      </trkpt>
      <trkpt lat="43.3257970" lon="-8.4136370">
        <ele>135.4</ele>
        <time>2021-08-29T09:14:00Z</time>
      </trkpt>
      <trkpt lat="43.3258210" lon="-8.4136730">
        <ele>135.7</ele>
        <time>2021-08-29T09:14:02Z</time>
      </trkpt>
      <trkpt lat="43.3258520" lon="-8.4137380">
        <ele>136.2</ele>
        <time>2021-08-29T09:14:05Z</time>
      </trkpt>
      <trkpt lat="43.3258630" lon="-8.4137630">
        <ele>136.4</ele>
        <time>2021-08-29T09:14:06Z</time>
      </trkpt>
      <trkpt lat="43.3259210" lon="-8.4138690">
        <ele>136.8</ele>
        <time>2021-08-29T09:14:12Z</time>
      </trkpt>
      <trkpt lat="43.3260190" lon="-8.4139360">
        <ele>136.4</ele>
        <time>2021-08-29T09:14:20Z</time>
      </trkpt>
      <trkpt lat="43.3261360" lon="-8.4139020">
        <ele>134.3</ele>
        <time>2021-08-29T09:14:25Z</time>
      </trkpt>
      <trkpt lat="43.3262860" lon="-8.4139550">
        <ele>130.4</ele>
        <time>2021-08-29T09:14:30Z</time>
      </trkpt>
      <trkpt lat="43.3264130" lon="-8.4139960">
        <ele>126.7</ele>
        <time>2021-08-29T09:14:34Z</time>
      </trkpt>
      <trkpt lat="43.3264980" lon="-8.4140090">
        <ele>124.2</ele>
        <time>2021-08-29T09:14:37Z</time>
      </trkpt>
      <trkpt lat="43.3266600" lon="-8.4140910">
        <ele>119.1</ele>
        <time>2021-08-29T09:14:42Z</time>
      </trkpt>
      <trkpt lat="43.3269340" lon="-8.4142410">
        <ele>111.3</ele>
        <time>2021-08-29T09:14:48Z</time>
      </trkpt>
      <trkpt lat="43.3272600" lon="-8.4143900">
        <ele>106.1</ele>
        <time>2021-08-29T09:14:53Z</time>
      </trkpt>
      <trkpt lat="43.3273160" lon="-8.4144180">
        <ele>105.6</ele>
        <time>2021-08-29T09:14:54Z</time>
      </trkpt>
      <trkpt lat="43.3274560" lon="-8.4145050">
        <ele>103.8</ele>
        <time>2021-08-29T09:14:57Z</time>
      </trkpt>
      <trkpt lat="43.3276900" lon="-8.4146080">
        <ele>99.2</ele>
        <time>2021-08-29T09:15:02Z</time>
      </trkpt>
      <trkpt lat="43.3278410" lon="-8.4146900">
        <ele>96.1</ele>
        <time>2021-08-29T09:15:06Z</time>
      </trkpt>
      <trkpt lat="43.3278730" lon="-8.4146910">
        <ele>95.6</ele>
        <time>2021-08-29T09:15:07Z</time>
      </trkpt>
      <trkpt lat="43.3279220" lon="-8.4146270">
        <ele>94.6</ele>
        <time>2021-08-29T09:15:09Z</time>
      </trkpt>
      <trkpt lat="43.3279810" lon="-8.4144160">
        <ele>92.5</ele>
        <time>2021-08-29T09:15:12Z</time>
      </trkpt>
      <trkpt lat="43.3280010" lon="-8.4143510">
        <ele>91.9</ele>
        <time>2021-08-29T09:15:13Z</time>
      </trkpt>
      <trkpt lat="43.3280580" lon="-8.4142260">
        <ele>90.6</ele>
        <time>2021-08-29T09:15:16Z</time>
      </trkpt>
      <trkpt lat="43.3281180" lon="-8.4141630">
        <ele>89.7</ele>
        <time>2021-08-29T09:15:19Z</time>
      </trkpt>
      <trkpt lat="43.3281600" lon="-8.4141410">
        <ele>89.2</ele>
        <time>2021-08-29T09:15:21Z</time>
      </trkpt>
      <trkpt lat="43.3282130" lon="-8.4140620">
        <ele>88.4</ele>
        <time>2021-08-29T09:15:24Z</time>
      </trkpt>
      <trkpt lat="43.3282420" lon="-8.4140410">
        <ele>88.0</ele>
        <time>2021-08-29T09:15:25Z</time>
      </trkpt>
      <trkpt lat="43.3283840" lon="-8.4140530">
        <ele>87.5</ele>
        <time>2021-08-29T09:15:29Z</time>
      </trkpt>
      <trkpt lat="43.3286350" lon="-8.4142160">
        <ele>87.2</ele>
        <time>2021-08-29T09:15:36Z</time>
      </trkpt>
      <trkpt lat="43.3289090" lon="-8.4143180">
        <ele>86.8</ele>
        <time>2021-08-29T09:15:43Z</time>
      </trkpt>
      <trkpt lat="43.3291110" lon="-8.4143710">
        <ele>86.5</ele>
        <time>2021-08-29T09:15:48Z</time>
      </trkpt>
      <trkpt lat="43.3292280" lon="-8.4143760">
        <ele>86.2</ele>
        <time>2021-08-29T09:15:51Z</time>
      </trkpt>
      <trkpt lat="43.3293520" lon="-8.4143240">
        <ele>85.7</ele>
        <time>2021-08-29T09:15:55Z</time>
      </trkpt>
      <trkpt lat="43.3295190" lon="-8.4143950">
        <ele>84.4</ele>
        <time>2021-08-29T09:15:59Z</time>
      </trkpt>
      <trkpt lat="43.3295670" lon="-8.4144150">
        <ele>84.0</ele>
        <time>2021-08-29T09:16:00Z</time>
      </trkpt>
      <trkpt lat="43.3296870" lon="-8.4144110">
        <ele>83.1</ele>
        <time>2021-08-29T09:16:02Z</time>
      </trkpt>
      <trkpt lat="43.3297490" lon="-8.4144100">
        <ele>82.8</ele>
        <time>2021-08-29T09:16:03Z</time>
      </trkpt>
      <trkpt lat="43.3298710" lon="-8.4144600">
        <ele>82.3</ele>
        <time>2021-08-29T09:16:05Z</time>
      </trkpt>
      <trkpt lat="43.3300790" lon="-8.4146380">
        <ele>81.8</ele>
        <time>2021-08-29T09:16:09Z</time>
      </trkpt>
      <trkpt lat="43.3301290" lon="-8.4146790">
        <ele>81.6</ele>
        <time>2021-08-29T09:16:10Z</time>
      </trkpt>
      <trkpt lat="43.3302600" lon="-8.4147650">
        <ele>81.0</ele>
        <time>2021-08-29T09:16:13Z</time>
      </trkpt>
      <trkpt lat="43.3303050" lon="-8.4147950">
        <ele>80.7</ele>
        <time>2021-08-29T09:16:14Z</time>
      </trkpt>
      <trkpt lat="43.3305020" lon="-8.4148380">
        <ele>78.9</ele>
        <time>2021-08-29T09:16:19Z</time>
      </trkpt>
      <trkpt lat="43.3306120" lon="-8.4147740">
        <ele>77.7</ele>
        <time>2021-08-29T09:16:21Z</time>
      </trkpt>
      <trkpt lat="43.3306630" lon="-8.4147280">
        <ele>77.1</ele>
        <time>2021-08-29T09:16:22Z</time>
      </trkpt>
      <trkpt lat="43.3307700" lon="-8.4146500">
        <ele>76.0</ele>
        <time>2021-08-29T09:16:24Z</time>
      </trkpt>
      <trkpt lat="43.3308560" lon="-8.4146090">
        <ele>75.4</ele>
        <time>2021-08-29T09:16:26Z</time>
      </trkpt>
      <trkpt lat="43.3309740" lon="-8.4146320">
        <ele>74.7</ele>
        <time>2021-08-29T09:16:28Z</time>
      </trkpt>
      <trkpt lat="43.3310900" lon="-8.4146940">
        <ele>74.2</ele>
        <time>2021-08-29T09:16:30Z</time>
      </trkpt>
      <trkpt lat="43.3311720" lon="-8.4147910">
        <ele>74.0</ele>
        <time>2021-08-29T09:16:32Z</time>
      </trkpt>
      <trkpt lat="43.3312070" lon="-8.4148490">
        <ele>73.9</ele>
        <time>2021-08-29T09:16:33Z</time>
      </trkpt>
      <trkpt lat="43.3312450" lon="-8.4149040">
        <ele>73.8</ele>
        <time>2021-08-29T09:16:34Z</time>
      </trkpt>
      <trkpt lat="43.3313220" lon="-8.4150180">
        <ele>73.8</ele>
        <time>2021-08-29T09:16:36Z</time>
      </trkpt>
      <trkpt lat="43.3313620" lon="-8.4150640">
        <ele>73.8</ele>
        <time>2021-08-29T09:16:37Z</time>
      </trkpt>
      <trkpt lat="43.3315230" lon="-8.4152750">
        <ele>73.9</ele>
        <time>2021-08-29T09:16:42Z</time>
      </trkpt>
      <trkpt lat="43.3316480" lon="-8.4154810">
        <ele>74.3</ele>
        <time>2021-08-29T09:16:47Z</time>
      </trkpt>
      <trkpt lat="43.3317010" lon="-8.4155500">
        <ele>74.4</ele>
        <time>2021-08-29T09:16:49Z</time>
      </trkpt>
      <trkpt lat="43.3318890" lon="-8.4157920">
        <ele>75.1</ele>
        <time>2021-08-29T09:16:56Z</time>
      </trkpt>
      <trkpt lat="43.3320530" lon="-8.4159460">
        <ele>75.4</ele>
        <time>2021-08-29T09:17:01Z</time>
      </trkpt>
      <trkpt lat="43.3320780" lon="-8.4159830">
        <ele>75.4</ele>
        <time>2021-08-29T09:17:02Z</time>
      </trkpt>
      <trkpt lat="43.3321960" lon="-8.4161430">
        <ele>75.4</ele>
        <time>2021-08-29T09:17:07Z</time>
      </trkpt>
      <trkpt lat="43.3322570" lon="-8.4161680">
        <ele>75.0</ele>
        <time>2021-08-29T09:17:09Z</time>
      </trkpt>
      <trkpt lat="43.3324260" lon="-8.4161340">
        <ele>73.5</ele>
        <time>2021-08-29T09:17:13Z</time>
      </trkpt>
      <trkpt lat="43.3324820" lon="-8.4161340">
        <ele>72.9</ele>
        <time>2021-08-29T09:17:14Z</time>
      </trkpt>
      <trkpt lat="43.3325350" lon="-8.4161260">
        <ele>72.3</ele>
        <time>2021-08-29T09:17:15Z</time>
      </trkpt>
      <trkpt lat="43.3326030" lon="-8.4160640">
        <ele>71.4</ele>
        <time>2021-08-29T09:17:17Z</time>
      </trkpt>
      <trkpt lat="43.3326700" lon="-8.4158680">
        <ele>69.2</ele>
        <time>2021-08-29T09:17:21Z</time>
      </trkpt>
      <trkpt lat="43.3326810" lon="-8.4158020">
        <ele>68.5</ele>
        <time>2021-08-29T09:17:22Z</time>
      </trkpt>
      <trkpt lat="43.3326920" lon="-8.4157270">
        <ele>67.8</ele>
        <time>2021-08-29T09:17:23Z</time>
      </trkpt>
      <trkpt lat="43.3326940" lon="-8.4156540">
        <ele>67.0</ele>
        <time>2021-08-29T09:17:24Z</time>
      </trkpt>
      <trkpt lat="43.3326920" lon="-8.4155900">
        <ele>66.4</ele>
        <time>2021-08-29T09:17:25Z</time>
      </trkpt>
      <trkpt lat="43.3327180" lon="-8.4155140">
        <ele>65.8</ele>
        <time>2021-08-29T09:17:26Z</time>
      </trkpt>
      <trkpt lat="43.3327510" lon="-8.4155140">
        <ele>65.2</ele>
        <time>2021-08-29T09:17:28Z</time>
      </trkpt>
      <trkpt lat="43.3328410" lon="-8.4155380">
        <ele>63.6</ele>
        <time>2021-08-29T09:17:30Z</time>
      </trkpt>
      <trkpt lat="43.3329500" lon="-8.4155210">
        <ele>62.0</ele>
        <time>2021-08-29T09:17:32Z</time>
      </trkpt>
      <trkpt lat="43.3330760" lon="-8.4155440">
        <ele>60.5</ele>
        <time>2021-08-29T09:17:34Z</time>
      </trkpt>
      <trkpt lat="43.3332160" lon="-8.4155620">
        <ele>60.7</ele>
        <time>2021-08-29T09:17:36Z</time>
      </trkpt>
      <trkpt lat="43.3333270" lon="-8.4156140">
        <ele>61.3</ele>
        <time>2021-08-29T09:17:38Z</time>
      </trkpt>
      <trkpt lat="43.3334700" lon="-8.4157860">
        <ele>62.2</ele>
        <time>2021-08-29T09:17:42Z</time>
      </trkpt>
      <trkpt lat="43.3335020" lon="-8.4158240">
        <ele>62.4</ele>
        <time>2021-08-29T09:17:43Z</time>
      </trkpt>
      <trkpt lat="43.3336390" lon="-8.4159500">
        <ele>63.2</ele>
        <time>2021-08-29T09:17:47Z</time>
      </trkpt>
      <trkpt lat="43.3337940" lon="-8.4161140">
        <ele>64.1</ele>
        <time>2021-08-29T09:17:52Z</time>
      </trkpt>
      <trkpt lat="43.3338570" lon="-8.4161750">
        <ele>64.3</ele>
        <time>2021-08-29T09:17:54Z</time>
      </trkpt>
      <trkpt lat="43.3341290" lon="-8.4163990">
        <ele>65.0</ele>
        <time>2021-08-29T09:18:02Z</time>
      </trkpt>
      <trkpt lat="43.3343510" lon="-8.4165620">
        <ele>64.7</ele>
        <time>2021-08-29T09:18:08Z</time>
      </trkpt>
      <trkpt lat="43.3345500" lon="-8.4167110">
        <ele>64.1</ele>
        <time>2021-08-29T09:18:13Z</time>
      </trkpt>
      <trkpt lat="43.3348850" lon="-8.4169360">
        <ele>62.8</ele>
        <time>2021-08-29T09:18:21Z</time>
      </trkpt>
      <trkpt lat="43.3352120" lon="-8.4171640">
        <ele>60.9</ele>
        <time>2021-08-29T09:18:28Z</time>
      </trkpt>
      <trkpt lat="43.3355190" lon="-8.4173760">
        <ele>59.3</ele>
        <time>2021-08-29T09:18:34Z</time>
      </trkpt>
      <trkpt lat="43.3355540" lon="-8.4174100">
        <ele>59.1</ele>
        <time>2021-08-29T09:18:35Z</time>
      </trkpt>
      <trkpt lat="43.3355990" lon="-8.4175000">
        <ele>58.9</ele>
        <time>2021-08-29T09:18:37Z</time>
      </trkpt>
      <trkpt lat="43.3356070" lon="-8.4175550">
        <ele>58.5</ele>
        <time>2021-08-29T09:18:38Z</time>
      </trkpt>
      <trkpt lat="43.3356050" lon="-8.4176150">
        <ele>58.2</ele>
        <time>2021-08-29T09:18:39Z</time>
      </trkpt>
      <trkpt lat="43.3355750" lon="-8.4177440">
        <ele>57.4</ele>
        <time>2021-08-29T09:18:41Z</time>
      </trkpt>
      <trkpt lat="43.3355480" lon="-8.4178140">
        <ele>56.9</ele>
        <time>2021-08-29T09:18:42Z</time>
      </trkpt>
      <trkpt lat="43.3354540" lon="-8.4180490">
        <ele>55.1</ele>
        <time>2021-08-29T09:18:45Z</time>
      </trkpt>
      <trkpt lat="43.3354320" lon="-8.4181400">
        <ele>54.4</ele>
        <time>2021-08-29T09:18:46Z</time>
      </trkpt>
      <trkpt lat="43.3354190" lon="-8.4182450">
        <ele>53.8</ele>
        <time>2021-08-29T09:18:47Z</time>
      </trkpt>
      <trkpt lat="43.3354390" lon="-8.4184670">
        <ele>52.6</ele>
        <time>2021-08-29T09:18:49Z</time>
      </trkpt>
      <trkpt lat="43.3355050" lon="-8.4186390">
        <ele>51.7</ele>
        <time>2021-08-29T09:18:51Z</time>
      </trkpt>
      <trkpt lat="43.3355580" lon="-8.4186780">
        <ele>51.7</ele>
        <time>2021-08-29T09:18:52Z</time>
      </trkpt>
      <trkpt lat="43.3356170" lon="-8.4186910">
        <ele>51.6</ele>
        <time>2021-08-29T09:18:53Z</time>
      </trkpt>
      <trkpt lat="43.3357190" lon="-8.4186610">
        <ele>51.6</ele>
        <time>2021-08-29T09:18:55Z</time>
      </trkpt>
      <trkpt lat="43.3358130" lon="-8.4185970">
        <ele>51.7</ele>
        <time>2021-08-29T09:18:57Z</time>
      </trkpt>
      <trkpt lat="43.3359210" lon="-8.4185730">
        <ele>51.7</ele>
        <time>2021-08-29T09:18:59Z</time>
      </trkpt>
      <trkpt lat="43.3359770" lon="-8.4185840">
        <ele>51.6</ele>
        <time>2021-08-29T09:19:00Z</time>
      </trkpt>
      <trkpt lat="43.3360300" lon="-8.4186090">
        <ele>51.6</ele>
        <time>2021-08-29T09:19:01Z</time>
      </trkpt>
      <trkpt lat="43.3361240" lon="-8.4187040">
        <ele>51.4</ele>
        <time>2021-08-29T09:19:03Z</time>
      </trkpt>
      <trkpt lat="43.3361840" lon="-8.4188540">
        <ele>51.1</ele>
        <time>2021-08-29T09:19:05Z</time>
      </trkpt>
      <trkpt lat="43.3361920" lon="-8.4189410">
        <ele>50.9</ele>
        <time>2021-08-29T09:19:06Z</time>
      </trkpt>
      <trkpt lat="43.3361960" lon="-8.4190250">
        <ele>50.8</ele>
        <time>2021-08-29T09:19:07Z</time>
      </trkpt>
      <trkpt lat="43.3361890" lon="-8.4192860">
        <ele>50.1</ele>
        <time>2021-08-29T09:19:10Z</time>
      </trkpt>
      <trkpt lat="43.3361940" lon="-8.4193730">
        <ele>49.8</ele>
        <time>2021-08-29T09:19:11Z</time>
      </trkpt>
      <trkpt lat="43.3362500" lon="-8.4196420">
        <ele>48.6</ele>
        <time>2021-08-29T09:19:14Z</time>
      </trkpt>
      <trkpt lat="43.3363830" lon="-8.4201620">
        <ele>46.5</ele>
        <time>2021-08-29T09:19:19Z</time>
      </trkpt>
      <trkpt lat="43.3365240" lon="-8.4208390">
        <ele>43.7</ele>
        <time>2021-08-29T09:19:25Z</time>
      </trkpt>
      <trkpt lat="43.3365760" lon="-8.4212910">
        <ele>42.5</ele>
        <time>2021-08-29T09:19:29Z</time>
      </trkpt>
      <trkpt lat="43.3366000" lon="-8.4213890">
        <ele>42.5</ele>
        <time>2021-08-29T09:19:30Z</time>
      </trkpt>
      <trkpt lat="43.3366340" lon="-8.4214780">
        <ele>42.5</ele>
        <time>2021-08-29T09:19:31Z</time>
      </trkpt>
      <trkpt lat="43.3367500" lon="-8.4215730">
        <ele>42.5</ele>
        <time>2021-08-29T09:19:33Z</time>
      </trkpt>
      <trkpt lat="43.3368780" lon="-8.4215490">
        <ele>42.6</ele>
        <time>2021-08-29T09:19:35Z</time>
      </trkpt>
      <trkpt lat="43.3370320" lon="-8.4214490">
        <ele>42.6</ele>
        <time>2021-08-29T09:19:38Z</time>
      </trkpt>
      <trkpt lat="43.3370770" lon="-8.4214260">
        <ele>42.6</ele>
        <time>2021-08-29T09:19:39Z</time>
      </trkpt>
      <trkpt lat="43.3371170" lon="-8.4214100">
        <ele>42.6</ele>
        <time>2021-08-29T09:19:40Z</time>
      </trkpt>
      <trkpt lat="43.3371970" lon="-8.4214340">
        <ele>42.6</ele>
        <time>2021-08-29T09:19:42Z</time>
      </trkpt>
      <trkpt lat="43.3372440" lon="-8.4214220">
        <ele>42.5</ele>
        <time>2021-08-29T09:19:43Z</time>
      </trkpt>
      <trkpt lat="43.3374140" lon="-8.4213740">
        <ele>42.4</ele>
        <time>2021-08-29T09:19:45Z</time>
      </trkpt>
      <trkpt lat="43.3375350" lon="-8.4213630">
        <ele>42.3</ele>
        <time>2021-08-29T09:19:47Z</time>
      </trkpt>
      <trkpt lat="43.3376250" lon="-8.4213850">
        <ele>42.2</ele>
        <time>2021-08-29T09:19:49Z</time>
      </trkpt>
      <trkpt lat="43.3376670" lon="-8.4214190">
        <ele>42.1</ele>
        <time>2021-08-29T09:19:50Z</time>
      </trkpt>
      <trkpt lat="43.3378760" lon="-8.4216560">
        <ele>41.6</ele>
        <time>2021-08-29T09:19:55Z</time>
      </trkpt>
      <trkpt lat="43.3379240" lon="-8.4216940">
        <ele>41.5</ele>
        <time>2021-08-29T09:19:56Z</time>
      </trkpt>
      <trkpt lat="43.3379800" lon="-8.4217240">
        <ele>41.3</ele>
        <time>2021-08-29T09:19:57Z</time>
      </trkpt>
      <trkpt lat="43.3382020" lon="-8.4217760">
        <ele>40.8</ele>
        <time>2021-08-29T09:20:01Z</time>
      </trkpt>
      <trkpt lat="43.3384010" lon="-8.4218790">
        <ele>42.2</ele>
        <time>2021-08-29T09:20:05Z</time>
      </trkpt>
      <trkpt lat="43.3384390" lon="-8.4218810">
        <ele>42.5</ele>
        <time>2021-08-29T09:20:06Z</time>
      </trkpt>
      <trkpt lat="43.3386000" lon="-8.4218380">
        <ele>43.6</ele>
        <time>2021-08-29T09:20:11Z</time>
      </trkpt>
      <trkpt lat="43.3386310" lon="-8.4218270">
        <ele>43.8</ele>
        <time>2021-08-29T09:20:12Z</time>
      </trkpt>
      <trkpt lat="43.3386900" lon="-8.4218050">
        <ele>44.2</ele>
        <time>2021-08-29T09:20:14Z</time>
      </trkpt>
      <trkpt lat="43.3388420" lon="-8.4217560">
        <ele>45.1</ele>
        <time>2021-08-29T09:20:19Z</time>
      </trkpt>
      <trkpt lat="43.3390360" lon="-8.4216720">
        <ele>46.2</ele>
        <time>2021-08-29T09:20:25Z</time>
      </trkpt>
      <trkpt lat="43.3390630" lon="-8.4216460">
        <ele>46.3</ele>
        <time>2021-08-29T09:20:26Z</time>
      </trkpt>
      <trkpt lat="43.3391870" lon="-8.4214760">
        <ele>48.0</ele>
        <time>2021-08-29T09:20:32Z</time>
      </trkpt>
      <trkpt lat="43.3392440" lon="-8.4213520">
        <ele>49.4</ele>
        <time>2021-08-29T09:20:37Z</time>
      </trkpt>
      <trkpt lat="43.3392550" lon="-8.4213310">
        <ele>49.6</ele>
        <time>2021-08-29T09:20:38Z</time>
      </trkpt>
      <trkpt lat="43.3393380" lon="-8.4212320">
        <ele>51.1</ele>
        <time>2021-08-29T09:20:44Z</time>
      </trkpt>
      <trkpt lat="43.3394620" lon="-8.4211980">
        <ele>52.5</ele>
        <time>2021-08-29T09:20:50Z</time>
      </trkpt>
      <trkpt lat="43.3395990" lon="-8.4213300">
        <ele>53.7</ele>
        <time>2021-08-29T09:20:57Z</time>
      </trkpt>
      <trkpt lat="43.3396640" lon="-8.4215580">
        <ele>53.8</ele>
        <time>2021-08-29T09:21:04Z</time>
      </trkpt>
      <trkpt lat="43.3397610" lon="-8.4218690">
        <ele>53.9</ele>
        <time>2021-08-29T09:21:12Z</time>
      </trkpt>
      <trkpt lat="43.3399070" lon="-8.4221280">
        <ele>54.0</ele>
        <time>2021-08-29T09:21:17Z</time>
      </trkpt>
      <trkpt lat="43.3399530" lon="-8.4222040">
        <ele>54.0</ele>
        <time>2021-08-29T09:21:19Z</time>
      </trkpt>
      <trkpt lat="43.3399920" lon="-8.4222510">
        <ele>54.1</ele>
        <time>2021-08-29T09:21:21Z</time>
      </trkpt>
      <trkpt lat="43.3401420" lon="-8.4223260">
        <ele>54.2</ele>
        <time>2021-08-29T09:21:27Z</time>
      </trkpt>
      <trkpt lat="43.3402440" lon="-8.4223270">
        <ele>54.2</ele>
        <time>2021-08-29T09:21:30Z</time>
      </trkpt>
      <trkpt lat="43.3402870" lon="-8.4223240">
        <ele>54.2</ele>
        <time>2021-08-29T09:21:31Z</time>
      </trkpt>
      <trkpt lat="43.3403790" lon="-8.4222850">
        <ele>54.1</ele>
        <time>2021-08-29T09:21:33Z</time>
      </trkpt>
      <trkpt lat="43.3405800" lon="-8.4221420">
        <ele>53.7</ele>
        <time>2021-08-29T09:21:37Z</time>
      </trkpt>
      <trkpt lat="43.3406950" lon="-8.4221440">
        <ele>53.6</ele>
        <time>2021-08-29T09:21:39Z</time>
      </trkpt>
      <trkpt lat="43.3407460" lon="-8.4221620">
        <ele>53.6</ele>
        <time>2021-08-29T09:21:40Z</time>
      </trkpt>
      <trkpt lat="43.3408380" lon="-8.4222090">
        <ele>53.7</ele>
        <time>2021-08-29T09:21:42Z</time>
      </trkpt>
      <trkpt lat="43.3409070" lon="-8.4222220">
        <ele>53.9</ele>
        <time>2021-08-29T09:21:44Z</time>
      </trkpt>
      <trkpt lat="43.3409070" lon="-8.4222220">
        <ele>53.9</ele>
        <time>2021-08-29T09:21:48Z</time>
      </trkpt>
      <trkpt lat="43.3409620" lon="-8.4223020">
        <ele>54.1</ele>
        <time>2021-08-29T09:21:49Z</time>
      </trkpt>
      <trkpt lat="43.3410160" lon="-8.4223830">
        <ele>54.4</ele>
        <time>2021-08-29T09:21:50Z</time>
      </trkpt>
      <trkpt lat="43.3410710" lon="-8.4224630">
        <ele>54.7</ele>
        <time>2021-08-29T09:21:51Z</time>
      </trkpt>
      <trkpt lat="43.3411250" lon="-8.4225430">
        <ele>54.9</ele>
        <time>2021-08-29T09:21:52Z</time>
      </trkpt>
      <trkpt lat="43.3411800" lon="-8.4226240">
        <ele>55.2</ele>
        <time>2021-08-29T09:21:54Z</time>
      </trkpt>
      <trkpt lat="43.3412340" lon="-8.4227040">
        <ele>55.4</ele>
        <time>2021-08-29T09:21:57Z</time>
      </trkpt>
      <trkpt lat="43.3412890" lon="-8.4227840">
        <ele>55.6</ele>
        <time>2021-08-29T09:21:58Z</time>
      </trkpt>
      <trkpt lat="43.3413430" lon="-8.4228650">
        <ele>55.8</ele>
        <time>2021-08-29T09:22:00Z</time>
      </trkpt>
      <trkpt lat="43.3413980" lon="-8.4229450">
        <ele>55.9</ele>
        <time>2021-08-29T09:22:03Z</time>
      </trkpt>
      <trkpt lat="43.3414410" lon="-8.4228010">
        <ele>56.0</ele>
        <time>2021-08-29T09:22:04Z</time>
      </trkpt>
      <trkpt lat="43.3415050" lon="-8.4229120">
        <ele>56.1</ele>
        <time>2021-08-29T09:22:07Z</time>
      </trkpt>
      <trkpt lat="43.3415350" lon="-8.4229410">
        <ele>56.1</ele>
        <time>2021-08-29T09:22:08Z</time>
      </trkpt>
      <trkpt lat="43.3415670" lon="-8.4229480">
        <ele>56.4</ele>
        <time>2021-08-29T09:22:09Z</time>
      </trkpt>
      <trkpt lat="43.3416310" lon="-8.4229050">
        <ele>56.4</ele>
        <time>2021-08-29T09:22:11Z</time>
      </trkpt>
      <trkpt lat="43.3416680" lon="-8.4227740">
        <ele>56.5</ele>
        <time>2021-08-29T09:22:14Z</time>
      </trkpt>
      <trkpt lat="43.3416680" lon="-8.4227330">
        <ele>56.6</ele>
        <time>2021-08-29T09:22:15Z</time>
      </trkpt>
      <trkpt lat="43.3416720" lon="-8.4226940">
        <ele>56.6</ele>
        <time>2021-08-29T09:22:16Z</time>
      </trkpt>
      <trkpt lat="43.3416970" lon="-8.4226530">
        <ele>56.8</ele>
        <time>2021-08-29T09:22:17Z</time>
      </trkpt>
      <trkpt lat="43.3417510" lon="-8.4225810">
        <ele>57.1</ele>
        <time>2021-08-29T09:22:19Z</time>
      </trkpt>
      <trkpt lat="43.3418350" lon="-8.4224260">
        <ele>57.8</ele>
        <time>2021-08-29T09:22:24Z</time>
      </trkpt>
      <trkpt lat="43.3420200" lon="-8.4221800">
        <ele>59.8</ele>
        <time>2021-08-29T09:22:33Z</time>
      </trkpt>
      <trkpt lat="43.3421860" lon="-8.4219420">
        <ele>62.3</ele>
        <time>2021-08-29T09:22:42Z</time>
      </trkpt>
      <trkpt lat="43.3422920" lon="-8.4219050">
        <ele>63.7</ele>
        <time>2021-08-29T09:22:47Z</time>
      </trkpt>
      <trkpt lat="43.3423090" lon="-8.4218880">
        <ele>63.9</ele>
        <time>2021-08-29T09:22:48Z</time>
      </trkpt>
      <trkpt lat="43.3423340" lon="-8.4218410">
        <ele>64.4</ele>
        <time>2021-08-29T09:22:50Z</time>
      </trkpt>
      <trkpt lat="43.3423460" lon="-8.4218190">
        <ele>64.7</ele>
        <time>2021-08-29T09:22:51Z</time>
      </trkpt>
      <trkpt lat="43.3424380" lon="-8.4217850">
        <ele>65.7</ele>
        <time>2021-08-29T09:22:56Z</time>
      </trkpt>
      <trkpt lat="43.3425310" lon="-8.4216990">
        <ele>66.7</ele>
        <time>2021-08-29T09:23:01Z</time>
      </trkpt>
      <trkpt lat="43.3427090" lon="-8.4215300">
        <ele>68.5</ele>
        <time>2021-08-29T09:23:10Z</time>
      </trkpt>
      <trkpt lat="43.3428870" lon="-8.4213530">
        <ele>69.7</ele>
        <time>2021-08-29T09:23:19Z</time>
      </trkpt>
      <trkpt lat="43.3429460" lon="-8.4212870">
        <ele>69.8</ele>
        <time>2021-08-29T09:23:22Z</time>
      </trkpt>
      <trkpt lat="43.3429960" lon="-8.4212160">
        <ele>69.9</ele>
        <time>2021-08-29T09:23:25Z</time>
      </trkpt>
      <trkpt lat="43.3430470" lon="-8.4211330">
        <ele>69.7</ele>
        <time>2021-08-29T09:23:28Z</time>
      </trkpt>
      <trkpt lat="43.3432150" lon="-8.4208860">
        <ele>68.0</ele>
        <time>2021-08-29T09:23:36Z</time>
      </trkpt>
      <trkpt lat="43.3433860" lon="-8.4206000">
        <ele>63.9</ele>
        <time>2021-08-29T09:23:41Z</time>
      </trkpt>
      <trkpt lat="43.3435300" lon="-8.4202500">
        <ele>57.9</ele>
        <time>2021-08-29T09:23:45Z</time>
      </trkpt>
      <trkpt lat="43.3437380" lon="-8.4195870">
        <ele>46.5</ele>
        <time>2021-08-29T09:23:51Z</time>
      </trkpt>
      <trkpt lat="43.3439200" lon="-8.4191570">
        <ele>39.0</ele>
        <time>2021-08-29T09:23:55Z</time>
      </trkpt>
      <trkpt lat="43.3439840" lon="-8.4190600">
        <ele>37.0</ele>
        <time>2021-08-29T09:23:56Z</time>
      </trkpt>
      <trkpt lat="43.3442580" lon="-8.4187080">
        <ele>29.8</ele>
        <time>2021-08-29T09:24:00Z</time>
      </trkpt>
      <trkpt lat="43.3443650" lon="-8.4185670">
        <ele>27.6</ele>
        <time>2021-08-29T09:24:02Z</time>
      </trkpt>
      <trkpt lat="43.3444740" lon="-8.4184850">
        <ele>26.3</ele>
        <time>2021-08-29T09:24:04Z</time>
      </trkpt>
      <trkpt lat="43.3445370" lon="-8.4184740">
        <ele>25.8</ele>
        <time>2021-08-29T09:24:05Z</time>
      </trkpt>
      <trkpt lat="43.3446720" lon="-8.4184710">
        <ele>24.8</ele>
        <time>2021-08-29T09:24:07Z</time>
      </trkpt>
      <trkpt lat="43.3448110" lon="-8.4184060">
        <ele>23.7</ele>
        <time>2021-08-29T09:24:09Z</time>
      </trkpt>
      <trkpt lat="43.3449450" lon="-8.4182890">
        <ele>22.9</ele>
        <time>2021-08-29T09:24:11Z</time>
      </trkpt>
      <trkpt lat="43.3451010" lon="-8.4182190">
        <ele>22.2</ele>
        <time>2021-08-29T09:24:13Z</time>
      </trkpt>
      <trkpt lat="43.3452730" lon="-8.4181930">
        <ele>22.2</ele>
        <time>2021-08-29T09:24:15Z</time>
      </trkpt>
      <trkpt lat="43.3454400" lon="-8.4181340">
        <ele>22.8</ele>
        <time>2021-08-29T09:24:17Z</time>
      </trkpt>
      <trkpt lat="43.3455610" lon="-8.4180150">
        <ele>23.8</ele>
        <time>2021-08-29T09:24:19Z</time>
      </trkpt>
      <trkpt lat="43.3456030" lon="-8.4179530">
        <ele>24.3</ele>
        <time>2021-08-29T09:24:20Z</time>
      </trkpt>
      <trkpt lat="43.3456780" lon="-8.4178020">
        <ele>25.2</ele>
        <time>2021-08-29T09:24:23Z</time>
      </trkpt>
      <trkpt lat="43.3456840" lon="-8.4177580">
        <ele>30.6</ele>
        <time>2021-08-29T09:24:24Z</time>
      </trkpt>
      <trkpt lat="43.3456750" lon="-8.4177220">
        <ele>30.5</ele>
        <time>2021-08-29T09:24:25Z</time>
      </trkpt>
      <trkpt lat="43.3456430" lon="-8.4176690">
        <ele>30.5</ele>
        <time>2021-08-29T09:24:27Z</time>
      </trkpt>
      <trkpt lat="43.3455960" lon="-8.4175970">
        <ele>30.5</ele>
        <time>2021-08-29T09:24:30Z</time>
      </trkpt>
      <trkpt lat="43.3455370" lon="-8.4174790">
        <ele>30.5</ele>
        <time>2021-08-29T09:24:34Z</time>
      </trkpt>
      <trkpt lat="43.3455190" lon="-8.4174470">
        <ele>30.5</ele>
        <time>2021-08-29T09:24:35Z</time>
      </trkpt>
      <trkpt lat="43.3454680" lon="-8.4174030">
        <ele>30.4</ele>
        <time>2021-08-29T09:24:37Z</time>
      </trkpt>
      <trkpt lat="43.3454020" lon="-8.4174080">
        <ele>30.4</ele>
        <time>2021-08-29T09:24:39Z</time>
      </trkpt>
      <trkpt lat="43.3453740" lon="-8.4174270">
        <ele>30.4</ele>
        <time>2021-08-29T09:24:40Z</time>
      </trkpt>
      <trkpt lat="43.3453510" lon="-8.4175010">
        <ele>30.3</ele>
        <time>2021-08-29T09:24:42Z</time>
      </trkpt>
      <trkpt lat="43.3453660" lon="-8.4175750">
        <ele>30.3</ele>
        <time>2021-08-29T09:24:44Z</time>
      </trkpt>
      <trkpt lat="43.3454070" lon="-8.4176270">
        <ele>30.2</ele>
        <time>2021-08-29T09:24:46Z</time>
      </trkpt>
      <trkpt lat="43.3455800" lon="-8.4177860">
        <ele>30.0</ele>
        <time>2021-08-29T09:24:54Z</time>
      </trkpt>
      <trkpt lat="43.3457270" lon="-8.4177520">
        <ele>29.8</ele>
        <time>2021-08-29T09:25:00Z</time>
      </trkpt>
      <trkpt lat="43.3458520" lon="-8.4177130">
        <ele>29.7</ele>
        <time>2021-08-29T09:25:04Z</time>
      </trkpt>
      <trkpt lat="43.3459630" lon="-8.4176740">
        <ele>29.6</ele>
        <time>2021-08-29T09:25:07Z</time>
      </trkpt>
      <trkpt lat="43.3461540" lon="-8.4176000">
        <ele>29.5</ele>
        <time>2021-08-29T09:25:11Z</time>
      </trkpt>
      <trkpt lat="43.3462090" lon="-8.4175630">
        <ele>29.4</ele>
        <time>2021-08-29T09:25:12Z</time>
      </trkpt>
      <trkpt lat="43.3463450" lon="-8.4174630">
        <ele>29.1</ele>
        <time>2021-08-29T09:25:15Z</time>
      </trkpt>
      <trkpt lat="43.3463950" lon="-8.4174060">
        <ele>29.1</ele>
        <time>2021-08-29T09:25:17Z</time>
      </trkpt>
      <trkpt lat="43.3465000" lon="-8.4172980">
        <ele>28.8</ele>
        <time>2021-08-29T09:25:21Z</time>
      </trkpt>
      <trkpt lat="43.3466300" lon="-8.4171550">
        <ele>28.3</ele>
        <time>2021-08-29T09:25:25Z</time>
      </trkpt>
      <trkpt lat="43.3466960" lon="-8.4170810">
        <ele>28.0</ele>
        <time>2021-08-29T09:25:27Z</time>
      </trkpt>
      <trkpt lat="43.3467370" lon="-8.4170500">
        <ele>27.9</ele>
        <time>2021-08-29T09:25:29Z</time>
      </trkpt>
      <trkpt lat="43.3467910" lon="-8.4170630">
        <ele>27.9</ele>
        <time>2021-08-29T09:25:33Z</time>
      </trkpt>
      <trkpt lat="43.3469040" lon="-8.4172540">
        <ele>28.3</ele>
        <time>2021-08-29T09:25:38Z</time>
      </trkpt>
      <trkpt lat="43.3469640" lon="-8.4173740">
        <ele>28.6</ele>
        <time>2021-08-29T09:25:42Z</time>
      </trkpt>
      <trkpt lat="43.3469760" lon="-8.4173960">
        <ele>28.6</ele>
        <time>2021-08-29T09:25:43Z</time>
      </trkpt>
      <trkpt lat="43.3470380" lon="-8.4176400">
        <ele>29.0</ele>
        <time>2021-08-29T09:25:47Z</time>
      </trkpt>
      <trkpt lat="43.3470660" lon="-8.4176930">
        <ele>29.1</ele>
        <time>2021-08-29T09:25:48Z</time>
      </trkpt>
      <trkpt lat="43.3471020" lon="-8.4177480">
        <ele>29.2</ele>
        <time>2021-08-29T09:25:49Z</time>
      </trkpt>
      <trkpt lat="43.3471240" lon="-8.4178660">
        <ele>29.4</ele>
        <time>2021-08-29T09:25:51Z</time>
      </trkpt>
      <trkpt lat="43.3471740" lon="-8.4179620">
        <ele>29.6</ele>
        <time>2021-08-29T09:25:53Z</time>
      </trkpt>
      <trkpt lat="43.3472330" lon="-8.4180500">
        <ele>29.9</ele>
        <time>2021-08-29T09:25:55Z</time>
      </trkpt>
      <trkpt lat="43.3472660" lon="-8.4180960">
        <ele>30.0</ele>
        <time>2021-08-29T09:25:56Z</time>
      </trkpt>
      <trkpt lat="43.3474630" lon="-8.4185120">
        <ele>30.9</ele>
        <time>2021-08-29T09:26:05Z</time>
      </trkpt>
      <trkpt lat="43.3476140" lon="-8.4188370">
        <ele>31.3</ele>
        <time>2021-08-29T09:26:12Z</time>
      </trkpt>
      <trkpt lat="43.3478180" lon="-8.4192630">
        <ele>32.0</ele>
        <time>2021-08-29T09:26:21Z</time>
      </trkpt>
      <trkpt lat="43.3479390" lon="-8.4194880">
        <ele>32.5</ele>
        <time>2021-08-29T09:26:26Z</time>
      </trkpt>
      <trkpt lat="43.3479790" lon="-8.4195820">
        <ele>32.7</ele>
        <time>2021-08-29T09:26:28Z</time>
      </trkpt>
      <trkpt lat="43.3480070" lon="-8.4196180">
        <ele>32.8</ele>
        <time>2021-08-29T09:26:29Z</time>
      </trkpt>
      <trkpt lat="43.3480390" lon="-8.4196420">
        <ele>33.0</ele>
        <time>2021-08-29T09:26:30Z</time>
      </trkpt>
      <trkpt lat="43.3481740" lon="-8.4197260">
        <ele>33.5</ele>
        <time>2021-08-29T09:26:34Z</time>
      </trkpt>
      <trkpt lat="43.3483200" lon="-8.4197770">
        <ele>34.3</ele>
        <time>2021-08-29T09:26:38Z</time>
      </trkpt>
      <trkpt lat="43.3483870" lon="-8.4198120">
        <ele>34.6</ele>
        <time>2021-08-29T09:26:40Z</time>
      </trkpt>
      <trkpt lat="43.3486300" lon="-8.4199680">
        <ele>35.8</ele>
        <time>2021-08-29T09:26:47Z</time>
      </trkpt>
      <trkpt lat="43.3487420" lon="-8.4199960">
        <ele>36.2</ele>
        <time>2021-08-29T09:26:50Z</time>
      </trkpt>
      <trkpt lat="43.3488180" lon="-8.4199870">
        <ele>36.5</ele>
        <time>2021-08-29T09:26:52Z</time>
      </trkpt>
      <trkpt lat="43.3490610" lon="-8.4200050">
        <ele>37.2</ele>
        <time>2021-08-29T09:26:59Z</time>
      </trkpt>
      <trkpt lat="43.3491910" lon="-8.4201820">
        <ele>37.5</ele>
        <time>2021-08-29T09:27:04Z</time>
      </trkpt>
      <trkpt lat="43.3492770" lon="-8.4204750">
        <ele>37.0</ele>
        <time>2021-08-29T09:27:09Z</time>
      </trkpt>
      <trkpt lat="43.3494470" lon="-8.4207070">
        <ele>36.8</ele>
        <time>2021-08-29T09:27:14Z</time>
      </trkpt>
      <trkpt lat="43.3497140" lon="-8.4210570">
        <ele>36.6</ele>
        <time>2021-08-29T09:27:22Z</time>
      </trkpt>
      <trkpt lat="43.3499360" lon="-8.4214040">
        <ele>36.5</ele>
        <time>2021-08-29T09:27:29Z</time>
      </trkpt>
      <trkpt lat="43.3501340" lon="-8.4217700">
        <ele>36.6</ele>
        <time>2021-08-29T09:27:36Z</time>
      </trkpt>
      <trkpt lat="43.3502890" lon="-8.4221050">
        <ele>36.7</ele>
        <time>2021-08-29T09:27:42Z</time>
      </trkpt>
      <trkpt lat="43.3503390" lon="-8.4222130">
        <ele>36.8</ele>
        <time>2021-08-29T09:27:44Z</time>
      </trkpt>
      <trkpt lat="43.3505250" lon="-8.4227360">
        <ele>37.0</ele>
        <time>2021-08-29T09:27:53Z</time>
      </trkpt>
      <trkpt lat="43.3505920" lon="-8.4228980">
        <ele>37.0</ele>
        <time>2021-08-29T09:27:56Z</time>
      </trkpt>
      <trkpt lat="43.3506710" lon="-8.4229710">
        <ele>37.2</ele>
        <time>2021-08-29T09:27:58Z</time>
      </trkpt>
      <trkpt lat="43.3507600" lon="-8.4229890">
        <ele>37.3</ele>
        <time>2021-08-29T09:28:00Z</time>
      </trkpt>
      <trkpt lat="43.3508040" lon="-8.4229780">
        <ele>37.3</ele>
        <time>2021-08-29T09:28:01Z</time>
      </trkpt>
      <trkpt lat="43.3510410" lon="-8.4228860">
        <ele>38.0</ele>
        <time>2021-08-29T09:28:07Z</time>
      </trkpt>
      <trkpt lat="43.3511100" lon="-8.4228640">
        <ele>38.2</ele>
        <time>2021-08-29T09:28:09Z</time>
      </trkpt>
      <trkpt lat="43.3513960" lon="-8.4227650">
        <ele>39.6</ele>
        <time>2021-08-29T09:28:17Z</time>
      </trkpt>
      <trkpt lat="43.3516580" lon="-8.4226740">
        <ele>41.3</ele>
        <time>2021-08-29T09:28:25Z</time>
      </trkpt>
      <trkpt lat="43.3517540" lon="-8.4226400">
        <ele>42.0</ele>
        <time>2021-08-29T09:28:28Z</time>
      </trkpt>
      <trkpt lat="43.3519150" lon="-8.4225910">
        <ele>43.3</ele>
        <time>2021-08-29T09:28:33Z</time>
      </trkpt>
      <trkpt lat="43.3519470" lon="-8.4225750">
        <ele>43.6</ele>
        <time>2021-08-29T09:28:34Z</time>
      </trkpt>
      <trkpt lat="43.3521830" lon="-8.4224590">
        <ele>45.1</ele>
        <time>2021-08-29T09:28:43Z</time>
      </trkpt>
      <trkpt lat="43.3522090" lon="-8.4224420">
        <ele>45.2</ele>
        <time>2021-08-29T09:28:44Z</time>
      </trkpt>
      <trkpt lat="43.3523160" lon="-8.4223540">
        <ele>45.6</ele>
        <time>2021-08-29T09:28:49Z</time>
      </trkpt>
      <trkpt lat="43.3523560" lon="-8.4223140">
        <ele>46.2</ele>
        <time>2021-08-29T09:28:51Z</time>
      </trkpt>
      <trkpt lat="43.3524960" lon="-8.4222430">
        <ele>46.9</ele>
        <time>2021-08-29T09:28:57Z</time>
      </trkpt>
      <trkpt lat="43.3527080" lon="-8.4222970">
        <ele>48.7</ele>
        <time>2021-08-29T09:29:04Z</time>
      </trkpt>
      <trkpt lat="43.3529070" lon="-8.4222360">
        <ele>49.7</ele>
        <time>2021-08-29T09:29:12Z</time>
      </trkpt>
      <trkpt lat="43.3529820" lon="-8.4222200">
        <ele>50.2</ele>
        <time>2021-08-29T09:29:15Z</time>
      </trkpt>
      <trkpt lat="43.3530770" lon="-8.4221930">
        <ele>50.8</ele>
        <time>2021-08-29T09:29:19Z</time>
      </trkpt>
      <trkpt lat="43.3531010" lon="-8.4221840">
        <ele>51.0</ele>
        <time>2021-08-29T09:29:20Z</time>
      </trkpt>
      <trkpt lat="43.3533040" lon="-8.4221510">
        <ele>52.4</ele>
        <time>2021-08-29T09:29:30Z</time>
      </trkpt>
      <trkpt lat="43.3534260" lon="-8.4221120">
        <ele>53.3</ele>
        <time>2021-08-29T09:29:36Z</time>
      </trkpt>
      <trkpt lat="43.3536160" lon="-8.4220510">
        <ele>54.7</ele>
        <time>2021-08-29T09:29:45Z</time>
      </trkpt>
      <trkpt lat="43.3538170" lon="-8.4219750">
        <ele>55.9</ele>
        <time>2021-08-29T09:29:53Z</time>
      </trkpt>
      <trkpt lat="43.3538670" lon="-8.4219610">
        <ele>56.2</ele>
        <time>2021-08-29T09:29:55Z</time>
      </trkpt>
      <trkpt lat="43.3539400" lon="-8.4219340">
        <ele>56.7</ele>
        <time>2021-08-29T09:29:58Z</time>
      </trkpt>
      <trkpt lat="43.3540890" lon="-8.4218890">
        <ele>57.6</ele>
        <time>2021-08-29T09:30:04Z</time>
      </trkpt>
      <trkpt lat="43.3542790" lon="-8.4217860">
        <ele>58.8</ele>
        <time>2021-08-29T09:30:13Z</time>
      </trkpt>
      <trkpt lat="43.3543510" lon="-8.4215870">
        <ele>60.4</ele>
        <time>2021-08-29T09:30:20Z</time>
      </trkpt>
      <trkpt lat="43.3543290" lon="-8.4213030">
        <ele>61.0</ele>
        <time>2021-08-29T09:30:28Z</time>
      </trkpt>
      <trkpt lat="43.3542610" lon="-8.4210170">
        <ele>61.5</ele>
        <time>2021-08-29T09:30:36Z</time>
      </trkpt>
      <trkpt lat="43.3542540" lon="-8.4209780">
        <ele>61.6</ele>
        <time>2021-08-29T09:30:37Z</time>
      </trkpt>
      <trkpt lat="43.3542000" lon="-8.4206900">
        <ele>62.1</ele>
        <time>2021-08-29T09:30:45Z</time>
      </trkpt>
      <trkpt lat="43.3541420" lon="-8.4203840">
        <ele>62.7</ele>
        <time>2021-08-29T09:30:52Z</time>
      </trkpt>
      <trkpt lat="43.3541190" lon="-8.4202440">
        <ele>63.0</ele>
        <time>2021-08-29T09:30:55Z</time>
      </trkpt>
      <trkpt lat="43.3540180" lon="-8.4197470">
        <ele>63.9</ele>
        <time>2021-08-29T09:31:06Z</time>
      </trkpt>
      <trkpt lat="43.3539410" lon="-8.4192640">
        <ele>64.3</ele>
        <time>2021-08-29T09:31:16Z</time>
      </trkpt>
      <trkpt lat="43.3538580" lon="-8.4188010">
        <ele>63.9</ele>
        <time>2021-08-29T09:31:25Z</time>
      </trkpt>
      <trkpt lat="43.3538180" lon="-8.4184820">
        <ele>63.3</ele>
        <time>2021-08-29T09:31:31Z</time>
      </trkpt>
      <trkpt lat="43.3537810" lon="-8.4182460">
        <ele>62.7</ele>
        <time>2021-08-29T09:31:35Z</time>
      </trkpt>
      <trkpt lat="43.3537880" lon="-8.4181190">
        <ele>62.2</ele>
        <time>2021-08-29T09:31:37Z</time>
      </trkpt>
      <trkpt lat="43.3538000" lon="-8.4179940">
        <ele>61.8</ele>
        <time>2021-08-29T09:31:39Z</time>
      </trkpt>
      <trkpt lat="43.3538420" lon="-8.4177550">
        <ele>61.1</ele>
        <time>2021-08-29T09:31:42Z</time>
      </trkpt>
      <trkpt lat="43.3539820" lon="-8.4173140">
        <ele>59.8</ele>
        <time>2021-08-29T09:31:48Z</time>
      </trkpt>
      <trkpt lat="43.3539960" lon="-8.4172440">
        <ele>59.7</ele>
        <time>2021-08-29T09:31:49Z</time>
      </trkpt>
      <trkpt lat="43.3539970" lon="-8.4171140">
        <ele>59.7</ele>
        <time>2021-08-29T09:31:51Z</time>
      </trkpt>
      <trkpt lat="43.3539840" lon="-8.4170620">
        <ele>59.5</ele>
        <time>2021-08-29T09:31:52Z</time>
      </trkpt>
      <trkpt lat="43.3539280" lon="-8.4169490">
        <ele>59.2</ele>
        <time>2021-08-29T09:31:56Z</time>
      </trkpt>
      <trkpt lat="43.3539490" lon="-8.4168800">
        <ele>59.0</ele>
        <time>2021-08-29T09:31:58Z</time>
      </trkpt>
      <trkpt lat="43.3539850" lon="-8.4168000">
        <ele>58.7</ele>
        <time>2021-08-29T09:32:00Z</time>
      </trkpt>
      <trkpt lat="43.3540000" lon="-8.4167670">
        <ele>58.6</ele>
        <time>2021-08-29T09:32:01Z</time>
      </trkpt>
      <trkpt lat="43.3540610" lon="-8.4166070">
        <ele>58.2</ele>
        <time>2021-08-29T09:32:06Z</time>
      </trkpt>
      <trkpt lat="43.3541930" lon="-8.4164600">
        <ele>57.5</ele>
        <time>2021-08-29T09:32:12Z</time>
      </trkpt>
      <trkpt lat="43.3542980" lon="-8.4162960">
        <ele>56.9</ele>
        <time>2021-08-29T09:32:17Z</time>
      </trkpt>
      <trkpt lat="43.3543160" lon="-8.4162710">
        <ele>56.8</ele>
        <time>2021-08-29T09:32:19Z</time>
      </trkpt>
      <trkpt lat="43.3543220" lon="-8.4162710">
        <ele>56.8</ele>
        <time>2021-08-29T09:32:24Z</time>
      </trkpt>
      <trkpt lat="43.3543320" lon="-8.4162520">
        <ele>56.7</ele>
        <time>2021-08-29T09:32:26Z</time>
      </trkpt>
      <trkpt lat="43.3543410" lon="-8.4162430">
        <ele>56.7</ele>
        <time>2021-08-29T09:32:32Z</time>
      </trkpt>
      <trkpt lat="43.3543410" lon="-8.4162430">
        <ele>56.7</ele>
        <time>2021-08-29T09:32:37Z</time>
      </trkpt>
      <trkpt lat="43.3543410" lon="-8.4162430">
        <ele>56.7</ele>
        <time>2021-08-29T09:32:41Z</time>
      </trkpt>
      <trkpt lat="43.3543410" lon="-8.4162430">
        <ele>56.7</ele>
        <time>2021-08-29T09:32:43Z</time>
      </trkpt>
      <trkpt lat="43.3543400" lon="-8.4162440">
        <ele>56.7</ele>
        <time>2021-08-29T09:32:59Z</time>
      </trkpt>
      <trkpt lat="43.3543350" lon="-8.4162500">
        <ele>56.7</ele>
        <time>2021-08-29T09:33:05Z</time>
      </trkpt>
      <trkpt lat="43.3543350" lon="-8.4162500">
        <ele>56.7</ele>
        <time>2021-08-29T09:33:08Z</time>
      </trkpt>
      <trkpt lat="43.3543350" lon="-8.4162500">
        <ele>56.7</ele>
        <time>2021-08-29T09:33:10Z</time>
      </trkpt>
      <trkpt lat="43.3543350" lon="-8.4162500">
        <ele>56.7</ele>
        <time>2021-08-29T09:33:15Z</time>
      </trkpt>
      <trkpt lat="43.3543350" lon="-8.4162500">
        <ele>56.7</ele>
        <time>2021-08-29T09:33:22Z</time>
      </trkpt>
      <trkpt lat="43.3543350" lon="-8.4162500">
        <ele>56.7</ele>
        <time>2021-08-29T09:33:25Z</time>
      </trkpt>
      <trkpt lat="43.3543350" lon="-8.4162500">
        <ele>56.7</ele>
        <time>2021-08-29T09:33:27Z</time>
      </trkpt>
      <trkpt lat="43.3543350" lon="-8.4162500">
        <ele>56.7</ele>
        <time>2021-08-29T09:33:39Z</time>
      </trkpt>
      <trkpt lat="43.3543340" lon="-8.4162520">
        <ele>56.7</ele>
        <time>2021-08-29T09:33:55Z</time>
      </trkpt>
      <trkpt lat="43.3543280" lon="-8.4162560">
        <ele>56.8</ele>
        <time>2021-08-29T09:33:59Z</time>
      </trkpt>
      <trkpt lat="43.3543170" lon="-8.4162680">
        <ele>56.8</ele>
        <time>2021-08-29T09:34:29Z</time>
      </trkpt>
      <trkpt lat="43.3543200" lon="-8.4162670">
        <ele>56.8</ele>
        <time>2021-08-29T09:34:32Z</time>
      </trkpt>
      <trkpt lat="43.3543300" lon="-8.4162670">
        <ele>56.7</ele>
        <time>2021-08-29T09:34:45Z</time>
      </trkpt>
      <trkpt lat="43.3543300" lon="-8.4162650">
        <ele>56.7</ele>
        <time>2021-08-29T09:34:53Z</time>
      </trkpt>
      <trkpt lat="43.3543280" lon="-8.4162640">
        <ele>56.8</ele>
        <time>2021-08-29T09:34:56Z</time>
      </trkpt>
      <trkpt lat="43.3542940" lon="-8.4162070">
        <ele>56.8</ele>
        <time>2021-08-29T09:34:59Z</time>
      </trkpt>
      <trkpt lat="43.3542880" lon="-8.4161760">
        <ele>56.8</ele>
        <time>2021-08-29T09:35:00Z</time>
      </trkpt>
      <trkpt lat="43.3543080" lon="-8.4160720">
        <ele>56.6</ele>
        <time>2021-08-29T09:35:03Z</time>
      </trkpt>
      <trkpt lat="43.3543030" lon="-8.4157810">
        <ele>56.6</ele>
        <time>2021-08-29T09:35:09Z</time>
      </trkpt>
      <trkpt lat="43.3542920" lon="-8.4157270">
        <ele>56.7</ele>
        <time>2021-08-29T09:35:10Z</time>
      </trkpt>
      <trkpt lat="43.3542600" lon="-8.4156250">
        <ele>56.9</ele>
        <time>2021-08-29T09:35:12Z</time>
      </trkpt>
      <trkpt lat="43.3542360" lon="-8.4155940">
        <ele>57.1</ele>
        <time>2021-08-29T09:35:13Z</time>
      </trkpt>
      <trkpt lat="43.3541730" lon="-8.4155380">
        <ele>57.3</ele>
        <time>2021-08-29T09:35:17Z</time>
      </trkpt>
      <trkpt lat="43.3541760" lon="-8.4154740">
        <ele>57.5</ele>
        <time>2021-08-29T09:35:19Z</time>
      </trkpt>
      <trkpt lat="43.3542060" lon="-8.4154440">
        <ele>57.5</ele>
        <time>2021-08-29T09:35:20Z</time>
      </trkpt>
      <trkpt lat="43.3542200" lon="-8.4154260">
        <ele>57.6</ele>
        <time>2021-08-29T09:35:22Z</time>
      </trkpt>
      <trkpt lat="43.3542560" lon="-8.4153900">
        <ele>57.7</ele>
        <time>2021-08-29T09:35:24Z</time>
      </trkpt>
      <trkpt lat="43.3543690" lon="-8.4152940">
        <ele>57.7</ele>
        <time>2021-08-29T09:35:28Z</time>
      </trkpt>
      <trkpt lat="43.3543790" lon="-8.4151870">
        <ele>58.0</ele>
        <time>2021-08-29T09:35:30Z</time>
      </trkpt>
      <trkpt lat="43.3543590" lon="-8.4151310">
        <ele>58.4</ele>
        <time>2021-08-29T09:35:31Z</time>
      </trkpt>
      <trkpt lat="43.3542670" lon="-8.4148660">
        <ele>59.7</ele>
        <time>2021-08-29T09:35:37Z</time>
      </trkpt>
      <trkpt lat="43.3542250" lon="-8.4147710">
        <ele>60.2</ele>
        <time>2021-08-29T09:35:40Z</time>
      </trkpt>
      <trkpt lat="43.3542440" lon="-8.4147410">
        <ele>60.3</ele>
        <time>2021-08-29T09:35:41Z</time>
      </trkpt>
      <trkpt lat="43.3543570" lon="-8.4147020">
        <ele>60.2</ele>
        <time>2021-08-29T09:35:44Z</time>
      </trkpt>
      <trkpt lat="43.3544280" lon="-8.4147090">
        <ele>59.8</ele>
        <time>2021-08-29T09:35:48Z</time>
      </trkpt>
      <trkpt lat="43.3544530" lon="-8.4147170">
        <ele>59.6</ele>
        <time>2021-08-29T09:35:49Z</time>
      </trkpt>
      <trkpt lat="43.3544590" lon="-8.4147250">
        <ele>59.5</ele>
        <time>2021-08-29T09:35:51Z</time>
      </trkpt>
    </trkseg>
  </trk>
</gpx>
